<?xml version="1.0" encoding="UTF-8" standalone="no" ?>
<gpx xmlns="http://www.topografix.com/GPX/1/1" xmlns:xsi="http://www.w3.org/2001/XMLSchema-instance" xsi:schemaLocation="http://www.topografix.com/GPX/1/1 http://www.topografix.com/GPX/1/1/gpx.xsd" version="1.1" creator="VisuGPX - https://www.visugpx.com">
  <metadata>
    <name>Feuilles mortes</name>
    <desc><![CDATA[Sortie ASCVTT du 11 mai 2013 du côté de Luceram. Superbes descentes et montées faciles]]></desc>
  </metadata>
  <trk>
    <name><![CDATA[Feuilles mortes]]></name>
    <trkseg>
      <trkpt lat="43.88604" lon="7.35974">
        <ele>671</ele>
        <time>2013-05-11T07:30:11Z</time>
      </trkpt>
      <trkpt lat="43.88625" lon="7.35949">
        <ele>666</ele>
        <time>2013-05-11T07:30:23Z</time>
      </trkpt>
      <trkpt lat="43.88634" lon="7.35939">
        <ele>665</ele>
        <time>2013-05-11T07:30:28Z</time>
      </trkpt>
      <trkpt lat="43.88645" lon="7.35934">
        <ele>665</ele>
        <time>2013-05-11T07:30:33Z</time>
      </trkpt>
      <trkpt lat="43.88655" lon="7.35927">
        <ele>665</ele>
        <time>2013-05-11T07:30:38Z</time>
      </trkpt>
      <trkpt lat="43.88663" lon="7.35916">
        <ele>665</ele>
        <time>2013-05-11T07:30:43Z</time>
      </trkpt>
      <trkpt lat="43.8867" lon="7.35904">
        <ele>665</ele>
        <time>2013-05-11T07:30:48Z</time>
      </trkpt>
      <trkpt lat="43.88678" lon="7.35891">
        <ele>665</ele>
        <time>2013-05-11T07:30:54Z</time>
      </trkpt>
      <trkpt lat="43.88686" lon="7.35884">
        <ele>665</ele>
        <time>2013-05-11T07:30:59Z</time>
      </trkpt>
      <trkpt lat="43.88696" lon="7.35879">
        <ele>665</ele>
        <time>2013-05-11T07:31:04Z</time>
      </trkpt>
      <trkpt lat="43.88705" lon="7.35874">
        <ele>665</ele>
        <time>2013-05-11T07:31:09Z</time>
      </trkpt>
      <trkpt lat="43.88717" lon="7.35867">
        <ele>666</ele>
        <time>2013-05-11T07:31:15Z</time>
      </trkpt>
      <trkpt lat="43.88727" lon="7.35861">
        <ele>668</ele>
        <time>2013-05-11T07:31:20Z</time>
      </trkpt>
      <trkpt lat="43.88737" lon="7.35855">
        <ele>668</ele>
        <time>2013-05-11T07:31:25Z</time>
      </trkpt>
      <trkpt lat="43.88737" lon="7.35867">
        <ele>669</ele>
        <time>2013-05-11T07:31:31Z</time>
      </trkpt>
      <trkpt lat="43.88726" lon="7.35873">
        <ele>671</ele>
        <time>2013-05-11T07:31:36Z</time>
      </trkpt>
      <trkpt lat="43.88715" lon="7.35881">
        <ele>671</ele>
        <time>2013-05-11T07:31:41Z</time>
      </trkpt>
      <trkpt lat="43.88702" lon="7.35893">
        <ele>671</ele>
        <time>2013-05-11T07:31:47Z</time>
      </trkpt>
      <trkpt lat="43.88693" lon="7.35904">
        <ele>672</ele>
        <time>2013-05-11T07:31:52Z</time>
      </trkpt>
      <trkpt lat="43.88683" lon="7.35915">
        <ele>672</ele>
        <time>2013-05-11T07:31:57Z</time>
      </trkpt>
      <trkpt lat="43.88672" lon="7.35928">
        <ele>673</ele>
        <time>2013-05-11T07:32:03Z</time>
      </trkpt>
      <trkpt lat="43.88662" lon="7.35939">
        <ele>675</ele>
        <time>2013-05-11T07:32:08Z</time>
      </trkpt>
      <trkpt lat="43.88652" lon="7.35951">
        <ele>679</ele>
        <time>2013-05-11T07:32:13Z</time>
      </trkpt>
      <trkpt lat="43.88644" lon="7.35966">
        <ele>685</ele>
        <time>2013-05-11T07:32:19Z</time>
      </trkpt>
      <trkpt lat="43.88637" lon="7.35983">
        <ele>687</ele>
        <time>2013-05-11T07:32:24Z</time>
      </trkpt>
      <trkpt lat="43.88631" lon="7.35998">
        <ele>687</ele>
        <time>2013-05-11T07:32:29Z</time>
      </trkpt>
      <trkpt lat="43.88639" lon="7.36005">
        <ele>687</ele>
        <time>2013-05-11T07:32:35Z</time>
      </trkpt>
      <trkpt lat="43.88647" lon="7.35991">
        <ele>687</ele>
        <time>2013-05-11T07:32:40Z</time>
      </trkpt>
      <trkpt lat="43.88657" lon="7.35979">
        <ele>687</ele>
        <time>2013-05-11T07:32:45Z</time>
      </trkpt>
      <trkpt lat="43.8867" lon="7.35967">
        <ele>687</ele>
        <time>2013-05-11T07:32:51Z</time>
      </trkpt>
      <trkpt lat="43.8868" lon="7.35958">
        <ele>687</ele>
        <time>2013-05-11T07:32:56Z</time>
      </trkpt>
      <trkpt lat="43.88691" lon="7.35949">
        <ele>687</ele>
        <time>2013-05-11T07:33:01Z</time>
      </trkpt>
      <trkpt lat="43.88702" lon="7.35939">
        <ele>687</ele>
        <time>2013-05-11T07:33:06Z</time>
      </trkpt>
      <trkpt lat="43.88713" lon="7.3593">
        <ele>687</ele>
        <time>2013-05-11T07:33:11Z</time>
      </trkpt>
      <trkpt lat="43.88724" lon="7.35924">
        <ele>687</ele>
        <time>2013-05-11T07:33:16Z</time>
      </trkpt>
      <trkpt lat="43.88736" lon="7.35918">
        <ele>687</ele>
        <time>2013-05-11T07:33:21Z</time>
      </trkpt>
      <trkpt lat="43.88747" lon="7.35913">
        <ele>687</ele>
        <time>2013-05-11T07:33:26Z</time>
      </trkpt>
      <trkpt lat="43.88759" lon="7.35909">
        <ele>687</ele>
        <time>2013-05-11T07:33:31Z</time>
      </trkpt>
      <trkpt lat="43.88771" lon="7.35908">
        <ele>687</ele>
        <time>2013-05-11T07:33:36Z</time>
      </trkpt>
      <trkpt lat="43.88782" lon="7.35907">
        <ele>688</ele>
        <time>2013-05-11T07:33:41Z</time>
      </trkpt>
      <trkpt lat="43.88794" lon="7.35908">
        <ele>688</ele>
        <time>2013-05-11T07:33:46Z</time>
      </trkpt>
      <trkpt lat="43.88805" lon="7.35911">
        <ele>689</ele>
        <time>2013-05-11T07:33:51Z</time>
      </trkpt>
      <trkpt lat="43.88816" lon="7.35916">
        <ele>690</ele>
        <time>2013-05-11T07:33:56Z</time>
      </trkpt>
      <trkpt lat="43.88828" lon="7.3592">
        <ele>691</ele>
        <time>2013-05-11T07:34:01Z</time>
      </trkpt>
      <trkpt lat="43.88842" lon="7.35916">
        <ele>692</ele>
        <time>2013-05-11T07:34:07Z</time>
      </trkpt>
      <trkpt lat="43.88852" lon="7.3591">
        <ele>693</ele>
        <time>2013-05-11T07:34:12Z</time>
      </trkpt>
      <trkpt lat="43.88862" lon="7.35904">
        <ele>694</ele>
        <time>2013-05-11T07:34:17Z</time>
      </trkpt>
      <trkpt lat="43.88873" lon="7.359">
        <ele>695</ele>
        <time>2013-05-11T07:34:22Z</time>
      </trkpt>
      <trkpt lat="43.88884" lon="7.35895">
        <ele>696</ele>
        <time>2013-05-11T07:34:27Z</time>
      </trkpt>
      <trkpt lat="43.88895" lon="7.35891">
        <ele>697</ele>
        <time>2013-05-11T07:34:32Z</time>
      </trkpt>
      <trkpt lat="43.88906" lon="7.35887">
        <ele>698</ele>
        <time>2013-05-11T07:34:37Z</time>
      </trkpt>
      <trkpt lat="43.88918" lon="7.35883">
        <ele>699</ele>
        <time>2013-05-11T07:34:42Z</time>
      </trkpt>
      <trkpt lat="43.88929" lon="7.3588">
        <ele>700</ele>
        <time>2013-05-11T07:34:47Z</time>
      </trkpt>
      <trkpt lat="43.8894" lon="7.35876">
        <ele>701</ele>
        <time>2013-05-11T07:34:52Z</time>
      </trkpt>
      <trkpt lat="43.88951" lon="7.35873">
        <ele>702</ele>
        <time>2013-05-11T07:34:57Z</time>
      </trkpt>
      <trkpt lat="43.88962" lon="7.3587">
        <ele>703</ele>
        <time>2013-05-11T07:35:02Z</time>
      </trkpt>
      <trkpt lat="43.88972" lon="7.35869">
        <ele>703</ele>
        <time>2013-05-11T07:35:07Z</time>
      </trkpt>
      <trkpt lat="43.88984" lon="7.35867">
        <ele>704</ele>
        <time>2013-05-11T07:35:12Z</time>
      </trkpt>
      <trkpt lat="43.88996" lon="7.35864">
        <ele>706</ele>
        <time>2013-05-11T07:35:17Z</time>
      </trkpt>
      <trkpt lat="43.89008" lon="7.35859">
        <ele>706</ele>
        <time>2013-05-11T07:35:22Z</time>
      </trkpt>
      <trkpt lat="43.89022" lon="7.35853">
        <ele>707</ele>
        <time>2013-05-11T07:35:28Z</time>
      </trkpt>
      <trkpt lat="43.89033" lon="7.3585">
        <ele>708</ele>
        <time>2013-05-11T07:35:33Z</time>
      </trkpt>
      <trkpt lat="43.89043" lon="7.35848">
        <ele>710</ele>
        <time>2013-05-11T07:35:38Z</time>
      </trkpt>
      <trkpt lat="43.89057" lon="7.35845">
        <ele>711</ele>
        <time>2013-05-11T07:35:44Z</time>
      </trkpt>
      <trkpt lat="43.89068" lon="7.3584">
        <ele>712</ele>
        <time>2013-05-11T07:35:49Z</time>
      </trkpt>
      <trkpt lat="43.89078" lon="7.35833">
        <ele>713</ele>
        <time>2013-05-11T07:35:54Z</time>
      </trkpt>
      <trkpt lat="43.8909" lon="7.35822">
        <ele>714</ele>
        <time>2013-05-11T07:36:00Z</time>
      </trkpt>
      <trkpt lat="43.891" lon="7.35813">
        <ele>716</ele>
        <time>2013-05-11T07:36:05Z</time>
      </trkpt>
      <trkpt lat="43.89109" lon="7.35803">
        <ele>718</ele>
        <time>2013-05-11T07:36:10Z</time>
      </trkpt>
      <trkpt lat="43.89117" lon="7.35792">
        <ele>720</ele>
        <time>2013-05-11T07:36:15Z</time>
      </trkpt>
      <trkpt lat="43.89123" lon="7.35778">
        <ele>721</ele>
        <time>2013-05-11T07:36:20Z</time>
      </trkpt>
      <trkpt lat="43.89133" lon="7.35773">
        <ele>722</ele>
        <time>2013-05-11T07:36:25Z</time>
      </trkpt>
      <trkpt lat="43.8913" lon="7.35788">
        <ele>722</ele>
        <time>2013-05-11T07:36:30Z</time>
      </trkpt>
      <trkpt lat="43.89122" lon="7.35802">
        <ele>723</ele>
        <time>2013-05-11T07:36:35Z</time>
      </trkpt>
      <trkpt lat="43.89114" lon="7.35815">
        <ele>723</ele>
        <time>2013-05-11T07:36:40Z</time>
      </trkpt>
      <trkpt lat="43.89106" lon="7.35829">
        <ele>724</ele>
        <time>2013-05-11T07:36:45Z</time>
      </trkpt>
      <trkpt lat="43.89097" lon="7.3584">
        <ele>724</ele>
        <time>2013-05-11T07:36:50Z</time>
      </trkpt>
      <trkpt lat="43.89088" lon="7.35852">
        <ele>726</ele>
        <time>2013-05-11T07:36:55Z</time>
      </trkpt>
      <trkpt lat="43.89083" lon="7.35869">
        <ele>727</ele>
        <time>2013-05-11T07:37:00Z</time>
      </trkpt>
      <trkpt lat="43.89079" lon="7.35886">
        <ele>729</ele>
        <time>2013-05-11T07:37:05Z</time>
      </trkpt>
      <trkpt lat="43.89077" lon="7.35901">
        <ele>730</ele>
        <time>2013-05-11T07:37:10Z</time>
      </trkpt>
      <trkpt lat="43.8908" lon="7.35916">
        <ele>731</ele>
        <time>2013-05-11T07:37:15Z</time>
      </trkpt>
      <trkpt lat="43.89084" lon="7.35932">
        <ele>732</ele>
        <time>2013-05-11T07:37:20Z</time>
      </trkpt>
      <trkpt lat="43.89083" lon="7.3595">
        <ele>733</ele>
        <time>2013-05-11T07:37:25Z</time>
      </trkpt>
      <trkpt lat="43.89084" lon="7.35966">
        <ele>733</ele>
        <time>2013-05-11T07:37:30Z</time>
      </trkpt>
      <trkpt lat="43.89091" lon="7.35959">
        <ele>734</ele>
        <time>2013-05-11T07:37:35Z</time>
      </trkpt>
      <trkpt lat="43.89092" lon="7.3594">
        <ele>734</ele>
        <time>2013-05-11T07:37:40Z</time>
      </trkpt>
      <trkpt lat="43.89096" lon="7.3592">
        <ele>734</ele>
        <time>2013-05-11T07:37:45Z</time>
      </trkpt>
      <trkpt lat="43.89104" lon="7.35903">
        <ele>734</ele>
        <time>2013-05-11T07:37:50Z</time>
      </trkpt>
      <trkpt lat="43.89116" lon="7.35887">
        <ele>735</ele>
        <time>2013-05-11T07:37:55Z</time>
      </trkpt>
      <trkpt lat="43.89127" lon="7.35875">
        <ele>736</ele>
        <time>2013-05-11T07:38:01Z</time>
      </trkpt>
      <trkpt lat="43.89137" lon="7.35862">
        <ele>738</ele>
        <time>2013-05-11T07:38:06Z</time>
      </trkpt>
      <trkpt lat="43.89148" lon="7.3585">
        <ele>739</ele>
        <time>2013-05-11T07:38:11Z</time>
      </trkpt>
      <trkpt lat="43.89159" lon="7.35839">
        <ele>741</ele>
        <time>2013-05-11T07:38:16Z</time>
      </trkpt>
      <trkpt lat="43.89167" lon="7.35827">
        <ele>742</ele>
        <time>2013-05-11T07:38:21Z</time>
      </trkpt>
      <trkpt lat="43.89179" lon="7.35819">
        <ele>745</ele>
        <time>2013-05-11T07:38:26Z</time>
      </trkpt>
      <trkpt lat="43.8919" lon="7.35807">
        <ele>747</ele>
        <time>2013-05-11T07:38:32Z</time>
      </trkpt>
      <trkpt lat="43.89199" lon="7.35803">
        <ele>748</ele>
        <time>2013-05-11T07:38:37Z</time>
      </trkpt>
      <trkpt lat="43.89212" lon="7.35797">
        <ele>749</ele>
        <time>2013-05-11T07:38:42Z</time>
      </trkpt>
      <trkpt lat="43.89223" lon="7.35789">
        <ele>751</ele>
        <time>2013-05-11T07:38:47Z</time>
      </trkpt>
      <trkpt lat="43.89235" lon="7.35781">
        <ele>753</ele>
        <time>2013-05-11T07:38:52Z</time>
      </trkpt>
      <trkpt lat="43.89246" lon="7.35773">
        <ele>755</ele>
        <time>2013-05-11T07:38:57Z</time>
      </trkpt>
      <trkpt lat="43.89257" lon="7.35763">
        <ele>756</ele>
        <time>2013-05-11T07:39:02Z</time>
      </trkpt>
      <trkpt lat="43.89268" lon="7.35754">
        <ele>758</ele>
        <time>2013-05-11T07:39:07Z</time>
      </trkpt>
      <trkpt lat="43.89278" lon="7.35745">
        <ele>759</ele>
        <time>2013-05-11T07:39:12Z</time>
      </trkpt>
      <trkpt lat="43.89288" lon="7.35736">
        <ele>760</ele>
        <time>2013-05-11T07:39:17Z</time>
      </trkpt>
      <trkpt lat="43.89298" lon="7.35725">
        <ele>762</ele>
        <time>2013-05-11T07:39:22Z</time>
      </trkpt>
      <trkpt lat="43.89307" lon="7.35714">
        <ele>762</ele>
        <time>2013-05-11T07:39:27Z</time>
      </trkpt>
      <trkpt lat="43.89315" lon="7.35701">
        <ele>763</ele>
        <time>2013-05-11T07:39:32Z</time>
      </trkpt>
      <trkpt lat="43.89322" lon="7.35686">
        <ele>763</ele>
        <time>2013-05-11T07:39:37Z</time>
      </trkpt>
      <trkpt lat="43.89327" lon="7.35669">
        <ele>764</ele>
        <time>2013-05-11T07:39:42Z</time>
      </trkpt>
      <trkpt lat="43.89329" lon="7.35651">
        <ele>764</ele>
        <time>2013-05-11T07:39:47Z</time>
      </trkpt>
      <trkpt lat="43.89333" lon="7.35635">
        <ele>764</ele>
        <time>2013-05-11T07:39:52Z</time>
      </trkpt>
      <trkpt lat="43.89343" lon="7.35637">
        <ele>764</ele>
        <time>2013-05-11T07:39:58Z</time>
      </trkpt>
      <trkpt lat="43.89343" lon="7.35653">
        <ele>764</ele>
        <time>2013-05-11T07:40:03Z</time>
      </trkpt>
      <trkpt lat="43.89339" lon="7.35668">
        <ele>764</ele>
        <time>2013-05-11T07:40:08Z</time>
      </trkpt>
      <trkpt lat="43.89335" lon="7.35684">
        <ele>765</ele>
        <time>2013-05-11T07:40:13Z</time>
      </trkpt>
      <trkpt lat="43.89329" lon="7.35698">
        <ele>766</ele>
        <time>2013-05-11T07:40:18Z</time>
      </trkpt>
      <trkpt lat="43.89321" lon="7.35711">
        <ele>766</ele>
        <time>2013-05-11T07:40:23Z</time>
      </trkpt>
      <trkpt lat="43.89312" lon="7.35726">
        <ele>770</ele>
        <time>2013-05-11T07:40:28Z</time>
      </trkpt>
      <trkpt lat="43.89304" lon="7.3574">
        <ele>772</ele>
        <time>2013-05-11T07:40:33Z</time>
      </trkpt>
      <trkpt lat="43.89295" lon="7.35752">
        <ele>773</ele>
        <time>2013-05-11T07:40:38Z</time>
      </trkpt>
      <trkpt lat="43.89285" lon="7.35764">
        <ele>773</ele>
        <time>2013-05-11T07:40:43Z</time>
      </trkpt>
      <trkpt lat="43.89275" lon="7.35775">
        <ele>774</ele>
        <time>2013-05-11T07:40:48Z</time>
      </trkpt>
      <trkpt lat="43.89266" lon="7.35787">
        <ele>774</ele>
        <time>2013-05-11T07:40:53Z</time>
      </trkpt>
      <trkpt lat="43.89265" lon="7.35802">
        <ele>775</ele>
        <time>2013-05-11T07:40:58Z</time>
      </trkpt>
      <trkpt lat="43.89276" lon="7.358">
        <ele>775</ele>
        <time>2013-05-11T07:41:03Z</time>
      </trkpt>
      <trkpt lat="43.89284" lon="7.35785">
        <ele>775</ele>
        <time>2013-05-11T07:41:08Z</time>
      </trkpt>
      <trkpt lat="43.89291" lon="7.3577">
        <ele>775</ele>
        <time>2013-05-11T07:41:13Z</time>
      </trkpt>
      <trkpt lat="43.89302" lon="7.35757">
        <ele>776</ele>
        <time>2013-05-11T07:41:18Z</time>
      </trkpt>
      <trkpt lat="43.89312" lon="7.35745">
        <ele>778</ele>
        <time>2013-05-11T07:41:23Z</time>
      </trkpt>
      <trkpt lat="43.89322" lon="7.35732">
        <ele>780</ele>
        <time>2013-05-11T07:41:28Z</time>
      </trkpt>
      <trkpt lat="43.89333" lon="7.35721">
        <ele>781</ele>
        <time>2013-05-11T07:41:33Z</time>
      </trkpt>
      <trkpt lat="43.89344" lon="7.3571">
        <ele>782</ele>
        <time>2013-05-11T07:41:38Z</time>
      </trkpt>
      <trkpt lat="43.89354" lon="7.35699">
        <ele>784</ele>
        <time>2013-05-11T07:41:43Z</time>
      </trkpt>
      <trkpt lat="43.89365" lon="7.35688">
        <ele>785</ele>
        <time>2013-05-11T07:41:48Z</time>
      </trkpt>
      <trkpt lat="43.89376" lon="7.35678">
        <ele>786</ele>
        <time>2013-05-11T07:41:53Z</time>
      </trkpt>
      <trkpt lat="43.89387" lon="7.35668">
        <ele>786</ele>
        <time>2013-05-11T07:41:58Z</time>
      </trkpt>
      <trkpt lat="43.89398" lon="7.35673">
        <ele>787</ele>
        <time>2013-05-11T07:42:03Z</time>
      </trkpt>
      <trkpt lat="43.89391" lon="7.35688">
        <ele>787</ele>
        <time>2013-05-11T07:42:08Z</time>
      </trkpt>
      <trkpt lat="43.89376" lon="7.35695">
        <ele>787</ele>
        <time>2013-05-11T07:42:13Z</time>
      </trkpt>
      <trkpt lat="43.89362" lon="7.35709">
        <ele>787</ele>
        <time>2013-05-11T07:42:18Z</time>
      </trkpt>
      <trkpt lat="43.8935" lon="7.35723">
        <ele>788</ele>
        <time>2013-05-11T07:42:24Z</time>
      </trkpt>
      <trkpt lat="43.89341" lon="7.35737">
        <ele>789</ele>
        <time>2013-05-11T07:42:29Z</time>
      </trkpt>
      <trkpt lat="43.89333" lon="7.3575">
        <ele>789</ele>
        <time>2013-05-11T07:42:34Z</time>
      </trkpt>
      <trkpt lat="43.89326" lon="7.35764">
        <ele>790</ele>
        <time>2013-05-11T07:42:39Z</time>
      </trkpt>
      <trkpt lat="43.89318" lon="7.35778">
        <ele>790</ele>
        <time>2013-05-11T07:42:44Z</time>
      </trkpt>
      <trkpt lat="43.8931" lon="7.35794">
        <ele>791</ele>
        <time>2013-05-11T07:42:50Z</time>
      </trkpt>
      <trkpt lat="43.89302" lon="7.35809">
        <ele>791</ele>
        <time>2013-05-11T07:42:55Z</time>
      </trkpt>
      <trkpt lat="43.89294" lon="7.35821">
        <ele>792</ele>
        <time>2013-05-11T07:43:00Z</time>
      </trkpt>
      <trkpt lat="43.89285" lon="7.35834">
        <ele>792</ele>
        <time>2013-05-11T07:43:05Z</time>
      </trkpt>
      <trkpt lat="43.89276" lon="7.35848">
        <ele>793</ele>
        <time>2013-05-11T07:43:10Z</time>
      </trkpt>
      <trkpt lat="43.89268" lon="7.3586">
        <ele>795</ele>
        <time>2013-05-11T07:43:15Z</time>
      </trkpt>
      <trkpt lat="43.89264" lon="7.3587">
        <ele>797</ele>
        <time>2013-05-11T07:43:20Z</time>
      </trkpt>
      <trkpt lat="43.89261" lon="7.35877">
        <ele>798</ele>
        <time>2013-05-11T07:43:26Z</time>
      </trkpt>
      <trkpt lat="43.89257" lon="7.35879">
        <ele>800</ele>
        <time>2013-05-11T07:43:32Z</time>
      </trkpt>
      <trkpt lat="43.89251" lon="7.35888">
        <ele>803</ele>
        <time>2013-05-11T07:43:37Z</time>
      </trkpt>
      <trkpt lat="43.89242" lon="7.35902">
        <ele>804</ele>
        <time>2013-05-11T07:43:42Z</time>
      </trkpt>
      <trkpt lat="43.89232" lon="7.35916">
        <ele>804</ele>
        <time>2013-05-11T07:43:47Z</time>
      </trkpt>
      <trkpt lat="43.89224" lon="7.35929">
        <ele>804</ele>
        <time>2013-05-11T07:43:52Z</time>
      </trkpt>
      <trkpt lat="43.89216" lon="7.35943">
        <ele>805</ele>
        <time>2013-05-11T07:43:57Z</time>
      </trkpt>
      <trkpt lat="43.89207" lon="7.35957">
        <ele>806</ele>
        <time>2013-05-11T07:44:02Z</time>
      </trkpt>
      <trkpt lat="43.89199" lon="7.35972">
        <ele>807</ele>
        <time>2013-05-11T07:44:07Z</time>
      </trkpt>
      <trkpt lat="43.89194" lon="7.35988">
        <ele>808</ele>
        <time>2013-05-11T07:44:12Z</time>
      </trkpt>
      <trkpt lat="43.89192" lon="7.36006">
        <ele>810</ele>
        <time>2013-05-11T07:44:17Z</time>
      </trkpt>
      <trkpt lat="43.89193" lon="7.36026">
        <ele>811</ele>
        <time>2013-05-11T07:44:22Z</time>
      </trkpt>
      <trkpt lat="43.89195" lon="7.36043">
        <ele>812</ele>
        <time>2013-05-11T07:44:27Z</time>
      </trkpt>
      <trkpt lat="43.89198" lon="7.36061">
        <ele>813</ele>
        <time>2013-05-11T07:44:32Z</time>
      </trkpt>
      <trkpt lat="43.89201" lon="7.36079">
        <ele>815</ele>
        <time>2013-05-11T07:44:37Z</time>
      </trkpt>
      <trkpt lat="43.89204" lon="7.36096">
        <ele>815</ele>
        <time>2013-05-11T07:44:42Z</time>
      </trkpt>
      <trkpt lat="43.89211" lon="7.36118">
        <ele>816</ele>
        <time>2013-05-11T07:44:48Z</time>
      </trkpt>
      <trkpt lat="43.8922" lon="7.36136">
        <ele>817</ele>
        <time>2013-05-11T07:44:54Z</time>
      </trkpt>
      <trkpt lat="43.89223" lon="7.36123">
        <ele>817</ele>
        <time>2013-05-11T07:44:59Z</time>
      </trkpt>
      <trkpt lat="43.89215" lon="7.36103">
        <ele>817</ele>
        <time>2013-05-11T07:45:04Z</time>
      </trkpt>
      <trkpt lat="43.89209" lon="7.36083">
        <ele>819</ele>
        <time>2013-05-11T07:45:09Z</time>
      </trkpt>
      <trkpt lat="43.89209" lon="7.36062">
        <ele>821</ele>
        <time>2013-05-11T07:45:14Z</time>
      </trkpt>
      <trkpt lat="43.89209" lon="7.36043">
        <ele>821</ele>
        <time>2013-05-11T07:45:19Z</time>
      </trkpt>
      <trkpt lat="43.8921" lon="7.36024">
        <ele>822</ele>
        <time>2013-05-11T07:45:24Z</time>
      </trkpt>
      <trkpt lat="43.89216" lon="7.36003">
        <ele>823</ele>
        <time>2013-05-11T07:45:29Z</time>
      </trkpt>
      <trkpt lat="43.89224" lon="7.35989">
        <ele>824</ele>
        <time>2013-05-11T07:45:35Z</time>
      </trkpt>
      <trkpt lat="43.89235" lon="7.35974">
        <ele>826</ele>
        <time>2013-05-11T07:45:41Z</time>
      </trkpt>
      <trkpt lat="43.89246" lon="7.35962">
        <ele>829</ele>
        <time>2013-05-11T07:45:46Z</time>
      </trkpt>
      <trkpt lat="43.89257" lon="7.35953">
        <ele>830</ele>
        <time>2013-05-11T07:45:51Z</time>
      </trkpt>
      <trkpt lat="43.89267" lon="7.35945">
        <ele>831</ele>
        <time>2013-05-11T07:45:56Z</time>
      </trkpt>
      <trkpt lat="43.89278" lon="7.35938">
        <ele>832</ele>
        <time>2013-05-11T07:46:01Z</time>
      </trkpt>
      <trkpt lat="43.89289" lon="7.35929">
        <ele>833</ele>
        <time>2013-05-11T07:46:06Z</time>
      </trkpt>
      <trkpt lat="43.89301" lon="7.3592">
        <ele>835</ele>
        <time>2013-05-11T07:46:11Z</time>
      </trkpt>
      <trkpt lat="43.89311" lon="7.35911">
        <ele>837</ele>
        <time>2013-05-11T07:46:16Z</time>
      </trkpt>
      <trkpt lat="43.8932" lon="7.35901">
        <ele>838</ele>
        <time>2013-05-11T07:46:21Z</time>
      </trkpt>
      <trkpt lat="43.89331" lon="7.35888">
        <ele>841</ele>
        <time>2013-05-11T07:46:26Z</time>
      </trkpt>
      <trkpt lat="43.8934" lon="7.35874">
        <ele>842</ele>
        <time>2013-05-11T07:46:32Z</time>
      </trkpt>
      <trkpt lat="43.89348" lon="7.35857">
        <ele>843</ele>
        <time>2013-05-11T07:46:37Z</time>
      </trkpt>
      <trkpt lat="43.89357" lon="7.35842">
        <ele>844</ele>
        <time>2013-05-11T07:46:42Z</time>
      </trkpt>
      <trkpt lat="43.89368" lon="7.35829">
        <ele>845</ele>
        <time>2013-05-11T07:46:47Z</time>
      </trkpt>
      <trkpt lat="43.89382" lon="7.35825">
        <ele>845</ele>
        <time>2013-05-11T07:46:52Z</time>
      </trkpt>
      <trkpt lat="43.89395" lon="7.35824">
        <ele>846</ele>
        <time>2013-05-11T07:46:57Z</time>
      </trkpt>
      <trkpt lat="43.89412" lon="7.35824">
        <ele>848</ele>
        <time>2013-05-11T07:47:03Z</time>
      </trkpt>
      <trkpt lat="43.89426" lon="7.35825">
        <ele>850</ele>
        <time>2013-05-11T07:47:08Z</time>
      </trkpt>
      <trkpt lat="43.8944" lon="7.35825">
        <ele>852</ele>
        <time>2013-05-11T07:47:13Z</time>
      </trkpt>
      <trkpt lat="43.89453" lon="7.35826">
        <ele>853</ele>
        <time>2013-05-11T07:47:18Z</time>
      </trkpt>
      <trkpt lat="43.89466" lon="7.35827">
        <ele>854</ele>
        <time>2013-05-11T07:47:23Z</time>
      </trkpt>
      <trkpt lat="43.8948" lon="7.35829">
        <ele>856</ele>
        <time>2013-05-11T07:47:28Z</time>
      </trkpt>
      <trkpt lat="43.89493" lon="7.35831">
        <ele>857</ele>
        <time>2013-05-11T07:47:33Z</time>
      </trkpt>
      <trkpt lat="43.89508" lon="7.35834">
        <ele>859</ele>
        <time>2013-05-11T07:47:39Z</time>
      </trkpt>
      <trkpt lat="43.89521" lon="7.35835">
        <ele>859</ele>
        <time>2013-05-11T07:47:44Z</time>
      </trkpt>
      <trkpt lat="43.89535" lon="7.35836">
        <ele>859</ele>
        <time>2013-05-11T07:47:49Z</time>
      </trkpt>
      <trkpt lat="43.89548" lon="7.35838">
        <ele>859</ele>
        <time>2013-05-11T07:47:54Z</time>
      </trkpt>
      <trkpt lat="43.89563" lon="7.3584">
        <ele>862</ele>
        <time>2013-05-11T07:48:00Z</time>
      </trkpt>
      <trkpt lat="43.89579" lon="7.35842">
        <ele>864</ele>
        <time>2013-05-11T07:48:06Z</time>
      </trkpt>
      <trkpt lat="43.89595" lon="7.3584">
        <ele>865</ele>
        <time>2013-05-11T07:48:11Z</time>
      </trkpt>
      <trkpt lat="43.8961" lon="7.35838">
        <ele>866</ele>
        <time>2013-05-11T07:48:17Z</time>
      </trkpt>
      <trkpt lat="43.89623" lon="7.3584">
        <ele>866</ele>
        <time>2013-05-11T07:48:22Z</time>
      </trkpt>
      <trkpt lat="43.89615" lon="7.35849">
        <ele>867</ele>
        <time>2013-05-11T07:48:27Z</time>
      </trkpt>
      <trkpt lat="43.89597" lon="7.3585">
        <ele>868</ele>
        <time>2013-05-11T07:48:33Z</time>
      </trkpt>
      <trkpt lat="43.8958" lon="7.35854">
        <ele>870</ele>
        <time>2013-05-11T07:48:38Z</time>
      </trkpt>
      <trkpt lat="43.89567" lon="7.35859">
        <ele>871</ele>
        <time>2013-05-11T07:48:44Z</time>
      </trkpt>
      <trkpt lat="43.89554" lon="7.35863">
        <ele>871</ele>
        <time>2013-05-11T07:48:49Z</time>
      </trkpt>
      <trkpt lat="43.89541" lon="7.35865">
        <ele>871</ele>
        <time>2013-05-11T07:48:54Z</time>
      </trkpt>
      <trkpt lat="43.89529" lon="7.35869">
        <ele>871</ele>
        <time>2013-05-11T07:48:59Z</time>
      </trkpt>
      <trkpt lat="43.89516" lon="7.35872">
        <ele>871</ele>
        <time>2013-05-11T07:49:04Z</time>
      </trkpt>
      <trkpt lat="43.89503" lon="7.35874">
        <ele>871</ele>
        <time>2013-05-11T07:49:09Z</time>
      </trkpt>
      <trkpt lat="43.89489" lon="7.35878">
        <ele>873</ele>
        <time>2013-05-11T07:49:14Z</time>
      </trkpt>
      <trkpt lat="43.89476" lon="7.35879">
        <ele>875</ele>
        <time>2013-05-11T07:49:20Z</time>
      </trkpt>
      <trkpt lat="43.89463" lon="7.35884">
        <ele>877</ele>
        <time>2013-05-11T07:49:25Z</time>
      </trkpt>
      <trkpt lat="43.89448" lon="7.3589">
        <ele>877</ele>
        <time>2013-05-11T07:49:31Z</time>
      </trkpt>
      <trkpt lat="43.89436" lon="7.35895">
        <ele>879</ele>
        <time>2013-05-11T07:49:36Z</time>
      </trkpt>
      <trkpt lat="43.89424" lon="7.35901">
        <ele>880</ele>
        <time>2013-05-11T07:49:41Z</time>
      </trkpt>
      <trkpt lat="43.89411" lon="7.35909">
        <ele>881</ele>
        <time>2013-05-11T07:49:47Z</time>
      </trkpt>
      <trkpt lat="43.89398" lon="7.35917">
        <ele>884</ele>
        <time>2013-05-11T07:49:53Z</time>
      </trkpt>
      <trkpt lat="43.89383" lon="7.35926">
        <ele>885</ele>
        <time>2013-05-11T07:49:59Z</time>
      </trkpt>
      <trkpt lat="43.89371" lon="7.35936">
        <ele>885</ele>
        <time>2013-05-11T07:50:04Z</time>
      </trkpt>
      <trkpt lat="43.89367" lon="7.35952">
        <ele>885</ele>
        <time>2013-05-11T07:50:09Z</time>
      </trkpt>
      <trkpt lat="43.89378" lon="7.35945">
        <ele>885</ele>
        <time>2013-05-11T07:50:14Z</time>
      </trkpt>
      <trkpt lat="43.8939" lon="7.35936">
        <ele>886</ele>
        <time>2013-05-11T07:50:19Z</time>
      </trkpt>
      <trkpt lat="43.89404" lon="7.35928">
        <ele>888</ele>
        <time>2013-05-11T07:50:25Z</time>
      </trkpt>
      <trkpt lat="43.89416" lon="7.35922">
        <ele>888</ele>
        <time>2013-05-11T07:50:30Z</time>
      </trkpt>
      <trkpt lat="43.89431" lon="7.3592">
        <ele>889</ele>
        <time>2013-05-11T07:50:36Z</time>
      </trkpt>
      <trkpt lat="43.89444" lon="7.35919">
        <ele>891</ele>
        <time>2013-05-11T07:50:41Z</time>
      </trkpt>
      <trkpt lat="43.89456" lon="7.35919">
        <ele>892</ele>
        <time>2013-05-11T07:50:46Z</time>
      </trkpt>
      <trkpt lat="43.8947" lon="7.3592">
        <ele>894</ele>
        <time>2013-05-11T07:50:51Z</time>
      </trkpt>
      <trkpt lat="43.89484" lon="7.35921">
        <ele>895</ele>
        <time>2013-05-11T07:50:57Z</time>
      </trkpt>
      <trkpt lat="43.89498" lon="7.35923">
        <ele>898</ele>
        <time>2013-05-11T07:51:02Z</time>
      </trkpt>
      <trkpt lat="43.8951" lon="7.35925">
        <ele>901</ele>
        <time>2013-05-11T07:51:07Z</time>
      </trkpt>
      <trkpt lat="43.89522" lon="7.35928">
        <ele>903</ele>
        <time>2013-05-11T07:51:12Z</time>
      </trkpt>
      <trkpt lat="43.89535" lon="7.35931">
        <ele>904</ele>
        <time>2013-05-11T07:51:17Z</time>
      </trkpt>
      <trkpt lat="43.8955" lon="7.35934">
        <ele>905</ele>
        <time>2013-05-11T07:51:22Z</time>
      </trkpt>
      <trkpt lat="43.89565" lon="7.35935">
        <ele>907</ele>
        <time>2013-05-11T07:51:28Z</time>
      </trkpt>
      <trkpt lat="43.89579" lon="7.35936">
        <ele>908</ele>
        <time>2013-05-11T07:51:33Z</time>
      </trkpt>
      <trkpt lat="43.8959" lon="7.35938">
        <ele>910</ele>
        <time>2013-05-11T07:51:38Z</time>
      </trkpt>
      <trkpt lat="43.89602" lon="7.35938">
        <ele>911</ele>
        <time>2013-05-11T07:51:43Z</time>
      </trkpt>
      <trkpt lat="43.89614" lon="7.35939">
        <ele>912</ele>
        <time>2013-05-11T07:51:48Z</time>
      </trkpt>
      <trkpt lat="43.89627" lon="7.35942">
        <ele>913</ele>
        <time>2013-05-11T07:51:53Z</time>
      </trkpt>
      <trkpt lat="43.8964" lon="7.35942">
        <ele>914</ele>
        <time>2013-05-11T07:51:58Z</time>
      </trkpt>
      <trkpt lat="43.89653" lon="7.35944">
        <ele>915</ele>
        <time>2013-05-11T07:52:03Z</time>
      </trkpt>
      <trkpt lat="43.89664" lon="7.35945">
        <ele>917</ele>
        <time>2013-05-11T07:52:08Z</time>
      </trkpt>
      <trkpt lat="43.89676" lon="7.35948">
        <ele>919</ele>
        <time>2013-05-11T07:52:13Z</time>
      </trkpt>
      <trkpt lat="43.89688" lon="7.3595">
        <ele>921</ele>
        <time>2013-05-11T07:52:18Z</time>
      </trkpt>
      <trkpt lat="43.897" lon="7.35952">
        <ele>922</ele>
        <time>2013-05-11T07:52:23Z</time>
      </trkpt>
      <trkpt lat="43.89714" lon="7.35953">
        <ele>922</ele>
        <time>2013-05-11T07:52:28Z</time>
      </trkpt>
      <trkpt lat="43.89725" lon="7.35957">
        <ele>923</ele>
        <time>2013-05-11T07:52:33Z</time>
      </trkpt>
      <trkpt lat="43.89737" lon="7.35964">
        <ele>923</ele>
        <time>2013-05-11T07:52:38Z</time>
      </trkpt>
      <trkpt lat="43.8975" lon="7.35967">
        <ele>923</ele>
        <time>2013-05-11T07:52:43Z</time>
      </trkpt>
      <trkpt lat="43.89762" lon="7.35972">
        <ele>923</ele>
        <time>2013-05-11T07:52:48Z</time>
      </trkpt>
      <trkpt lat="43.89775" lon="7.35977">
        <ele>925</ele>
        <time>2013-05-11T07:52:53Z</time>
      </trkpt>
      <trkpt lat="43.89788" lon="7.35985">
        <ele>926</ele>
        <time>2013-05-11T07:52:58Z</time>
      </trkpt>
      <trkpt lat="43.89799" lon="7.35991">
        <ele>927</ele>
        <time>2013-05-11T07:53:03Z</time>
      </trkpt>
      <trkpt lat="43.89812" lon="7.35996">
        <ele>929</ele>
        <time>2013-05-11T07:53:08Z</time>
      </trkpt>
      <trkpt lat="43.89824" lon="7.36002">
        <ele>931</ele>
        <time>2013-05-11T07:53:13Z</time>
      </trkpt>
      <trkpt lat="43.89836" lon="7.36005">
        <ele>932</ele>
        <time>2013-05-11T07:53:18Z</time>
      </trkpt>
      <trkpt lat="43.89851" lon="7.3601">
        <ele>933</ele>
        <time>2013-05-11T07:53:24Z</time>
      </trkpt>
      <trkpt lat="43.89863" lon="7.36013">
        <ele>933</ele>
        <time>2013-05-11T07:53:29Z</time>
      </trkpt>
      <trkpt lat="43.89875" lon="7.36017">
        <ele>933</ele>
        <time>2013-05-11T07:53:34Z</time>
      </trkpt>
      <trkpt lat="43.89887" lon="7.3602">
        <ele>935</ele>
        <time>2013-05-11T07:53:39Z</time>
      </trkpt>
      <trkpt lat="43.89899" lon="7.36022">
        <ele>937</ele>
        <time>2013-05-11T07:53:44Z</time>
      </trkpt>
      <trkpt lat="43.89911" lon="7.36025">
        <ele>939</ele>
        <time>2013-05-11T07:53:49Z</time>
      </trkpt>
      <trkpt lat="43.89923" lon="7.36027">
        <ele>941</ele>
        <time>2013-05-11T07:53:54Z</time>
      </trkpt>
      <trkpt lat="43.89936" lon="7.3603">
        <ele>941</ele>
        <time>2013-05-11T07:53:59Z</time>
      </trkpt>
      <trkpt lat="43.89948" lon="7.36032">
        <ele>943</ele>
        <time>2013-05-11T07:54:04Z</time>
      </trkpt>
      <trkpt lat="43.89962" lon="7.36036">
        <ele>944</ele>
        <time>2013-05-11T07:54:10Z</time>
      </trkpt>
      <trkpt lat="43.89975" lon="7.36036">
        <ele>946</ele>
        <time>2013-05-11T07:54:15Z</time>
      </trkpt>
      <trkpt lat="43.89986" lon="7.36038">
        <ele>948</ele>
        <time>2013-05-11T07:54:20Z</time>
      </trkpt>
      <trkpt lat="43.89998" lon="7.36041">
        <ele>950</ele>
        <time>2013-05-11T07:54:25Z</time>
      </trkpt>
      <trkpt lat="43.90011" lon="7.36045">
        <ele>951</ele>
        <time>2013-05-11T07:54:30Z</time>
      </trkpt>
      <trkpt lat="43.90024" lon="7.36052">
        <ele>952</ele>
        <time>2013-05-11T07:54:35Z</time>
      </trkpt>
      <trkpt lat="43.90035" lon="7.36059">
        <ele>953</ele>
        <time>2013-05-11T07:54:40Z</time>
      </trkpt>
      <trkpt lat="43.90048" lon="7.36067">
        <ele>953</ele>
        <time>2013-05-11T07:54:45Z</time>
      </trkpt>
      <trkpt lat="43.90061" lon="7.36076">
        <ele>954</ele>
        <time>2013-05-11T07:54:50Z</time>
      </trkpt>
      <trkpt lat="43.90073" lon="7.36084">
        <ele>954</ele>
        <time>2013-05-11T07:54:55Z</time>
      </trkpt>
      <trkpt lat="43.90083" lon="7.36092">
        <ele>954</ele>
        <time>2013-05-11T07:55:00Z</time>
      </trkpt>
      <trkpt lat="43.90094" lon="7.36097">
        <ele>955</ele>
        <time>2013-05-11T07:55:05Z</time>
      </trkpt>
      <trkpt lat="43.90106" lon="7.36105">
        <ele>955</ele>
        <time>2013-05-11T07:55:10Z</time>
      </trkpt>
      <trkpt lat="43.90118" lon="7.36112">
        <ele>957</ele>
        <time>2013-05-11T07:55:15Z</time>
      </trkpt>
      <trkpt lat="43.90129" lon="7.36117">
        <ele>957</ele>
        <time>2013-05-11T07:55:20Z</time>
      </trkpt>
      <trkpt lat="43.90141" lon="7.36123">
        <ele>958</ele>
        <time>2013-05-11T07:55:25Z</time>
      </trkpt>
      <trkpt lat="43.90153" lon="7.36129">
        <ele>958</ele>
        <time>2013-05-11T07:55:30Z</time>
      </trkpt>
      <trkpt lat="43.90163" lon="7.36135">
        <ele>959</ele>
        <time>2013-05-11T07:55:35Z</time>
      </trkpt>
      <trkpt lat="43.90175" lon="7.3614">
        <ele>959</ele>
        <time>2013-05-11T07:55:40Z</time>
      </trkpt>
      <trkpt lat="43.90191" lon="7.36145">
        <ele>960</ele>
        <time>2013-05-11T07:55:46Z</time>
      </trkpt>
      <trkpt lat="43.90203" lon="7.36149">
        <ele>961</ele>
        <time>2013-05-11T07:55:51Z</time>
      </trkpt>
      <trkpt lat="43.90217" lon="7.36156">
        <ele>963</ele>
        <time>2013-05-11T07:55:57Z</time>
      </trkpt>
      <trkpt lat="43.90226" lon="7.36163">
        <ele>964</ele>
        <time>2013-05-11T07:56:02Z</time>
      </trkpt>
      <trkpt lat="43.90234" lon="7.36173">
        <ele>966</ele>
        <time>2013-05-11T07:56:07Z</time>
      </trkpt>
      <trkpt lat="43.90242" lon="7.36183">
        <ele>966</ele>
        <time>2013-05-11T07:56:12Z</time>
      </trkpt>
      <trkpt lat="43.90253" lon="7.36189">
        <ele>967</ele>
        <time>2013-05-11T07:56:17Z</time>
      </trkpt>
      <trkpt lat="43.90264" lon="7.36194">
        <ele>967</ele>
        <time>2013-05-11T07:56:22Z</time>
      </trkpt>
      <trkpt lat="43.90275" lon="7.36198">
        <ele>969</ele>
        <time>2013-05-11T07:56:27Z</time>
      </trkpt>
      <trkpt lat="43.90284" lon="7.36203">
        <ele>969</ele>
        <time>2013-05-11T07:56:32Z</time>
      </trkpt>
      <trkpt lat="43.90295" lon="7.36209">
        <ele>970</ele>
        <time>2013-05-11T07:56:37Z</time>
      </trkpt>
      <trkpt lat="43.90305" lon="7.36215">
        <ele>970</ele>
        <time>2013-05-11T07:56:42Z</time>
      </trkpt>
      <trkpt lat="43.90315" lon="7.36218">
        <ele>971</ele>
        <time>2013-05-11T07:56:47Z</time>
      </trkpt>
      <trkpt lat="43.90326" lon="7.36215">
        <ele>971</ele>
        <time>2013-05-11T07:56:52Z</time>
      </trkpt>
      <trkpt lat="43.9034" lon="7.36203">
        <ele>974</ele>
        <time>2013-05-11T07:56:58Z</time>
      </trkpt>
      <trkpt lat="43.9035" lon="7.36191">
        <ele>977</ele>
        <time>2013-05-11T07:57:03Z</time>
      </trkpt>
      <trkpt lat="43.90357" lon="7.36179">
        <ele>978</ele>
        <time>2013-05-11T07:57:08Z</time>
      </trkpt>
      <trkpt lat="43.90363" lon="7.36167">
        <ele>978</ele>
        <time>2013-05-11T07:57:13Z</time>
      </trkpt>
      <trkpt lat="43.9037" lon="7.36157">
        <ele>978</ele>
        <time>2013-05-11T07:57:18Z</time>
      </trkpt>
      <trkpt lat="43.90381" lon="7.36156">
        <ele>979</ele>
        <time>2013-05-11T07:57:23Z</time>
      </trkpt>
      <trkpt lat="43.90394" lon="7.3616">
        <ele>979</ele>
        <time>2013-05-11T07:57:28Z</time>
      </trkpt>
      <trkpt lat="43.90405" lon="7.36161">
        <ele>982</ele>
        <time>2013-05-11T07:57:34Z</time>
      </trkpt>
      <trkpt lat="43.90415" lon="7.36163">
        <ele>982</ele>
        <time>2013-05-11T07:57:39Z</time>
      </trkpt>
      <trkpt lat="43.90425" lon="7.36168">
        <ele>982</ele>
        <time>2013-05-11T07:57:44Z</time>
      </trkpt>
      <trkpt lat="43.90437" lon="7.36175">
        <ele>983</ele>
        <time>2013-05-11T07:57:50Z</time>
      </trkpt>
      <trkpt lat="43.90447" lon="7.36181">
        <ele>984</ele>
        <time>2013-05-11T07:57:55Z</time>
      </trkpt>
      <trkpt lat="43.90456" lon="7.36188">
        <ele>984</ele>
        <time>2013-05-11T07:58:00Z</time>
      </trkpt>
      <trkpt lat="43.90469" lon="7.36189">
        <ele>985</ele>
        <time>2013-05-11T07:58:06Z</time>
      </trkpt>
      <trkpt lat="43.90479" lon="7.36186">
        <ele>985</ele>
        <time>2013-05-11T07:58:11Z</time>
      </trkpt>
      <trkpt lat="43.90489" lon="7.36183">
        <ele>986</ele>
        <time>2013-05-11T07:58:16Z</time>
      </trkpt>
      <trkpt lat="43.905" lon="7.3618">
        <ele>986</ele>
        <time>2013-05-11T07:58:21Z</time>
      </trkpt>
      <trkpt lat="43.90511" lon="7.36176">
        <ele>988</ele>
        <time>2013-05-11T07:58:26Z</time>
      </trkpt>
      <trkpt lat="43.90521" lon="7.36172">
        <ele>990</ele>
        <time>2013-05-11T07:58:31Z</time>
      </trkpt>
      <trkpt lat="43.90531" lon="7.36164">
        <ele>991</ele>
        <time>2013-05-11T07:58:36Z</time>
      </trkpt>
      <trkpt lat="43.9054" lon="7.36151">
        <ele>991</ele>
        <time>2013-05-11T07:58:41Z</time>
      </trkpt>
      <trkpt lat="43.90547" lon="7.36138">
        <ele>993</ele>
        <time>2013-05-11T07:58:47Z</time>
      </trkpt>
      <trkpt lat="43.90551" lon="7.36124">
        <ele>994</ele>
        <time>2013-05-11T07:58:52Z</time>
      </trkpt>
      <trkpt lat="43.90556" lon="7.36107">
        <ele>996</ele>
        <time>2013-05-11T07:58:57Z</time>
      </trkpt>
      <trkpt lat="43.90559" lon="7.36092">
        <ele>997</ele>
        <time>2013-05-11T07:59:03Z</time>
      </trkpt>
      <trkpt lat="43.90558" lon="7.36073">
        <ele>999</ele>
        <time>2013-05-11T07:59:08Z</time>
      </trkpt>
      <trkpt lat="43.90563" lon="7.3606">
        <ele>1001</ele>
        <time>2013-05-11T07:59:13Z</time>
      </trkpt>
      <trkpt lat="43.9057" lon="7.36071">
        <ele>1001</ele>
        <time>2013-05-11T07:59:18Z</time>
      </trkpt>
      <trkpt lat="43.90569" lon="7.36089">
        <ele>1001</ele>
        <time>2013-05-11T07:59:24Z</time>
      </trkpt>
      <trkpt lat="43.90564" lon="7.3611">
        <ele>1003</ele>
        <time>2013-05-11T07:59:29Z</time>
      </trkpt>
      <trkpt lat="43.90563" lon="7.36125">
        <ele>1004</ele>
        <time>2013-05-11T07:59:35Z</time>
      </trkpt>
      <trkpt lat="43.90563" lon="7.3614">
        <ele>1005</ele>
        <time>2013-05-11T07:59:40Z</time>
      </trkpt>
      <trkpt lat="43.90563" lon="7.36153">
        <ele>1008</ele>
        <time>2013-05-11T07:59:51Z</time>
      </trkpt>
      <trkpt lat="43.90564" lon="7.36152">
        <ele>1008</ele>
        <time>2013-05-11T08:00:03Z</time>
      </trkpt>
      <trkpt lat="43.90565" lon="7.36154">
        <ele>1010</ele>
        <time>2013-05-11T08:00:28Z</time>
      </trkpt>
      <trkpt lat="43.90564" lon="7.36146">
        <ele>1010</ele>
        <time>2013-05-11T08:00:33Z</time>
      </trkpt>
      <trkpt lat="43.90566" lon="7.36107">
        <ele>1010</ele>
        <time>2013-05-11T08:00:38Z</time>
      </trkpt>
      <trkpt lat="43.90567" lon="7.36068">
        <ele>1009</ele>
        <time>2013-05-11T08:00:44Z</time>
      </trkpt>
      <trkpt lat="43.90556" lon="7.36091">
        <ele>1006</ele>
        <time>2013-05-11T08:00:49Z</time>
      </trkpt>
      <trkpt lat="43.90553" lon="7.36126">
        <ele>1003</ele>
        <time>2013-05-11T08:00:54Z</time>
      </trkpt>
      <trkpt lat="43.90524" lon="7.36171">
        <ele>1000</ele>
        <time>2013-05-11T08:00:59Z</time>
      </trkpt>
      <trkpt lat="43.90479" lon="7.36187">
        <ele>997</ele>
        <time>2013-05-11T08:01:05Z</time>
      </trkpt>
      <trkpt lat="43.9043" lon="7.36175">
        <ele>992</ele>
        <time>2013-05-11T08:01:10Z</time>
      </trkpt>
      <trkpt lat="43.90394" lon="7.3616">
        <ele>986</ele>
        <time>2013-05-11T08:01:16Z</time>
      </trkpt>
      <trkpt lat="43.90398" lon="7.36164">
        <ele>985</ele>
        <time>2013-05-11T08:01:21Z</time>
      </trkpt>
      <trkpt lat="43.90414" lon="7.36167">
        <ele>985</ele>
        <time>2013-05-11T08:01:26Z</time>
      </trkpt>
      <trkpt lat="43.90427" lon="7.36171">
        <ele>985</ele>
        <time>2013-05-11T08:01:32Z</time>
      </trkpt>
      <trkpt lat="43.90439" lon="7.36178">
        <ele>985</ele>
        <time>2013-05-11T08:01:37Z</time>
      </trkpt>
      <trkpt lat="43.9045" lon="7.36186">
        <ele>985</ele>
        <time>2013-05-11T08:01:42Z</time>
      </trkpt>
      <trkpt lat="43.90461" lon="7.3619">
        <ele>985</ele>
        <time>2013-05-11T08:01:47Z</time>
      </trkpt>
      <trkpt lat="43.90474" lon="7.36188">
        <ele>985</ele>
        <time>2013-05-11T08:01:52Z</time>
      </trkpt>
      <trkpt lat="43.90487" lon="7.36185">
        <ele>986</ele>
        <time>2013-05-11T08:01:57Z</time>
      </trkpt>
      <trkpt lat="43.905" lon="7.3618">
        <ele>988</ele>
        <time>2013-05-11T08:02:03Z</time>
      </trkpt>
      <trkpt lat="43.90511" lon="7.36176">
        <ele>990</ele>
        <time>2013-05-11T08:02:08Z</time>
      </trkpt>
      <trkpt lat="43.90523" lon="7.36171">
        <ele>990</ele>
        <time>2013-05-11T08:02:13Z</time>
      </trkpt>
      <trkpt lat="43.90535" lon="7.3616">
        <ele>992</ele>
        <time>2013-05-11T08:02:19Z</time>
      </trkpt>
      <trkpt lat="43.90543" lon="7.36147">
        <ele>994</ele>
        <time>2013-05-11T08:02:24Z</time>
      </trkpt>
      <trkpt lat="43.90549" lon="7.36133">
        <ele>995</ele>
        <time>2013-05-11T08:02:29Z</time>
      </trkpt>
      <trkpt lat="43.90554" lon="7.36117">
        <ele>996</ele>
        <time>2013-05-11T08:02:35Z</time>
      </trkpt>
      <trkpt lat="43.90557" lon="7.36102">
        <ele>997</ele>
        <time>2013-05-11T08:02:40Z</time>
      </trkpt>
      <trkpt lat="43.90557" lon="7.36087">
        <ele>998</ele>
        <time>2013-05-11T08:02:45Z</time>
      </trkpt>
      <trkpt lat="43.90556" lon="7.36067">
        <ele>1001</ele>
        <time>2013-05-11T08:02:50Z</time>
      </trkpt>
      <trkpt lat="43.90564" lon="7.36061">
        <ele>1004</ele>
        <time>2013-05-11T08:02:56Z</time>
      </trkpt>
      <trkpt lat="43.9057" lon="7.36079">
        <ele>1004</ele>
        <time>2013-05-11T08:03:01Z</time>
      </trkpt>
      <trkpt lat="43.90569" lon="7.36096">
        <ele>1005</ele>
        <time>2013-05-11T08:03:06Z</time>
      </trkpt>
      <trkpt lat="43.90566" lon="7.36112">
        <ele>1006</ele>
        <time>2013-05-11T08:03:12Z</time>
      </trkpt>
      <trkpt lat="43.90564" lon="7.36128">
        <ele>1007</ele>
        <time>2013-05-11T08:03:17Z</time>
      </trkpt>
      <trkpt lat="43.90566" lon="7.36142">
        <ele>1008</ele>
        <time>2013-05-11T08:03:23Z</time>
      </trkpt>
      <trkpt lat="43.90565" lon="7.36156">
        <ele>1009</ele>
        <time>2013-05-11T08:03:29Z</time>
      </trkpt>
      <trkpt lat="43.90564" lon="7.36156">
        <ele>1009</ele>
        <time>2013-05-11T08:03:37Z</time>
      </trkpt>
      <trkpt lat="43.90563" lon="7.36155">
        <ele>1009</ele>
        <time>2013-05-11T08:03:46Z</time>
      </trkpt>
      <trkpt lat="43.90562" lon="7.36154">
        <ele>1010</ele>
        <time>2013-05-11T08:04:02Z</time>
      </trkpt>
      <trkpt lat="43.90562" lon="7.36155">
        <ele>1011</ele>
        <time>2013-05-11T08:04:37Z</time>
      </trkpt>
      <trkpt lat="43.90562" lon="7.36154">
        <ele>1012</ele>
        <time>2013-05-11T08:05:37Z</time>
      </trkpt>
      <trkpt lat="43.90563" lon="7.36151">
        <ele>1013</ele>
        <time>2013-05-11T08:05:56Z</time>
      </trkpt>
      <trkpt lat="43.90569" lon="7.36153">
        <ele>1013</ele>
        <time>2013-05-11T08:06:01Z</time>
      </trkpt>
      <trkpt lat="43.90574" lon="7.3616">
        <ele>1013</ele>
        <time>2013-05-11T08:06:08Z</time>
      </trkpt>
      <trkpt lat="43.9058" lon="7.36168">
        <ele>1013</ele>
        <time>2013-05-11T08:06:13Z</time>
      </trkpt>
      <trkpt lat="43.90588" lon="7.36183">
        <ele>1013</ele>
        <time>2013-05-11T08:06:19Z</time>
      </trkpt>
      <trkpt lat="43.90592" lon="7.36199">
        <ele>1013</ele>
        <time>2013-05-11T08:06:24Z</time>
      </trkpt>
      <trkpt lat="43.90591" lon="7.36215">
        <ele>1013</ele>
        <time>2013-05-11T08:06:29Z</time>
      </trkpt>
      <trkpt lat="43.90581" lon="7.36233">
        <ele>1013</ele>
        <time>2013-05-11T08:06:35Z</time>
      </trkpt>
      <trkpt lat="43.9057" lon="7.36246">
        <ele>1014</ele>
        <time>2013-05-11T08:06:40Z</time>
      </trkpt>
      <trkpt lat="43.9056" lon="7.36258">
        <ele>1016</ele>
        <time>2013-05-11T08:06:45Z</time>
      </trkpt>
      <trkpt lat="43.90547" lon="7.36273">
        <ele>1017</ele>
        <time>2013-05-11T08:06:51Z</time>
      </trkpt>
      <trkpt lat="43.90537" lon="7.36285">
        <ele>1019</ele>
        <time>2013-05-11T08:06:56Z</time>
      </trkpt>
      <trkpt lat="43.90531" lon="7.36305">
        <ele>1019</ele>
        <time>2013-05-11T08:07:01Z</time>
      </trkpt>
      <trkpt lat="43.9053" lon="7.36327">
        <ele>1020</ele>
        <time>2013-05-11T08:07:06Z</time>
      </trkpt>
      <trkpt lat="43.90538" lon="7.36319">
        <ele>1020</ele>
        <time>2013-05-11T08:07:12Z</time>
      </trkpt>
      <trkpt lat="43.9054" lon="7.36299">
        <ele>1020</ele>
        <time>2013-05-11T08:07:17Z</time>
      </trkpt>
      <trkpt lat="43.90551" lon="7.36282">
        <ele>1022</ele>
        <time>2013-05-11T08:07:23Z</time>
      </trkpt>
      <trkpt lat="43.90563" lon="7.36274">
        <ele>1023</ele>
        <time>2013-05-11T08:07:28Z</time>
      </trkpt>
      <trkpt lat="43.90575" lon="7.36268">
        <ele>1024</ele>
        <time>2013-05-11T08:07:33Z</time>
      </trkpt>
      <trkpt lat="43.90588" lon="7.36262">
        <ele>1025</ele>
        <time>2013-05-11T08:07:38Z</time>
      </trkpt>
      <trkpt lat="43.90601" lon="7.36258">
        <ele>1026</ele>
        <time>2013-05-11T08:07:43Z</time>
      </trkpt>
      <trkpt lat="43.90615" lon="7.36258">
        <ele>1027</ele>
        <time>2013-05-11T08:07:48Z</time>
      </trkpt>
      <trkpt lat="43.90628" lon="7.36256">
        <ele>1028</ele>
        <time>2013-05-11T08:07:53Z</time>
      </trkpt>
      <trkpt lat="43.90642" lon="7.36247">
        <ele>1030</ele>
        <time>2013-05-11T08:07:58Z</time>
      </trkpt>
      <trkpt lat="43.90648" lon="7.36232">
        <ele>1031</ele>
        <time>2013-05-11T08:08:04Z</time>
      </trkpt>
      <trkpt lat="43.90647" lon="7.36214">
        <ele>1032</ele>
        <time>2013-05-11T08:08:09Z</time>
      </trkpt>
      <trkpt lat="43.90643" lon="7.36198">
        <ele>1033</ele>
        <time>2013-05-11T08:08:14Z</time>
      </trkpt>
      <trkpt lat="43.90641" lon="7.3618">
        <ele>1035</ele>
        <time>2013-05-11T08:08:19Z</time>
      </trkpt>
      <trkpt lat="43.90645" lon="7.36166">
        <ele>1036</ele>
        <time>2013-05-11T08:08:24Z</time>
      </trkpt>
      <trkpt lat="43.90651" lon="7.36152">
        <ele>1037</ele>
        <time>2013-05-11T08:08:29Z</time>
      </trkpt>
      <trkpt lat="43.90655" lon="7.36133">
        <ele>1038</ele>
        <time>2013-05-11T08:08:35Z</time>
      </trkpt>
      <trkpt lat="43.90655" lon="7.36117">
        <ele>1039</ele>
        <time>2013-05-11T08:08:40Z</time>
      </trkpt>
      <trkpt lat="43.90655" lon="7.361">
        <ele>1041</ele>
        <time>2013-05-11T08:08:45Z</time>
      </trkpt>
      <trkpt lat="43.90656" lon="7.36081">
        <ele>1042</ele>
        <time>2013-05-11T08:08:51Z</time>
      </trkpt>
      <trkpt lat="43.9066" lon="7.36066">
        <ele>1043</ele>
        <time>2013-05-11T08:08:56Z</time>
      </trkpt>
      <trkpt lat="43.90664" lon="7.36052">
        <ele>1043</ele>
        <time>2013-05-11T08:09:01Z</time>
      </trkpt>
      <trkpt lat="43.90668" lon="7.36037">
        <ele>1043</ele>
        <time>2013-05-11T08:09:06Z</time>
      </trkpt>
      <trkpt lat="43.90673" lon="7.36018">
        <ele>1043</ele>
        <time>2013-05-11T08:09:11Z</time>
      </trkpt>
      <trkpt lat="43.90677" lon="7.35999">
        <ele>1044</ele>
        <time>2013-05-11T08:09:17Z</time>
      </trkpt>
      <trkpt lat="43.90686" lon="7.35993">
        <ele>1045</ele>
        <time>2013-05-11T08:09:22Z</time>
      </trkpt>
      <trkpt lat="43.90683" lon="7.36012">
        <ele>1045</ele>
        <time>2013-05-11T08:09:27Z</time>
      </trkpt>
      <trkpt lat="43.90677" lon="7.36028">
        <ele>1046</ele>
        <time>2013-05-11T08:09:32Z</time>
      </trkpt>
      <trkpt lat="43.90673" lon="7.36046">
        <ele>1048</ele>
        <time>2013-05-11T08:09:37Z</time>
      </trkpt>
      <trkpt lat="43.90673" lon="7.36067">
        <ele>1049</ele>
        <time>2013-05-11T08:09:43Z</time>
      </trkpt>
      <trkpt lat="43.90675" lon="7.36085">
        <ele>1050</ele>
        <time>2013-05-11T08:09:48Z</time>
      </trkpt>
      <trkpt lat="43.9068" lon="7.36104">
        <ele>1052</ele>
        <time>2013-05-11T08:09:54Z</time>
      </trkpt>
      <trkpt lat="43.90685" lon="7.36119">
        <ele>1053</ele>
        <time>2013-05-11T08:09:59Z</time>
      </trkpt>
      <trkpt lat="43.90691" lon="7.36134">
        <ele>1054</ele>
        <time>2013-05-11T08:10:04Z</time>
      </trkpt>
      <trkpt lat="43.90696" lon="7.36152">
        <ele>1055</ele>
        <time>2013-05-11T08:10:09Z</time>
      </trkpt>
      <trkpt lat="43.90701" lon="7.36171">
        <ele>1056</ele>
        <time>2013-05-11T08:10:14Z</time>
      </trkpt>
      <trkpt lat="43.90708" lon="7.36185">
        <ele>1058</ele>
        <time>2013-05-11T08:10:19Z</time>
      </trkpt>
      <trkpt lat="43.90718" lon="7.36203">
        <ele>1059</ele>
        <time>2013-05-11T08:10:25Z</time>
      </trkpt>
      <trkpt lat="43.9072" lon="7.36227">
        <ele>1062</ele>
        <time>2013-05-11T08:10:31Z</time>
      </trkpt>
      <trkpt lat="43.90717" lon="7.36242">
        <ele>1064</ele>
        <time>2013-05-11T08:10:36Z</time>
      </trkpt>
      <trkpt lat="43.90715" lon="7.36261">
        <ele>1067</ele>
        <time>2013-05-11T08:10:42Z</time>
      </trkpt>
      <trkpt lat="43.9072" lon="7.36275">
        <ele>1068</ele>
        <time>2013-05-11T08:10:47Z</time>
      </trkpt>
      <trkpt lat="43.90731" lon="7.36285">
        <ele>1069</ele>
        <time>2013-05-11T08:10:53Z</time>
      </trkpt>
      <trkpt lat="43.90741" lon="7.36289">
        <ele>1070</ele>
        <time>2013-05-11T08:10:58Z</time>
      </trkpt>
      <trkpt lat="43.90752" lon="7.36291">
        <ele>1072</ele>
        <time>2013-05-11T08:11:03Z</time>
      </trkpt>
      <trkpt lat="43.90763" lon="7.36297">
        <ele>1073</ele>
        <time>2013-05-11T08:11:08Z</time>
      </trkpt>
      <trkpt lat="43.90769" lon="7.36314">
        <ele>1074</ele>
        <time>2013-05-11T08:11:14Z</time>
      </trkpt>
      <trkpt lat="43.90769" lon="7.3633">
        <ele>1076</ele>
        <time>2013-05-11T08:11:19Z</time>
      </trkpt>
      <trkpt lat="43.90769" lon="7.36346">
        <ele>1077</ele>
        <time>2013-05-11T08:11:24Z</time>
      </trkpt>
      <trkpt lat="43.90775" lon="7.36361">
        <ele>1077</ele>
        <time>2013-05-11T08:11:29Z</time>
      </trkpt>
      <trkpt lat="43.90785" lon="7.3637">
        <ele>1078</ele>
        <time>2013-05-11T08:11:34Z</time>
      </trkpt>
      <trkpt lat="43.90794" lon="7.36379">
        <ele>1079</ele>
        <time>2013-05-11T08:11:39Z</time>
      </trkpt>
      <trkpt lat="43.90803" lon="7.36389">
        <ele>1080</ele>
        <time>2013-05-11T08:11:44Z</time>
      </trkpt>
      <trkpt lat="43.90807" lon="7.36405">
        <ele>1082</ele>
        <time>2013-05-11T08:11:49Z</time>
      </trkpt>
      <trkpt lat="43.90813" lon="7.36418">
        <ele>1083</ele>
        <time>2013-05-11T08:11:54Z</time>
      </trkpt>
      <trkpt lat="43.90822" lon="7.36427">
        <ele>1083</ele>
        <time>2013-05-11T08:11:59Z</time>
      </trkpt>
      <trkpt lat="43.90832" lon="7.36433">
        <ele>1084</ele>
        <time>2013-05-11T08:12:04Z</time>
      </trkpt>
      <trkpt lat="43.90839" lon="7.36445">
        <ele>1085</ele>
        <time>2013-05-11T08:12:09Z</time>
      </trkpt>
      <trkpt lat="43.90844" lon="7.36459">
        <ele>1086</ele>
        <time>2013-05-11T08:12:14Z</time>
      </trkpt>
      <trkpt lat="43.9085" lon="7.36472">
        <ele>1088</ele>
        <time>2013-05-11T08:12:19Z</time>
      </trkpt>
      <trkpt lat="43.90857" lon="7.3648">
        <ele>1089</ele>
        <time>2013-05-11T08:12:24Z</time>
      </trkpt>
      <trkpt lat="43.90867" lon="7.36488">
        <ele>1090</ele>
        <time>2013-05-11T08:12:29Z</time>
      </trkpt>
      <trkpt lat="43.90877" lon="7.36495">
        <ele>1092</ele>
        <time>2013-05-11T08:12:34Z</time>
      </trkpt>
      <trkpt lat="43.90886" lon="7.36503">
        <ele>1093</ele>
        <time>2013-05-11T08:12:39Z</time>
      </trkpt>
      <trkpt lat="43.90897" lon="7.36509">
        <ele>1094</ele>
        <time>2013-05-11T08:12:44Z</time>
      </trkpt>
      <trkpt lat="43.90907" lon="7.36511">
        <ele>1095</ele>
        <time>2013-05-11T08:12:49Z</time>
      </trkpt>
      <trkpt lat="43.90919" lon="7.36508">
        <ele>1095</ele>
        <time>2013-05-11T08:12:54Z</time>
      </trkpt>
      <trkpt lat="43.90927" lon="7.36508">
        <ele>1097</ele>
        <time>2013-05-11T08:12:59Z</time>
      </trkpt>
      <trkpt lat="43.90935" lon="7.36512">
        <ele>1100</ele>
        <time>2013-05-11T08:13:04Z</time>
      </trkpt>
      <trkpt lat="43.90946" lon="7.36515">
        <ele>1101</ele>
        <time>2013-05-11T08:13:09Z</time>
      </trkpt>
      <trkpt lat="43.90958" lon="7.36516">
        <ele>1102</ele>
        <time>2013-05-11T08:13:14Z</time>
      </trkpt>
      <trkpt lat="43.90969" lon="7.36519">
        <ele>1103</ele>
        <time>2013-05-11T08:13:19Z</time>
      </trkpt>
      <trkpt lat="43.90981" lon="7.36522">
        <ele>1106</ele>
        <time>2013-05-11T08:13:25Z</time>
      </trkpt>
      <trkpt lat="43.90992" lon="7.36522">
        <ele>1108</ele>
        <time>2013-05-11T08:13:30Z</time>
      </trkpt>
      <trkpt lat="43.91005" lon="7.36523">
        <ele>1109</ele>
        <time>2013-05-11T08:13:35Z</time>
      </trkpt>
      <trkpt lat="43.91015" lon="7.36523">
        <ele>1109</ele>
        <time>2013-05-11T08:13:40Z</time>
      </trkpt>
      <trkpt lat="43.91027" lon="7.36516">
        <ele>1109</ele>
        <time>2013-05-11T08:13:45Z</time>
      </trkpt>
      <trkpt lat="43.91038" lon="7.36507">
        <ele>1109</ele>
        <time>2013-05-11T08:13:50Z</time>
      </trkpt>
      <trkpt lat="43.91046" lon="7.36496">
        <ele>1110</ele>
        <time>2013-05-11T08:13:55Z</time>
      </trkpt>
      <trkpt lat="43.91052" lon="7.36486">
        <ele>1110</ele>
        <time>2013-05-11T08:14:00Z</time>
      </trkpt>
      <trkpt lat="43.91058" lon="7.36476">
        <ele>1110</ele>
        <time>2013-05-11T08:14:05Z</time>
      </trkpt>
      <trkpt lat="43.91062" lon="7.36468">
        <ele>1111</ele>
        <time>2013-05-11T08:14:10Z</time>
      </trkpt>
      <trkpt lat="43.91063" lon="7.36464">
        <ele>1111</ele>
        <time>2013-05-11T08:14:17Z</time>
      </trkpt>
      <trkpt lat="43.91064" lon="7.36463">
        <ele>1115</ele>
        <time>2013-05-11T08:14:22Z</time>
      </trkpt>
      <trkpt lat="43.91062" lon="7.36463">
        <ele>1118</ele>
        <time>2013-05-11T08:14:31Z</time>
      </trkpt>
      <trkpt lat="43.91062" lon="7.36461">
        <ele>1118</ele>
        <time>2013-05-11T08:14:36Z</time>
      </trkpt>
      <trkpt lat="43.91058" lon="7.36464">
        <ele>1118</ele>
        <time>2013-05-11T08:14:42Z</time>
      </trkpt>
      <trkpt lat="43.9105" lon="7.36467">
        <ele>1118</ele>
        <time>2013-05-11T08:14:49Z</time>
      </trkpt>
      <trkpt lat="43.91051" lon="7.36466">
        <ele>1120</ele>
        <time>2013-05-11T08:14:56Z</time>
      </trkpt>
      <trkpt lat="43.91061" lon="7.36466">
        <ele>1120</ele>
        <time>2013-05-11T08:15:01Z</time>
      </trkpt>
      <trkpt lat="43.91053" lon="7.36478">
        <ele>1120</ele>
        <time>2013-05-11T08:15:06Z</time>
      </trkpt>
      <trkpt lat="43.91045" lon="7.36489">
        <ele>1120</ele>
        <time>2013-05-11T08:15:11Z</time>
      </trkpt>
      <trkpt lat="43.91041" lon="7.36487">
        <ele>1119</ele>
        <time>2013-05-11T08:15:16Z</time>
      </trkpt>
      <trkpt lat="43.9105" lon="7.36481">
        <ele>1116</ele>
        <time>2013-05-11T08:15:21Z</time>
      </trkpt>
      <trkpt lat="43.91056" lon="7.3647">
        <ele>1115</ele>
        <time>2013-05-11T08:15:26Z</time>
      </trkpt>
      <trkpt lat="43.91059" lon="7.36464">
        <ele>1115</ele>
        <time>2013-05-11T08:15:32Z</time>
      </trkpt>
      <trkpt lat="43.91063" lon="7.36462">
        <ele>1115</ele>
        <time>2013-05-11T08:15:48Z</time>
      </trkpt>
      <trkpt lat="43.91066" lon="7.36464">
        <ele>1117</ele>
        <time>2013-05-11T08:16:04Z</time>
      </trkpt>
      <trkpt lat="43.91064" lon="7.36466">
        <ele>1118</ele>
        <time>2013-05-11T08:16:11Z</time>
      </trkpt>
      <trkpt lat="43.91063" lon="7.36467">
        <ele>1120</ele>
        <time>2013-05-11T08:16:21Z</time>
      </trkpt>
      <trkpt lat="43.91062" lon="7.36467">
        <ele>1121</ele>
        <time>2013-05-11T08:16:27Z</time>
      </trkpt>
      <trkpt lat="43.9106" lon="7.36468">
        <ele>1121</ele>
        <time>2013-05-11T08:16:35Z</time>
      </trkpt>
      <trkpt lat="43.91061" lon="7.36467">
        <ele>1121</ele>
        <time>2013-05-11T08:16:46Z</time>
      </trkpt>
      <trkpt lat="43.91061" lon="7.36469">
        <ele>1121</ele>
        <time>2013-05-11T08:16:51Z</time>
      </trkpt>
      <trkpt lat="43.9106" lon="7.36471">
        <ele>1121</ele>
        <time>2013-05-11T08:16:58Z</time>
      </trkpt>
      <trkpt lat="43.91058" lon="7.36474">
        <ele>1122</ele>
        <time>2013-05-11T08:17:03Z</time>
      </trkpt>
      <trkpt lat="43.91056" lon="7.36477">
        <ele>1125</ele>
        <time>2013-05-11T08:17:08Z</time>
      </trkpt>
      <trkpt lat="43.91054" lon="7.36481">
        <ele>1128</ele>
        <time>2013-05-11T08:17:16Z</time>
      </trkpt>
      <trkpt lat="43.91056" lon="7.36481">
        <ele>1132</ele>
        <time>2013-05-11T08:17:33Z</time>
      </trkpt>
      <trkpt lat="43.9106" lon="7.36476">
        <ele>1132</ele>
        <time>2013-05-11T08:17:40Z</time>
      </trkpt>
      <trkpt lat="43.91061" lon="7.36472">
        <ele>1132</ele>
        <time>2013-05-11T08:17:49Z</time>
      </trkpt>
      <trkpt lat="43.91062" lon="7.3647">
        <ele>1132</ele>
        <time>2013-05-11T08:17:59Z</time>
      </trkpt>
      <trkpt lat="43.91061" lon="7.36471">
        <ele>1132</ele>
        <time>2013-05-11T08:18:09Z</time>
      </trkpt>
      <trkpt lat="43.9106" lon="7.36471">
        <ele>1130</ele>
        <time>2013-05-11T08:18:16Z</time>
      </trkpt>
      <trkpt lat="43.91061" lon="7.36469">
        <ele>1129</ele>
        <time>2013-05-11T08:18:22Z</time>
      </trkpt>
      <trkpt lat="43.91061" lon="7.3647">
        <ele>1125</ele>
        <time>2013-05-11T08:18:34Z</time>
      </trkpt>
      <trkpt lat="43.91061" lon="7.36466">
        <ele>1125</ele>
        <time>2013-05-11T08:18:44Z</time>
      </trkpt>
      <trkpt lat="43.91058" lon="7.36469">
        <ele>1125</ele>
        <time>2013-05-11T08:18:49Z</time>
      </trkpt>
      <trkpt lat="43.91059" lon="7.36469">
        <ele>1125</ele>
        <time>2013-05-11T08:19:01Z</time>
      </trkpt>
      <trkpt lat="43.91061" lon="7.36469">
        <ele>1125</ele>
        <time>2013-05-11T08:19:07Z</time>
      </trkpt>
      <trkpt lat="43.91063" lon="7.36469">
        <ele>1125</ele>
        <time>2013-05-11T08:19:13Z</time>
      </trkpt>
      <trkpt lat="43.91066" lon="7.36468">
        <ele>1125</ele>
        <time>2013-05-11T08:19:19Z</time>
      </trkpt>
      <trkpt lat="43.91068" lon="7.36468">
        <ele>1125</ele>
        <time>2013-05-11T08:19:24Z</time>
      </trkpt>
      <trkpt lat="43.91067" lon="7.3647">
        <ele>1126</ele>
        <time>2013-05-11T08:19:29Z</time>
      </trkpt>
      <trkpt lat="43.91068" lon="7.36468">
        <ele>1126</ele>
        <time>2013-05-11T08:19:36Z</time>
      </trkpt>
      <trkpt lat="43.91069" lon="7.36468">
        <ele>1126</ele>
        <time>2013-05-11T08:19:48Z</time>
      </trkpt>
      <trkpt lat="43.91068" lon="7.36467">
        <ele>1126</ele>
        <time>2013-05-11T08:20:03Z</time>
      </trkpt>
      <trkpt lat="43.91065" lon="7.3647">
        <ele>1126</ele>
        <time>2013-05-11T08:20:12Z</time>
      </trkpt>
      <trkpt lat="43.91068" lon="7.36469">
        <ele>1126</ele>
        <time>2013-05-11T08:20:18Z</time>
      </trkpt>
      <trkpt lat="43.91064" lon="7.36469">
        <ele>1126</ele>
        <time>2013-05-11T08:20:26Z</time>
      </trkpt>
      <trkpt lat="43.91063" lon="7.36465">
        <ele>1123</ele>
        <time>2013-05-11T08:20:34Z</time>
      </trkpt>
      <trkpt lat="43.91063" lon="7.36467">
        <ele>1123</ele>
        <time>2013-05-11T08:20:41Z</time>
      </trkpt>
      <trkpt lat="43.91065" lon="7.36471">
        <ele>1124</ele>
        <time>2013-05-11T08:20:49Z</time>
      </trkpt>
      <trkpt lat="43.91068" lon="7.36472">
        <ele>1129</ele>
        <time>2013-05-11T08:20:59Z</time>
      </trkpt>
      <trkpt lat="43.91069" lon="7.36471">
        <ele>1130</ele>
        <time>2013-05-11T08:21:05Z</time>
      </trkpt>
      <trkpt lat="43.91069" lon="7.36472">
        <ele>1130</ele>
        <time>2013-05-11T08:21:21Z</time>
      </trkpt>
      <trkpt lat="43.91065" lon="7.36473">
        <ele>1130</ele>
        <time>2013-05-11T08:21:26Z</time>
      </trkpt>
      <trkpt lat="43.91066" lon="7.3647">
        <ele>1130</ele>
        <time>2013-05-11T08:21:34Z</time>
      </trkpt>
      <trkpt lat="43.91071" lon="7.36463">
        <ele>1130</ele>
        <time>2013-05-11T08:21:39Z</time>
      </trkpt>
      <trkpt lat="43.91076" lon="7.36456">
        <ele>1127</ele>
        <time>2013-05-11T08:21:44Z</time>
      </trkpt>
      <trkpt lat="43.91082" lon="7.36448">
        <ele>1123</ele>
        <time>2013-05-11T08:21:50Z</time>
      </trkpt>
      <trkpt lat="43.91089" lon="7.36435">
        <ele>1121</ele>
        <time>2013-05-11T08:21:56Z</time>
      </trkpt>
      <trkpt lat="43.91092" lon="7.36421">
        <ele>1119</ele>
        <time>2013-05-11T08:22:01Z</time>
      </trkpt>
      <trkpt lat="43.91098" lon="7.36407">
        <ele>1117</ele>
        <time>2013-05-11T08:22:06Z</time>
      </trkpt>
      <trkpt lat="43.91108" lon="7.36395">
        <ele>1116</ele>
        <time>2013-05-11T08:22:11Z</time>
      </trkpt>
      <trkpt lat="43.91118" lon="7.36384">
        <ele>1116</ele>
        <time>2013-05-11T08:22:16Z</time>
      </trkpt>
      <trkpt lat="43.91124" lon="7.36368">
        <ele>1116</ele>
        <time>2013-05-11T08:22:21Z</time>
      </trkpt>
      <trkpt lat="43.91127" lon="7.36351">
        <ele>1115</ele>
        <time>2013-05-11T08:22:26Z</time>
      </trkpt>
      <trkpt lat="43.9113" lon="7.36337">
        <ele>1113</ele>
        <time>2013-05-11T08:22:31Z</time>
      </trkpt>
      <trkpt lat="43.91137" lon="7.36324">
        <ele>1113</ele>
        <time>2013-05-11T08:22:36Z</time>
      </trkpt>
      <trkpt lat="43.91146" lon="7.36311">
        <ele>1113</ele>
        <time>2013-05-11T08:22:41Z</time>
      </trkpt>
      <trkpt lat="43.91154" lon="7.36294">
        <ele>1113</ele>
        <time>2013-05-11T08:22:46Z</time>
      </trkpt>
      <trkpt lat="43.91161" lon="7.36279">
        <ele>1113</ele>
        <time>2013-05-11T08:22:51Z</time>
      </trkpt>
      <trkpt lat="43.91168" lon="7.36265">
        <ele>1113</ele>
        <time>2013-05-11T08:22:56Z</time>
      </trkpt>
      <trkpt lat="43.91173" lon="7.36249">
        <ele>1113</ele>
        <time>2013-05-11T08:23:01Z</time>
      </trkpt>
      <trkpt lat="43.91179" lon="7.36234">
        <ele>1114</ele>
        <time>2013-05-11T08:23:06Z</time>
      </trkpt>
      <trkpt lat="43.91189" lon="7.36224">
        <ele>1115</ele>
        <time>2013-05-11T08:23:11Z</time>
      </trkpt>
      <trkpt lat="43.91198" lon="7.36213">
        <ele>1117</ele>
        <time>2013-05-11T08:23:16Z</time>
      </trkpt>
      <trkpt lat="43.91203" lon="7.36194">
        <ele>1118</ele>
        <time>2013-05-11T08:23:22Z</time>
      </trkpt>
      <trkpt lat="43.91203" lon="7.36175">
        <ele>1119</ele>
        <time>2013-05-11T08:23:28Z</time>
      </trkpt>
      <trkpt lat="43.91198" lon="7.3616">
        <ele>1119</ele>
        <time>2013-05-11T08:23:33Z</time>
      </trkpt>
      <trkpt lat="43.91196" lon="7.36143">
        <ele>1121</ele>
        <time>2013-05-11T08:23:38Z</time>
      </trkpt>
      <trkpt lat="43.91203" lon="7.36133">
        <ele>1124</ele>
        <time>2013-05-11T08:23:43Z</time>
      </trkpt>
      <trkpt lat="43.91214" lon="7.3613">
        <ele>1126</ele>
        <time>2013-05-11T08:23:48Z</time>
      </trkpt>
      <trkpt lat="43.91228" lon="7.36124">
        <ele>1129</ele>
        <time>2013-05-11T08:23:53Z</time>
      </trkpt>
      <trkpt lat="43.91241" lon="7.36108">
        <ele>1131</ele>
        <time>2013-05-11T08:23:59Z</time>
      </trkpt>
      <trkpt lat="43.91251" lon="7.36095">
        <ele>1131</ele>
        <time>2013-05-11T08:24:04Z</time>
      </trkpt>
      <trkpt lat="43.91256" lon="7.36079">
        <ele>1131</ele>
        <time>2013-05-11T08:24:09Z</time>
      </trkpt>
      <trkpt lat="43.91263" lon="7.36062">
        <ele>1131</ele>
        <time>2013-05-11T08:24:15Z</time>
      </trkpt>
      <trkpt lat="43.91271" lon="7.36048">
        <ele>1131</ele>
        <time>2013-05-11T08:24:20Z</time>
      </trkpt>
      <trkpt lat="43.91277" lon="7.36031">
        <ele>1131</ele>
        <time>2013-05-11T08:24:25Z</time>
      </trkpt>
      <trkpt lat="43.91285" lon="7.36014">
        <ele>1131</ele>
        <time>2013-05-11T08:24:30Z</time>
      </trkpt>
      <trkpt lat="43.91291" lon="7.36003">
        <ele>1131</ele>
        <time>2013-05-11T08:24:35Z</time>
      </trkpt>
      <trkpt lat="43.913" lon="7.35989">
        <ele>1131</ele>
        <time>2013-05-11T08:24:41Z</time>
      </trkpt>
      <trkpt lat="43.91307" lon="7.35979">
        <ele>1131</ele>
        <time>2013-05-11T08:24:46Z</time>
      </trkpt>
      <trkpt lat="43.91318" lon="7.35967">
        <ele>1131</ele>
        <time>2013-05-11T08:24:51Z</time>
      </trkpt>
      <trkpt lat="43.91331" lon="7.35955">
        <ele>1131</ele>
        <time>2013-05-11T08:24:56Z</time>
      </trkpt>
      <trkpt lat="43.91344" lon="7.3594">
        <ele>1130</ele>
        <time>2013-05-11T08:25:01Z</time>
      </trkpt>
      <trkpt lat="43.91363" lon="7.35943">
        <ele>1129</ele>
        <time>2013-05-11T08:25:07Z</time>
      </trkpt>
      <trkpt lat="43.9136" lon="7.35971">
        <ele>1129</ele>
        <time>2013-05-11T08:25:12Z</time>
      </trkpt>
      <trkpt lat="43.91352" lon="7.3599">
        <ele>1129</ele>
        <time>2013-05-11T08:25:18Z</time>
      </trkpt>
      <trkpt lat="43.91345" lon="7.36003">
        <ele>1133</ele>
        <time>2013-05-11T08:25:23Z</time>
      </trkpt>
      <trkpt lat="43.91338" lon="7.36028">
        <ele>1138</ele>
        <time>2013-05-11T08:25:29Z</time>
      </trkpt>
      <trkpt lat="43.91335" lon="7.36053">
        <ele>1138</ele>
        <time>2013-05-11T08:25:35Z</time>
      </trkpt>
      <trkpt lat="43.91339" lon="7.36072">
        <ele>1138</ele>
        <time>2013-05-11T08:25:40Z</time>
      </trkpt>
      <trkpt lat="43.9134" lon="7.36094">
        <ele>1138</ele>
        <time>2013-05-11T08:25:45Z</time>
      </trkpt>
      <trkpt lat="43.91335" lon="7.36116">
        <ele>1138</ele>
        <time>2013-05-11T08:25:51Z</time>
      </trkpt>
      <trkpt lat="43.9133" lon="7.36134">
        <ele>1138</ele>
        <time>2013-05-11T08:25:56Z</time>
      </trkpt>
      <trkpt lat="43.91324" lon="7.36154">
        <ele>1138</ele>
        <time>2013-05-11T08:26:01Z</time>
      </trkpt>
      <trkpt lat="43.91328" lon="7.36175">
        <ele>1138</ele>
        <time>2013-05-11T08:26:06Z</time>
      </trkpt>
      <trkpt lat="43.91345" lon="7.36184">
        <ele>1138</ele>
        <time>2013-05-11T08:26:11Z</time>
      </trkpt>
      <trkpt lat="43.91355" lon="7.36198">
        <ele>1138</ele>
        <time>2013-05-11T08:26:16Z</time>
      </trkpt>
      <trkpt lat="43.91357" lon="7.36219">
        <ele>1138</ele>
        <time>2013-05-11T08:26:21Z</time>
      </trkpt>
      <trkpt lat="43.91353" lon="7.36247">
        <ele>1138</ele>
        <time>2013-05-11T08:26:27Z</time>
      </trkpt>
      <trkpt lat="43.91349" lon="7.36271">
        <ele>1138</ele>
        <time>2013-05-11T08:26:32Z</time>
      </trkpt>
      <trkpt lat="43.91351" lon="7.36293">
        <ele>1138</ele>
        <time>2013-05-11T08:26:37Z</time>
      </trkpt>
      <trkpt lat="43.91359" lon="7.36312">
        <ele>1138</ele>
        <time>2013-05-11T08:26:42Z</time>
      </trkpt>
      <trkpt lat="43.91376" lon="7.36313">
        <ele>1138</ele>
        <time>2013-05-11T08:26:48Z</time>
      </trkpt>
      <trkpt lat="43.91389" lon="7.36304">
        <ele>1139</ele>
        <time>2013-05-11T08:26:53Z</time>
      </trkpt>
      <trkpt lat="43.91405" lon="7.3631">
        <ele>1144</ele>
        <time>2013-05-11T08:26:59Z</time>
      </trkpt>
      <trkpt lat="43.91419" lon="7.36316">
        <ele>1145</ele>
        <time>2013-05-11T08:27:04Z</time>
      </trkpt>
      <trkpt lat="43.91434" lon="7.3632">
        <ele>1145</ele>
        <time>2013-05-11T08:27:09Z</time>
      </trkpt>
      <trkpt lat="43.91452" lon="7.36325">
        <ele>1145</ele>
        <time>2013-05-11T08:27:15Z</time>
      </trkpt>
      <trkpt lat="43.91466" lon="7.36329">
        <ele>1145</ele>
        <time>2013-05-11T08:27:20Z</time>
      </trkpt>
      <trkpt lat="43.91483" lon="7.36333">
        <ele>1145</ele>
        <time>2013-05-11T08:27:26Z</time>
      </trkpt>
      <trkpt lat="43.915" lon="7.36337">
        <ele>1145</ele>
        <time>2013-05-11T08:27:31Z</time>
      </trkpt>
      <trkpt lat="43.91515" lon="7.36343">
        <ele>1145</ele>
        <time>2013-05-11T08:27:36Z</time>
      </trkpt>
      <trkpt lat="43.91529" lon="7.36352">
        <ele>1145</ele>
        <time>2013-05-11T08:27:41Z</time>
      </trkpt>
      <trkpt lat="43.91533" lon="7.36368">
        <ele>1145</ele>
        <time>2013-05-11T08:27:46Z</time>
      </trkpt>
      <trkpt lat="43.91529" lon="7.36385">
        <ele>1148</ele>
        <time>2013-05-11T08:27:52Z</time>
      </trkpt>
      <trkpt lat="43.91515" lon="7.36402">
        <ele>1150</ele>
        <time>2013-05-11T08:27:57Z</time>
      </trkpt>
      <trkpt lat="43.91502" lon="7.36421">
        <ele>1151</ele>
        <time>2013-05-11T08:28:03Z</time>
      </trkpt>
      <trkpt lat="43.9149" lon="7.36441">
        <ele>1153</ele>
        <time>2013-05-11T08:28:08Z</time>
      </trkpt>
      <trkpt lat="43.91478" lon="7.36458">
        <ele>1153</ele>
        <time>2013-05-11T08:28:13Z</time>
      </trkpt>
      <trkpt lat="43.91471" lon="7.36476">
        <ele>1154</ele>
        <time>2013-05-11T08:28:18Z</time>
      </trkpt>
      <trkpt lat="43.91461" lon="7.3649">
        <ele>1156</ele>
        <time>2013-05-11T08:28:23Z</time>
      </trkpt>
      <trkpt lat="43.91449" lon="7.36507">
        <ele>1157</ele>
        <time>2013-05-11T08:28:29Z</time>
      </trkpt>
      <trkpt lat="43.91453" lon="7.36523">
        <ele>1157</ele>
        <time>2013-05-11T08:28:34Z</time>
      </trkpt>
      <trkpt lat="43.91469" lon="7.36523">
        <ele>1158</ele>
        <time>2013-05-11T08:28:40Z</time>
      </trkpt>
      <trkpt lat="43.91483" lon="7.36528">
        <ele>1158</ele>
        <time>2013-05-11T08:28:45Z</time>
      </trkpt>
      <trkpt lat="43.91494" lon="7.36537">
        <ele>1159</ele>
        <time>2013-05-11T08:28:50Z</time>
      </trkpt>
      <trkpt lat="43.91505" lon="7.36547">
        <ele>1160</ele>
        <time>2013-05-11T08:28:55Z</time>
      </trkpt>
      <trkpt lat="43.91518" lon="7.36561">
        <ele>1161</ele>
        <time>2013-05-11T08:29:01Z</time>
      </trkpt>
      <trkpt lat="43.91531" lon="7.3657">
        <ele>1163</ele>
        <time>2013-05-11T08:29:06Z</time>
      </trkpt>
      <trkpt lat="43.91546" lon="7.36575">
        <ele>1163</ele>
        <time>2013-05-11T08:29:11Z</time>
      </trkpt>
      <trkpt lat="43.91563" lon="7.36579">
        <ele>1163</ele>
        <time>2013-05-11T08:29:16Z</time>
      </trkpt>
      <trkpt lat="43.91576" lon="7.36591">
        <ele>1163</ele>
        <time>2013-05-11T08:29:21Z</time>
      </trkpt>
      <trkpt lat="43.91585" lon="7.36605">
        <ele>1163</ele>
        <time>2013-05-11T08:29:26Z</time>
      </trkpt>
      <trkpt lat="43.91585" lon="7.36633">
        <ele>1163</ele>
        <time>2013-05-11T08:29:31Z</time>
      </trkpt>
      <trkpt lat="43.91577" lon="7.3666">
        <ele>1164</ele>
        <time>2013-05-11T08:29:36Z</time>
      </trkpt>
      <trkpt lat="43.91565" lon="7.3668">
        <ele>1165</ele>
        <time>2013-05-11T08:29:41Z</time>
      </trkpt>
      <trkpt lat="43.91551" lon="7.367">
        <ele>1165</ele>
        <time>2013-05-11T08:29:46Z</time>
      </trkpt>
      <trkpt lat="43.91541" lon="7.36712">
        <ele>1165</ele>
        <time>2013-05-11T08:29:52Z</time>
      </trkpt>
      <trkpt lat="43.91531" lon="7.3673">
        <ele>1165</ele>
        <time>2013-05-11T08:29:57Z</time>
      </trkpt>
      <trkpt lat="43.91525" lon="7.36745">
        <ele>1165</ele>
        <time>2013-05-11T08:30:02Z</time>
      </trkpt>
      <trkpt lat="43.91516" lon="7.3676">
        <ele>1167</ele>
        <time>2013-05-11T08:30:07Z</time>
      </trkpt>
      <trkpt lat="43.91523" lon="7.36771">
        <ele>1169</ele>
        <time>2013-05-11T08:30:12Z</time>
      </trkpt>
      <trkpt lat="43.91537" lon="7.36775">
        <ele>1170</ele>
        <time>2013-05-11T08:30:17Z</time>
      </trkpt>
      <trkpt lat="43.91554" lon="7.36779">
        <ele>1172</ele>
        <time>2013-05-11T08:30:22Z</time>
      </trkpt>
      <trkpt lat="43.91569" lon="7.36785">
        <ele>1172</ele>
        <time>2013-05-11T08:30:27Z</time>
      </trkpt>
      <trkpt lat="43.91586" lon="7.36797">
        <ele>1172</ele>
        <time>2013-05-11T08:30:32Z</time>
      </trkpt>
      <trkpt lat="43.91594" lon="7.36826">
        <ele>1172</ele>
        <time>2013-05-11T08:30:37Z</time>
      </trkpt>
      <trkpt lat="43.91594" lon="7.36854">
        <ele>1173</ele>
        <time>2013-05-11T08:30:43Z</time>
      </trkpt>
      <trkpt lat="43.91591" lon="7.36877">
        <ele>1175</ele>
        <time>2013-05-11T08:30:48Z</time>
      </trkpt>
      <trkpt lat="43.91595" lon="7.369">
        <ele>1176</ele>
        <time>2013-05-11T08:30:53Z</time>
      </trkpt>
      <trkpt lat="43.91601" lon="7.36917">
        <ele>1177</ele>
        <time>2013-05-11T08:30:58Z</time>
      </trkpt>
      <trkpt lat="43.91602" lon="7.36939">
        <ele>1177</ele>
        <time>2013-05-11T08:31:03Z</time>
      </trkpt>
      <trkpt lat="43.91604" lon="7.3696">
        <ele>1178</ele>
        <time>2013-05-11T08:31:08Z</time>
      </trkpt>
      <trkpt lat="43.91619" lon="7.36974">
        <ele>1179</ele>
        <time>2013-05-11T08:31:13Z</time>
      </trkpt>
      <trkpt lat="43.91637" lon="7.36974">
        <ele>1180</ele>
        <time>2013-05-11T08:31:18Z</time>
      </trkpt>
      <trkpt lat="43.91656" lon="7.36957">
        <ele>1180</ele>
        <time>2013-05-11T08:31:23Z</time>
      </trkpt>
      <trkpt lat="43.91665" lon="7.36939">
        <ele>1181</ele>
        <time>2013-05-11T08:31:28Z</time>
      </trkpt>
      <trkpt lat="43.9167" lon="7.36922">
        <ele>1183</ele>
        <time>2013-05-11T08:31:33Z</time>
      </trkpt>
      <trkpt lat="43.91676" lon="7.36905">
        <ele>1184</ele>
        <time>2013-05-11T08:31:38Z</time>
      </trkpt>
      <trkpt lat="43.91679" lon="7.36888">
        <ele>1186</ele>
        <time>2013-05-11T08:31:43Z</time>
      </trkpt>
      <trkpt lat="43.91682" lon="7.36868">
        <ele>1186</ele>
        <time>2013-05-11T08:31:48Z</time>
      </trkpt>
      <trkpt lat="43.91687" lon="7.36848">
        <ele>1188</ele>
        <time>2013-05-11T08:31:54Z</time>
      </trkpt>
      <trkpt lat="43.91697" lon="7.36824">
        <ele>1192</ele>
        <time>2013-05-11T08:31:59Z</time>
      </trkpt>
      <trkpt lat="43.91702" lon="7.36803">
        <ele>1194</ele>
        <time>2013-05-11T08:32:04Z</time>
      </trkpt>
      <trkpt lat="43.91704" lon="7.36785">
        <ele>1194</ele>
        <time>2013-05-11T08:32:09Z</time>
      </trkpt>
      <trkpt lat="43.91712" lon="7.36767">
        <ele>1194</ele>
        <time>2013-05-11T08:32:14Z</time>
      </trkpt>
      <trkpt lat="43.91726" lon="7.36757">
        <ele>1194</ele>
        <time>2013-05-11T08:32:19Z</time>
      </trkpt>
      <trkpt lat="43.91739" lon="7.36749">
        <ele>1194</ele>
        <time>2013-05-11T08:32:24Z</time>
      </trkpt>
      <trkpt lat="43.91743" lon="7.36733">
        <ele>1194</ele>
        <time>2013-05-11T08:32:29Z</time>
      </trkpt>
      <trkpt lat="43.91746" lon="7.36716">
        <ele>1195</ele>
        <time>2013-05-11T08:32:34Z</time>
      </trkpt>
      <trkpt lat="43.91751" lon="7.36697">
        <ele>1198</ele>
        <time>2013-05-11T08:32:39Z</time>
      </trkpt>
      <trkpt lat="43.91764" lon="7.36679">
        <ele>1202</ele>
        <time>2013-05-11T08:32:44Z</time>
      </trkpt>
      <trkpt lat="43.91777" lon="7.36665">
        <ele>1202</ele>
        <time>2013-05-11T08:32:49Z</time>
      </trkpt>
      <trkpt lat="43.91788" lon="7.36647">
        <ele>1202</ele>
        <time>2013-05-11T08:32:54Z</time>
      </trkpt>
      <trkpt lat="43.91799" lon="7.36631">
        <ele>1202</ele>
        <time>2013-05-11T08:32:59Z</time>
      </trkpt>
      <trkpt lat="43.91813" lon="7.36615">
        <ele>1202</ele>
        <time>2013-05-11T08:33:05Z</time>
      </trkpt>
      <trkpt lat="43.91821" lon="7.36597">
        <ele>1206</ele>
        <time>2013-05-11T08:33:10Z</time>
      </trkpt>
      <trkpt lat="43.91824" lon="7.36568">
        <ele>1212</ele>
        <time>2013-05-11T08:33:16Z</time>
      </trkpt>
      <trkpt lat="43.91832" lon="7.36547">
        <ele>1216</ele>
        <time>2013-05-11T08:33:22Z</time>
      </trkpt>
      <trkpt lat="43.91851" lon="7.36527">
        <ele>1222</ele>
        <time>2013-05-11T08:33:27Z</time>
      </trkpt>
      <trkpt lat="43.91861" lon="7.36514">
        <ele>1227</ele>
        <time>2013-05-11T08:33:32Z</time>
      </trkpt>
      <trkpt lat="43.91869" lon="7.36517">
        <ele>1227</ele>
        <time>2013-05-11T08:33:37Z</time>
      </trkpt>
      <trkpt lat="43.91875" lon="7.3653">
        <ele>1227</ele>
        <time>2013-05-11T08:33:42Z</time>
      </trkpt>
      <trkpt lat="43.9188" lon="7.36546">
        <ele>1224</ele>
        <time>2013-05-11T08:33:47Z</time>
      </trkpt>
      <trkpt lat="43.9189" lon="7.36552">
        <ele>1221</ele>
        <time>2013-05-11T08:33:52Z</time>
      </trkpt>
      <trkpt lat="43.91902" lon="7.36556">
        <ele>1220</ele>
        <time>2013-05-11T08:33:57Z</time>
      </trkpt>
      <trkpt lat="43.91914" lon="7.36561">
        <ele>1220</ele>
        <time>2013-05-11T08:34:02Z</time>
      </trkpt>
      <trkpt lat="43.91926" lon="7.36571">
        <ele>1219</ele>
        <time>2013-05-11T08:34:07Z</time>
      </trkpt>
      <trkpt lat="43.91926" lon="7.36584">
        <ele>1217</ele>
        <time>2013-05-11T08:34:12Z</time>
      </trkpt>
      <trkpt lat="43.91923" lon="7.36606">
        <ele>1216</ele>
        <time>2013-05-11T08:34:17Z</time>
      </trkpt>
      <trkpt lat="43.91926" lon="7.36629">
        <ele>1216</ele>
        <time>2013-05-11T08:34:23Z</time>
      </trkpt>
      <trkpt lat="43.9193" lon="7.36654">
        <ele>1216</ele>
        <time>2013-05-11T08:34:28Z</time>
      </trkpt>
      <trkpt lat="43.91933" lon="7.36676">
        <ele>1216</ele>
        <time>2013-05-11T08:34:33Z</time>
      </trkpt>
      <trkpt lat="43.91933" lon="7.36698">
        <ele>1216</ele>
        <time>2013-05-11T08:34:38Z</time>
      </trkpt>
      <trkpt lat="43.91936" lon="7.36717">
        <ele>1216</ele>
        <time>2013-05-11T08:34:43Z</time>
      </trkpt>
      <trkpt lat="43.91944" lon="7.3673">
        <ele>1216</ele>
        <time>2013-05-11T08:34:48Z</time>
      </trkpt>
      <trkpt lat="43.91956" lon="7.36735">
        <ele>1216</ele>
        <time>2013-05-11T08:34:53Z</time>
      </trkpt>
      <trkpt lat="43.91968" lon="7.36742">
        <ele>1216</ele>
        <time>2013-05-11T08:34:58Z</time>
      </trkpt>
      <trkpt lat="43.9198" lon="7.36746">
        <ele>1218</ele>
        <time>2013-05-11T08:35:03Z</time>
      </trkpt>
      <trkpt lat="43.91996" lon="7.36745">
        <ele>1220</ele>
        <time>2013-05-11T08:35:09Z</time>
      </trkpt>
      <trkpt lat="43.92009" lon="7.36751">
        <ele>1222</ele>
        <time>2013-05-11T08:35:14Z</time>
      </trkpt>
      <trkpt lat="43.92018" lon="7.36761">
        <ele>1225</ele>
        <time>2013-05-11T08:35:19Z</time>
      </trkpt>
      <trkpt lat="43.92029" lon="7.36772">
        <ele>1225</ele>
        <time>2013-05-11T08:35:25Z</time>
      </trkpt>
      <trkpt lat="43.92044" lon="7.36779">
        <ele>1225</ele>
        <time>2013-05-11T08:35:31Z</time>
      </trkpt>
      <trkpt lat="43.92056" lon="7.36782">
        <ele>1225</ele>
        <time>2013-05-11T08:35:36Z</time>
      </trkpt>
      <trkpt lat="43.92067" lon="7.36783">
        <ele>1225</ele>
        <time>2013-05-11T08:35:41Z</time>
      </trkpt>
      <trkpt lat="43.92076" lon="7.36788">
        <ele>1226</ele>
        <time>2013-05-11T08:35:46Z</time>
      </trkpt>
      <trkpt lat="43.92086" lon="7.36789">
        <ele>1227</ele>
        <time>2013-05-11T08:35:51Z</time>
      </trkpt>
      <trkpt lat="43.92101" lon="7.3678">
        <ele>1228</ele>
        <time>2013-05-11T08:35:56Z</time>
      </trkpt>
      <trkpt lat="43.92113" lon="7.36766">
        <ele>1228</ele>
        <time>2013-05-11T08:36:01Z</time>
      </trkpt>
      <trkpt lat="43.92123" lon="7.3675">
        <ele>1228</ele>
        <time>2013-05-11T08:36:06Z</time>
      </trkpt>
      <trkpt lat="43.92132" lon="7.36734">
        <ele>1228</ele>
        <time>2013-05-11T08:36:11Z</time>
      </trkpt>
      <trkpt lat="43.92141" lon="7.36726">
        <ele>1230</ele>
        <time>2013-05-11T08:36:16Z</time>
      </trkpt>
      <trkpt lat="43.92147" lon="7.36742">
        <ele>1230</ele>
        <time>2013-05-11T08:36:21Z</time>
      </trkpt>
      <trkpt lat="43.92154" lon="7.36766">
        <ele>1231</ele>
        <time>2013-05-11T08:36:26Z</time>
      </trkpt>
      <trkpt lat="43.92161" lon="7.36794">
        <ele>1231</ele>
        <time>2013-05-11T08:36:31Z</time>
      </trkpt>
      <trkpt lat="43.92177" lon="7.36818">
        <ele>1231</ele>
        <time>2013-05-11T08:36:37Z</time>
      </trkpt>
      <trkpt lat="43.92193" lon="7.36834">
        <ele>1231</ele>
        <time>2013-05-11T08:36:42Z</time>
      </trkpt>
      <trkpt lat="43.92203" lon="7.36852">
        <ele>1231</ele>
        <time>2013-05-11T08:36:47Z</time>
      </trkpt>
      <trkpt lat="43.92202" lon="7.36874">
        <ele>1231</ele>
        <time>2013-05-11T08:36:52Z</time>
      </trkpt>
      <trkpt lat="43.92206" lon="7.36898">
        <ele>1231</ele>
        <time>2013-05-11T08:36:57Z</time>
      </trkpt>
      <trkpt lat="43.92215" lon="7.36915">
        <ele>1232</ele>
        <time>2013-05-11T08:37:02Z</time>
      </trkpt>
      <trkpt lat="43.92226" lon="7.36932">
        <ele>1232</ele>
        <time>2013-05-11T08:37:07Z</time>
      </trkpt>
      <trkpt lat="43.92237" lon="7.36945">
        <ele>1232</ele>
        <time>2013-05-11T08:37:12Z</time>
      </trkpt>
      <trkpt lat="43.92248" lon="7.36956">
        <ele>1232</ele>
        <time>2013-05-11T08:37:17Z</time>
      </trkpt>
      <trkpt lat="43.92257" lon="7.36969">
        <ele>1234</ele>
        <time>2013-05-11T08:37:22Z</time>
      </trkpt>
      <trkpt lat="43.92268" lon="7.3698">
        <ele>1235</ele>
        <time>2013-05-11T08:37:27Z</time>
      </trkpt>
      <trkpt lat="43.92279" lon="7.36989">
        <ele>1235</ele>
        <time>2013-05-11T08:37:32Z</time>
      </trkpt>
      <trkpt lat="43.92287" lon="7.36998">
        <ele>1235</ele>
        <time>2013-05-11T08:37:37Z</time>
      </trkpt>
      <trkpt lat="43.92294" lon="7.36994">
        <ele>1238</ele>
        <time>2013-05-11T08:37:42Z</time>
      </trkpt>
      <trkpt lat="43.92298" lon="7.36979">
        <ele>1239</ele>
        <time>2013-05-11T08:37:47Z</time>
      </trkpt>
      <trkpt lat="43.92304" lon="7.36966">
        <ele>1241</ele>
        <time>2013-05-11T08:37:52Z</time>
      </trkpt>
      <trkpt lat="43.92311" lon="7.36953">
        <ele>1243</ele>
        <time>2013-05-11T08:37:57Z</time>
      </trkpt>
      <trkpt lat="43.92317" lon="7.36937">
        <ele>1245</ele>
        <time>2013-05-11T08:38:02Z</time>
      </trkpt>
      <trkpt lat="43.92324" lon="7.36917">
        <ele>1247</ele>
        <time>2013-05-11T08:38:07Z</time>
      </trkpt>
      <trkpt lat="43.9233" lon="7.36895">
        <ele>1248</ele>
        <time>2013-05-11T08:38:12Z</time>
      </trkpt>
      <trkpt lat="43.92334" lon="7.36871">
        <ele>1250</ele>
        <time>2013-05-11T08:38:17Z</time>
      </trkpt>
      <trkpt lat="43.9234" lon="7.36844">
        <ele>1252</ele>
        <time>2013-05-11T08:38:23Z</time>
      </trkpt>
      <trkpt lat="43.9235" lon="7.36833">
        <ele>1252</ele>
        <time>2013-05-11T08:38:28Z</time>
      </trkpt>
      <trkpt lat="43.92362" lon="7.36848">
        <ele>1257</ele>
        <time>2013-05-11T08:38:33Z</time>
      </trkpt>
      <trkpt lat="43.92371" lon="7.36858">
        <ele>1258</ele>
        <time>2013-05-11T08:38:38Z</time>
      </trkpt>
      <trkpt lat="43.92378" lon="7.36866">
        <ele>1258</ele>
        <time>2013-05-11T08:38:43Z</time>
      </trkpt>
      <trkpt lat="43.92392" lon="7.36862">
        <ele>1258</ele>
        <time>2013-05-11T08:38:48Z</time>
      </trkpt>
      <trkpt lat="43.92407" lon="7.3685">
        <ele>1258</ele>
        <time>2013-05-11T08:38:54Z</time>
      </trkpt>
      <trkpt lat="43.92419" lon="7.3684">
        <ele>1258</ele>
        <time>2013-05-11T08:38:59Z</time>
      </trkpt>
      <trkpt lat="43.92429" lon="7.36828">
        <ele>1258</ele>
        <time>2013-05-11T08:39:04Z</time>
      </trkpt>
      <trkpt lat="43.9244" lon="7.36815">
        <ele>1258</ele>
        <time>2013-05-11T08:39:09Z</time>
      </trkpt>
      <trkpt lat="43.92449" lon="7.36801">
        <ele>1258</ele>
        <time>2013-05-11T08:39:14Z</time>
      </trkpt>
      <trkpt lat="43.92458" lon="7.36785">
        <ele>1261</ele>
        <time>2013-05-11T08:39:19Z</time>
      </trkpt>
      <trkpt lat="43.92455" lon="7.36764">
        <ele>1264</ele>
        <time>2013-05-11T08:39:24Z</time>
      </trkpt>
      <trkpt lat="43.92454" lon="7.36744">
        <ele>1266</ele>
        <time>2013-05-11T08:39:29Z</time>
      </trkpt>
      <trkpt lat="43.92462" lon="7.36728">
        <ele>1267</ele>
        <time>2013-05-11T08:39:34Z</time>
      </trkpt>
      <trkpt lat="43.92474" lon="7.36718">
        <ele>1267</ele>
        <time>2013-05-11T08:39:40Z</time>
      </trkpt>
      <trkpt lat="43.92485" lon="7.36707">
        <ele>1267</ele>
        <time>2013-05-11T08:39:46Z</time>
      </trkpt>
      <trkpt lat="43.92493" lon="7.36696">
        <ele>1267</ele>
        <time>2013-05-11T08:39:51Z</time>
      </trkpt>
      <trkpt lat="43.925" lon="7.36684">
        <ele>1265</ele>
        <time>2013-05-11T08:39:56Z</time>
      </trkpt>
      <trkpt lat="43.92507" lon="7.36669">
        <ele>1265</ele>
        <time>2013-05-11T08:40:01Z</time>
      </trkpt>
      <trkpt lat="43.92514" lon="7.36655">
        <ele>1265</ele>
        <time>2013-05-11T08:40:06Z</time>
      </trkpt>
      <trkpt lat="43.92521" lon="7.3664">
        <ele>1265</ele>
        <time>2013-05-11T08:40:11Z</time>
      </trkpt>
      <trkpt lat="43.9253" lon="7.36629">
        <ele>1265</ele>
        <time>2013-05-11T08:40:16Z</time>
      </trkpt>
      <trkpt lat="43.92537" lon="7.36616">
        <ele>1265</ele>
        <time>2013-05-11T08:40:21Z</time>
      </trkpt>
      <trkpt lat="43.9254" lon="7.36599">
        <ele>1265</ele>
        <time>2013-05-11T08:40:26Z</time>
      </trkpt>
      <trkpt lat="43.92542" lon="7.3658">
        <ele>1265</ele>
        <time>2013-05-11T08:40:31Z</time>
      </trkpt>
      <trkpt lat="43.92545" lon="7.36569">
        <ele>1266</ele>
        <time>2013-05-11T08:40:36Z</time>
      </trkpt>
      <trkpt lat="43.92554" lon="7.36571">
        <ele>1269</ele>
        <time>2013-05-11T08:40:41Z</time>
      </trkpt>
      <trkpt lat="43.92566" lon="7.36568">
        <ele>1273</ele>
        <time>2013-05-11T08:40:46Z</time>
      </trkpt>
      <trkpt lat="43.92579" lon="7.36565">
        <ele>1273</ele>
        <time>2013-05-11T08:40:51Z</time>
      </trkpt>
      <trkpt lat="43.92591" lon="7.36576">
        <ele>1275</ele>
        <time>2013-05-11T08:40:56Z</time>
      </trkpt>
      <trkpt lat="43.92602" lon="7.36589">
        <ele>1279</ele>
        <time>2013-05-11T08:41:01Z</time>
      </trkpt>
      <trkpt lat="43.9262" lon="7.36583">
        <ele>1280</ele>
        <time>2013-05-11T08:41:06Z</time>
      </trkpt>
      <trkpt lat="43.92632" lon="7.36583">
        <ele>1280</ele>
        <time>2013-05-11T08:41:11Z</time>
      </trkpt>
      <trkpt lat="43.92645" lon="7.36585">
        <ele>1280</ele>
        <time>2013-05-11T08:41:16Z</time>
      </trkpt>
      <trkpt lat="43.92655" lon="7.36585">
        <ele>1280</ele>
        <time>2013-05-11T08:41:21Z</time>
      </trkpt>
      <trkpt lat="43.9267" lon="7.3658">
        <ele>1280</ele>
        <time>2013-05-11T08:41:27Z</time>
      </trkpt>
      <trkpt lat="43.9268" lon="7.3658">
        <ele>1280</ele>
        <time>2013-05-11T08:41:32Z</time>
      </trkpt>
      <trkpt lat="43.92688" lon="7.36576">
        <ele>1280</ele>
        <time>2013-05-11T08:41:37Z</time>
      </trkpt>
      <trkpt lat="43.92696" lon="7.36574">
        <ele>1280</ele>
        <time>2013-05-11T08:41:42Z</time>
      </trkpt>
      <trkpt lat="43.92706" lon="7.3657">
        <ele>1281</ele>
        <time>2013-05-11T08:41:47Z</time>
      </trkpt>
      <trkpt lat="43.92717" lon="7.3658">
        <ele>1284</ele>
        <time>2013-05-11T08:41:52Z</time>
      </trkpt>
      <trkpt lat="43.92724" lon="7.36591">
        <ele>1286</ele>
        <time>2013-05-11T08:41:57Z</time>
      </trkpt>
      <trkpt lat="43.92731" lon="7.36601">
        <ele>1286</ele>
        <time>2013-05-11T08:42:02Z</time>
      </trkpt>
      <trkpt lat="43.9274" lon="7.36608">
        <ele>1286</ele>
        <time>2013-05-11T08:42:07Z</time>
      </trkpt>
      <trkpt lat="43.9275" lon="7.3661">
        <ele>1286</ele>
        <time>2013-05-11T08:42:12Z</time>
      </trkpt>
      <trkpt lat="43.92762" lon="7.36604">
        <ele>1286</ele>
        <time>2013-05-11T08:42:17Z</time>
      </trkpt>
      <trkpt lat="43.92779" lon="7.36593">
        <ele>1286</ele>
        <time>2013-05-11T08:42:23Z</time>
      </trkpt>
      <trkpt lat="43.92795" lon="7.3658">
        <ele>1286</ele>
        <time>2013-05-11T08:42:28Z</time>
      </trkpt>
      <trkpt lat="43.92805" lon="7.36568">
        <ele>1286</ele>
        <time>2013-05-11T08:42:33Z</time>
      </trkpt>
      <trkpt lat="43.92816" lon="7.3656">
        <ele>1286</ele>
        <time>2013-05-11T08:42:38Z</time>
      </trkpt>
      <trkpt lat="43.92828" lon="7.36552">
        <ele>1286</ele>
        <time>2013-05-11T08:42:43Z</time>
      </trkpt>
      <trkpt lat="43.92839" lon="7.36542">
        <ele>1286</ele>
        <time>2013-05-11T08:42:48Z</time>
      </trkpt>
      <trkpt lat="43.92852" lon="7.36534">
        <ele>1286</ele>
        <time>2013-05-11T08:42:53Z</time>
      </trkpt>
      <trkpt lat="43.92863" lon="7.36534">
        <ele>1286</ele>
        <time>2013-05-11T08:42:58Z</time>
      </trkpt>
      <trkpt lat="43.92874" lon="7.36552">
        <ele>1292</ele>
        <time>2013-05-11T08:43:04Z</time>
      </trkpt>
      <trkpt lat="43.92878" lon="7.36577">
        <ele>1297</ele>
        <time>2013-05-11T08:43:09Z</time>
      </trkpt>
      <trkpt lat="43.9289" lon="7.36588">
        <ele>1303</ele>
        <time>2013-05-11T08:43:15Z</time>
      </trkpt>
      <trkpt lat="43.92906" lon="7.36589">
        <ele>1308</ele>
        <time>2013-05-11T08:43:20Z</time>
      </trkpt>
      <trkpt lat="43.92923" lon="7.36591">
        <ele>1311</ele>
        <time>2013-05-11T08:43:26Z</time>
      </trkpt>
      <trkpt lat="43.92928" lon="7.36594">
        <ele>1310</ele>
        <time>2013-05-11T08:43:31Z</time>
      </trkpt>
      <trkpt lat="43.92926" lon="7.36612">
        <ele>1305</ele>
        <time>2013-05-11T08:43:36Z</time>
      </trkpt>
      <trkpt lat="43.92925" lon="7.36634">
        <ele>1300</ele>
        <time>2013-05-11T08:43:41Z</time>
      </trkpt>
      <trkpt lat="43.92938" lon="7.36652">
        <ele>1299</ele>
        <time>2013-05-11T08:43:47Z</time>
      </trkpt>
      <trkpt lat="43.92952" lon="7.3666">
        <ele>1299</ele>
        <time>2013-05-11T08:43:53Z</time>
      </trkpt>
      <trkpt lat="43.92964" lon="7.36665">
        <ele>1299</ele>
        <time>2013-05-11T08:43:58Z</time>
      </trkpt>
      <trkpt lat="43.92974" lon="7.36672">
        <ele>1299</ele>
        <time>2013-05-11T08:44:03Z</time>
      </trkpt>
      <trkpt lat="43.92988" lon="7.36689">
        <ele>1300</ele>
        <time>2013-05-11T08:44:09Z</time>
      </trkpt>
      <trkpt lat="43.93005" lon="7.36696">
        <ele>1300</ele>
        <time>2013-05-11T08:44:15Z</time>
      </trkpt>
      <trkpt lat="43.93017" lon="7.36699">
        <ele>1300</ele>
        <time>2013-05-11T08:44:20Z</time>
      </trkpt>
      <trkpt lat="43.93024" lon="7.36713">
        <ele>1300</ele>
        <time>2013-05-11T08:44:25Z</time>
      </trkpt>
      <trkpt lat="43.93019" lon="7.36733">
        <ele>1300</ele>
        <time>2013-05-11T08:44:30Z</time>
      </trkpt>
      <trkpt lat="43.9301" lon="7.3675">
        <ele>1300</ele>
        <time>2013-05-11T08:44:35Z</time>
      </trkpt>
      <trkpt lat="43.9301" lon="7.36771">
        <ele>1300</ele>
        <time>2013-05-11T08:44:40Z</time>
      </trkpt>
      <trkpt lat="43.93008" lon="7.36793">
        <ele>1300</ele>
        <time>2013-05-11T08:44:45Z</time>
      </trkpt>
      <trkpt lat="43.92995" lon="7.36817">
        <ele>1300</ele>
        <time>2013-05-11T08:44:50Z</time>
      </trkpt>
      <trkpt lat="43.92979" lon="7.36834">
        <ele>1300</ele>
        <time>2013-05-11T08:44:55Z</time>
      </trkpt>
      <trkpt lat="43.92965" lon="7.36853">
        <ele>1300</ele>
        <time>2013-05-11T08:45:00Z</time>
      </trkpt>
      <trkpt lat="43.92963" lon="7.36876">
        <ele>1300</ele>
        <time>2013-05-11T08:45:05Z</time>
      </trkpt>
      <trkpt lat="43.92968" lon="7.36898">
        <ele>1300</ele>
        <time>2013-05-11T08:45:10Z</time>
      </trkpt>
      <trkpt lat="43.9297" lon="7.36919">
        <ele>1300</ele>
        <time>2013-05-11T08:45:15Z</time>
      </trkpt>
      <trkpt lat="43.92963" lon="7.36946">
        <ele>1301</ele>
        <time>2013-05-11T08:45:20Z</time>
      </trkpt>
      <trkpt lat="43.9295" lon="7.36965">
        <ele>1303</ele>
        <time>2013-05-11T08:45:25Z</time>
      </trkpt>
      <trkpt lat="43.92937" lon="7.36979">
        <ele>1303</ele>
        <time>2013-05-11T08:45:31Z</time>
      </trkpt>
      <trkpt lat="43.92927" lon="7.36989">
        <ele>1305</ele>
        <time>2013-05-11T08:45:36Z</time>
      </trkpt>
      <trkpt lat="43.9292" lon="7.37001">
        <ele>1306</ele>
        <time>2013-05-11T08:45:42Z</time>
      </trkpt>
      <trkpt lat="43.92918" lon="7.37004">
        <ele>1308</ele>
        <time>2013-05-11T08:45:58Z</time>
      </trkpt>
      <trkpt lat="43.92919" lon="7.37021">
        <ele>1308</ele>
        <time>2013-05-11T08:46:04Z</time>
      </trkpt>
      <trkpt lat="43.92918" lon="7.37044">
        <ele>1308</ele>
        <time>2013-05-11T08:46:09Z</time>
      </trkpt>
      <trkpt lat="43.92923" lon="7.37061">
        <ele>1308</ele>
        <time>2013-05-11T08:46:14Z</time>
      </trkpt>
      <trkpt lat="43.92938" lon="7.37064">
        <ele>1308</ele>
        <time>2013-05-11T08:46:19Z</time>
      </trkpt>
      <trkpt lat="43.92957" lon="7.37066">
        <ele>1308</ele>
        <time>2013-05-11T08:46:24Z</time>
      </trkpt>
      <trkpt lat="43.92979" lon="7.37077">
        <ele>1308</ele>
        <time>2013-05-11T08:46:30Z</time>
      </trkpt>
      <trkpt lat="43.92995" lon="7.37084">
        <ele>1309</ele>
        <time>2013-05-11T08:46:35Z</time>
      </trkpt>
      <trkpt lat="43.9301" lon="7.37096">
        <ele>1311</ele>
        <time>2013-05-11T08:46:40Z</time>
      </trkpt>
      <trkpt lat="43.93031" lon="7.37105">
        <ele>1312</ele>
        <time>2013-05-11T08:46:45Z</time>
      </trkpt>
      <trkpt lat="43.93052" lon="7.37113">
        <ele>1312</ele>
        <time>2013-05-11T08:46:50Z</time>
      </trkpt>
      <trkpt lat="43.93076" lon="7.37114">
        <ele>1312</ele>
        <time>2013-05-11T08:46:56Z</time>
      </trkpt>
      <trkpt lat="43.93099" lon="7.37101">
        <ele>1312</ele>
        <time>2013-05-11T08:47:01Z</time>
      </trkpt>
      <trkpt lat="43.93114" lon="7.37082">
        <ele>1312</ele>
        <time>2013-05-11T08:47:06Z</time>
      </trkpt>
      <trkpt lat="43.9312" lon="7.37051">
        <ele>1312</ele>
        <time>2013-05-11T08:47:11Z</time>
      </trkpt>
      <trkpt lat="43.93131" lon="7.37022">
        <ele>1312</ele>
        <time>2013-05-11T08:47:16Z</time>
      </trkpt>
      <trkpt lat="43.93133" lon="7.36995">
        <ele>1314</ele>
        <time>2013-05-11T08:47:21Z</time>
      </trkpt>
      <trkpt lat="43.93143" lon="7.36967">
        <ele>1316</ele>
        <time>2013-05-11T08:47:26Z</time>
      </trkpt>
      <trkpt lat="43.9316" lon="7.36948">
        <ele>1316</ele>
        <time>2013-05-11T08:47:31Z</time>
      </trkpt>
      <trkpt lat="43.93165" lon="7.36924">
        <ele>1316</ele>
        <time>2013-05-11T08:47:36Z</time>
      </trkpt>
      <trkpt lat="43.93184" lon="7.3691">
        <ele>1316</ele>
        <time>2013-05-11T08:47:41Z</time>
      </trkpt>
      <trkpt lat="43.93198" lon="7.36892">
        <ele>1316</ele>
        <time>2013-05-11T08:47:46Z</time>
      </trkpt>
      <trkpt lat="43.93211" lon="7.36874">
        <ele>1316</ele>
        <time>2013-05-11T08:47:51Z</time>
      </trkpt>
      <trkpt lat="43.93228" lon="7.36873">
        <ele>1316</ele>
        <time>2013-05-11T08:47:56Z</time>
      </trkpt>
      <trkpt lat="43.93243" lon="7.36897">
        <ele>1316</ele>
        <time>2013-05-11T08:48:01Z</time>
      </trkpt>
      <trkpt lat="43.93258" lon="7.36929">
        <ele>1316</ele>
        <time>2013-05-11T08:48:07Z</time>
      </trkpt>
      <trkpt lat="43.93275" lon="7.36955">
        <ele>1316</ele>
        <time>2013-05-11T08:48:13Z</time>
      </trkpt>
      <trkpt lat="43.9329" lon="7.36981">
        <ele>1316</ele>
        <time>2013-05-11T08:48:18Z</time>
      </trkpt>
      <trkpt lat="43.93317" lon="7.36986">
        <ele>1316</ele>
        <time>2013-05-11T08:48:24Z</time>
      </trkpt>
      <trkpt lat="43.9333" lon="7.36963">
        <ele>1316</ele>
        <time>2013-05-11T08:48:29Z</time>
      </trkpt>
      <trkpt lat="43.9334" lon="7.3693">
        <ele>1316</ele>
        <time>2013-05-11T08:48:34Z</time>
      </trkpt>
      <trkpt lat="43.93348" lon="7.3691">
        <ele>1316</ele>
        <time>2013-05-11T08:48:39Z</time>
      </trkpt>
      <trkpt lat="43.93367" lon="7.36925">
        <ele>1317</ele>
        <time>2013-05-11T08:48:44Z</time>
      </trkpt>
      <trkpt lat="43.93384" lon="7.36943">
        <ele>1320</ele>
        <time>2013-05-11T08:48:49Z</time>
      </trkpt>
      <trkpt lat="43.93403" lon="7.36942">
        <ele>1323</ele>
        <time>2013-05-11T08:48:54Z</time>
      </trkpt>
      <trkpt lat="43.93421" lon="7.36926">
        <ele>1323</ele>
        <time>2013-05-11T08:49:00Z</time>
      </trkpt>
      <trkpt lat="43.93436" lon="7.36916">
        <ele>1323</ele>
        <time>2013-05-11T08:49:05Z</time>
      </trkpt>
      <trkpt lat="43.93456" lon="7.36941">
        <ele>1323</ele>
        <time>2013-05-11T08:49:11Z</time>
      </trkpt>
      <trkpt lat="43.93474" lon="7.36956">
        <ele>1323</ele>
        <time>2013-05-11T08:49:16Z</time>
      </trkpt>
      <trkpt lat="43.93505" lon="7.36954">
        <ele>1321</ele>
        <time>2013-05-11T08:49:22Z</time>
      </trkpt>
      <trkpt lat="43.93524" lon="7.36945">
        <ele>1321</ele>
        <time>2013-05-11T08:49:27Z</time>
      </trkpt>
      <trkpt lat="43.93547" lon="7.36954">
        <ele>1321</ele>
        <time>2013-05-11T08:49:32Z</time>
      </trkpt>
      <trkpt lat="43.93572" lon="7.36958">
        <ele>1321</ele>
        <time>2013-05-11T08:49:37Z</time>
      </trkpt>
      <trkpt lat="43.93589" lon="7.36979">
        <ele>1321</ele>
        <time>2013-05-11T08:49:42Z</time>
      </trkpt>
      <trkpt lat="43.9361" lon="7.36992">
        <ele>1321</ele>
        <time>2013-05-11T08:49:47Z</time>
      </trkpt>
      <trkpt lat="43.93605" lon="7.37016">
        <ele>1321</ele>
        <time>2013-05-11T08:49:52Z</time>
      </trkpt>
      <trkpt lat="43.93597" lon="7.37046">
        <ele>1321</ele>
        <time>2013-05-11T08:49:57Z</time>
      </trkpt>
      <trkpt lat="43.93588" lon="7.37071">
        <ele>1321</ele>
        <time>2013-05-11T08:50:02Z</time>
      </trkpt>
      <trkpt lat="43.9357" lon="7.37089">
        <ele>1321</ele>
        <time>2013-05-11T08:50:07Z</time>
      </trkpt>
      <trkpt lat="43.93555" lon="7.37123">
        <ele>1321</ele>
        <time>2013-05-11T08:50:12Z</time>
      </trkpt>
      <trkpt lat="43.93539" lon="7.37146">
        <ele>1321</ele>
        <time>2013-05-11T08:50:17Z</time>
      </trkpt>
      <trkpt lat="43.93532" lon="7.37178">
        <ele>1321</ele>
        <time>2013-05-11T08:50:22Z</time>
      </trkpt>
      <trkpt lat="43.93526" lon="7.37205">
        <ele>1321</ele>
        <time>2013-05-11T08:50:27Z</time>
      </trkpt>
      <trkpt lat="43.93521" lon="7.37228">
        <ele>1322</ele>
        <time>2013-05-11T08:50:32Z</time>
      </trkpt>
      <trkpt lat="43.93536" lon="7.37253">
        <ele>1322</ele>
        <time>2013-05-11T08:50:37Z</time>
      </trkpt>
      <trkpt lat="43.93559" lon="7.37256">
        <ele>1322</ele>
        <time>2013-05-11T08:50:42Z</time>
      </trkpt>
      <trkpt lat="43.93576" lon="7.37268">
        <ele>1322</ele>
        <time>2013-05-11T08:50:47Z</time>
      </trkpt>
      <trkpt lat="43.93593" lon="7.37282">
        <ele>1322</ele>
        <time>2013-05-11T08:50:52Z</time>
      </trkpt>
      <trkpt lat="43.93615" lon="7.37296">
        <ele>1322</ele>
        <time>2013-05-11T08:50:58Z</time>
      </trkpt>
      <trkpt lat="43.93623" lon="7.37324">
        <ele>1322</ele>
        <time>2013-05-11T08:51:04Z</time>
      </trkpt>
      <trkpt lat="43.93638" lon="7.37334">
        <ele>1322</ele>
        <time>2013-05-11T08:51:09Z</time>
      </trkpt>
      <trkpt lat="43.93656" lon="7.37345">
        <ele>1324</ele>
        <time>2013-05-11T08:51:14Z</time>
      </trkpt>
      <trkpt lat="43.93666" lon="7.37366">
        <ele>1326</ele>
        <time>2013-05-11T08:51:19Z</time>
      </trkpt>
      <trkpt lat="43.93654" lon="7.37393">
        <ele>1327</ele>
        <time>2013-05-11T08:51:24Z</time>
      </trkpt>
      <trkpt lat="43.93635" lon="7.37423">
        <ele>1330</ele>
        <time>2013-05-11T08:51:30Z</time>
      </trkpt>
      <trkpt lat="43.93607" lon="7.3746">
        <ele>1330</ele>
        <time>2013-05-11T08:51:36Z</time>
      </trkpt>
      <trkpt lat="43.93576" lon="7.3749">
        <ele>1330</ele>
        <time>2013-05-11T08:51:41Z</time>
      </trkpt>
      <trkpt lat="43.93546" lon="7.37512">
        <ele>1330</ele>
        <time>2013-05-11T08:51:46Z</time>
      </trkpt>
      <trkpt lat="43.93528" lon="7.37536">
        <ele>1330</ele>
        <time>2013-05-11T08:51:51Z</time>
      </trkpt>
      <trkpt lat="43.93507" lon="7.37548">
        <ele>1330</ele>
        <time>2013-05-11T08:51:56Z</time>
      </trkpt>
      <trkpt lat="43.93479" lon="7.37558">
        <ele>1330</ele>
        <time>2013-05-11T08:52:02Z</time>
      </trkpt>
      <trkpt lat="43.93456" lon="7.37572">
        <ele>1330</ele>
        <time>2013-05-11T08:52:07Z</time>
      </trkpt>
      <trkpt lat="43.93436" lon="7.37584">
        <ele>1330</ele>
        <time>2013-05-11T08:52:12Z</time>
      </trkpt>
      <trkpt lat="43.93419" lon="7.37596">
        <ele>1330</ele>
        <time>2013-05-11T08:52:17Z</time>
      </trkpt>
      <trkpt lat="43.93394" lon="7.37607">
        <ele>1332</ele>
        <time>2013-05-11T08:52:23Z</time>
      </trkpt>
      <trkpt lat="43.93359" lon="7.37622">
        <ele>1332</ele>
        <time>2013-05-11T08:52:29Z</time>
      </trkpt>
      <trkpt lat="43.93333" lon="7.37647">
        <ele>1334</ele>
        <time>2013-05-11T08:52:34Z</time>
      </trkpt>
      <trkpt lat="43.93306" lon="7.37661">
        <ele>1334</ele>
        <time>2013-05-11T08:52:39Z</time>
      </trkpt>
      <trkpt lat="43.9331" lon="7.37686">
        <ele>1334</ele>
        <time>2013-05-11T08:52:44Z</time>
      </trkpt>
      <trkpt lat="43.93347" lon="7.37689">
        <ele>1333</ele>
        <time>2013-05-11T08:52:49Z</time>
      </trkpt>
      <trkpt lat="43.93386" lon="7.37689">
        <ele>1329</ele>
        <time>2013-05-11T08:52:54Z</time>
      </trkpt>
      <trkpt lat="43.93428" lon="7.37689">
        <ele>1324</ele>
        <time>2013-05-11T08:53:00Z</time>
      </trkpt>
      <trkpt lat="43.93462" lon="7.377">
        <ele>1320</ele>
        <time>2013-05-11T08:53:05Z</time>
      </trkpt>
      <trkpt lat="43.93501" lon="7.37713">
        <ele>1320</ele>
        <time>2013-05-11T08:53:10Z</time>
      </trkpt>
      <trkpt lat="43.93526" lon="7.37742">
        <ele>1320</ele>
        <time>2013-05-11T08:53:15Z</time>
      </trkpt>
      <trkpt lat="43.9355" lon="7.3776">
        <ele>1320</ele>
        <time>2013-05-11T08:53:20Z</time>
      </trkpt>
      <trkpt lat="43.9357" lon="7.37773">
        <ele>1324</ele>
        <time>2013-05-11T08:53:25Z</time>
      </trkpt>
      <trkpt lat="43.93537" lon="7.37816">
        <ele>1324</ele>
        <time>2013-05-11T08:53:30Z</time>
      </trkpt>
      <trkpt lat="43.9351" lon="7.37872">
        <ele>1321</ele>
        <time>2013-05-11T08:53:36Z</time>
      </trkpt>
      <trkpt lat="43.93539" lon="7.37921">
        <ele>1316</ele>
        <time>2013-05-11T08:53:41Z</time>
      </trkpt>
      <trkpt lat="43.93542" lon="7.37963">
        <ele>1316</ele>
        <time>2013-05-11T08:53:47Z</time>
      </trkpt>
      <trkpt lat="43.93514" lon="7.37981">
        <ele>1313</ele>
        <time>2013-05-11T08:53:52Z</time>
      </trkpt>
      <trkpt lat="43.93483" lon="7.38011">
        <ele>1312</ele>
        <time>2013-05-11T08:53:57Z</time>
      </trkpt>
      <trkpt lat="43.93471" lon="7.38074">
        <ele>1307</ele>
        <time>2013-05-11T08:54:03Z</time>
      </trkpt>
      <trkpt lat="43.93472" lon="7.38138">
        <ele>1305</ele>
        <time>2013-05-11T08:54:08Z</time>
      </trkpt>
      <trkpt lat="43.93452" lon="7.3818">
        <ele>1303</ele>
        <time>2013-05-11T08:54:13Z</time>
      </trkpt>
      <trkpt lat="43.93411" lon="7.38219">
        <ele>1301</ele>
        <time>2013-05-11T08:54:19Z</time>
      </trkpt>
      <trkpt lat="43.93395" lon="7.38253">
        <ele>1301</ele>
        <time>2013-05-11T08:54:24Z</time>
      </trkpt>
      <trkpt lat="43.93415" lon="7.38275">
        <ele>1301</ele>
        <time>2013-05-11T08:54:29Z</time>
      </trkpt>
      <trkpt lat="43.93419" lon="7.38315">
        <ele>1301</ele>
        <time>2013-05-11T08:54:34Z</time>
      </trkpt>
      <trkpt lat="43.93402" lon="7.38358">
        <ele>1300</ele>
        <time>2013-05-11T08:54:39Z</time>
      </trkpt>
      <trkpt lat="43.93373" lon="7.38406">
        <ele>1300</ele>
        <time>2013-05-11T08:54:44Z</time>
      </trkpt>
      <trkpt lat="43.93347" lon="7.38453">
        <ele>1300</ele>
        <time>2013-05-11T08:54:50Z</time>
      </trkpt>
      <trkpt lat="43.93372" lon="7.38472">
        <ele>1300</ele>
        <time>2013-05-11T08:54:55Z</time>
      </trkpt>
      <trkpt lat="43.93401" lon="7.38499">
        <ele>1297</ele>
        <time>2013-05-11T08:55:00Z</time>
      </trkpt>
      <trkpt lat="43.93422" lon="7.38513">
        <ele>1297</ele>
        <time>2013-05-11T08:55:05Z</time>
      </trkpt>
      <trkpt lat="43.93435" lon="7.38517">
        <ele>1296</ele>
        <time>2013-05-11T08:55:11Z</time>
      </trkpt>
      <trkpt lat="43.93435" lon="7.38534">
        <ele>1296</ele>
        <time>2013-05-11T08:55:16Z</time>
      </trkpt>
      <trkpt lat="43.93436" lon="7.38553">
        <ele>1296</ele>
        <time>2013-05-11T08:55:21Z</time>
      </trkpt>
      <trkpt lat="43.93436" lon="7.38572">
        <ele>1296</ele>
        <time>2013-05-11T08:55:27Z</time>
      </trkpt>
      <trkpt lat="43.93435" lon="7.38575">
        <ele>1296</ele>
        <time>2013-05-11T08:55:32Z</time>
      </trkpt>
      <trkpt lat="43.93433" lon="7.38577">
        <ele>1297</ele>
        <time>2013-05-11T08:55:39Z</time>
      </trkpt>
      <trkpt lat="43.93432" lon="7.38576">
        <ele>1299</ele>
        <time>2013-05-11T08:55:46Z</time>
      </trkpt>
      <trkpt lat="43.93431" lon="7.38576">
        <ele>1299</ele>
        <time>2013-05-11T08:55:53Z</time>
      </trkpt>
      <trkpt lat="43.93431" lon="7.38578">
        <ele>1299</ele>
        <time>2013-05-11T08:55:58Z</time>
      </trkpt>
      <trkpt lat="43.93432" lon="7.38577">
        <ele>1299</ele>
        <time>2013-05-11T08:56:07Z</time>
      </trkpt>
      <trkpt lat="43.93433" lon="7.38573">
        <ele>1299</ele>
        <time>2013-05-11T08:56:16Z</time>
      </trkpt>
      <trkpt lat="43.93432" lon="7.38567">
        <ele>1299</ele>
        <time>2013-05-11T08:56:26Z</time>
      </trkpt>
      <trkpt lat="43.93433" lon="7.38561">
        <ele>1299</ele>
        <time>2013-05-11T08:56:31Z</time>
      </trkpt>
      <trkpt lat="43.93433" lon="7.38553">
        <ele>1299</ele>
        <time>2013-05-11T08:56:36Z</time>
      </trkpt>
      <trkpt lat="43.93433" lon="7.38545">
        <ele>1299</ele>
        <time>2013-05-11T08:56:41Z</time>
      </trkpt>
      <trkpt lat="43.93431" lon="7.38536">
        <ele>1299</ele>
        <time>2013-05-11T08:56:46Z</time>
      </trkpt>
      <trkpt lat="43.9343" lon="7.38527">
        <ele>1299</ele>
        <time>2013-05-11T08:56:51Z</time>
      </trkpt>
      <trkpt lat="43.93426" lon="7.3852">
        <ele>1299</ele>
        <time>2013-05-11T08:56:57Z</time>
      </trkpt>
      <trkpt lat="43.93421" lon="7.38517">
        <ele>1298</ele>
        <time>2013-05-11T08:57:02Z</time>
      </trkpt>
      <trkpt lat="43.93423" lon="7.38524">
        <ele>1297</ele>
        <time>2013-05-11T08:57:08Z</time>
      </trkpt>
      <trkpt lat="43.93425" lon="7.38527">
        <ele>1296</ele>
        <time>2013-05-11T08:57:38Z</time>
      </trkpt>
      <trkpt lat="43.93421" lon="7.38522">
        <ele>1296</ele>
        <time>2013-05-11T08:57:44Z</time>
      </trkpt>
      <trkpt lat="43.9342" lon="7.38519">
        <ele>1296</ele>
        <time>2013-05-11T08:57:50Z</time>
      </trkpt>
      <trkpt lat="43.9342" lon="7.38516">
        <ele>1296</ele>
        <time>2013-05-11T08:57:55Z</time>
      </trkpt>
      <trkpt lat="43.93423" lon="7.38515">
        <ele>1296</ele>
        <time>2013-05-11T08:58:00Z</time>
      </trkpt>
      <trkpt lat="43.93428" lon="7.38519">
        <ele>1296</ele>
        <time>2013-05-11T08:58:06Z</time>
      </trkpt>
      <trkpt lat="43.9343" lon="7.38526">
        <ele>1296</ele>
        <time>2013-05-11T08:58:11Z</time>
      </trkpt>
      <trkpt lat="43.93431" lon="7.38533">
        <ele>1296</ele>
        <time>2013-05-11T08:58:17Z</time>
      </trkpt>
      <trkpt lat="43.93433" lon="7.3854">
        <ele>1296</ele>
        <time>2013-05-11T08:58:23Z</time>
      </trkpt>
      <trkpt lat="43.93434" lon="7.38547">
        <ele>1296</ele>
        <time>2013-05-11T08:58:28Z</time>
      </trkpt>
      <trkpt lat="43.93434" lon="7.38554">
        <ele>1296</ele>
        <time>2013-05-11T08:58:33Z</time>
      </trkpt>
      <trkpt lat="43.93435" lon="7.38561">
        <ele>1296</ele>
        <time>2013-05-11T08:58:39Z</time>
      </trkpt>
      <trkpt lat="43.93435" lon="7.38568">
        <ele>1296</ele>
        <time>2013-05-11T08:58:45Z</time>
      </trkpt>
      <trkpt lat="43.93434" lon="7.38572">
        <ele>1296</ele>
        <time>2013-05-11T08:58:50Z</time>
      </trkpt>
      <trkpt lat="43.93435" lon="7.38573">
        <ele>1296</ele>
        <time>2013-05-11T08:58:59Z</time>
      </trkpt>
      <trkpt lat="43.93433" lon="7.38572">
        <ele>1296</ele>
        <time>2013-05-11T08:59:24Z</time>
      </trkpt>
      <trkpt lat="43.93435" lon="7.38571">
        <ele>1296</ele>
        <time>2013-05-11T08:59:35Z</time>
      </trkpt>
      <trkpt lat="43.93434" lon="7.3857">
        <ele>1296</ele>
        <time>2013-05-11T08:59:42Z</time>
      </trkpt>
      <trkpt lat="43.93433" lon="7.38567">
        <ele>1296</ele>
        <time>2013-05-11T08:59:47Z</time>
      </trkpt>
      <trkpt lat="43.93433" lon="7.38568">
        <ele>1296</ele>
        <time>2013-05-11T09:00:02Z</time>
      </trkpt>
      <trkpt lat="43.93433" lon="7.3857">
        <ele>1296</ele>
        <time>2013-05-11T09:00:17Z</time>
      </trkpt>
      <trkpt lat="43.93433" lon="7.38572">
        <ele>1296</ele>
        <time>2013-05-11T09:00:22Z</time>
      </trkpt>
      <trkpt lat="43.93434" lon="7.38571">
        <ele>1297</ele>
        <time>2013-05-11T09:00:37Z</time>
      </trkpt>
      <trkpt lat="43.93436" lon="7.38575">
        <ele>1297</ele>
        <time>2013-05-11T09:00:46Z</time>
      </trkpt>
      <trkpt lat="43.93439" lon="7.38575">
        <ele>1297</ele>
        <time>2013-05-11T09:01:27Z</time>
      </trkpt>
      <trkpt lat="43.9344" lon="7.38575">
        <ele>1294</ele>
        <time>2013-05-11T09:01:33Z</time>
      </trkpt>
      <trkpt lat="43.9344" lon="7.38575">
        <ele>1294</ele>
        <time>2013-05-11T09:02:24Z</time>
      </trkpt>
      <trkpt lat="43.93438" lon="7.38576">
        <ele>1294</ele>
        <time>2013-05-11T09:02:39Z</time>
      </trkpt>
      <trkpt lat="43.93437" lon="7.38576">
        <ele>1296</ele>
        <time>2013-05-11T09:03:00Z</time>
      </trkpt>
      <trkpt lat="43.93436" lon="7.38573">
        <ele>1296</ele>
        <time>2013-05-11T09:03:18Z</time>
      </trkpt>
      <trkpt lat="43.93437" lon="7.38575">
        <ele>1296</ele>
        <time>2013-05-11T09:03:24Z</time>
      </trkpt>
      <trkpt lat="43.93437" lon="7.38575">
        <ele>1296</ele>
        <time>2013-05-11T09:03:33Z</time>
      </trkpt>
      <trkpt lat="43.93436" lon="7.38573">
        <ele>1296</ele>
        <time>2013-05-11T09:03:48Z</time>
      </trkpt>
      <trkpt lat="43.93436" lon="7.38573">
        <ele>1296</ele>
        <time>2013-05-11T09:04:48Z</time>
      </trkpt>
      <trkpt lat="43.93435" lon="7.38574">
        <ele>1296</ele>
        <time>2013-05-11T09:07:00Z</time>
      </trkpt>
      <trkpt lat="43.93435" lon="7.38572">
        <ele>1298</ele>
        <time>2013-05-11T09:07:12Z</time>
      </trkpt>
      <trkpt lat="43.93435" lon="7.38571">
        <ele>1298</ele>
        <time>2013-05-11T09:08:15Z</time>
      </trkpt>
      <trkpt lat="43.93436" lon="7.38571">
        <ele>1299</ele>
        <time>2013-05-11T09:08:46Z</time>
      </trkpt>
      <trkpt lat="43.93437" lon="7.38572">
        <ele>1299</ele>
        <time>2013-05-11T09:08:58Z</time>
      </trkpt>
      <trkpt lat="43.93436" lon="7.38574">
        <ele>1299</ele>
        <time>2013-05-11T09:09:32Z</time>
      </trkpt>
      <trkpt lat="43.93436" lon="7.38575">
        <ele>1299</ele>
        <time>2013-05-11T09:10:20Z</time>
      </trkpt>
      <trkpt lat="43.93435" lon="7.38574">
        <ele>1299</ele>
        <time>2013-05-11T09:10:32Z</time>
      </trkpt>
      <trkpt lat="43.93435" lon="7.38572">
        <ele>1299</ele>
        <time>2013-05-11T09:10:55Z</time>
      </trkpt>
      <trkpt lat="43.93436" lon="7.38573">
        <ele>1299</ele>
        <time>2013-05-11T09:11:00Z</time>
      </trkpt>
      <trkpt lat="43.93442" lon="7.3858">
        <ele>1299</ele>
        <time>2013-05-11T09:11:07Z</time>
      </trkpt>
      <trkpt lat="43.93452" lon="7.38582">
        <ele>1299</ele>
        <time>2013-05-11T09:11:12Z</time>
      </trkpt>
      <trkpt lat="43.93465" lon="7.38586">
        <ele>1299</ele>
        <time>2013-05-11T09:11:18Z</time>
      </trkpt>
      <trkpt lat="43.93475" lon="7.38592">
        <ele>1299</ele>
        <time>2013-05-11T09:11:23Z</time>
      </trkpt>
      <trkpt lat="43.93483" lon="7.38601">
        <ele>1299</ele>
        <time>2013-05-11T09:11:28Z</time>
      </trkpt>
      <trkpt lat="43.93492" lon="7.38609">
        <ele>1300</ele>
        <time>2013-05-11T09:11:34Z</time>
      </trkpt>
      <trkpt lat="43.93501" lon="7.38605">
        <ele>1301</ele>
        <time>2013-05-11T09:11:39Z</time>
      </trkpt>
      <trkpt lat="43.93507" lon="7.38597">
        <ele>1302</ele>
        <time>2013-05-11T09:11:44Z</time>
      </trkpt>
      <trkpt lat="43.93514" lon="7.38589">
        <ele>1304</ele>
        <time>2013-05-11T09:11:49Z</time>
      </trkpt>
      <trkpt lat="43.93523" lon="7.3858">
        <ele>1304</ele>
        <time>2013-05-11T09:11:54Z</time>
      </trkpt>
      <trkpt lat="43.93533" lon="7.38566">
        <ele>1304</ele>
        <time>2013-05-11T09:12:00Z</time>
      </trkpt>
      <trkpt lat="43.93546" lon="7.38559">
        <ele>1304</ele>
        <time>2013-05-11T09:12:05Z</time>
      </trkpt>
      <trkpt lat="43.93562" lon="7.38553">
        <ele>1304</ele>
        <time>2013-05-11T09:12:10Z</time>
      </trkpt>
      <trkpt lat="43.93576" lon="7.38542">
        <ele>1304</ele>
        <time>2013-05-11T09:12:15Z</time>
      </trkpt>
      <trkpt lat="43.93589" lon="7.38539">
        <ele>1304</ele>
        <time>2013-05-11T09:12:20Z</time>
      </trkpt>
      <trkpt lat="43.93601" lon="7.38538">
        <ele>1304</ele>
        <time>2013-05-11T09:12:25Z</time>
      </trkpt>
      <trkpt lat="43.93615" lon="7.38531">
        <ele>1304</ele>
        <time>2013-05-11T09:12:30Z</time>
      </trkpt>
      <trkpt lat="43.93626" lon="7.38538">
        <ele>1304</ele>
        <time>2013-05-11T09:12:35Z</time>
      </trkpt>
      <trkpt lat="43.93637" lon="7.38551">
        <ele>1304</ele>
        <time>2013-05-11T09:12:40Z</time>
      </trkpt>
      <trkpt lat="43.93648" lon="7.38567">
        <ele>1306</ele>
        <time>2013-05-11T09:12:45Z</time>
      </trkpt>
      <trkpt lat="43.93661" lon="7.38578">
        <ele>1306</ele>
        <time>2013-05-11T09:12:50Z</time>
      </trkpt>
      <trkpt lat="43.93676" lon="7.3859">
        <ele>1306</ele>
        <time>2013-05-11T09:12:55Z</time>
      </trkpt>
      <trkpt lat="43.9369" lon="7.38597">
        <ele>1306</ele>
        <time>2013-05-11T09:13:00Z</time>
      </trkpt>
      <trkpt lat="43.93701" lon="7.38598">
        <ele>1306</ele>
        <time>2013-05-11T09:13:05Z</time>
      </trkpt>
      <trkpt lat="43.93706" lon="7.38598">
        <ele>1306</ele>
        <time>2013-05-11T09:13:17Z</time>
      </trkpt>
      <trkpt lat="43.93708" lon="7.38598">
        <ele>1308</ele>
        <time>2013-05-11T09:13:24Z</time>
      </trkpt>
      <trkpt lat="43.93723" lon="7.38591">
        <ele>1308</ele>
        <time>2013-05-11T09:13:29Z</time>
      </trkpt>
      <trkpt lat="43.93745" lon="7.38584">
        <ele>1308</ele>
        <time>2013-05-11T09:13:34Z</time>
      </trkpt>
      <trkpt lat="43.93767" lon="7.3857">
        <ele>1308</ele>
        <time>2013-05-11T09:13:39Z</time>
      </trkpt>
      <trkpt lat="43.93785" lon="7.38546">
        <ele>1308</ele>
        <time>2013-05-11T09:13:45Z</time>
      </trkpt>
      <trkpt lat="43.93791" lon="7.38527">
        <ele>1308</ele>
        <time>2013-05-11T09:13:50Z</time>
      </trkpt>
      <trkpt lat="43.9379" lon="7.3851">
        <ele>1308</ele>
        <time>2013-05-11T09:13:55Z</time>
      </trkpt>
      <trkpt lat="43.93785" lon="7.38491">
        <ele>1308</ele>
        <time>2013-05-11T09:14:00Z</time>
      </trkpt>
      <trkpt lat="43.93781" lon="7.38472">
        <ele>1309</ele>
        <time>2013-05-11T09:14:05Z</time>
      </trkpt>
      <trkpt lat="43.93778" lon="7.38459">
        <ele>1311</ele>
        <time>2013-05-11T09:14:10Z</time>
      </trkpt>
      <trkpt lat="43.93769" lon="7.38445">
        <ele>1313</ele>
        <time>2013-05-11T09:14:15Z</time>
      </trkpt>
      <trkpt lat="43.93766" lon="7.38427">
        <ele>1316</ele>
        <time>2013-05-11T09:14:20Z</time>
      </trkpt>
      <trkpt lat="43.93764" lon="7.38414">
        <ele>1319</ele>
        <time>2013-05-11T09:14:25Z</time>
      </trkpt>
      <trkpt lat="43.93763" lon="7.38401">
        <ele>1324</ele>
        <time>2013-05-11T09:14:30Z</time>
      </trkpt>
      <trkpt lat="43.93762" lon="7.38387">
        <ele>1329</ele>
        <time>2013-05-11T09:14:35Z</time>
      </trkpt>
      <trkpt lat="43.93763" lon="7.38376">
        <ele>1334</ele>
        <time>2013-05-11T09:14:40Z</time>
      </trkpt>
      <trkpt lat="43.93765" lon="7.38364">
        <ele>1339</ele>
        <time>2013-05-11T09:14:45Z</time>
      </trkpt>
      <trkpt lat="43.93771" lon="7.38358">
        <ele>1340</ele>
        <time>2013-05-11T09:14:50Z</time>
      </trkpt>
      <trkpt lat="43.9378" lon="7.38352">
        <ele>1341</ele>
        <time>2013-05-11T09:14:55Z</time>
      </trkpt>
      <trkpt lat="43.93787" lon="7.38346">
        <ele>1341</ele>
        <time>2013-05-11T09:15:00Z</time>
      </trkpt>
      <trkpt lat="43.93796" lon="7.3834">
        <ele>1341</ele>
        <time>2013-05-11T09:15:05Z</time>
      </trkpt>
      <trkpt lat="43.93804" lon="7.38335">
        <ele>1340</ele>
        <time>2013-05-11T09:15:10Z</time>
      </trkpt>
      <trkpt lat="43.93811" lon="7.38328">
        <ele>1339</ele>
        <time>2013-05-11T09:15:15Z</time>
      </trkpt>
      <trkpt lat="43.93818" lon="7.3832">
        <ele>1337</ele>
        <time>2013-05-11T09:15:20Z</time>
      </trkpt>
      <trkpt lat="43.93824" lon="7.38312">
        <ele>1336</ele>
        <time>2013-05-11T09:15:25Z</time>
      </trkpt>
      <trkpt lat="43.9383" lon="7.38304">
        <ele>1335</ele>
        <time>2013-05-11T09:15:30Z</time>
      </trkpt>
      <trkpt lat="43.93837" lon="7.38296">
        <ele>1334</ele>
        <time>2013-05-11T09:15:35Z</time>
      </trkpt>
      <trkpt lat="43.93844" lon="7.38289">
        <ele>1334</ele>
        <time>2013-05-11T09:15:41Z</time>
      </trkpt>
      <trkpt lat="43.93849" lon="7.38282">
        <ele>1333</ele>
        <time>2013-05-11T09:15:46Z</time>
      </trkpt>
      <trkpt lat="43.93849" lon="7.38281">
        <ele>1334</ele>
        <time>2013-05-11T09:15:59Z</time>
      </trkpt>
      <trkpt lat="43.93848" lon="7.38277">
        <ele>1337</ele>
        <time>2013-05-11T09:16:06Z</time>
      </trkpt>
      <trkpt lat="43.93849" lon="7.38277">
        <ele>1338</ele>
        <time>2013-05-11T09:16:23Z</time>
      </trkpt>
      <trkpt lat="43.93848" lon="7.38275">
        <ele>1338</ele>
        <time>2013-05-11T09:16:33Z</time>
      </trkpt>
      <trkpt lat="43.93847" lon="7.38272">
        <ele>1339</ele>
        <time>2013-05-11T09:16:39Z</time>
      </trkpt>
      <trkpt lat="43.93848" lon="7.38273">
        <ele>1340</ele>
        <time>2013-05-11T09:16:52Z</time>
      </trkpt>
      <trkpt lat="43.93847" lon="7.38276">
        <ele>1340</ele>
        <time>2013-05-11T09:17:03Z</time>
      </trkpt>
      <trkpt lat="43.93845" lon="7.38273">
        <ele>1340</ele>
        <time>2013-05-11T09:17:08Z</time>
      </trkpt>
      <trkpt lat="43.93846" lon="7.38273">
        <ele>1340</ele>
        <time>2013-05-11T09:17:22Z</time>
      </trkpt>
      <trkpt lat="43.93848" lon="7.38275">
        <ele>1340</ele>
        <time>2013-05-11T09:17:27Z</time>
      </trkpt>
      <trkpt lat="43.93848" lon="7.38279">
        <ele>1340</ele>
        <time>2013-05-11T09:17:36Z</time>
      </trkpt>
      <trkpt lat="43.93847" lon="7.3828">
        <ele>1340</ele>
        <time>2013-05-11T09:17:58Z</time>
      </trkpt>
      <trkpt lat="43.93846" lon="7.38279">
        <ele>1340</ele>
        <time>2013-05-11T09:18:04Z</time>
      </trkpt>
      <trkpt lat="43.93845" lon="7.38277">
        <ele>1340</ele>
        <time>2013-05-11T09:18:10Z</time>
      </trkpt>
      <trkpt lat="43.93842" lon="7.38275">
        <ele>1340</ele>
        <time>2013-05-11T09:18:18Z</time>
      </trkpt>
      <trkpt lat="43.93844" lon="7.38276">
        <ele>1340</ele>
        <time>2013-05-11T09:18:28Z</time>
      </trkpt>
      <trkpt lat="43.93844" lon="7.38279">
        <ele>1340</ele>
        <time>2013-05-11T09:18:38Z</time>
      </trkpt>
      <trkpt lat="43.93844" lon="7.38278">
        <ele>1340</ele>
        <time>2013-05-11T09:18:45Z</time>
      </trkpt>
      <trkpt lat="43.93844" lon="7.38276">
        <ele>1340</ele>
        <time>2013-05-11T09:19:00Z</time>
      </trkpt>
      <trkpt lat="43.93845" lon="7.38275">
        <ele>1340</ele>
        <time>2013-05-11T09:19:27Z</time>
      </trkpt>
      <trkpt lat="43.93846" lon="7.38273">
        <ele>1340</ele>
        <time>2013-05-11T09:19:34Z</time>
      </trkpt>
      <trkpt lat="43.93845" lon="7.38273">
        <ele>1340</ele>
        <time>2013-05-11T09:19:44Z</time>
      </trkpt>
      <trkpt lat="43.93847" lon="7.38274">
        <ele>1340</ele>
        <time>2013-05-11T09:19:53Z</time>
      </trkpt>
      <trkpt lat="43.93848" lon="7.38281">
        <ele>1340</ele>
        <time>2013-05-11T09:19:58Z</time>
      </trkpt>
      <trkpt lat="43.93845" lon="7.38298">
        <ele>1340</ele>
        <time>2013-05-11T09:20:03Z</time>
      </trkpt>
      <trkpt lat="43.93845" lon="7.38301">
        <ele>1337</ele>
        <time>2013-05-11T09:20:14Z</time>
      </trkpt>
      <trkpt lat="43.93837" lon="7.38309">
        <ele>1336</ele>
        <time>2013-05-11T09:20:19Z</time>
      </trkpt>
      <trkpt lat="43.93825" lon="7.3833">
        <ele>1333</ele>
        <time>2013-05-11T09:20:24Z</time>
      </trkpt>
      <trkpt lat="43.93811" lon="7.38346">
        <ele>1333</ele>
        <time>2013-05-11T09:20:29Z</time>
      </trkpt>
      <trkpt lat="43.93808" lon="7.38354">
        <ele>1333</ele>
        <time>2013-05-11T09:20:34Z</time>
      </trkpt>
      <trkpt lat="43.93805" lon="7.38358">
        <ele>1333</ele>
        <time>2013-05-11T09:20:39Z</time>
      </trkpt>
      <trkpt lat="43.93795" lon="7.38364">
        <ele>1333</ele>
        <time>2013-05-11T09:20:44Z</time>
      </trkpt>
      <trkpt lat="43.93788" lon="7.38382">
        <ele>1333</ele>
        <time>2013-05-11T09:20:49Z</time>
      </trkpt>
      <trkpt lat="43.93794" lon="7.38389">
        <ele>1333</ele>
        <time>2013-05-11T09:20:54Z</time>
      </trkpt>
      <trkpt lat="43.93796" lon="7.38394">
        <ele>1330</ele>
        <time>2013-05-11T09:21:00Z</time>
      </trkpt>
      <trkpt lat="43.93798" lon="7.38397">
        <ele>1326</ele>
        <time>2013-05-11T09:21:05Z</time>
      </trkpt>
      <trkpt lat="43.93797" lon="7.38402">
        <ele>1325</ele>
        <time>2013-05-11T09:21:10Z</time>
      </trkpt>
      <trkpt lat="43.938" lon="7.3841">
        <ele>1321</ele>
        <time>2013-05-11T09:21:15Z</time>
      </trkpt>
      <trkpt lat="43.93801" lon="7.38417">
        <ele>1318</ele>
        <time>2013-05-11T09:21:21Z</time>
      </trkpt>
      <trkpt lat="43.93804" lon="7.38414">
        <ele>1315</ele>
        <time>2013-05-11T09:21:26Z</time>
      </trkpt>
      <trkpt lat="43.93803" lon="7.38414">
        <ele>1314</ele>
        <time>2013-05-11T09:21:31Z</time>
      </trkpt>
      <trkpt lat="43.93804" lon="7.38416">
        <ele>1314</ele>
        <time>2013-05-11T09:21:37Z</time>
      </trkpt>
      <trkpt lat="43.93801" lon="7.38422">
        <ele>1314</ele>
        <time>2013-05-11T09:21:43Z</time>
      </trkpt>
      <trkpt lat="43.93798" lon="7.38428">
        <ele>1314</ele>
        <time>2013-05-11T09:21:48Z</time>
      </trkpt>
      <trkpt lat="43.93804" lon="7.38439">
        <ele>1314</ele>
        <time>2013-05-11T09:21:53Z</time>
      </trkpt>
      <trkpt lat="43.93812" lon="7.38452">
        <ele>1313</ele>
        <time>2013-05-11T09:21:58Z</time>
      </trkpt>
      <trkpt lat="43.93823" lon="7.38464">
        <ele>1308</ele>
        <time>2013-05-11T09:22:03Z</time>
      </trkpt>
      <trkpt lat="43.93832" lon="7.38474">
        <ele>1303</ele>
        <time>2013-05-11T09:22:08Z</time>
      </trkpt>
      <trkpt lat="43.93837" lon="7.38488">
        <ele>1298</ele>
        <time>2013-05-11T09:22:13Z</time>
      </trkpt>
      <trkpt lat="43.93843" lon="7.38504">
        <ele>1294</ele>
        <time>2013-05-11T09:22:18Z</time>
      </trkpt>
      <trkpt lat="43.93849" lon="7.38517">
        <ele>1289</ele>
        <time>2013-05-11T09:22:23Z</time>
      </trkpt>
      <trkpt lat="43.93855" lon="7.38531">
        <ele>1281</ele>
        <time>2013-05-11T09:22:28Z</time>
      </trkpt>
      <trkpt lat="43.93853" lon="7.38546">
        <ele>1272</ele>
        <time>2013-05-11T09:22:33Z</time>
      </trkpt>
      <trkpt lat="43.93846" lon="7.38559">
        <ele>1265</ele>
        <time>2013-05-11T09:22:39Z</time>
      </trkpt>
      <trkpt lat="43.93839" lon="7.38571">
        <ele>1260</ele>
        <time>2013-05-11T09:22:44Z</time>
      </trkpt>
      <trkpt lat="43.93832" lon="7.38591">
        <ele>1259</ele>
        <time>2013-05-11T09:22:49Z</time>
      </trkpt>
      <trkpt lat="43.93829" lon="7.38603">
        <ele>1258</ele>
        <time>2013-05-11T09:22:55Z</time>
      </trkpt>
      <trkpt lat="43.9383" lon="7.3861">
        <ele>1256</ele>
        <time>2013-05-11T09:23:00Z</time>
      </trkpt>
      <trkpt lat="43.9383" lon="7.3863">
        <ele>1251</ele>
        <time>2013-05-11T09:23:05Z</time>
      </trkpt>
      <trkpt lat="43.93828" lon="7.38652">
        <ele>1246</ele>
        <time>2013-05-11T09:23:10Z</time>
      </trkpt>
      <trkpt lat="43.93835" lon="7.38644">
        <ele>1241</ele>
        <time>2013-05-11T09:23:15Z</time>
      </trkpt>
      <trkpt lat="43.93833" lon="7.38649">
        <ele>1236</ele>
        <time>2013-05-11T09:23:20Z</time>
      </trkpt>
      <trkpt lat="43.9383" lon="7.3865">
        <ele>1232</ele>
        <time>2013-05-11T09:23:27Z</time>
      </trkpt>
      <trkpt lat="43.9383" lon="7.38652">
        <ele>1232</ele>
        <time>2013-05-11T09:23:33Z</time>
      </trkpt>
      <trkpt lat="43.9383" lon="7.38655">
        <ele>1232</ele>
        <time>2013-05-11T09:23:38Z</time>
      </trkpt>
      <trkpt lat="43.93829" lon="7.38658">
        <ele>1233</ele>
        <time>2013-05-11T09:23:46Z</time>
      </trkpt>
      <trkpt lat="43.9383" lon="7.38656">
        <ele>1238</ele>
        <time>2013-05-11T09:23:56Z</time>
      </trkpt>
      <trkpt lat="43.9383" lon="7.3866">
        <ele>1248</ele>
        <time>2013-05-11T09:24:07Z</time>
      </trkpt>
      <trkpt lat="43.93831" lon="7.38658">
        <ele>1248</ele>
        <time>2013-05-11T09:24:20Z</time>
      </trkpt>
      <trkpt lat="43.93834" lon="7.38663">
        <ele>1246</ele>
        <time>2013-05-11T09:24:25Z</time>
      </trkpt>
      <trkpt lat="43.93831" lon="7.38675">
        <ele>1242</ele>
        <time>2013-05-11T09:24:30Z</time>
      </trkpt>
      <trkpt lat="43.9383" lon="7.38704">
        <ele>1237</ele>
        <time>2013-05-11T09:24:35Z</time>
      </trkpt>
      <trkpt lat="43.93837" lon="7.38731">
        <ele>1232</ele>
        <time>2013-05-11T09:24:40Z</time>
      </trkpt>
      <trkpt lat="43.9385" lon="7.38753">
        <ele>1226</ele>
        <time>2013-05-11T09:24:45Z</time>
      </trkpt>
      <trkpt lat="43.9386" lon="7.38771">
        <ele>1221</ele>
        <time>2013-05-11T09:24:50Z</time>
      </trkpt>
      <trkpt lat="43.93875" lon="7.38786">
        <ele>1216</ele>
        <time>2013-05-11T09:24:55Z</time>
      </trkpt>
      <trkpt lat="43.93857" lon="7.38796">
        <ele>1211</ele>
        <time>2013-05-11T09:25:00Z</time>
      </trkpt>
      <trkpt lat="43.93859" lon="7.38811">
        <ele>1206</ele>
        <time>2013-05-11T09:25:05Z</time>
      </trkpt>
      <trkpt lat="43.93886" lon="7.38819">
        <ele>1199</ele>
        <time>2013-05-11T09:25:10Z</time>
      </trkpt>
      <trkpt lat="43.93907" lon="7.38821">
        <ele>1191</ele>
        <time>2013-05-11T09:25:15Z</time>
      </trkpt>
      <trkpt lat="43.93922" lon="7.38815">
        <ele>1183</ele>
        <time>2013-05-11T09:25:20Z</time>
      </trkpt>
      <trkpt lat="43.93927" lon="7.38818">
        <ele>1178</ele>
        <time>2013-05-11T09:25:25Z</time>
      </trkpt>
      <trkpt lat="43.93932" lon="7.3884">
        <ele>1173</ele>
        <time>2013-05-11T09:25:30Z</time>
      </trkpt>
      <trkpt lat="43.93947" lon="7.38845">
        <ele>1166</ele>
        <time>2013-05-11T09:25:35Z</time>
      </trkpt>
      <trkpt lat="43.93955" lon="7.38857">
        <ele>1160</ele>
        <time>2013-05-11T09:25:40Z</time>
      </trkpt>
      <trkpt lat="43.93965" lon="7.38869">
        <ele>1153</ele>
        <time>2013-05-11T09:25:45Z</time>
      </trkpt>
      <trkpt lat="43.93974" lon="7.3887">
        <ele>1148</ele>
        <time>2013-05-11T09:25:50Z</time>
      </trkpt>
      <trkpt lat="43.93975" lon="7.38881">
        <ele>1143</ele>
        <time>2013-05-11T09:25:55Z</time>
      </trkpt>
      <trkpt lat="43.93969" lon="7.38906">
        <ele>1138</ele>
        <time>2013-05-11T09:26:00Z</time>
      </trkpt>
      <trkpt lat="43.93969" lon="7.38925">
        <ele>1134</ele>
        <time>2013-05-11T09:26:05Z</time>
      </trkpt>
      <trkpt lat="43.93977" lon="7.3893">
        <ele>1132</ele>
        <time>2013-05-11T09:26:10Z</time>
      </trkpt>
      <trkpt lat="43.93965" lon="7.38947">
        <ele>1131</ele>
        <time>2013-05-11T09:26:15Z</time>
      </trkpt>
      <trkpt lat="43.93967" lon="7.38958">
        <ele>1130</ele>
        <time>2013-05-11T09:26:20Z</time>
      </trkpt>
      <trkpt lat="43.93984" lon="7.38958">
        <ele>1125</ele>
        <time>2013-05-11T09:26:25Z</time>
      </trkpt>
      <trkpt lat="43.93995" lon="7.38955">
        <ele>1121</ele>
        <time>2013-05-11T09:26:30Z</time>
      </trkpt>
      <trkpt lat="43.93998" lon="7.38961">
        <ele>1116</ele>
        <time>2013-05-11T09:26:35Z</time>
      </trkpt>
      <trkpt lat="43.93981" lon="7.38984">
        <ele>1111</ele>
        <time>2013-05-11T09:26:40Z</time>
      </trkpt>
      <trkpt lat="43.93985" lon="7.38992">
        <ele>1106</ele>
        <time>2013-05-11T09:26:45Z</time>
      </trkpt>
      <trkpt lat="43.94" lon="7.38993">
        <ele>1101</ele>
        <time>2013-05-11T09:26:50Z</time>
      </trkpt>
      <trkpt lat="43.94005" lon="7.38989">
        <ele>1096</ele>
        <time>2013-05-11T09:26:55Z</time>
      </trkpt>
      <trkpt lat="43.93996" lon="7.39012">
        <ele>1093</ele>
        <time>2013-05-11T09:27:00Z</time>
      </trkpt>
      <trkpt lat="43.9399" lon="7.39027">
        <ele>1090</ele>
        <time>2013-05-11T09:27:05Z</time>
      </trkpt>
      <trkpt lat="43.94006" lon="7.39027">
        <ele>1085</ele>
        <time>2013-05-11T09:27:10Z</time>
      </trkpt>
      <trkpt lat="43.94013" lon="7.39038">
        <ele>1080</ele>
        <time>2013-05-11T09:27:15Z</time>
      </trkpt>
      <trkpt lat="43.94004" lon="7.39053">
        <ele>1074</ele>
        <time>2013-05-11T09:27:21Z</time>
      </trkpt>
      <trkpt lat="43.94007" lon="7.39055">
        <ele>1070</ele>
        <time>2013-05-11T09:27:30Z</time>
      </trkpt>
      <trkpt lat="43.9402" lon="7.39056">
        <ele>1070</ele>
        <time>2013-05-11T09:27:35Z</time>
      </trkpt>
      <trkpt lat="43.94025" lon="7.39068">
        <ele>1070</ele>
        <time>2013-05-11T09:27:40Z</time>
      </trkpt>
      <trkpt lat="43.94026" lon="7.39071">
        <ele>1069</ele>
        <time>2013-05-11T09:27:46Z</time>
      </trkpt>
      <trkpt lat="43.94029" lon="7.39075">
        <ele>1069</ele>
        <time>2013-05-11T09:27:51Z</time>
      </trkpt>
      <trkpt lat="43.94035" lon="7.39084">
        <ele>1066</ele>
        <time>2013-05-11T09:27:56Z</time>
      </trkpt>
      <trkpt lat="43.94033" lon="7.39093">
        <ele>1062</ele>
        <time>2013-05-11T09:28:01Z</time>
      </trkpt>
      <trkpt lat="43.94032" lon="7.39097">
        <ele>1059</ele>
        <time>2013-05-11T09:28:07Z</time>
      </trkpt>
      <trkpt lat="43.94045" lon="7.39099">
        <ele>1056</ele>
        <time>2013-05-11T09:28:12Z</time>
      </trkpt>
      <trkpt lat="43.94048" lon="7.391">
        <ele>1053</ele>
        <time>2013-05-11T09:28:17Z</time>
      </trkpt>
      <trkpt lat="43.94041" lon="7.39113">
        <ele>1048</ele>
        <time>2013-05-11T09:28:24Z</time>
      </trkpt>
      <trkpt lat="43.94039" lon="7.39117">
        <ele>1048</ele>
        <time>2013-05-11T09:28:37Z</time>
      </trkpt>
      <trkpt lat="43.9404" lon="7.39115">
        <ele>1048</ele>
        <time>2013-05-11T09:28:43Z</time>
      </trkpt>
      <trkpt lat="43.94041" lon="7.39116">
        <ele>1048</ele>
        <time>2013-05-11T09:28:49Z</time>
      </trkpt>
      <trkpt lat="43.9404" lon="7.39116">
        <ele>1048</ele>
        <time>2013-05-11T09:29:04Z</time>
      </trkpt>
      <trkpt lat="43.94038" lon="7.39115">
        <ele>1048</ele>
        <time>2013-05-11T09:29:21Z</time>
      </trkpt>
      <trkpt lat="43.94037" lon="7.39115">
        <ele>1048</ele>
        <time>2013-05-11T09:29:28Z</time>
      </trkpt>
      <trkpt lat="43.94028" lon="7.39119">
        <ele>1048</ele>
        <time>2013-05-11T09:29:33Z</time>
      </trkpt>
      <trkpt lat="43.94012" lon="7.39123">
        <ele>1048</ele>
        <time>2013-05-11T09:29:38Z</time>
      </trkpt>
      <trkpt lat="43.94001" lon="7.39129">
        <ele>1048</ele>
        <time>2013-05-11T09:29:43Z</time>
      </trkpt>
      <trkpt lat="43.93987" lon="7.39133">
        <ele>1045</ele>
        <time>2013-05-11T09:29:48Z</time>
      </trkpt>
      <trkpt lat="43.93966" lon="7.39132">
        <ele>1042</ele>
        <time>2013-05-11T09:29:53Z</time>
      </trkpt>
      <trkpt lat="43.9395" lon="7.39136">
        <ele>1039</ele>
        <time>2013-05-11T09:29:58Z</time>
      </trkpt>
      <trkpt lat="43.93938" lon="7.39135">
        <ele>1035</ele>
        <time>2013-05-11T09:30:03Z</time>
      </trkpt>
      <trkpt lat="43.93913" lon="7.39128">
        <ele>1031</ele>
        <time>2013-05-11T09:30:09Z</time>
      </trkpt>
      <trkpt lat="43.93904" lon="7.39132">
        <ele>1026</ele>
        <time>2013-05-11T09:30:14Z</time>
      </trkpt>
      <trkpt lat="43.93914" lon="7.39137">
        <ele>1021</ele>
        <time>2013-05-11T09:30:19Z</time>
      </trkpt>
      <trkpt lat="43.9392" lon="7.39143">
        <ele>1016</ele>
        <time>2013-05-11T09:30:25Z</time>
      </trkpt>
      <trkpt lat="43.93925" lon="7.39149">
        <ele>1016</ele>
        <time>2013-05-11T09:30:30Z</time>
      </trkpt>
      <trkpt lat="43.9393" lon="7.39161">
        <ele>1016</ele>
        <time>2013-05-11T09:30:35Z</time>
      </trkpt>
      <trkpt lat="43.93941" lon="7.39175">
        <ele>1016</ele>
        <time>2013-05-11T09:30:40Z</time>
      </trkpt>
      <trkpt lat="43.9395" lon="7.39202">
        <ele>1017</ele>
        <time>2013-05-11T09:30:45Z</time>
      </trkpt>
      <trkpt lat="43.93973" lon="7.39232">
        <ele>1017</ele>
        <time>2013-05-11T09:30:51Z</time>
      </trkpt>
      <trkpt lat="43.93958" lon="7.39259">
        <ele>1017</ele>
        <time>2013-05-11T09:30:56Z</time>
      </trkpt>
      <trkpt lat="43.93936" lon="7.39279">
        <ele>1012</ele>
        <time>2013-05-11T09:31:01Z</time>
      </trkpt>
      <trkpt lat="43.93912" lon="7.39308">
        <ele>1008</ele>
        <time>2013-05-11T09:31:06Z</time>
      </trkpt>
      <trkpt lat="43.93891" lon="7.39341">
        <ele>1004</ele>
        <time>2013-05-11T09:31:11Z</time>
      </trkpt>
      <trkpt lat="43.93873" lon="7.39377">
        <ele>1001</ele>
        <time>2013-05-11T09:31:16Z</time>
      </trkpt>
      <trkpt lat="43.9386" lon="7.39426">
        <ele>998</ele>
        <time>2013-05-11T09:31:22Z</time>
      </trkpt>
      <trkpt lat="43.9384" lon="7.39457">
        <ele>993</ele>
        <time>2013-05-11T09:31:27Z</time>
      </trkpt>
      <trkpt lat="43.9382" lon="7.39471">
        <ele>988</ele>
        <time>2013-05-11T09:31:32Z</time>
      </trkpt>
      <trkpt lat="43.93808" lon="7.39495">
        <ele>983</ele>
        <time>2013-05-11T09:31:37Z</time>
      </trkpt>
      <trkpt lat="43.93787" lon="7.39522">
        <ele>978</ele>
        <time>2013-05-11T09:31:42Z</time>
      </trkpt>
      <trkpt lat="43.93761" lon="7.39559">
        <ele>973</ele>
        <time>2013-05-11T09:31:47Z</time>
      </trkpt>
      <trkpt lat="43.93739" lon="7.39584">
        <ele>972</ele>
        <time>2013-05-11T09:31:52Z</time>
      </trkpt>
      <trkpt lat="43.93755" lon="7.39599">
        <ele>970</ele>
        <time>2013-05-11T09:31:57Z</time>
      </trkpt>
      <trkpt lat="43.93763" lon="7.39632">
        <ele>965</ele>
        <time>2013-05-11T09:32:02Z</time>
      </trkpt>
      <trkpt lat="43.93766" lon="7.39663">
        <ele>965</ele>
        <time>2013-05-11T09:32:07Z</time>
      </trkpt>
      <trkpt lat="43.9377" lon="7.39685">
        <ele>965</ele>
        <time>2013-05-11T09:32:12Z</time>
      </trkpt>
      <trkpt lat="43.9379" lon="7.39717">
        <ele>965</ele>
        <time>2013-05-11T09:32:17Z</time>
      </trkpt>
      <trkpt lat="43.93821" lon="7.39734">
        <ele>961</ele>
        <time>2013-05-11T09:32:22Z</time>
      </trkpt>
      <trkpt lat="43.93851" lon="7.39738">
        <ele>956</ele>
        <time>2013-05-11T09:32:27Z</time>
      </trkpt>
      <trkpt lat="43.93882" lon="7.39752">
        <ele>951</ele>
        <time>2013-05-11T09:32:32Z</time>
      </trkpt>
      <trkpt lat="43.93901" lon="7.3978">
        <ele>942</ele>
        <time>2013-05-11T09:32:37Z</time>
      </trkpt>
      <trkpt lat="43.93917" lon="7.39812">
        <ele>935</ele>
        <time>2013-05-11T09:32:42Z</time>
      </trkpt>
      <trkpt lat="43.93926" lon="7.39859">
        <ele>924</ele>
        <time>2013-05-11T09:32:48Z</time>
      </trkpt>
      <trkpt lat="43.9393" lon="7.39895">
        <ele>915</ele>
        <time>2013-05-11T09:32:53Z</time>
      </trkpt>
      <trkpt lat="43.93935" lon="7.39915">
        <ele>909</ele>
        <time>2013-05-11T09:32:58Z</time>
      </trkpt>
      <trkpt lat="43.93932" lon="7.39934">
        <ele>904</ele>
        <time>2013-05-11T09:33:03Z</time>
      </trkpt>
      <trkpt lat="43.93932" lon="7.39936">
        <ele>899</ele>
        <time>2013-05-11T09:33:08Z</time>
      </trkpt>
      <trkpt lat="43.93932" lon="7.39938">
        <ele>896</ele>
        <time>2013-05-11T09:33:15Z</time>
      </trkpt>
      <trkpt lat="43.93931" lon="7.3994">
        <ele>895</ele>
        <time>2013-05-11T09:33:20Z</time>
      </trkpt>
      <trkpt lat="43.93928" lon="7.39943">
        <ele>894</ele>
        <time>2013-05-11T09:33:28Z</time>
      </trkpt>
      <trkpt lat="43.93927" lon="7.39945">
        <ele>894</ele>
        <time>2013-05-11T09:33:36Z</time>
      </trkpt>
      <trkpt lat="43.93927" lon="7.39947">
        <ele>894</ele>
        <time>2013-05-11T09:33:41Z</time>
      </trkpt>
      <trkpt lat="43.93926" lon="7.39948">
        <ele>894</ele>
        <time>2013-05-11T09:33:47Z</time>
      </trkpt>
      <trkpt lat="43.93927" lon="7.39945">
        <ele>894</ele>
        <time>2013-05-11T09:33:54Z</time>
      </trkpt>
      <trkpt lat="43.93928" lon="7.39945">
        <ele>894</ele>
        <time>2013-05-11T09:33:59Z</time>
      </trkpt>
      <trkpt lat="43.93929" lon="7.39946">
        <ele>895</ele>
        <time>2013-05-11T09:34:11Z</time>
      </trkpt>
      <trkpt lat="43.93931" lon="7.39945">
        <ele>895</ele>
        <time>2013-05-11T09:34:16Z</time>
      </trkpt>
      <trkpt lat="43.93929" lon="7.39947">
        <ele>897</ele>
        <time>2013-05-11T09:34:23Z</time>
      </trkpt>
      <trkpt lat="43.93916" lon="7.39963">
        <ele>897</ele>
        <time>2013-05-11T09:34:28Z</time>
      </trkpt>
      <trkpt lat="43.93897" lon="7.39981">
        <ele>897</ele>
        <time>2013-05-11T09:34:33Z</time>
      </trkpt>
      <trkpt lat="43.93879" lon="7.39996">
        <ele>894</ele>
        <time>2013-05-11T09:34:38Z</time>
      </trkpt>
      <trkpt lat="43.93851" lon="7.40013">
        <ele>892</ele>
        <time>2013-05-11T09:34:44Z</time>
      </trkpt>
      <trkpt lat="43.93835" lon="7.40029">
        <ele>892</ele>
        <time>2013-05-11T09:34:49Z</time>
      </trkpt>
      <trkpt lat="43.93811" lon="7.40035">
        <ele>891</ele>
        <time>2013-05-11T09:34:54Z</time>
      </trkpt>
      <trkpt lat="43.938" lon="7.40022">
        <ele>890</ele>
        <time>2013-05-11T09:34:59Z</time>
      </trkpt>
      <trkpt lat="43.93795" lon="7.40014">
        <ele>889</ele>
        <time>2013-05-11T09:35:04Z</time>
      </trkpt>
      <trkpt lat="43.93789" lon="7.40008">
        <ele>889</ele>
        <time>2013-05-11T09:35:09Z</time>
      </trkpt>
      <trkpt lat="43.93783" lon="7.40006">
        <ele>889</ele>
        <time>2013-05-11T09:35:14Z</time>
      </trkpt>
      <trkpt lat="43.93779" lon="7.40005">
        <ele>889</ele>
        <time>2013-05-11T09:35:24Z</time>
      </trkpt>
      <trkpt lat="43.93779" lon="7.40006">
        <ele>892</ele>
        <time>2013-05-11T09:36:05Z</time>
      </trkpt>
      <trkpt lat="43.93779" lon="7.40008">
        <ele>893</ele>
        <time>2013-05-11T09:36:40Z</time>
      </trkpt>
      <trkpt lat="43.93778" lon="7.40008">
        <ele>893</ele>
        <time>2013-05-11T09:36:45Z</time>
      </trkpt>
      <trkpt lat="43.9377" lon="7.40007">
        <ele>893</ele>
        <time>2013-05-11T09:36:51Z</time>
      </trkpt>
      <trkpt lat="43.9376" lon="7.40008">
        <ele>893</ele>
        <time>2013-05-11T09:36:56Z</time>
      </trkpt>
      <trkpt lat="43.93749" lon="7.40009">
        <ele>894</ele>
        <time>2013-05-11T09:37:01Z</time>
      </trkpt>
      <trkpt lat="43.93738" lon="7.40013">
        <ele>895</ele>
        <time>2013-05-11T09:37:06Z</time>
      </trkpt>
      <trkpt lat="43.93725" lon="7.40023">
        <ele>897</ele>
        <time>2013-05-11T09:37:12Z</time>
      </trkpt>
      <trkpt lat="43.93715" lon="7.40028">
        <ele>898</ele>
        <time>2013-05-11T09:37:17Z</time>
      </trkpt>
      <trkpt lat="43.93705" lon="7.40032">
        <ele>899</ele>
        <time>2013-05-11T09:37:22Z</time>
      </trkpt>
      <trkpt lat="43.93695" lon="7.40037">
        <ele>900</ele>
        <time>2013-05-11T09:37:27Z</time>
      </trkpt>
      <trkpt lat="43.93686" lon="7.40041">
        <ele>901</ele>
        <time>2013-05-11T09:37:32Z</time>
      </trkpt>
      <trkpt lat="43.93677" lon="7.40043">
        <ele>902</ele>
        <time>2013-05-11T09:37:37Z</time>
      </trkpt>
      <trkpt lat="43.93669" lon="7.40049">
        <ele>904</ele>
        <time>2013-05-11T09:37:42Z</time>
      </trkpt>
      <trkpt lat="43.93661" lon="7.40059">
        <ele>906</ele>
        <time>2013-05-11T09:37:47Z</time>
      </trkpt>
      <trkpt lat="43.93653" lon="7.4007">
        <ele>909</ele>
        <time>2013-05-11T09:37:52Z</time>
      </trkpt>
      <trkpt lat="43.93645" lon="7.40084">
        <ele>912</ele>
        <time>2013-05-11T09:37:57Z</time>
      </trkpt>
      <trkpt lat="43.93636" lon="7.40101">
        <ele>912</ele>
        <time>2013-05-11T09:38:03Z</time>
      </trkpt>
      <trkpt lat="43.93628" lon="7.40117">
        <ele>912</ele>
        <time>2013-05-11T09:38:08Z</time>
      </trkpt>
      <trkpt lat="43.9362" lon="7.40133">
        <ele>912</ele>
        <time>2013-05-11T09:38:13Z</time>
      </trkpt>
      <trkpt lat="43.93612" lon="7.40147">
        <ele>912</ele>
        <time>2013-05-11T09:38:18Z</time>
      </trkpt>
      <trkpt lat="43.93605" lon="7.40161">
        <ele>912</ele>
        <time>2013-05-11T09:38:23Z</time>
      </trkpt>
      <trkpt lat="43.93601" lon="7.40177">
        <ele>912</ele>
        <time>2013-05-11T09:38:28Z</time>
      </trkpt>
      <trkpt lat="43.93594" lon="7.40193">
        <ele>912</ele>
        <time>2013-05-11T09:38:33Z</time>
      </trkpt>
      <trkpt lat="43.93586" lon="7.40206">
        <ele>912</ele>
        <time>2013-05-11T09:38:38Z</time>
      </trkpt>
      <trkpt lat="43.93579" lon="7.40221">
        <ele>913</ele>
        <time>2013-05-11T09:38:43Z</time>
      </trkpt>
      <trkpt lat="43.93575" lon="7.40237">
        <ele>915</ele>
        <time>2013-05-11T09:38:48Z</time>
      </trkpt>
      <trkpt lat="43.93573" lon="7.40257">
        <ele>915</ele>
        <time>2013-05-11T09:38:53Z</time>
      </trkpt>
      <trkpt lat="43.93572" lon="7.40274">
        <ele>915</ele>
        <time>2013-05-11T09:38:58Z</time>
      </trkpt>
      <trkpt lat="43.9357" lon="7.40291">
        <ele>916</ele>
        <time>2013-05-11T09:39:03Z</time>
      </trkpt>
      <trkpt lat="43.93565" lon="7.40309">
        <ele>916</ele>
        <time>2013-05-11T09:39:08Z</time>
      </trkpt>
      <trkpt lat="43.93555" lon="7.40324">
        <ele>916</ele>
        <time>2013-05-11T09:39:13Z</time>
      </trkpt>
      <trkpt lat="43.93548" lon="7.40344">
        <ele>916</ele>
        <time>2013-05-11T09:39:18Z</time>
      </trkpt>
      <trkpt lat="43.93548" lon="7.40367">
        <ele>918</ele>
        <time>2013-05-11T09:39:23Z</time>
      </trkpt>
      <trkpt lat="43.93549" lon="7.4039">
        <ele>920</ele>
        <time>2013-05-11T09:39:28Z</time>
      </trkpt>
      <trkpt lat="43.93549" lon="7.40412">
        <ele>921</ele>
        <time>2013-05-11T09:39:33Z</time>
      </trkpt>
      <trkpt lat="43.93551" lon="7.40432">
        <ele>925</ele>
        <time>2013-05-11T09:39:38Z</time>
      </trkpt>
      <trkpt lat="43.93555" lon="7.40454">
        <ele>928</ele>
        <time>2013-05-11T09:39:43Z</time>
      </trkpt>
      <trkpt lat="43.93557" lon="7.40476">
        <ele>930</ele>
        <time>2013-05-11T09:39:48Z</time>
      </trkpt>
      <trkpt lat="43.9356" lon="7.40498">
        <ele>931</ele>
        <time>2013-05-11T09:39:53Z</time>
      </trkpt>
      <trkpt lat="43.93564" lon="7.40516">
        <ele>931</ele>
        <time>2013-05-11T09:39:58Z</time>
      </trkpt>
      <trkpt lat="43.93567" lon="7.40536">
        <ele>931</ele>
        <time>2013-05-11T09:40:03Z</time>
      </trkpt>
      <trkpt lat="43.93572" lon="7.40556">
        <ele>931</ele>
        <time>2013-05-11T09:40:08Z</time>
      </trkpt>
      <trkpt lat="43.93576" lon="7.40579">
        <ele>931</ele>
        <time>2013-05-11T09:40:13Z</time>
      </trkpt>
      <trkpt lat="43.93582" lon="7.40601">
        <ele>931</ele>
        <time>2013-05-11T09:40:18Z</time>
      </trkpt>
      <trkpt lat="43.93591" lon="7.40621">
        <ele>931</ele>
        <time>2013-05-11T09:40:23Z</time>
      </trkpt>
      <trkpt lat="43.93601" lon="7.40637">
        <ele>931</ele>
        <time>2013-05-11T09:40:28Z</time>
      </trkpt>
      <trkpt lat="43.93612" lon="7.40652">
        <ele>931</ele>
        <time>2013-05-11T09:40:33Z</time>
      </trkpt>
      <trkpt lat="43.93623" lon="7.40665">
        <ele>931</ele>
        <time>2013-05-11T09:40:38Z</time>
      </trkpt>
      <trkpt lat="43.93635" lon="7.40679">
        <ele>931</ele>
        <time>2013-05-11T09:40:43Z</time>
      </trkpt>
      <trkpt lat="43.93646" lon="7.40691">
        <ele>931</ele>
        <time>2013-05-11T09:40:48Z</time>
      </trkpt>
      <trkpt lat="43.93656" lon="7.40712">
        <ele>931</ele>
        <time>2013-05-11T09:40:54Z</time>
      </trkpt>
      <trkpt lat="43.93649" lon="7.40726">
        <ele>932</ele>
        <time>2013-05-11T09:41:00Z</time>
      </trkpt>
      <trkpt lat="43.93639" lon="7.40721">
        <ele>933</ele>
        <time>2013-05-11T09:41:05Z</time>
      </trkpt>
      <trkpt lat="43.93636" lon="7.40719">
        <ele>933</ele>
        <time>2013-05-11T09:41:10Z</time>
      </trkpt>
      <trkpt lat="43.93636" lon="7.40718">
        <ele>935</ele>
        <time>2013-05-11T09:41:15Z</time>
      </trkpt>
      <trkpt lat="43.93636" lon="7.40718">
        <ele>935</ele>
        <time>2013-05-11T09:41:29Z</time>
      </trkpt>
      <trkpt lat="43.93635" lon="7.40718">
        <ele>935</ele>
        <time>2013-05-11T09:41:37Z</time>
      </trkpt>
      <trkpt lat="43.93636" lon="7.40719">
        <ele>935</ele>
        <time>2013-05-11T09:41:48Z</time>
      </trkpt>
      <trkpt lat="43.93636" lon="7.4072">
        <ele>935</ele>
        <time>2013-05-11T09:42:14Z</time>
      </trkpt>
      <trkpt lat="43.93637" lon="7.40719">
        <ele>938</ele>
        <time>2013-05-11T09:42:52Z</time>
      </trkpt>
      <trkpt lat="43.93638" lon="7.40718">
        <ele>941</ele>
        <time>2013-05-11T09:42:57Z</time>
      </trkpt>
      <trkpt lat="43.93637" lon="7.40717">
        <ele>942</ele>
        <time>2013-05-11T09:43:16Z</time>
      </trkpt>
      <trkpt lat="43.93637" lon="7.40719">
        <ele>938</ele>
        <time>2013-05-11T09:44:06Z</time>
      </trkpt>
      <trkpt lat="43.93638" lon="7.40719">
        <ele>937</ele>
        <time>2013-05-11T09:46:24Z</time>
      </trkpt>
      <trkpt lat="43.93637" lon="7.4072">
        <ele>937</ele>
        <time>2013-05-11T09:47:37Z</time>
      </trkpt>
      <trkpt lat="43.93636" lon="7.40719">
        <ele>937</ele>
        <time>2013-05-11T09:48:32Z</time>
      </trkpt>
      <trkpt lat="43.93635" lon="7.4072">
        <ele>937</ele>
        <time>2013-05-11T09:49:43Z</time>
      </trkpt>
      <trkpt lat="43.93636" lon="7.40718">
        <ele>937</ele>
        <time>2013-05-11T09:51:43Z</time>
      </trkpt>
      <trkpt lat="43.93636" lon="7.40717">
        <ele>933</ele>
        <time>2013-05-11T09:53:39Z</time>
      </trkpt>
      <trkpt lat="43.93635" lon="7.40718">
        <ele>933</ele>
        <time>2013-05-11T09:56:03Z</time>
      </trkpt>
      <trkpt lat="43.93636" lon="7.40717">
        <ele>932</ele>
        <time>2013-05-11T09:58:05Z</time>
      </trkpt>
      <trkpt lat="43.93637" lon="7.40717">
        <ele>932</ele>
        <time>2013-05-11T09:58:12Z</time>
      </trkpt>
      <trkpt lat="43.93638" lon="7.40718">
        <ele>932</ele>
        <time>2013-05-11T09:58:17Z</time>
      </trkpt>
      <trkpt lat="43.93637" lon="7.4072">
        <ele>932</ele>
        <time>2013-05-11T09:58:38Z</time>
      </trkpt>
      <trkpt lat="43.93636" lon="7.40719">
        <ele>932</ele>
        <time>2013-05-11T09:58:51Z</time>
      </trkpt>
      <trkpt lat="43.93635" lon="7.40718">
        <ele>932</ele>
        <time>2013-05-11T09:58:57Z</time>
      </trkpt>
      <trkpt lat="43.93634" lon="7.40716">
        <ele>932</ele>
        <time>2013-05-11T09:59:05Z</time>
      </trkpt>
      <trkpt lat="43.93633" lon="7.40713">
        <ele>929</ele>
        <time>2013-05-11T09:59:13Z</time>
      </trkpt>
      <trkpt lat="43.93633" lon="7.40715">
        <ele>928</ele>
        <time>2013-05-11T09:59:38Z</time>
      </trkpt>
      <trkpt lat="43.93633" lon="7.40716">
        <ele>930</ele>
        <time>2013-05-11T09:59:48Z</time>
      </trkpt>
      <trkpt lat="43.93634" lon="7.40718">
        <ele>934</ele>
        <time>2013-05-11T10:00:01Z</time>
      </trkpt>
      <trkpt lat="43.93635" lon="7.40717">
        <ele>937</ele>
        <time>2013-05-11T10:01:19Z</time>
      </trkpt>
      <trkpt lat="43.93635" lon="7.40719">
        <ele>937</ele>
        <time>2013-05-11T10:02:13Z</time>
      </trkpt>
      <trkpt lat="43.93635" lon="7.40719">
        <ele>937</ele>
        <time>2013-05-11T10:02:31Z</time>
      </trkpt>
      <trkpt lat="43.93636" lon="7.40719">
        <ele>937</ele>
        <time>2013-05-11T10:02:58Z</time>
      </trkpt>
      <trkpt lat="43.93637" lon="7.4072">
        <ele>937</ele>
        <time>2013-05-11T10:03:22Z</time>
      </trkpt>
      <trkpt lat="43.93639" lon="7.4072">
        <ele>937</ele>
        <time>2013-05-11T10:04:21Z</time>
      </trkpt>
      <trkpt lat="43.93637" lon="7.4072">
        <ele>936</ele>
        <time>2013-05-11T10:05:02Z</time>
      </trkpt>
      <trkpt lat="43.93636" lon="7.4072">
        <ele>936</ele>
        <time>2013-05-11T10:07:44Z</time>
      </trkpt>
      <trkpt lat="43.93634" lon="7.40718">
        <ele>936</ele>
        <time>2013-05-11T10:08:07Z</time>
      </trkpt>
      <trkpt lat="43.93633" lon="7.40714">
        <ele>936</ele>
        <time>2013-05-11T10:08:14Z</time>
      </trkpt>
      <trkpt lat="43.93633" lon="7.40712">
        <ele>936</ele>
        <time>2013-05-11T10:08:20Z</time>
      </trkpt>
      <trkpt lat="43.93634" lon="7.40703">
        <ele>936</ele>
        <time>2013-05-11T10:08:25Z</time>
      </trkpt>
      <trkpt lat="43.93634" lon="7.40692">
        <ele>936</ele>
        <time>2013-05-11T10:08:30Z</time>
      </trkpt>
      <trkpt lat="43.93623" lon="7.40683">
        <ele>936</ele>
        <time>2013-05-11T10:08:36Z</time>
      </trkpt>
      <trkpt lat="43.93612" lon="7.40673">
        <ele>936</ele>
        <time>2013-05-11T10:08:42Z</time>
      </trkpt>
      <trkpt lat="43.93604" lon="7.40665">
        <ele>936</ele>
        <time>2013-05-11T10:08:47Z</time>
      </trkpt>
      <trkpt lat="43.93597" lon="7.40657">
        <ele>936</ele>
        <time>2013-05-11T10:08:52Z</time>
      </trkpt>
      <trkpt lat="43.93589" lon="7.40648">
        <ele>936</ele>
        <time>2013-05-11T10:08:57Z</time>
      </trkpt>
      <trkpt lat="43.93581" lon="7.40641">
        <ele>937</ele>
        <time>2013-05-11T10:09:02Z</time>
      </trkpt>
      <trkpt lat="43.93573" lon="7.40632">
        <ele>938</ele>
        <time>2013-05-11T10:09:07Z</time>
      </trkpt>
      <trkpt lat="43.93564" lon="7.40621">
        <ele>939</ele>
        <time>2013-05-11T10:09:13Z</time>
      </trkpt>
      <trkpt lat="43.93555" lon="7.40614">
        <ele>940</ele>
        <time>2013-05-11T10:09:18Z</time>
      </trkpt>
      <trkpt lat="43.93547" lon="7.40606">
        <ele>941</ele>
        <time>2013-05-11T10:09:23Z</time>
      </trkpt>
      <trkpt lat="43.93538" lon="7.40597">
        <ele>942</ele>
        <time>2013-05-11T10:09:28Z</time>
      </trkpt>
      <trkpt lat="43.9353" lon="7.40589">
        <ele>943</ele>
        <time>2013-05-11T10:09:33Z</time>
      </trkpt>
      <trkpt lat="43.93521" lon="7.40579">
        <ele>943</ele>
        <time>2013-05-11T10:09:38Z</time>
      </trkpt>
      <trkpt lat="43.93513" lon="7.4057">
        <ele>944</ele>
        <time>2013-05-11T10:09:43Z</time>
      </trkpt>
      <trkpt lat="43.93506" lon="7.4056">
        <ele>945</ele>
        <time>2013-05-11T10:09:48Z</time>
      </trkpt>
      <trkpt lat="43.93497" lon="7.40551">
        <ele>948</ele>
        <time>2013-05-11T10:09:53Z</time>
      </trkpt>
      <trkpt lat="43.9349" lon="7.40542">
        <ele>951</ele>
        <time>2013-05-11T10:09:58Z</time>
      </trkpt>
      <trkpt lat="43.93485" lon="7.40534">
        <ele>952</ele>
        <time>2013-05-11T10:10:03Z</time>
      </trkpt>
      <trkpt lat="43.93479" lon="7.40527">
        <ele>953</ele>
        <time>2013-05-11T10:10:08Z</time>
      </trkpt>
      <trkpt lat="43.93473" lon="7.40518">
        <ele>954</ele>
        <time>2013-05-11T10:10:13Z</time>
      </trkpt>
      <trkpt lat="43.93466" lon="7.4051">
        <ele>954</ele>
        <time>2013-05-11T10:10:18Z</time>
      </trkpt>
      <trkpt lat="43.93458" lon="7.40501">
        <ele>954</ele>
        <time>2013-05-11T10:10:23Z</time>
      </trkpt>
      <trkpt lat="43.93447" lon="7.40495">
        <ele>954</ele>
        <time>2013-05-11T10:10:29Z</time>
      </trkpt>
      <trkpt lat="43.93436" lon="7.40493">
        <ele>954</ele>
        <time>2013-05-11T10:10:34Z</time>
      </trkpt>
      <trkpt lat="43.93426" lon="7.40492">
        <ele>954</ele>
        <time>2013-05-11T10:10:40Z</time>
      </trkpt>
      <trkpt lat="43.93418" lon="7.40492">
        <ele>954</ele>
        <time>2013-05-11T10:10:45Z</time>
      </trkpt>
      <trkpt lat="43.93409" lon="7.40493">
        <ele>954</ele>
        <time>2013-05-11T10:10:50Z</time>
      </trkpt>
      <trkpt lat="43.934" lon="7.40494">
        <ele>954</ele>
        <time>2013-05-11T10:10:55Z</time>
      </trkpt>
      <trkpt lat="43.93391" lon="7.40492">
        <ele>954</ele>
        <time>2013-05-11T10:11:01Z</time>
      </trkpt>
      <trkpt lat="43.93382" lon="7.40492">
        <ele>954</ele>
        <time>2013-05-11T10:11:06Z</time>
      </trkpt>
      <trkpt lat="43.93371" lon="7.40491">
        <ele>954</ele>
        <time>2013-05-11T10:11:11Z</time>
      </trkpt>
      <trkpt lat="43.9336" lon="7.40489">
        <ele>955</ele>
        <time>2013-05-11T10:11:17Z</time>
      </trkpt>
      <trkpt lat="43.9335" lon="7.40487">
        <ele>956</ele>
        <time>2013-05-11T10:11:22Z</time>
      </trkpt>
      <trkpt lat="43.9334" lon="7.40486">
        <ele>957</ele>
        <time>2013-05-11T10:11:27Z</time>
      </trkpt>
      <trkpt lat="43.93329" lon="7.40486">
        <ele>957</ele>
        <time>2013-05-11T10:11:32Z</time>
      </trkpt>
      <trkpt lat="43.9332" lon="7.40488">
        <ele>958</ele>
        <time>2013-05-11T10:11:37Z</time>
      </trkpt>
      <trkpt lat="43.93309" lon="7.40493">
        <ele>958</ele>
        <time>2013-05-11T10:11:43Z</time>
      </trkpt>
      <trkpt lat="43.93301" lon="7.40496">
        <ele>958</ele>
        <time>2013-05-11T10:11:48Z</time>
      </trkpt>
      <trkpt lat="43.93292" lon="7.40501">
        <ele>958</ele>
        <time>2013-05-11T10:11:53Z</time>
      </trkpt>
      <trkpt lat="43.93283" lon="7.40504">
        <ele>958</ele>
        <time>2013-05-11T10:11:58Z</time>
      </trkpt>
      <trkpt lat="43.93275" lon="7.40506">
        <ele>958</ele>
        <time>2013-05-11T10:12:03Z</time>
      </trkpt>
      <trkpt lat="43.93267" lon="7.40508">
        <ele>958</ele>
        <time>2013-05-11T10:12:08Z</time>
      </trkpt>
      <trkpt lat="43.93257" lon="7.40512">
        <ele>958</ele>
        <time>2013-05-11T10:12:13Z</time>
      </trkpt>
      <trkpt lat="43.93246" lon="7.40515">
        <ele>958</ele>
        <time>2013-05-11T10:12:18Z</time>
      </trkpt>
      <trkpt lat="43.93234" lon="7.40514">
        <ele>958</ele>
        <time>2013-05-11T10:12:23Z</time>
      </trkpt>
      <trkpt lat="43.93224" lon="7.4051">
        <ele>959</ele>
        <time>2013-05-11T10:12:28Z</time>
      </trkpt>
      <trkpt lat="43.93212" lon="7.40501">
        <ele>961</ele>
        <time>2013-05-11T10:12:33Z</time>
      </trkpt>
      <trkpt lat="43.93202" lon="7.40493">
        <ele>963</ele>
        <time>2013-05-11T10:12:38Z</time>
      </trkpt>
      <trkpt lat="43.93192" lon="7.40486">
        <ele>966</ele>
        <time>2013-05-11T10:12:43Z</time>
      </trkpt>
      <trkpt lat="43.93183" lon="7.40478">
        <ele>969</ele>
        <time>2013-05-11T10:12:48Z</time>
      </trkpt>
      <trkpt lat="43.93176" lon="7.40469">
        <ele>971</ele>
        <time>2013-05-11T10:12:53Z</time>
      </trkpt>
      <trkpt lat="43.93168" lon="7.40458">
        <ele>974</ele>
        <time>2013-05-11T10:12:58Z</time>
      </trkpt>
      <trkpt lat="43.93159" lon="7.40449">
        <ele>975</ele>
        <time>2013-05-11T10:13:03Z</time>
      </trkpt>
      <trkpt lat="43.93151" lon="7.40439">
        <ele>976</ele>
        <time>2013-05-11T10:13:08Z</time>
      </trkpt>
      <trkpt lat="43.93142" lon="7.4043">
        <ele>976</ele>
        <time>2013-05-11T10:13:13Z</time>
      </trkpt>
      <trkpt lat="43.93133" lon="7.40419">
        <ele>976</ele>
        <time>2013-05-11T10:13:18Z</time>
      </trkpt>
      <trkpt lat="43.93123" lon="7.40411">
        <ele>977</ele>
        <time>2013-05-11T10:13:23Z</time>
      </trkpt>
      <trkpt lat="43.93116" lon="7.40403">
        <ele>979</ele>
        <time>2013-05-11T10:13:28Z</time>
      </trkpt>
      <trkpt lat="43.93108" lon="7.40393">
        <ele>979</ele>
        <time>2013-05-11T10:13:33Z</time>
      </trkpt>
      <trkpt lat="43.93101" lon="7.4038">
        <ele>980</ele>
        <time>2013-05-11T10:13:39Z</time>
      </trkpt>
      <trkpt lat="43.93096" lon="7.40367">
        <ele>981</ele>
        <time>2013-05-11T10:13:44Z</time>
      </trkpt>
      <trkpt lat="43.93091" lon="7.40353">
        <ele>981</ele>
        <time>2013-05-11T10:13:49Z</time>
      </trkpt>
      <trkpt lat="43.93086" lon="7.40339">
        <ele>982</ele>
        <time>2013-05-11T10:13:54Z</time>
      </trkpt>
      <trkpt lat="43.93077" lon="7.40327">
        <ele>984</ele>
        <time>2013-05-11T10:13:59Z</time>
      </trkpt>
      <trkpt lat="43.93063" lon="7.4032">
        <ele>986</ele>
        <time>2013-05-11T10:14:05Z</time>
      </trkpt>
      <trkpt lat="43.9305" lon="7.40313">
        <ele>989</ele>
        <time>2013-05-11T10:14:11Z</time>
      </trkpt>
      <trkpt lat="43.93039" lon="7.40311">
        <ele>991</ele>
        <time>2013-05-11T10:14:16Z</time>
      </trkpt>
      <trkpt lat="43.93031" lon="7.40322">
        <ele>992</ele>
        <time>2013-05-11T10:14:21Z</time>
      </trkpt>
      <trkpt lat="43.93026" lon="7.40335">
        <ele>992</ele>
        <time>2013-05-11T10:14:26Z</time>
      </trkpt>
      <trkpt lat="43.93019" lon="7.40346">
        <ele>992</ele>
        <time>2013-05-11T10:14:31Z</time>
      </trkpt>
      <trkpt lat="43.9301" lon="7.40356">
        <ele>994</ele>
        <time>2013-05-11T10:14:36Z</time>
      </trkpt>
      <trkpt lat="43.93" lon="7.40364">
        <ele>994</ele>
        <time>2013-05-11T10:14:41Z</time>
      </trkpt>
      <trkpt lat="43.92989" lon="7.40373">
        <ele>996</ele>
        <time>2013-05-11T10:14:47Z</time>
      </trkpt>
      <trkpt lat="43.9298" lon="7.40379">
        <ele>996</ele>
        <time>2013-05-11T10:14:52Z</time>
      </trkpt>
      <trkpt lat="43.9297" lon="7.40382">
        <ele>997</ele>
        <time>2013-05-11T10:14:57Z</time>
      </trkpt>
      <trkpt lat="43.9296" lon="7.40383">
        <ele>998</ele>
        <time>2013-05-11T10:15:02Z</time>
      </trkpt>
      <trkpt lat="43.9295" lon="7.40388">
        <ele>999</ele>
        <time>2013-05-11T10:15:07Z</time>
      </trkpt>
      <trkpt lat="43.92941" lon="7.40396">
        <ele>1002</ele>
        <time>2013-05-11T10:15:12Z</time>
      </trkpt>
      <trkpt lat="43.92933" lon="7.40402">
        <ele>1004</ele>
        <time>2013-05-11T10:15:17Z</time>
      </trkpt>
      <trkpt lat="43.92925" lon="7.40411">
        <ele>1005</ele>
        <time>2013-05-11T10:15:22Z</time>
      </trkpt>
      <trkpt lat="43.92917" lon="7.40421">
        <ele>1006</ele>
        <time>2013-05-11T10:15:27Z</time>
      </trkpt>
      <trkpt lat="43.92912" lon="7.40434">
        <ele>1007</ele>
        <time>2013-05-11T10:15:32Z</time>
      </trkpt>
      <trkpt lat="43.9291" lon="7.40448">
        <ele>1009</ele>
        <time>2013-05-11T10:15:37Z</time>
      </trkpt>
      <trkpt lat="43.92907" lon="7.40462">
        <ele>1010</ele>
        <time>2013-05-11T10:15:42Z</time>
      </trkpt>
      <trkpt lat="43.92907" lon="7.40477">
        <ele>1013</ele>
        <time>2013-05-11T10:15:47Z</time>
      </trkpt>
      <trkpt lat="43.92903" lon="7.40492">
        <ele>1016</ele>
        <time>2013-05-11T10:15:52Z</time>
      </trkpt>
      <trkpt lat="43.92896" lon="7.40505">
        <ele>1016</ele>
        <time>2013-05-11T10:15:57Z</time>
      </trkpt>
      <trkpt lat="43.92885" lon="7.40509">
        <ele>1016</ele>
        <time>2013-05-11T10:16:02Z</time>
      </trkpt>
      <trkpt lat="43.92873" lon="7.40511">
        <ele>1016</ele>
        <time>2013-05-11T10:16:07Z</time>
      </trkpt>
      <trkpt lat="43.92862" lon="7.40514">
        <ele>1016</ele>
        <time>2013-05-11T10:16:12Z</time>
      </trkpt>
      <trkpt lat="43.92852" lon="7.40523">
        <ele>1017</ele>
        <time>2013-05-11T10:16:17Z</time>
      </trkpt>
      <trkpt lat="43.92846" lon="7.40536">
        <ele>1019</ele>
        <time>2013-05-11T10:16:22Z</time>
      </trkpt>
      <trkpt lat="43.9284" lon="7.40547">
        <ele>1019</ele>
        <time>2013-05-11T10:16:27Z</time>
      </trkpt>
      <trkpt lat="43.92833" lon="7.40559">
        <ele>1020</ele>
        <time>2013-05-11T10:16:32Z</time>
      </trkpt>
      <trkpt lat="43.92827" lon="7.40571">
        <ele>1022</ele>
        <time>2013-05-11T10:16:37Z</time>
      </trkpt>
      <trkpt lat="43.92821" lon="7.40583">
        <ele>1022</ele>
        <time>2013-05-11T10:16:42Z</time>
      </trkpt>
      <trkpt lat="43.92817" lon="7.40595">
        <ele>1022</ele>
        <time>2013-05-11T10:16:47Z</time>
      </trkpt>
      <trkpt lat="43.92815" lon="7.4061">
        <ele>1022</ele>
        <time>2013-05-11T10:16:52Z</time>
      </trkpt>
      <trkpt lat="43.92814" lon="7.40628">
        <ele>1022</ele>
        <time>2013-05-11T10:16:57Z</time>
      </trkpt>
      <trkpt lat="43.92814" lon="7.40644">
        <ele>1026</ele>
        <time>2013-05-11T10:17:02Z</time>
      </trkpt>
      <trkpt lat="43.9281" lon="7.40658">
        <ele>1030</ele>
        <time>2013-05-11T10:17:07Z</time>
      </trkpt>
      <trkpt lat="43.92804" lon="7.4067">
        <ele>1035</ele>
        <time>2013-05-11T10:17:12Z</time>
      </trkpt>
      <trkpt lat="43.92796" lon="7.40679">
        <ele>1036</ele>
        <time>2013-05-11T10:17:17Z</time>
      </trkpt>
      <trkpt lat="43.92787" lon="7.40685">
        <ele>1036</ele>
        <time>2013-05-11T10:17:22Z</time>
      </trkpt>
      <trkpt lat="43.92778" lon="7.4069">
        <ele>1036</ele>
        <time>2013-05-11T10:17:27Z</time>
      </trkpt>
      <trkpt lat="43.92767" lon="7.40691">
        <ele>1036</ele>
        <time>2013-05-11T10:17:32Z</time>
      </trkpt>
      <trkpt lat="43.92757" lon="7.40692">
        <ele>1036</ele>
        <time>2013-05-11T10:17:37Z</time>
      </trkpt>
      <trkpt lat="43.92747" lon="7.40691">
        <ele>1036</ele>
        <time>2013-05-11T10:17:42Z</time>
      </trkpt>
      <trkpt lat="43.92738" lon="7.40688">
        <ele>1036</ele>
        <time>2013-05-11T10:17:47Z</time>
      </trkpt>
      <trkpt lat="43.92729" lon="7.40684">
        <ele>1036</ele>
        <time>2013-05-11T10:17:52Z</time>
      </trkpt>
      <trkpt lat="43.92721" lon="7.40682">
        <ele>1036</ele>
        <time>2013-05-11T10:17:57Z</time>
      </trkpt>
      <trkpt lat="43.92719" lon="7.4068">
        <ele>1036</ele>
        <time>2013-05-11T10:18:03Z</time>
      </trkpt>
      <trkpt lat="43.9272" lon="7.40681">
        <ele>1037</ele>
        <time>2013-05-11T10:18:19Z</time>
      </trkpt>
      <trkpt lat="43.92721" lon="7.40681">
        <ele>1037</ele>
        <time>2013-05-11T10:18:24Z</time>
      </trkpt>
      <trkpt lat="43.9272" lon="7.40679">
        <ele>1037</ele>
        <time>2013-05-11T10:18:35Z</time>
      </trkpt>
      <trkpt lat="43.92721" lon="7.40678">
        <ele>1037</ele>
        <time>2013-05-11T10:18:41Z</time>
      </trkpt>
      <trkpt lat="43.92722" lon="7.40677">
        <ele>1037</ele>
        <time>2013-05-11T10:19:12Z</time>
      </trkpt>
      <trkpt lat="43.92723" lon="7.40679">
        <ele>1037</ele>
        <time>2013-05-11T10:19:32Z</time>
      </trkpt>
      <trkpt lat="43.92722" lon="7.40678">
        <ele>1037</ele>
        <time>2013-05-11T10:19:40Z</time>
      </trkpt>
      <trkpt lat="43.92722" lon="7.40677">
        <ele>1037</ele>
        <time>2013-05-11T10:19:48Z</time>
      </trkpt>
      <trkpt lat="43.92722" lon="7.40679">
        <ele>1037</ele>
        <time>2013-05-11T10:19:53Z</time>
      </trkpt>
      <trkpt lat="43.92723" lon="7.40681">
        <ele>1037</ele>
        <time>2013-05-11T10:19:58Z</time>
      </trkpt>
      <trkpt lat="43.92724" lon="7.40681">
        <ele>1038</ele>
        <time>2013-05-11T10:20:05Z</time>
      </trkpt>
      <trkpt lat="43.92725" lon="7.40682">
        <ele>1039</ele>
        <time>2013-05-11T10:20:18Z</time>
      </trkpt>
      <trkpt lat="43.92724" lon="7.40682">
        <ele>1039</ele>
        <time>2013-05-11T10:20:30Z</time>
      </trkpt>
      <trkpt lat="43.92725" lon="7.40682">
        <ele>1039</ele>
        <time>2013-05-11T10:20:38Z</time>
      </trkpt>
      <trkpt lat="43.92725" lon="7.40684">
        <ele>1039</ele>
        <time>2013-05-11T10:20:55Z</time>
      </trkpt>
      <trkpt lat="43.92723" lon="7.40683">
        <ele>1039</ele>
        <time>2013-05-11T10:21:05Z</time>
      </trkpt>
      <trkpt lat="43.92722" lon="7.40682">
        <ele>1038</ele>
        <time>2013-05-11T10:21:24Z</time>
      </trkpt>
      <trkpt lat="43.92721" lon="7.40681">
        <ele>1037</ele>
        <time>2013-05-11T10:21:59Z</time>
      </trkpt>
      <trkpt lat="43.92718" lon="7.40679">
        <ele>1037</ele>
        <time>2013-05-11T10:22:05Z</time>
      </trkpt>
      <trkpt lat="43.92717" lon="7.40678">
        <ele>1037</ele>
        <time>2013-05-11T10:22:20Z</time>
      </trkpt>
      <trkpt lat="43.92717" lon="7.40679">
        <ele>1037</ele>
        <time>2013-05-11T10:22:26Z</time>
      </trkpt>
      <trkpt lat="43.92717" lon="7.40687">
        <ele>1042</ele>
        <time>2013-05-11T10:22:31Z</time>
      </trkpt>
      <trkpt lat="43.92716" lon="7.40685">
        <ele>1047</ele>
        <time>2013-05-11T10:22:36Z</time>
      </trkpt>
      <trkpt lat="43.92715" lon="7.40689">
        <ele>1053</ele>
        <time>2013-05-11T10:22:42Z</time>
      </trkpt>
      <trkpt lat="43.92716" lon="7.40689">
        <ele>1063</ele>
        <time>2013-05-11T10:22:49Z</time>
      </trkpt>
      <trkpt lat="43.92718" lon="7.40684">
        <ele>1062</ele>
        <time>2013-05-11T10:22:54Z</time>
      </trkpt>
      <trkpt lat="43.92718" lon="7.40678">
        <ele>1055</ele>
        <time>2013-05-11T10:22:59Z</time>
      </trkpt>
      <trkpt lat="43.92707" lon="7.40672">
        <ele>1050</ele>
        <time>2013-05-11T10:23:04Z</time>
      </trkpt>
      <trkpt lat="43.92686" lon="7.40659">
        <ele>1045</ele>
        <time>2013-05-11T10:23:09Z</time>
      </trkpt>
      <trkpt lat="43.92664" lon="7.40655">
        <ele>1040</ele>
        <time>2013-05-11T10:23:14Z</time>
      </trkpt>
      <trkpt lat="43.92642" lon="7.40649">
        <ele>1035</ele>
        <time>2013-05-11T10:23:19Z</time>
      </trkpt>
      <trkpt lat="43.92613" lon="7.40632">
        <ele>1029</ele>
        <time>2013-05-11T10:23:25Z</time>
      </trkpt>
      <trkpt lat="43.926" lon="7.40617">
        <ele>1025</ele>
        <time>2013-05-11T10:23:30Z</time>
      </trkpt>
      <trkpt lat="43.92586" lon="7.40594">
        <ele>1025</ele>
        <time>2013-05-11T10:23:35Z</time>
      </trkpt>
      <trkpt lat="43.92575" lon="7.40571">
        <ele>1025</ele>
        <time>2013-05-11T10:23:41Z</time>
      </trkpt>
      <trkpt lat="43.92564" lon="7.40543">
        <ele>1024</ele>
        <time>2013-05-11T10:23:46Z</time>
      </trkpt>
      <trkpt lat="43.92558" lon="7.4052">
        <ele>1023</ele>
        <time>2013-05-11T10:23:51Z</time>
      </trkpt>
      <trkpt lat="43.92549" lon="7.40488">
        <ele>1021</ele>
        <time>2013-05-11T10:23:57Z</time>
      </trkpt>
      <trkpt lat="43.92533" lon="7.4047">
        <ele>1017</ele>
        <time>2013-05-11T10:24:02Z</time>
      </trkpt>
      <trkpt lat="43.9251" lon="7.40436">
        <ele>1014</ele>
        <time>2013-05-11T10:24:08Z</time>
      </trkpt>
      <trkpt lat="43.92511" lon="7.40386">
        <ele>1009</ele>
        <time>2013-05-11T10:24:13Z</time>
      </trkpt>
      <trkpt lat="43.92509" lon="7.40373">
        <ele>1006</ele>
        <time>2013-05-11T10:24:23Z</time>
      </trkpt>
      <trkpt lat="43.92506" lon="7.40368">
        <ele>1006</ele>
        <time>2013-05-11T10:24:29Z</time>
      </trkpt>
      <trkpt lat="43.92499" lon="7.40365">
        <ele>1006</ele>
        <time>2013-05-11T10:24:34Z</time>
      </trkpt>
      <trkpt lat="43.92482" lon="7.40353">
        <ele>1006</ele>
        <time>2013-05-11T10:24:39Z</time>
      </trkpt>
      <trkpt lat="43.92465" lon="7.40341">
        <ele>1006</ele>
        <time>2013-05-11T10:24:45Z</time>
      </trkpt>
      <trkpt lat="43.92454" lon="7.40331">
        <ele>1006</ele>
        <time>2013-05-11T10:24:50Z</time>
      </trkpt>
      <trkpt lat="43.9244" lon="7.40325">
        <ele>1006</ele>
        <time>2013-05-11T10:24:55Z</time>
      </trkpt>
      <trkpt lat="43.92424" lon="7.40317">
        <ele>1007</ele>
        <time>2013-05-11T10:25:00Z</time>
      </trkpt>
      <trkpt lat="43.92413" lon="7.40301">
        <ele>1009</ele>
        <time>2013-05-11T10:25:06Z</time>
      </trkpt>
      <trkpt lat="43.92411" lon="7.40281">
        <ele>1009</ele>
        <time>2013-05-11T10:25:12Z</time>
      </trkpt>
      <trkpt lat="43.92408" lon="7.40266">
        <ele>1010</ele>
        <time>2013-05-11T10:25:17Z</time>
      </trkpt>
      <trkpt lat="43.92409" lon="7.40251">
        <ele>1011</ele>
        <time>2013-05-11T10:25:22Z</time>
      </trkpt>
      <trkpt lat="43.9241" lon="7.40238">
        <ele>1013</ele>
        <time>2013-05-11T10:25:27Z</time>
      </trkpt>
      <trkpt lat="43.92412" lon="7.40228">
        <ele>1016</ele>
        <time>2013-05-11T10:25:32Z</time>
      </trkpt>
      <trkpt lat="43.92411" lon="7.40226">
        <ele>1016</ele>
        <time>2013-05-11T10:25:37Z</time>
      </trkpt>
      <trkpt lat="43.92408" lon="7.40223">
        <ele>1016</ele>
        <time>2013-05-11T10:25:42Z</time>
      </trkpt>
      <trkpt lat="43.924" lon="7.40214">
        <ele>1016</ele>
        <time>2013-05-11T10:25:47Z</time>
      </trkpt>
      <trkpt lat="43.9239" lon="7.40202">
        <ele>1016</ele>
        <time>2013-05-11T10:25:52Z</time>
      </trkpt>
      <trkpt lat="43.9238" lon="7.40193">
        <ele>1016</ele>
        <time>2013-05-11T10:25:57Z</time>
      </trkpt>
      <trkpt lat="43.92366" lon="7.40189">
        <ele>1016</ele>
        <time>2013-05-11T10:26:02Z</time>
      </trkpt>
      <trkpt lat="43.92349" lon="7.40184">
        <ele>1016</ele>
        <time>2013-05-11T10:26:07Z</time>
      </trkpt>
      <trkpt lat="43.92336" lon="7.40172">
        <ele>1016</ele>
        <time>2013-05-11T10:26:13Z</time>
      </trkpt>
      <trkpt lat="43.92326" lon="7.40159">
        <ele>1016</ele>
        <time>2013-05-11T10:26:18Z</time>
      </trkpt>
      <trkpt lat="43.92316" lon="7.40146">
        <ele>1017</ele>
        <time>2013-05-11T10:26:23Z</time>
      </trkpt>
      <trkpt lat="43.92308" lon="7.40134">
        <ele>1018</ele>
        <time>2013-05-11T10:26:28Z</time>
      </trkpt>
      <trkpt lat="43.92298" lon="7.40121">
        <ele>1020</ele>
        <time>2013-05-11T10:26:33Z</time>
      </trkpt>
      <trkpt lat="43.92285" lon="7.40104">
        <ele>1020</ele>
        <time>2013-05-11T10:26:38Z</time>
      </trkpt>
      <trkpt lat="43.92277" lon="7.40087">
        <ele>1020</ele>
        <time>2013-05-11T10:26:43Z</time>
      </trkpt>
      <trkpt lat="43.9227" lon="7.40058">
        <ele>1020</ele>
        <time>2013-05-11T10:26:49Z</time>
      </trkpt>
      <trkpt lat="43.92265" lon="7.40036">
        <ele>1020</ele>
        <time>2013-05-11T10:26:54Z</time>
      </trkpt>
      <trkpt lat="43.92257" lon="7.40005">
        <ele>1020</ele>
        <time>2013-05-11T10:27:00Z</time>
      </trkpt>
      <trkpt lat="43.92249" lon="7.39976">
        <ele>1020</ele>
        <time>2013-05-11T10:27:05Z</time>
      </trkpt>
      <trkpt lat="43.92247" lon="7.39936">
        <ele>1019</ele>
        <time>2013-05-11T10:27:10Z</time>
      </trkpt>
      <trkpt lat="43.92257" lon="7.399">
        <ele>1019</ele>
        <time>2013-05-11T10:27:15Z</time>
      </trkpt>
      <trkpt lat="43.92276" lon="7.39892">
        <ele>1019</ele>
        <time>2013-05-11T10:27:21Z</time>
      </trkpt>
      <trkpt lat="43.92278" lon="7.3989">
        <ele>1019</ele>
        <time>2013-05-11T10:27:28Z</time>
      </trkpt>
      <trkpt lat="43.92279" lon="7.3989">
        <ele>1019</ele>
        <time>2013-05-11T10:27:37Z</time>
      </trkpt>
      <trkpt lat="43.92273" lon="7.39888">
        <ele>1019</ele>
        <time>2013-05-11T10:27:42Z</time>
      </trkpt>
      <trkpt lat="43.92263" lon="7.39877">
        <ele>1020</ele>
        <time>2013-05-11T10:27:47Z</time>
      </trkpt>
      <trkpt lat="43.92249" lon="7.39853">
        <ele>1021</ele>
        <time>2013-05-11T10:27:52Z</time>
      </trkpt>
      <trkpt lat="43.92244" lon="7.39822">
        <ele>1021</ele>
        <time>2013-05-11T10:27:57Z</time>
      </trkpt>
      <trkpt lat="43.92244" lon="7.39793">
        <ele>1021</ele>
        <time>2013-05-11T10:28:02Z</time>
      </trkpt>
      <trkpt lat="43.92242" lon="7.3977">
        <ele>1021</ele>
        <time>2013-05-11T10:28:08Z</time>
      </trkpt>
      <trkpt lat="43.92227" lon="7.39777">
        <ele>1019</ele>
        <time>2013-05-11T10:28:13Z</time>
      </trkpt>
      <trkpt lat="43.9221" lon="7.39784">
        <ele>1017</ele>
        <time>2013-05-11T10:28:18Z</time>
      </trkpt>
      <trkpt lat="43.92193" lon="7.39791">
        <ele>1016</ele>
        <time>2013-05-11T10:28:23Z</time>
      </trkpt>
      <trkpt lat="43.92176" lon="7.39785">
        <ele>1016</ele>
        <time>2013-05-11T10:28:28Z</time>
      </trkpt>
      <trkpt lat="43.92163" lon="7.39757">
        <ele>1015</ele>
        <time>2013-05-11T10:28:33Z</time>
      </trkpt>
      <trkpt lat="43.92149" lon="7.3973">
        <ele>1015</ele>
        <time>2013-05-11T10:28:38Z</time>
      </trkpt>
      <trkpt lat="43.92136" lon="7.39743">
        <ele>1015</ele>
        <time>2013-05-11T10:28:43Z</time>
      </trkpt>
      <trkpt lat="43.92122" lon="7.39758">
        <ele>1015</ele>
        <time>2013-05-11T10:28:48Z</time>
      </trkpt>
      <trkpt lat="43.92109" lon="7.39761">
        <ele>1015</ele>
        <time>2013-05-11T10:28:53Z</time>
      </trkpt>
      <trkpt lat="43.92103" lon="7.39761">
        <ele>1015</ele>
        <time>2013-05-11T10:29:00Z</time>
      </trkpt>
      <trkpt lat="43.92089" lon="7.39759">
        <ele>1015</ele>
        <time>2013-05-11T10:29:05Z</time>
      </trkpt>
      <trkpt lat="43.92074" lon="7.39751">
        <ele>1015</ele>
        <time>2013-05-11T10:29:10Z</time>
      </trkpt>
      <trkpt lat="43.92062" lon="7.39746">
        <ele>1015</ele>
        <time>2013-05-11T10:29:15Z</time>
      </trkpt>
      <trkpt lat="43.92056" lon="7.39758">
        <ele>1015</ele>
        <time>2013-05-11T10:29:20Z</time>
      </trkpt>
      <trkpt lat="43.92053" lon="7.39771">
        <ele>1015</ele>
        <time>2013-05-11T10:29:25Z</time>
      </trkpt>
      <trkpt lat="43.92051" lon="7.39785">
        <ele>1017</ele>
        <time>2013-05-11T10:29:30Z</time>
      </trkpt>
      <trkpt lat="43.92051" lon="7.39798">
        <ele>1020</ele>
        <time>2013-05-11T10:29:35Z</time>
      </trkpt>
      <trkpt lat="43.92048" lon="7.39812">
        <ele>1022</ele>
        <time>2013-05-11T10:29:40Z</time>
      </trkpt>
      <trkpt lat="43.92046" lon="7.39826">
        <ele>1024</ele>
        <time>2013-05-11T10:29:45Z</time>
      </trkpt>
      <trkpt lat="43.92039" lon="7.39838">
        <ele>1026</ele>
        <time>2013-05-11T10:29:50Z</time>
      </trkpt>
      <trkpt lat="43.92031" lon="7.39849">
        <ele>1028</ele>
        <time>2013-05-11T10:29:55Z</time>
      </trkpt>
      <trkpt lat="43.92021" lon="7.39852">
        <ele>1029</ele>
        <time>2013-05-11T10:30:00Z</time>
      </trkpt>
      <trkpt lat="43.92011" lon="7.39853">
        <ele>1029</ele>
        <time>2013-05-11T10:30:05Z</time>
      </trkpt>
      <trkpt lat="43.92002" lon="7.39854">
        <ele>1029</ele>
        <time>2013-05-11T10:30:10Z</time>
      </trkpt>
      <trkpt lat="43.91989" lon="7.39855">
        <ele>1029</ele>
        <time>2013-05-11T10:30:16Z</time>
      </trkpt>
      <trkpt lat="43.91981" lon="7.39848">
        <ele>1029</ele>
        <time>2013-05-11T10:30:21Z</time>
      </trkpt>
      <trkpt lat="43.91973" lon="7.39843">
        <ele>1030</ele>
        <time>2013-05-11T10:30:26Z</time>
      </trkpt>
      <trkpt lat="43.91964" lon="7.3984">
        <ele>1031</ele>
        <time>2013-05-11T10:30:31Z</time>
      </trkpt>
      <trkpt lat="43.91951" lon="7.39836">
        <ele>1031</ele>
        <time>2013-05-11T10:30:36Z</time>
      </trkpt>
      <trkpt lat="43.91941" lon="7.39831">
        <ele>1031</ele>
        <time>2013-05-11T10:30:41Z</time>
      </trkpt>
      <trkpt lat="43.91932" lon="7.39828">
        <ele>1031</ele>
        <time>2013-05-11T10:30:46Z</time>
      </trkpt>
      <trkpt lat="43.91924" lon="7.39827">
        <ele>1032</ele>
        <time>2013-05-11T10:30:51Z</time>
      </trkpt>
      <trkpt lat="43.91915" lon="7.39823">
        <ele>1034</ele>
        <time>2013-05-11T10:30:56Z</time>
      </trkpt>
      <trkpt lat="43.91909" lon="7.3982">
        <ele>1036</ele>
        <time>2013-05-11T10:31:01Z</time>
      </trkpt>
      <trkpt lat="43.91901" lon="7.39815">
        <ele>1038</ele>
        <time>2013-05-11T10:31:06Z</time>
      </trkpt>
      <trkpt lat="43.91888" lon="7.3981">
        <ele>1040</ele>
        <time>2013-05-11T10:31:11Z</time>
      </trkpt>
      <trkpt lat="43.91879" lon="7.39806">
        <ele>1041</ele>
        <time>2013-05-11T10:31:16Z</time>
      </trkpt>
      <trkpt lat="43.91871" lon="7.39804">
        <ele>1042</ele>
        <time>2013-05-11T10:31:21Z</time>
      </trkpt>
      <trkpt lat="43.91861" lon="7.39803">
        <ele>1044</ele>
        <time>2013-05-11T10:31:26Z</time>
      </trkpt>
      <trkpt lat="43.91851" lon="7.39803">
        <ele>1044</ele>
        <time>2013-05-11T10:31:31Z</time>
      </trkpt>
      <trkpt lat="43.91843" lon="7.39799">
        <ele>1044</ele>
        <time>2013-05-11T10:31:36Z</time>
      </trkpt>
      <trkpt lat="43.91834" lon="7.39789">
        <ele>1044</ele>
        <time>2013-05-11T10:31:41Z</time>
      </trkpt>
      <trkpt lat="43.91832" lon="7.39783">
        <ele>1046</ele>
        <time>2013-05-11T10:31:47Z</time>
      </trkpt>
      <trkpt lat="43.91831" lon="7.3978">
        <ele>1046</ele>
        <time>2013-05-11T10:31:53Z</time>
      </trkpt>
      <trkpt lat="43.91826" lon="7.39774">
        <ele>1046</ele>
        <time>2013-05-11T10:31:58Z</time>
      </trkpt>
      <trkpt lat="43.91819" lon="7.39785">
        <ele>1046</ele>
        <time>2013-05-11T10:32:03Z</time>
      </trkpt>
      <trkpt lat="43.91798" lon="7.39795">
        <ele>1046</ele>
        <time>2013-05-11T10:32:08Z</time>
      </trkpt>
      <trkpt lat="43.9177" lon="7.39801">
        <ele>1045</ele>
        <time>2013-05-11T10:32:13Z</time>
      </trkpt>
      <trkpt lat="43.91743" lon="7.3981">
        <ele>1042</ele>
        <time>2013-05-11T10:32:18Z</time>
      </trkpt>
      <trkpt lat="43.91722" lon="7.3981">
        <ele>1041</ele>
        <time>2013-05-11T10:32:24Z</time>
      </trkpt>
      <trkpt lat="43.91718" lon="7.39835">
        <ele>1039</ele>
        <time>2013-05-11T10:32:29Z</time>
      </trkpt>
      <trkpt lat="43.91706" lon="7.39851">
        <ele>1038</ele>
        <time>2013-05-11T10:32:35Z</time>
      </trkpt>
      <trkpt lat="43.91704" lon="7.39854">
        <ele>1038</ele>
        <time>2013-05-11T10:32:41Z</time>
      </trkpt>
      <trkpt lat="43.91697" lon="7.39858">
        <ele>1038</ele>
        <time>2013-05-11T10:32:46Z</time>
      </trkpt>
      <trkpt lat="43.91682" lon="7.39866">
        <ele>1038</ele>
        <time>2013-05-11T10:32:51Z</time>
      </trkpt>
      <trkpt lat="43.91655" lon="7.39869">
        <ele>1038</ele>
        <time>2013-05-11T10:32:57Z</time>
      </trkpt>
      <trkpt lat="43.9163" lon="7.39863">
        <ele>1036</ele>
        <time>2013-05-11T10:33:02Z</time>
      </trkpt>
      <trkpt lat="43.9161" lon="7.39853">
        <ele>1035</ele>
        <time>2013-05-11T10:33:07Z</time>
      </trkpt>
      <trkpt lat="43.91592" lon="7.3984">
        <ele>1035</ele>
        <time>2013-05-11T10:33:12Z</time>
      </trkpt>
      <trkpt lat="43.91578" lon="7.39829">
        <ele>1035</ele>
        <time>2013-05-11T10:33:17Z</time>
      </trkpt>
      <trkpt lat="43.91562" lon="7.39819">
        <ele>1035</ele>
        <time>2013-05-11T10:33:23Z</time>
      </trkpt>
      <trkpt lat="43.9155" lon="7.39814">
        <ele>1035</ele>
        <time>2013-05-11T10:33:28Z</time>
      </trkpt>
      <trkpt lat="43.91536" lon="7.39811">
        <ele>1035</ele>
        <time>2013-05-11T10:33:33Z</time>
      </trkpt>
      <trkpt lat="43.91516" lon="7.39806">
        <ele>1035</ele>
        <time>2013-05-11T10:33:38Z</time>
      </trkpt>
      <trkpt lat="43.91495" lon="7.39799">
        <ele>1035</ele>
        <time>2013-05-11T10:33:43Z</time>
      </trkpt>
      <trkpt lat="43.91475" lon="7.3979">
        <ele>1035</ele>
        <time>2013-05-11T10:33:48Z</time>
      </trkpt>
      <trkpt lat="43.91447" lon="7.39777">
        <ele>1035</ele>
        <time>2013-05-11T10:33:54Z</time>
      </trkpt>
      <trkpt lat="43.91415" lon="7.39775">
        <ele>1035</ele>
        <time>2013-05-11T10:33:59Z</time>
      </trkpt>
      <trkpt lat="43.91385" lon="7.39783">
        <ele>1035</ele>
        <time>2013-05-11T10:34:04Z</time>
      </trkpt>
      <trkpt lat="43.91362" lon="7.39794">
        <ele>1035</ele>
        <time>2013-05-11T10:34:09Z</time>
      </trkpt>
      <trkpt lat="43.91342" lon="7.39798">
        <ele>1034</ele>
        <time>2013-05-11T10:34:14Z</time>
      </trkpt>
      <trkpt lat="43.91317" lon="7.39812">
        <ele>1034</ele>
        <time>2013-05-11T10:34:19Z</time>
      </trkpt>
      <trkpt lat="43.91291" lon="7.39825">
        <ele>1033</ele>
        <time>2013-05-11T10:34:24Z</time>
      </trkpt>
      <trkpt lat="43.91263" lon="7.39835">
        <ele>1032</ele>
        <time>2013-05-11T10:34:29Z</time>
      </trkpt>
      <trkpt lat="43.91246" lon="7.39852">
        <ele>1032</ele>
        <time>2013-05-11T10:34:34Z</time>
      </trkpt>
      <trkpt lat="43.9123" lon="7.39878">
        <ele>1032</ele>
        <time>2013-05-11T10:34:40Z</time>
      </trkpt>
      <trkpt lat="43.91223" lon="7.39895">
        <ele>1032</ele>
        <time>2013-05-11T10:34:45Z</time>
      </trkpt>
      <trkpt lat="43.91213" lon="7.39909">
        <ele>1032</ele>
        <time>2013-05-11T10:34:50Z</time>
      </trkpt>
      <trkpt lat="43.91196" lon="7.39913">
        <ele>1032</ele>
        <time>2013-05-11T10:34:55Z</time>
      </trkpt>
      <trkpt lat="43.91175" lon="7.39908">
        <ele>1032</ele>
        <time>2013-05-11T10:35:00Z</time>
      </trkpt>
      <trkpt lat="43.91158" lon="7.39902">
        <ele>1032</ele>
        <time>2013-05-11T10:35:05Z</time>
      </trkpt>
      <trkpt lat="43.9114" lon="7.39902">
        <ele>1032</ele>
        <time>2013-05-11T10:35:11Z</time>
      </trkpt>
      <trkpt lat="43.91133" lon="7.39903">
        <ele>1031</ele>
        <time>2013-05-11T10:35:18Z</time>
      </trkpt>
      <trkpt lat="43.91133" lon="7.39903">
        <ele>1031</ele>
        <time>2013-05-11T10:35:28Z</time>
      </trkpt>
      <trkpt lat="43.91135" lon="7.39904">
        <ele>1031</ele>
        <time>2013-05-11T10:35:34Z</time>
      </trkpt>
      <trkpt lat="43.91136" lon="7.39904">
        <ele>1031</ele>
        <time>2013-05-11T10:35:55Z</time>
      </trkpt>
      <trkpt lat="43.91137" lon="7.39905">
        <ele>1031</ele>
        <time>2013-05-11T10:36:04Z</time>
      </trkpt>
      <trkpt lat="43.91136" lon="7.39904">
        <ele>1031</ele>
        <time>2013-05-11T10:36:39Z</time>
      </trkpt>
      <trkpt lat="43.91136" lon="7.39904">
        <ele>1031</ele>
        <time>2013-05-11T10:36:55Z</time>
      </trkpt>
      <trkpt lat="43.91136" lon="7.39905">
        <ele>1031</ele>
        <time>2013-05-11T10:37:08Z</time>
      </trkpt>
      <trkpt lat="43.91137" lon="7.39905">
        <ele>1031</ele>
        <time>2013-05-11T10:37:42Z</time>
      </trkpt>
      <trkpt lat="43.91137" lon="7.399">
        <ele>1031</ele>
        <time>2013-05-11T10:37:47Z</time>
      </trkpt>
      <trkpt lat="43.91138" lon="7.39899">
        <ele>1031</ele>
        <time>2013-05-11T10:37:56Z</time>
      </trkpt>
      <trkpt lat="43.91137" lon="7.39899">
        <ele>1031</ele>
        <time>2013-05-11T10:38:06Z</time>
      </trkpt>
      <trkpt lat="43.91137" lon="7.39901">
        <ele>1031</ele>
        <time>2013-05-11T10:38:14Z</time>
      </trkpt>
      <trkpt lat="43.91137" lon="7.39904">
        <ele>1031</ele>
        <time>2013-05-11T10:38:23Z</time>
      </trkpt>
      <trkpt lat="43.91138" lon="7.39906">
        <ele>1031</ele>
        <time>2013-05-11T10:38:59Z</time>
      </trkpt>
      <trkpt lat="43.91137" lon="7.39905">
        <ele>1031</ele>
        <time>2013-05-11T10:39:28Z</time>
      </trkpt>
      <trkpt lat="43.91137" lon="7.39903">
        <ele>1031</ele>
        <time>2013-05-11T10:40:10Z</time>
      </trkpt>
      <trkpt lat="43.91137" lon="7.399">
        <ele>1031</ele>
        <time>2013-05-11T10:40:17Z</time>
      </trkpt>
      <trkpt lat="43.91137" lon="7.39902">
        <ele>1031</ele>
        <time>2013-05-11T10:40:33Z</time>
      </trkpt>
      <trkpt lat="43.91135" lon="7.39901">
        <ele>1031</ele>
        <time>2013-05-11T10:40:52Z</time>
      </trkpt>
      <trkpt lat="43.91134" lon="7.39902">
        <ele>1031</ele>
        <time>2013-05-11T10:40:58Z</time>
      </trkpt>
      <trkpt lat="43.91135" lon="7.39899">
        <ele>1031</ele>
        <time>2013-05-11T10:41:27Z</time>
      </trkpt>
      <trkpt lat="43.9114" lon="7.39892">
        <ele>1031</ele>
        <time>2013-05-11T10:41:32Z</time>
      </trkpt>
      <trkpt lat="43.9113" lon="7.3989">
        <ele>1029</ele>
        <time>2013-05-11T10:41:37Z</time>
      </trkpt>
      <trkpt lat="43.91129" lon="7.39882">
        <ele>1025</ele>
        <time>2013-05-11T10:41:43Z</time>
      </trkpt>
      <trkpt lat="43.91143" lon="7.39865">
        <ele>1021</ele>
        <time>2013-05-11T10:41:48Z</time>
      </trkpt>
      <trkpt lat="43.91154" lon="7.39851">
        <ele>1018</ele>
        <time>2013-05-11T10:41:53Z</time>
      </trkpt>
      <trkpt lat="43.91164" lon="7.3984">
        <ele>1017</ele>
        <time>2013-05-11T10:41:58Z</time>
      </trkpt>
      <trkpt lat="43.91166" lon="7.39826">
        <ele>1017</ele>
        <time>2013-05-11T10:42:04Z</time>
      </trkpt>
      <trkpt lat="43.91168" lon="7.39821">
        <ele>1017</ele>
        <time>2013-05-11T10:42:10Z</time>
      </trkpt>
      <trkpt lat="43.9117" lon="7.39813">
        <ele>1017</ele>
        <time>2013-05-11T10:42:15Z</time>
      </trkpt>
      <trkpt lat="43.9117" lon="7.39803">
        <ele>1017</ele>
        <time>2013-05-11T10:42:22Z</time>
      </trkpt>
      <trkpt lat="43.91169" lon="7.39799">
        <ele>1018</ele>
        <time>2013-05-11T10:42:27Z</time>
      </trkpt>
      <trkpt lat="43.91167" lon="7.39786">
        <ele>1018</ele>
        <time>2013-05-11T10:42:32Z</time>
      </trkpt>
      <trkpt lat="43.91166" lon="7.39773">
        <ele>1020</ele>
        <time>2013-05-11T10:42:37Z</time>
      </trkpt>
      <trkpt lat="43.91164" lon="7.39758">
        <ele>1020</ele>
        <time>2013-05-11T10:42:43Z</time>
      </trkpt>
      <trkpt lat="43.91164" lon="7.39744">
        <ele>1020</ele>
        <time>2013-05-11T10:42:48Z</time>
      </trkpt>
      <trkpt lat="43.91158" lon="7.3971">
        <ele>1020</ele>
        <time>2013-05-11T10:42:54Z</time>
      </trkpt>
      <trkpt lat="43.9116" lon="7.397">
        <ele>1020</ele>
        <time>2013-05-11T10:43:00Z</time>
      </trkpt>
      <trkpt lat="43.91175" lon="7.39691">
        <ele>1020</ele>
        <time>2013-05-11T10:43:06Z</time>
      </trkpt>
      <trkpt lat="43.9119" lon="7.3968">
        <ele>1019</ele>
        <time>2013-05-11T10:43:11Z</time>
      </trkpt>
      <trkpt lat="43.91204" lon="7.39675">
        <ele>1019</ele>
        <time>2013-05-11T10:43:16Z</time>
      </trkpt>
      <trkpt lat="43.91214" lon="7.3967">
        <ele>1019</ele>
        <time>2013-05-11T10:43:22Z</time>
      </trkpt>
      <trkpt lat="43.91218" lon="7.39652">
        <ele>1018</ele>
        <time>2013-05-11T10:43:27Z</time>
      </trkpt>
      <trkpt lat="43.91224" lon="7.39639">
        <ele>1018</ele>
        <time>2013-05-11T10:43:32Z</time>
      </trkpt>
      <trkpt lat="43.91214" lon="7.39621">
        <ele>1018</ele>
        <time>2013-05-11T10:43:37Z</time>
      </trkpt>
      <trkpt lat="43.91203" lon="7.39598">
        <ele>1018</ele>
        <time>2013-05-11T10:43:42Z</time>
      </trkpt>
      <trkpt lat="43.91197" lon="7.39564">
        <ele>1018</ele>
        <time>2013-05-11T10:43:48Z</time>
      </trkpt>
      <trkpt lat="43.9121" lon="7.39547">
        <ele>1017</ele>
        <time>2013-05-11T10:43:54Z</time>
      </trkpt>
      <trkpt lat="43.91226" lon="7.39531">
        <ele>1015</ele>
        <time>2013-05-11T10:43:59Z</time>
      </trkpt>
      <trkpt lat="43.91242" lon="7.39512">
        <ele>1015</ele>
        <time>2013-05-11T10:44:05Z</time>
      </trkpt>
      <trkpt lat="43.91253" lon="7.39493">
        <ele>1015</ele>
        <time>2013-05-11T10:44:10Z</time>
      </trkpt>
      <trkpt lat="43.91251" lon="7.3947">
        <ele>1014</ele>
        <time>2013-05-11T10:44:15Z</time>
      </trkpt>
      <trkpt lat="43.91263" lon="7.39439">
        <ele>1013</ele>
        <time>2013-05-11T10:44:21Z</time>
      </trkpt>
      <trkpt lat="43.91278" lon="7.39403">
        <ele>1010</ele>
        <time>2013-05-11T10:44:27Z</time>
      </trkpt>
      <trkpt lat="43.9129" lon="7.39386">
        <ele>1007</ele>
        <time>2013-05-11T10:44:32Z</time>
      </trkpt>
      <trkpt lat="43.9128" lon="7.39379">
        <ele>1005</ele>
        <time>2013-05-11T10:44:37Z</time>
      </trkpt>
      <trkpt lat="43.91266" lon="7.39377">
        <ele>1003</ele>
        <time>2013-05-11T10:44:42Z</time>
      </trkpt>
      <trkpt lat="43.91251" lon="7.39374">
        <ele>1002</ele>
        <time>2013-05-11T10:44:47Z</time>
      </trkpt>
      <trkpt lat="43.91241" lon="7.39367">
        <ele>1002</ele>
        <time>2013-05-11T10:44:52Z</time>
      </trkpt>
      <trkpt lat="43.91237" lon="7.39363">
        <ele>1003</ele>
        <time>2013-05-11T10:45:00Z</time>
      </trkpt>
      <trkpt lat="43.91233" lon="7.39361">
        <ele>1003</ele>
        <time>2013-05-11T10:45:05Z</time>
      </trkpt>
      <trkpt lat="43.91228" lon="7.39355">
        <ele>1005</ele>
        <time>2013-05-11T10:45:11Z</time>
      </trkpt>
      <trkpt lat="43.91224" lon="7.39351">
        <ele>1006</ele>
        <time>2013-05-11T10:45:17Z</time>
      </trkpt>
      <trkpt lat="43.91213" lon="7.39341">
        <ele>1007</ele>
        <time>2013-05-11T10:45:23Z</time>
      </trkpt>
      <trkpt lat="43.91201" lon="7.39328">
        <ele>1007</ele>
        <time>2013-05-11T10:45:28Z</time>
      </trkpt>
      <trkpt lat="43.91185" lon="7.39309">
        <ele>1007</ele>
        <time>2013-05-11T10:45:33Z</time>
      </trkpt>
      <trkpt lat="43.91161" lon="7.39282">
        <ele>1007</ele>
        <time>2013-05-11T10:45:39Z</time>
      </trkpt>
      <trkpt lat="43.91143" lon="7.39255">
        <ele>1005</ele>
        <time>2013-05-11T10:45:44Z</time>
      </trkpt>
      <trkpt lat="43.91124" lon="7.39233">
        <ele>1000</ele>
        <time>2013-05-11T10:45:50Z</time>
      </trkpt>
      <trkpt lat="43.91106" lon="7.39213">
        <ele>995</ele>
        <time>2013-05-11T10:45:55Z</time>
      </trkpt>
      <trkpt lat="43.91088" lon="7.39184">
        <ele>991</ele>
        <time>2013-05-11T10:46:00Z</time>
      </trkpt>
      <trkpt lat="43.91068" lon="7.39152">
        <ele>986</ele>
        <time>2013-05-11T10:46:06Z</time>
      </trkpt>
      <trkpt lat="43.91041" lon="7.39136">
        <ele>982</ele>
        <time>2013-05-11T10:46:12Z</time>
      </trkpt>
      <trkpt lat="43.91012" lon="7.39121">
        <ele>981</ele>
        <time>2013-05-11T10:46:18Z</time>
      </trkpt>
      <trkpt lat="43.90988" lon="7.39107">
        <ele>981</ele>
        <time>2013-05-11T10:46:23Z</time>
      </trkpt>
      <trkpt lat="43.9098" lon="7.39069">
        <ele>978</ele>
        <time>2013-05-11T10:46:28Z</time>
      </trkpt>
      <trkpt lat="43.90977" lon="7.39049">
        <ele>973</ele>
        <time>2013-05-11T10:46:36Z</time>
      </trkpt>
      <trkpt lat="43.90976" lon="7.39044">
        <ele>973</ele>
        <time>2013-05-11T10:46:43Z</time>
      </trkpt>
      <trkpt lat="43.90969" lon="7.39034">
        <ele>972</ele>
        <time>2013-05-11T10:46:48Z</time>
      </trkpt>
      <trkpt lat="43.90961" lon="7.39026">
        <ele>970</ele>
        <time>2013-05-11T10:46:53Z</time>
      </trkpt>
      <trkpt lat="43.90956" lon="7.39025">
        <ele>966</ele>
        <time>2013-05-11T10:46:59Z</time>
      </trkpt>
      <trkpt lat="43.90949" lon="7.38989">
        <ele>963</ele>
        <time>2013-05-11T10:47:05Z</time>
      </trkpt>
      <trkpt lat="43.90946" lon="7.38947">
        <ele>961</ele>
        <time>2013-05-11T10:47:10Z</time>
      </trkpt>
      <trkpt lat="43.90942" lon="7.3892">
        <ele>959</ele>
        <time>2013-05-11T10:47:15Z</time>
      </trkpt>
      <trkpt lat="43.90942" lon="7.38926">
        <ele>956</ele>
        <time>2013-05-11T10:47:20Z</time>
      </trkpt>
      <trkpt lat="43.90938" lon="7.38919">
        <ele>955</ele>
        <time>2013-05-11T10:47:25Z</time>
      </trkpt>
      <trkpt lat="43.90928" lon="7.38898">
        <ele>952</ele>
        <time>2013-05-11T10:47:30Z</time>
      </trkpt>
      <trkpt lat="43.90912" lon="7.38876">
        <ele>948</ele>
        <time>2013-05-11T10:47:36Z</time>
      </trkpt>
      <trkpt lat="43.90897" lon="7.38857">
        <ele>943</ele>
        <time>2013-05-11T10:47:41Z</time>
      </trkpt>
      <trkpt lat="43.9089" lon="7.38859">
        <ele>938</ele>
        <time>2013-05-11T10:47:46Z</time>
      </trkpt>
      <trkpt lat="43.90889" lon="7.38842">
        <ele>933</ele>
        <time>2013-05-11T10:47:51Z</time>
      </trkpt>
      <trkpt lat="43.90892" lon="7.38804">
        <ele>928</ele>
        <time>2013-05-11T10:47:57Z</time>
      </trkpt>
      <trkpt lat="43.90881" lon="7.38779">
        <ele>924</ele>
        <time>2013-05-11T10:48:03Z</time>
      </trkpt>
      <trkpt lat="43.90853" lon="7.38752">
        <ele>922</ele>
        <time>2013-05-11T10:48:09Z</time>
      </trkpt>
      <trkpt lat="43.9082" lon="7.3872">
        <ele>918</ele>
        <time>2013-05-11T10:48:15Z</time>
      </trkpt>
      <trkpt lat="43.90788" lon="7.38708">
        <ele>917</ele>
        <time>2013-05-11T10:48:20Z</time>
      </trkpt>
      <trkpt lat="43.90749" lon="7.38685">
        <ele>916</ele>
        <time>2013-05-11T10:48:26Z</time>
      </trkpt>
      <trkpt lat="43.90724" lon="7.38666">
        <ele>915</ele>
        <time>2013-05-11T10:48:31Z</time>
      </trkpt>
      <trkpt lat="43.90705" lon="7.38647">
        <ele>912</ele>
        <time>2013-05-11T10:48:36Z</time>
      </trkpt>
      <trkpt lat="43.90696" lon="7.38628">
        <ele>907</ele>
        <time>2013-05-11T10:48:42Z</time>
      </trkpt>
      <trkpt lat="43.90695" lon="7.38644">
        <ele>904</ele>
        <time>2013-05-11T10:48:47Z</time>
      </trkpt>
      <trkpt lat="43.9069" lon="7.38643">
        <ele>900</ele>
        <time>2013-05-11T10:48:52Z</time>
      </trkpt>
      <trkpt lat="43.90685" lon="7.38637">
        <ele>895</ele>
        <time>2013-05-11T10:48:58Z</time>
      </trkpt>
      <trkpt lat="43.90665" lon="7.38649">
        <ele>891</ele>
        <time>2013-05-11T10:49:03Z</time>
      </trkpt>
      <trkpt lat="43.90652" lon="7.38654">
        <ele>888</ele>
        <time>2013-05-11T10:49:08Z</time>
      </trkpt>
      <trkpt lat="43.9064" lon="7.38652">
        <ele>885</ele>
        <time>2013-05-11T10:49:14Z</time>
      </trkpt>
      <trkpt lat="43.90641" lon="7.3865">
        <ele>885</ele>
        <time>2013-05-11T10:49:33Z</time>
      </trkpt>
      <trkpt lat="43.90641" lon="7.38648">
        <ele>885</ele>
        <time>2013-05-11T10:49:52Z</time>
      </trkpt>
      <trkpt lat="43.90642" lon="7.38647">
        <ele>885</ele>
        <time>2013-05-11T10:50:06Z</time>
      </trkpt>
      <trkpt lat="43.90642" lon="7.3865">
        <ele>885</ele>
        <time>2013-05-11T10:50:17Z</time>
      </trkpt>
      <trkpt lat="43.90641" lon="7.38649">
        <ele>885</ele>
        <time>2013-05-11T10:50:30Z</time>
      </trkpt>
      <trkpt lat="43.9064" lon="7.38647">
        <ele>885</ele>
        <time>2013-05-11T10:50:43Z</time>
      </trkpt>
      <trkpt lat="43.9064" lon="7.38647">
        <ele>885</ele>
        <time>2013-05-11T10:51:00Z</time>
      </trkpt>
      <trkpt lat="43.9064" lon="7.38648">
        <ele>885</ele>
        <time>2013-05-11T10:51:22Z</time>
      </trkpt>
      <trkpt lat="43.90639" lon="7.3865">
        <ele>885</ele>
        <time>2013-05-11T10:51:44Z</time>
      </trkpt>
      <trkpt lat="43.90633" lon="7.38654">
        <ele>885</ele>
        <time>2013-05-11T10:51:49Z</time>
      </trkpt>
      <trkpt lat="43.90631" lon="7.38655">
        <ele>885</ele>
        <time>2013-05-11T10:51:55Z</time>
      </trkpt>
      <trkpt lat="43.90627" lon="7.3865">
        <ele>885</ele>
        <time>2013-05-11T10:52:00Z</time>
      </trkpt>
      <trkpt lat="43.90639" lon="7.38642">
        <ele>885</ele>
        <time>2013-05-11T10:52:06Z</time>
      </trkpt>
      <trkpt lat="43.90656" lon="7.38631">
        <ele>885</ele>
        <time>2013-05-11T10:52:12Z</time>
      </trkpt>
      <trkpt lat="43.90666" lon="7.38622">
        <ele>885</ele>
        <time>2013-05-11T10:52:17Z</time>
      </trkpt>
      <trkpt lat="43.90677" lon="7.38603">
        <ele>885</ele>
        <time>2013-05-11T10:52:22Z</time>
      </trkpt>
      <trkpt lat="43.90689" lon="7.38576">
        <ele>885</ele>
        <time>2013-05-11T10:52:27Z</time>
      </trkpt>
      <trkpt lat="43.907" lon="7.38547">
        <ele>885</ele>
        <time>2013-05-11T10:52:32Z</time>
      </trkpt>
      <trkpt lat="43.90712" lon="7.3851">
        <ele>885</ele>
        <time>2013-05-11T10:52:37Z</time>
      </trkpt>
      <trkpt lat="43.90705" lon="7.38483">
        <ele>885</ele>
        <time>2013-05-11T10:52:42Z</time>
      </trkpt>
      <trkpt lat="43.90695" lon="7.38471">
        <ele>885</ele>
        <time>2013-05-11T10:52:47Z</time>
      </trkpt>
      <trkpt lat="43.90691" lon="7.38459">
        <ele>885</ele>
        <time>2013-05-11T10:52:52Z</time>
      </trkpt>
      <trkpt lat="43.90684" lon="7.38431">
        <ele>885</ele>
        <time>2013-05-11T10:52:57Z</time>
      </trkpt>
      <trkpt lat="43.9068" lon="7.38407">
        <ele>881</ele>
        <time>2013-05-11T10:53:02Z</time>
      </trkpt>
      <trkpt lat="43.90678" lon="7.38385">
        <ele>877</ele>
        <time>2013-05-11T10:53:07Z</time>
      </trkpt>
      <trkpt lat="43.90678" lon="7.38369">
        <ele>876</ele>
        <time>2013-05-11T10:53:12Z</time>
      </trkpt>
      <trkpt lat="43.9068" lon="7.38373">
        <ele>876</ele>
        <time>2013-05-11T10:53:18Z</time>
      </trkpt>
      <trkpt lat="43.90681" lon="7.38375">
        <ele>876</ele>
        <time>2013-05-11T10:53:28Z</time>
      </trkpt>
      <trkpt lat="43.90683" lon="7.38373">
        <ele>874</ele>
        <time>2013-05-11T10:53:35Z</time>
      </trkpt>
      <trkpt lat="43.90681" lon="7.38373">
        <ele>872</ele>
        <time>2013-05-11T10:53:42Z</time>
      </trkpt>
      <trkpt lat="43.9068" lon="7.38374">
        <ele>873</ele>
        <time>2013-05-11T10:53:48Z</time>
      </trkpt>
      <trkpt lat="43.9068" lon="7.3837">
        <ele>875</ele>
        <time>2013-05-11T10:53:54Z</time>
      </trkpt>
      <trkpt lat="43.90681" lon="7.38372">
        <ele>875</ele>
        <time>2013-05-11T10:54:00Z</time>
      </trkpt>
      <trkpt lat="43.9068" lon="7.38373">
        <ele>880</ele>
        <time>2013-05-11T10:54:20Z</time>
      </trkpt>
      <trkpt lat="43.90678" lon="7.38372">
        <ele>883</ele>
        <time>2013-05-11T10:54:26Z</time>
      </trkpt>
      <trkpt lat="43.90675" lon="7.38371">
        <ele>891</ele>
        <time>2013-05-11T10:54:34Z</time>
      </trkpt>
      <trkpt lat="43.90675" lon="7.3837">
        <ele>899</ele>
        <time>2013-05-11T10:54:55Z</time>
      </trkpt>
      <trkpt lat="43.90677" lon="7.38369">
        <ele>899</ele>
        <time>2013-05-11T10:55:00Z</time>
      </trkpt>
      <trkpt lat="43.90677" lon="7.38367">
        <ele>895</ele>
        <time>2013-05-11T10:55:09Z</time>
      </trkpt>
      <trkpt lat="43.90676" lon="7.38361">
        <ele>894</ele>
        <time>2013-05-11T10:55:14Z</time>
      </trkpt>
      <trkpt lat="43.90677" lon="7.38354">
        <ele>893</ele>
        <time>2013-05-11T10:55:19Z</time>
      </trkpt>
      <trkpt lat="43.90672" lon="7.38341">
        <ele>891</ele>
        <time>2013-05-11T10:55:24Z</time>
      </trkpt>
      <trkpt lat="43.90669" lon="7.38332">
        <ele>886</ele>
        <time>2013-05-11T10:55:29Z</time>
      </trkpt>
      <trkpt lat="43.90665" lon="7.38313">
        <ele>881</ele>
        <time>2013-05-11T10:55:35Z</time>
      </trkpt>
      <trkpt lat="43.90663" lon="7.383">
        <ele>877</ele>
        <time>2013-05-11T10:55:40Z</time>
      </trkpt>
      <trkpt lat="43.90652" lon="7.38287">
        <ele>874</ele>
        <time>2013-05-11T10:55:45Z</time>
      </trkpt>
      <trkpt lat="43.90643" lon="7.3827">
        <ele>872</ele>
        <time>2013-05-11T10:55:51Z</time>
      </trkpt>
      <trkpt lat="43.90636" lon="7.38257">
        <ele>872</ele>
        <time>2013-05-11T10:55:56Z</time>
      </trkpt>
      <trkpt lat="43.90627" lon="7.38242">
        <ele>872</ele>
        <time>2013-05-11T10:56:01Z</time>
      </trkpt>
      <trkpt lat="43.90621" lon="7.38227">
        <ele>872</ele>
        <time>2013-05-11T10:56:07Z</time>
      </trkpt>
      <trkpt lat="43.90623" lon="7.38221">
        <ele>872</ele>
        <time>2013-05-11T10:56:12Z</time>
      </trkpt>
      <trkpt lat="43.90627" lon="7.38215">
        <ele>872</ele>
        <time>2013-05-11T10:56:18Z</time>
      </trkpt>
      <trkpt lat="43.90629" lon="7.3821">
        <ele>872</ele>
        <time>2013-05-11T10:56:23Z</time>
      </trkpt>
      <trkpt lat="43.9063" lon="7.38209">
        <ele>872</ele>
        <time>2013-05-11T10:56:28Z</time>
      </trkpt>
      <trkpt lat="43.90633" lon="7.38207">
        <ele>872</ele>
        <time>2013-05-11T10:56:35Z</time>
      </trkpt>
      <trkpt lat="43.90644" lon="7.38201">
        <ele>872</ele>
        <time>2013-05-11T10:56:40Z</time>
      </trkpt>
      <trkpt lat="43.90654" lon="7.3819">
        <ele>872</ele>
        <time>2013-05-11T10:56:45Z</time>
      </trkpt>
      <trkpt lat="43.90654" lon="7.38188">
        <ele>872</ele>
        <time>2013-05-11T10:56:51Z</time>
      </trkpt>
      <trkpt lat="43.90657" lon="7.38186">
        <ele>872</ele>
        <time>2013-05-11T10:57:03Z</time>
      </trkpt>
      <trkpt lat="43.90669" lon="7.38164">
        <ele>872</ele>
        <time>2013-05-11T10:57:08Z</time>
      </trkpt>
      <trkpt lat="43.90687" lon="7.38147">
        <ele>872</ele>
        <time>2013-05-11T10:57:13Z</time>
      </trkpt>
      <trkpt lat="43.90707" lon="7.38151">
        <ele>872</ele>
        <time>2013-05-11T10:57:18Z</time>
      </trkpt>
      <trkpt lat="43.9072" lon="7.38148">
        <ele>867</ele>
        <time>2013-05-11T10:57:24Z</time>
      </trkpt>
      <trkpt lat="43.90701" lon="7.38136">
        <ele>862</ele>
        <time>2013-05-11T10:57:29Z</time>
      </trkpt>
      <trkpt lat="43.9071" lon="7.38127">
        <ele>856</ele>
        <time>2013-05-11T10:57:35Z</time>
      </trkpt>
      <trkpt lat="43.90719" lon="7.38118">
        <ele>854</ele>
        <time>2013-05-11T10:57:42Z</time>
      </trkpt>
      <trkpt lat="43.9073" lon="7.38115">
        <ele>850</ele>
        <time>2013-05-11T10:57:47Z</time>
      </trkpt>
      <trkpt lat="43.90739" lon="7.38113">
        <ele>846</ele>
        <time>2013-05-11T10:57:53Z</time>
      </trkpt>
      <trkpt lat="43.90754" lon="7.3811">
        <ele>841</ele>
        <time>2013-05-11T10:57:58Z</time>
      </trkpt>
      <trkpt lat="43.90741" lon="7.38094">
        <ele>835</ele>
        <time>2013-05-11T10:58:03Z</time>
      </trkpt>
      <trkpt lat="43.90715" lon="7.38067">
        <ele>828</ele>
        <time>2013-05-11T10:58:08Z</time>
      </trkpt>
      <trkpt lat="43.90695" lon="7.38051">
        <ele>823</ele>
        <time>2013-05-11T10:58:13Z</time>
      </trkpt>
      <trkpt lat="43.90694" lon="7.38038">
        <ele>818</ele>
        <time>2013-05-11T10:58:18Z</time>
      </trkpt>
      <trkpt lat="43.90674" lon="7.38025">
        <ele>813</ele>
        <time>2013-05-11T10:58:23Z</time>
      </trkpt>
      <trkpt lat="43.90659" lon="7.38007">
        <ele>808</ele>
        <time>2013-05-11T10:58:28Z</time>
      </trkpt>
      <trkpt lat="43.90659" lon="7.38007">
        <ele>804</ele>
        <time>2013-05-11T10:58:33Z</time>
      </trkpt>
      <trkpt lat="43.90665" lon="7.38006">
        <ele>802</ele>
        <time>2013-05-11T10:58:39Z</time>
      </trkpt>
      <trkpt lat="43.90651" lon="7.38004">
        <ele>801</ele>
        <time>2013-05-11T10:58:44Z</time>
      </trkpt>
      <trkpt lat="43.90633" lon="7.38004">
        <ele>798</ele>
        <time>2013-05-11T10:58:49Z</time>
      </trkpt>
      <trkpt lat="43.90643" lon="7.37995">
        <ele>794</ele>
        <time>2013-05-11T10:58:54Z</time>
      </trkpt>
      <trkpt lat="43.90641" lon="7.37981">
        <ele>792</ele>
        <time>2013-05-11T10:58:59Z</time>
      </trkpt>
      <trkpt lat="43.90636" lon="7.37972">
        <ele>792</ele>
        <time>2013-05-11T10:59:04Z</time>
      </trkpt>
      <trkpt lat="43.9064" lon="7.37972">
        <ele>792</ele>
        <time>2013-05-11T10:59:11Z</time>
      </trkpt>
      <trkpt lat="43.90644" lon="7.37976">
        <ele>796</ele>
        <time>2013-05-11T10:59:17Z</time>
      </trkpt>
      <trkpt lat="43.90646" lon="7.37975">
        <ele>802</ele>
        <time>2013-05-11T10:59:26Z</time>
      </trkpt>
      <trkpt lat="43.90644" lon="7.37975">
        <ele>802</ele>
        <time>2013-05-11T10:59:32Z</time>
      </trkpt>
      <trkpt lat="43.90645" lon="7.37973">
        <ele>802</ele>
        <time>2013-05-11T10:59:37Z</time>
      </trkpt>
      <trkpt lat="43.90648" lon="7.37973">
        <ele>804</ele>
        <time>2013-05-11T10:59:43Z</time>
      </trkpt>
      <trkpt lat="43.9065" lon="7.37971">
        <ele>808</ele>
        <time>2013-05-11T10:59:48Z</time>
      </trkpt>
      <trkpt lat="43.90649" lon="7.37967">
        <ele>808</ele>
        <time>2013-05-11T10:59:53Z</time>
      </trkpt>
      <trkpt lat="43.90649" lon="7.37966">
        <ele>806</ele>
        <time>2013-05-11T11:00:00Z</time>
      </trkpt>
      <trkpt lat="43.90649" lon="7.37963">
        <ele>804</ele>
        <time>2013-05-11T11:00:05Z</time>
      </trkpt>
      <trkpt lat="43.90654" lon="7.37958">
        <ele>804</ele>
        <time>2013-05-11T11:00:11Z</time>
      </trkpt>
      <trkpt lat="43.90655" lon="7.37952">
        <ele>804</ele>
        <time>2013-05-11T11:00:17Z</time>
      </trkpt>
      <trkpt lat="43.90656" lon="7.37954">
        <ele>804</ele>
        <time>2013-05-11T11:00:22Z</time>
      </trkpt>
      <trkpt lat="43.9065" lon="7.37956">
        <ele>804</ele>
        <time>2013-05-11T11:00:28Z</time>
      </trkpt>
      <trkpt lat="43.90645" lon="7.37956">
        <ele>804</ele>
        <time>2013-05-11T11:00:33Z</time>
      </trkpt>
      <trkpt lat="43.90638" lon="7.37956">
        <ele>804</ele>
        <time>2013-05-11T11:00:38Z</time>
      </trkpt>
      <trkpt lat="43.90632" lon="7.37956">
        <ele>806</ele>
        <time>2013-05-11T11:00:44Z</time>
      </trkpt>
      <trkpt lat="43.90627" lon="7.37956">
        <ele>808</ele>
        <time>2013-05-11T11:00:50Z</time>
      </trkpt>
      <trkpt lat="43.90625" lon="7.3796">
        <ele>812</ele>
        <time>2013-05-11T11:00:56Z</time>
      </trkpt>
      <trkpt lat="43.90622" lon="7.37961">
        <ele>816</ele>
        <time>2013-05-11T11:01:01Z</time>
      </trkpt>
      <trkpt lat="43.90619" lon="7.37954">
        <ele>818</ele>
        <time>2013-05-11T11:01:09Z</time>
      </trkpt>
      <trkpt lat="43.90619" lon="7.37953">
        <ele>823</ele>
        <time>2013-05-11T11:01:15Z</time>
      </trkpt>
      <trkpt lat="43.9062" lon="7.3795">
        <ele>824</ele>
        <time>2013-05-11T11:01:20Z</time>
      </trkpt>
      <trkpt lat="43.90625" lon="7.37943">
        <ele>822</ele>
        <time>2013-05-11T11:01:25Z</time>
      </trkpt>
      <trkpt lat="43.90631" lon="7.37937">
        <ele>816</ele>
        <time>2013-05-11T11:01:31Z</time>
      </trkpt>
      <trkpt lat="43.90634" lon="7.37929">
        <ele>813</ele>
        <time>2013-05-11T11:01:36Z</time>
      </trkpt>
      <trkpt lat="43.90638" lon="7.37922">
        <ele>813</ele>
        <time>2013-05-11T11:01:41Z</time>
      </trkpt>
      <trkpt lat="43.90639" lon="7.37915">
        <ele>818</ele>
        <time>2013-05-11T11:01:46Z</time>
      </trkpt>
      <trkpt lat="43.9064" lon="7.37905">
        <ele>823</ele>
        <time>2013-05-11T11:01:51Z</time>
      </trkpt>
      <trkpt lat="43.9064" lon="7.37895">
        <ele>823</ele>
        <time>2013-05-11T11:01:56Z</time>
      </trkpt>
      <trkpt lat="43.90637" lon="7.37891">
        <ele>823</ele>
        <time>2013-05-11T11:02:01Z</time>
      </trkpt>
      <trkpt lat="43.90633" lon="7.37885">
        <ele>824</ele>
        <time>2013-05-11T11:02:06Z</time>
      </trkpt>
      <trkpt lat="43.90629" lon="7.37878">
        <ele>824</ele>
        <time>2013-05-11T11:02:11Z</time>
      </trkpt>
      <trkpt lat="43.90623" lon="7.37876">
        <ele>824</ele>
        <time>2013-05-11T11:02:18Z</time>
      </trkpt>
      <trkpt lat="43.90619" lon="7.37878">
        <ele>824</ele>
        <time>2013-05-11T11:02:25Z</time>
      </trkpt>
      <trkpt lat="43.90614" lon="7.37882">
        <ele>826</ele>
        <time>2013-05-11T11:02:31Z</time>
      </trkpt>
      <trkpt lat="43.90611" lon="7.37884">
        <ele>828</ele>
        <time>2013-05-11T11:02:36Z</time>
      </trkpt>
      <trkpt lat="43.90609" lon="7.3789">
        <ele>829</ele>
        <time>2013-05-11T11:02:42Z</time>
      </trkpt>
      <trkpt lat="43.90609" lon="7.37897">
        <ele>829</ele>
        <time>2013-05-11T11:02:47Z</time>
      </trkpt>
      <trkpt lat="43.90604" lon="7.37901">
        <ele>829</ele>
        <time>2013-05-11T11:02:53Z</time>
      </trkpt>
      <trkpt lat="43.90604" lon="7.37899">
        <ele>833</ele>
        <time>2013-05-11T11:03:01Z</time>
      </trkpt>
      <trkpt lat="43.90601" lon="7.37889">
        <ele>835</ele>
        <time>2013-05-11T11:03:08Z</time>
      </trkpt>
      <trkpt lat="43.90598" lon="7.37884">
        <ele>836</ele>
        <time>2013-05-11T11:03:13Z</time>
      </trkpt>
      <trkpt lat="43.90597" lon="7.37878">
        <ele>836</ele>
        <time>2013-05-11T11:03:18Z</time>
      </trkpt>
      <trkpt lat="43.90595" lon="7.37873">
        <ele>839</ele>
        <time>2013-05-11T11:03:24Z</time>
      </trkpt>
      <trkpt lat="43.90591" lon="7.37867">
        <ele>840</ele>
        <time>2013-05-11T11:03:30Z</time>
      </trkpt>
      <trkpt lat="43.90583" lon="7.37867">
        <ele>840</ele>
        <time>2013-05-11T11:03:35Z</time>
      </trkpt>
      <trkpt lat="43.9058" lon="7.37872">
        <ele>840</ele>
        <time>2013-05-11T11:03:41Z</time>
      </trkpt>
      <trkpt lat="43.90575" lon="7.37871">
        <ele>841</ele>
        <time>2013-05-11T11:03:46Z</time>
      </trkpt>
      <trkpt lat="43.90574" lon="7.37866">
        <ele>841</ele>
        <time>2013-05-11T11:03:52Z</time>
      </trkpt>
      <trkpt lat="43.90572" lon="7.37861">
        <ele>843</ele>
        <time>2013-05-11T11:03:58Z</time>
      </trkpt>
      <trkpt lat="43.9057" lon="7.37855">
        <ele>844</ele>
        <time>2013-05-11T11:04:05Z</time>
      </trkpt>
      <trkpt lat="43.90566" lon="7.37851">
        <ele>845</ele>
        <time>2013-05-11T11:04:10Z</time>
      </trkpt>
      <trkpt lat="43.90563" lon="7.37847">
        <ele>845</ele>
        <time>2013-05-11T11:04:16Z</time>
      </trkpt>
      <trkpt lat="43.90559" lon="7.37841">
        <ele>845</ele>
        <time>2013-05-11T11:04:22Z</time>
      </trkpt>
      <trkpt lat="43.90556" lon="7.37835">
        <ele>845</ele>
        <time>2013-05-11T11:04:27Z</time>
      </trkpt>
      <trkpt lat="43.90555" lon="7.3783">
        <ele>845</ele>
        <time>2013-05-11T11:04:33Z</time>
      </trkpt>
      <trkpt lat="43.90552" lon="7.37827">
        <ele>845</ele>
        <time>2013-05-11T11:04:38Z</time>
      </trkpt>
      <trkpt lat="43.90548" lon="7.37834">
        <ele>848</ele>
        <time>2013-05-11T11:04:44Z</time>
      </trkpt>
      <trkpt lat="43.90543" lon="7.37838">
        <ele>851</ele>
        <time>2013-05-11T11:04:50Z</time>
      </trkpt>
      <trkpt lat="43.90542" lon="7.37839">
        <ele>854</ele>
        <time>2013-05-11T11:04:56Z</time>
      </trkpt>
      <trkpt lat="43.9054" lon="7.37843">
        <ele>854</ele>
        <time>2013-05-11T11:05:01Z</time>
      </trkpt>
      <trkpt lat="43.90538" lon="7.37848">
        <ele>854</ele>
        <time>2013-05-11T11:05:07Z</time>
      </trkpt>
      <trkpt lat="43.90538" lon="7.37854">
        <ele>856</ele>
        <time>2013-05-11T11:05:13Z</time>
      </trkpt>
      <trkpt lat="43.90538" lon="7.37862">
        <ele>860</ele>
        <time>2013-05-11T11:05:21Z</time>
      </trkpt>
      <trkpt lat="43.90537" lon="7.3787">
        <ele>863</ele>
        <time>2013-05-11T11:05:27Z</time>
      </trkpt>
      <trkpt lat="43.90535" lon="7.37875">
        <ele>863</ele>
        <time>2013-05-11T11:05:32Z</time>
      </trkpt>
      <trkpt lat="43.90533" lon="7.37882">
        <ele>863</ele>
        <time>2013-05-11T11:05:39Z</time>
      </trkpt>
      <trkpt lat="43.90532" lon="7.3788">
        <ele>863</ele>
        <time>2013-05-11T11:05:47Z</time>
      </trkpt>
      <trkpt lat="43.90528" lon="7.37876">
        <ele>864</ele>
        <time>2013-05-11T11:05:54Z</time>
      </trkpt>
      <trkpt lat="43.90523" lon="7.37872">
        <ele>865</ele>
        <time>2013-05-11T11:06:00Z</time>
      </trkpt>
      <trkpt lat="43.9052" lon="7.37865">
        <ele>865</ele>
        <time>2013-05-11T11:06:06Z</time>
      </trkpt>
      <trkpt lat="43.90517" lon="7.3786">
        <ele>866</ele>
        <time>2013-05-11T11:06:12Z</time>
      </trkpt>
      <trkpt lat="43.90514" lon="7.37857">
        <ele>867</ele>
        <time>2013-05-11T11:06:18Z</time>
      </trkpt>
      <trkpt lat="43.90512" lon="7.37853">
        <ele>869</ele>
        <time>2013-05-11T11:06:23Z</time>
      </trkpt>
      <trkpt lat="43.9051" lon="7.3785">
        <ele>871</ele>
        <time>2013-05-11T11:06:28Z</time>
      </trkpt>
      <trkpt lat="43.90506" lon="7.37845">
        <ele>872</ele>
        <time>2013-05-11T11:06:35Z</time>
      </trkpt>
      <trkpt lat="43.90501" lon="7.37838">
        <ele>873</ele>
        <time>2013-05-11T11:06:42Z</time>
      </trkpt>
      <trkpt lat="43.90496" lon="7.37835">
        <ele>873</ele>
        <time>2013-05-11T11:06:48Z</time>
      </trkpt>
      <trkpt lat="43.90493" lon="7.37829">
        <ele>873</ele>
        <time>2013-05-11T11:06:54Z</time>
      </trkpt>
      <trkpt lat="43.9049" lon="7.37827">
        <ele>874</ele>
        <time>2013-05-11T11:06:59Z</time>
      </trkpt>
      <trkpt lat="43.90485" lon="7.37823">
        <ele>876</ele>
        <time>2013-05-11T11:07:05Z</time>
      </trkpt>
      <trkpt lat="43.90484" lon="7.3782">
        <ele>877</ele>
        <time>2013-05-11T11:07:10Z</time>
      </trkpt>
      <trkpt lat="43.90478" lon="7.37814">
        <ele>878</ele>
        <time>2013-05-11T11:07:16Z</time>
      </trkpt>
      <trkpt lat="43.90475" lon="7.3781">
        <ele>878</ele>
        <time>2013-05-11T11:07:21Z</time>
      </trkpt>
      <trkpt lat="43.90472" lon="7.37806">
        <ele>878</ele>
        <time>2013-05-11T11:07:26Z</time>
      </trkpt>
      <trkpt lat="43.90468" lon="7.37804">
        <ele>878</ele>
        <time>2013-05-11T11:07:31Z</time>
      </trkpt>
      <trkpt lat="43.90464" lon="7.37799">
        <ele>879</ele>
        <time>2013-05-11T11:07:36Z</time>
      </trkpt>
      <trkpt lat="43.90462" lon="7.37794">
        <ele>881</ele>
        <time>2013-05-11T11:07:43Z</time>
      </trkpt>
      <trkpt lat="43.90459" lon="7.37791">
        <ele>883</ele>
        <time>2013-05-11T11:07:48Z</time>
      </trkpt>
      <trkpt lat="43.90456" lon="7.37784">
        <ele>886</ele>
        <time>2013-05-11T11:07:54Z</time>
      </trkpt>
      <trkpt lat="43.90449" lon="7.3778">
        <ele>886</ele>
        <time>2013-05-11T11:07:59Z</time>
      </trkpt>
      <trkpt lat="43.90444" lon="7.37776">
        <ele>886</ele>
        <time>2013-05-11T11:08:04Z</time>
      </trkpt>
      <trkpt lat="43.90441" lon="7.3777">
        <ele>886</ele>
        <time>2013-05-11T11:08:10Z</time>
      </trkpt>
      <trkpt lat="43.90438" lon="7.37763">
        <ele>886</ele>
        <time>2013-05-11T11:08:16Z</time>
      </trkpt>
      <trkpt lat="43.90438" lon="7.37758">
        <ele>887</ele>
        <time>2013-05-11T11:08:21Z</time>
      </trkpt>
      <trkpt lat="43.90436" lon="7.37751">
        <ele>888</ele>
        <time>2013-05-11T11:08:26Z</time>
      </trkpt>
      <trkpt lat="43.90435" lon="7.37745">
        <ele>889</ele>
        <time>2013-05-11T11:08:32Z</time>
      </trkpt>
      <trkpt lat="43.90436" lon="7.37738">
        <ele>891</ele>
        <time>2013-05-11T11:08:38Z</time>
      </trkpt>
      <trkpt lat="43.90438" lon="7.37732">
        <ele>892</ele>
        <time>2013-05-11T11:08:44Z</time>
      </trkpt>
      <trkpt lat="43.90439" lon="7.37726">
        <ele>893</ele>
        <time>2013-05-11T11:08:50Z</time>
      </trkpt>
      <trkpt lat="43.90439" lon="7.37721">
        <ele>893</ele>
        <time>2013-05-11T11:08:55Z</time>
      </trkpt>
      <trkpt lat="43.9044" lon="7.37713">
        <ele>893</ele>
        <time>2013-05-11T11:09:00Z</time>
      </trkpt>
      <trkpt lat="43.90443" lon="7.37702">
        <ele>893</ele>
        <time>2013-05-11T11:09:05Z</time>
      </trkpt>
      <trkpt lat="43.90444" lon="7.3769">
        <ele>893</ele>
        <time>2013-05-11T11:09:10Z</time>
      </trkpt>
      <trkpt lat="43.90443" lon="7.37678">
        <ele>893</ele>
        <time>2013-05-11T11:09:15Z</time>
      </trkpt>
      <trkpt lat="43.90435" lon="7.37666">
        <ele>891</ele>
        <time>2013-05-11T11:09:20Z</time>
      </trkpt>
      <trkpt lat="43.90438" lon="7.37648">
        <ele>888</ele>
        <time>2013-05-11T11:09:25Z</time>
      </trkpt>
      <trkpt lat="43.90451" lon="7.37629">
        <ele>888</ele>
        <time>2013-05-11T11:09:30Z</time>
      </trkpt>
      <trkpt lat="43.90462" lon="7.37619">
        <ele>889</ele>
        <time>2013-05-11T11:09:35Z</time>
      </trkpt>
      <trkpt lat="43.90467" lon="7.37618">
        <ele>892</ele>
        <time>2013-05-11T11:09:40Z</time>
      </trkpt>
      <trkpt lat="43.90469" lon="7.37614">
        <ele>894</ele>
        <time>2013-05-11T11:09:50Z</time>
      </trkpt>
      <trkpt lat="43.90469" lon="7.37608">
        <ele>895</ele>
        <time>2013-05-11T11:09:56Z</time>
      </trkpt>
      <trkpt lat="43.9047" lon="7.376">
        <ele>896</ele>
        <time>2013-05-11T11:10:02Z</time>
      </trkpt>
      <trkpt lat="43.90471" lon="7.37594">
        <ele>897</ele>
        <time>2013-05-11T11:10:07Z</time>
      </trkpt>
      <trkpt lat="43.90472" lon="7.37589">
        <ele>899</ele>
        <time>2013-05-11T11:10:13Z</time>
      </trkpt>
      <trkpt lat="43.90474" lon="7.37587">
        <ele>902</ele>
        <time>2013-05-11T11:10:21Z</time>
      </trkpt>
      <trkpt lat="43.90476" lon="7.37583">
        <ele>902</ele>
        <time>2013-05-11T11:10:27Z</time>
      </trkpt>
      <trkpt lat="43.9048" lon="7.37576">
        <ele>902</ele>
        <time>2013-05-11T11:10:32Z</time>
      </trkpt>
      <trkpt lat="43.90485" lon="7.3757">
        <ele>903</ele>
        <time>2013-05-11T11:10:37Z</time>
      </trkpt>
      <trkpt lat="43.90488" lon="7.37565">
        <ele>904</ele>
        <time>2013-05-11T11:10:54Z</time>
      </trkpt>
      <trkpt lat="43.90489" lon="7.3756">
        <ele>905</ele>
        <time>2013-05-11T11:10:59Z</time>
      </trkpt>
      <trkpt lat="43.90491" lon="7.37557">
        <ele>905</ele>
        <time>2013-05-11T11:11:05Z</time>
      </trkpt>
      <trkpt lat="43.90495" lon="7.3755">
        <ele>905</ele>
        <time>2013-05-11T11:11:10Z</time>
      </trkpt>
      <trkpt lat="43.90494" lon="7.37547">
        <ele>905</ele>
        <time>2013-05-11T11:11:16Z</time>
      </trkpt>
      <trkpt lat="43.90491" lon="7.37549">
        <ele>906</ele>
        <time>2013-05-11T11:11:22Z</time>
      </trkpt>
      <trkpt lat="43.90486" lon="7.37552">
        <ele>906</ele>
        <time>2013-05-11T11:11:28Z</time>
      </trkpt>
      <trkpt lat="43.9048" lon="7.37554">
        <ele>906</ele>
        <time>2013-05-11T11:11:34Z</time>
      </trkpt>
      <trkpt lat="43.90476" lon="7.37554">
        <ele>907</ele>
        <time>2013-05-11T11:11:40Z</time>
      </trkpt>
      <trkpt lat="43.90473" lon="7.37555">
        <ele>908</ele>
        <time>2013-05-11T11:11:45Z</time>
      </trkpt>
      <trkpt lat="43.9047" lon="7.37554">
        <ele>909</ele>
        <time>2013-05-11T11:11:50Z</time>
      </trkpt>
      <trkpt lat="43.90467" lon="7.37551">
        <ele>910</ele>
        <time>2013-05-11T11:11:55Z</time>
      </trkpt>
      <trkpt lat="43.90465" lon="7.37547">
        <ele>911</ele>
        <time>2013-05-11T11:12:00Z</time>
      </trkpt>
      <trkpt lat="43.90461" lon="7.37541">
        <ele>911</ele>
        <time>2013-05-11T11:12:07Z</time>
      </trkpt>
      <trkpt lat="43.90462" lon="7.37542">
        <ele>911</ele>
        <time>2013-05-11T11:12:13Z</time>
      </trkpt>
      <trkpt lat="43.90467" lon="7.37541">
        <ele>913</ele>
        <time>2013-05-11T11:12:19Z</time>
      </trkpt>
      <trkpt lat="43.9047" lon="7.37535">
        <ele>915</ele>
        <time>2013-05-11T11:12:25Z</time>
      </trkpt>
      <trkpt lat="43.9047" lon="7.37537">
        <ele>916</ele>
        <time>2013-05-11T11:12:32Z</time>
      </trkpt>
      <trkpt lat="43.90472" lon="7.37537">
        <ele>916</ele>
        <time>2013-05-11T11:12:37Z</time>
      </trkpt>
      <trkpt lat="43.9047" lon="7.37537">
        <ele>916</ele>
        <time>2013-05-11T11:12:42Z</time>
      </trkpt>
      <trkpt lat="43.9047" lon="7.37538">
        <ele>916</ele>
        <time>2013-05-11T11:13:03Z</time>
      </trkpt>
      <trkpt lat="43.90472" lon="7.37539">
        <ele>916</ele>
        <time>2013-05-11T11:13:47Z</time>
      </trkpt>
      <trkpt lat="43.90471" lon="7.37538">
        <ele>917</ele>
        <time>2013-05-11T11:14:08Z</time>
      </trkpt>
      <trkpt lat="43.90469" lon="7.37535">
        <ele>917</ele>
        <time>2013-05-11T11:14:16Z</time>
      </trkpt>
      <trkpt lat="43.90467" lon="7.37529">
        <ele>917</ele>
        <time>2013-05-11T11:14:22Z</time>
      </trkpt>
      <trkpt lat="43.90464" lon="7.37523">
        <ele>917</ele>
        <time>2013-05-11T11:14:28Z</time>
      </trkpt>
      <trkpt lat="43.90461" lon="7.37518">
        <ele>917</ele>
        <time>2013-05-11T11:14:34Z</time>
      </trkpt>
      <trkpt lat="43.90459" lon="7.37511">
        <ele>917</ele>
        <time>2013-05-11T11:14:39Z</time>
      </trkpt>
      <trkpt lat="43.90458" lon="7.37506">
        <ele>917</ele>
        <time>2013-05-11T11:14:47Z</time>
      </trkpt>
      <trkpt lat="43.90455" lon="7.375">
        <ele>918</ele>
        <time>2013-05-11T11:14:52Z</time>
      </trkpt>
      <trkpt lat="43.90452" lon="7.37491">
        <ele>919</ele>
        <time>2013-05-11T11:14:57Z</time>
      </trkpt>
      <trkpt lat="43.90449" lon="7.37486">
        <ele>920</ele>
        <time>2013-05-11T11:15:02Z</time>
      </trkpt>
      <trkpt lat="43.90445" lon="7.37478">
        <ele>920</ele>
        <time>2013-05-11T11:15:07Z</time>
      </trkpt>
      <trkpt lat="43.9044" lon="7.3747">
        <ele>922</ele>
        <time>2013-05-11T11:15:12Z</time>
      </trkpt>
      <trkpt lat="43.90436" lon="7.37463">
        <ele>922</ele>
        <time>2013-05-11T11:15:17Z</time>
      </trkpt>
      <trkpt lat="43.9043" lon="7.37454">
        <ele>923</ele>
        <time>2013-05-11T11:15:23Z</time>
      </trkpt>
      <trkpt lat="43.90427" lon="7.37449">
        <ele>923</ele>
        <time>2013-05-11T11:15:28Z</time>
      </trkpt>
      <trkpt lat="43.90427" lon="7.37443">
        <ele>923</ele>
        <time>2013-05-11T11:15:34Z</time>
      </trkpt>
      <trkpt lat="43.90424" lon="7.37438">
        <ele>924</ele>
        <time>2013-05-11T11:15:40Z</time>
      </trkpt>
      <trkpt lat="43.9042" lon="7.37435">
        <ele>924</ele>
        <time>2013-05-11T11:15:45Z</time>
      </trkpt>
      <trkpt lat="43.90415" lon="7.37433">
        <ele>926</ele>
        <time>2013-05-11T11:15:51Z</time>
      </trkpt>
      <trkpt lat="43.9041" lon="7.37431">
        <ele>927</ele>
        <time>2013-05-11T11:15:57Z</time>
      </trkpt>
      <trkpt lat="43.90405" lon="7.37428">
        <ele>928</ele>
        <time>2013-05-11T11:16:02Z</time>
      </trkpt>
      <trkpt lat="43.90402" lon="7.37426">
        <ele>930</ele>
        <time>2013-05-11T11:16:07Z</time>
      </trkpt>
      <trkpt lat="43.90398" lon="7.37424">
        <ele>931</ele>
        <time>2013-05-11T11:16:12Z</time>
      </trkpt>
      <trkpt lat="43.90394" lon="7.37421">
        <ele>933</ele>
        <time>2013-05-11T11:16:18Z</time>
      </trkpt>
      <trkpt lat="43.90389" lon="7.37419">
        <ele>934</ele>
        <time>2013-05-11T11:16:24Z</time>
      </trkpt>
      <trkpt lat="43.90384" lon="7.37415">
        <ele>934</ele>
        <time>2013-05-11T11:16:30Z</time>
      </trkpt>
      <trkpt lat="43.9038" lon="7.37412">
        <ele>936</ele>
        <time>2013-05-11T11:16:36Z</time>
      </trkpt>
      <trkpt lat="43.90377" lon="7.37409">
        <ele>937</ele>
        <time>2013-05-11T11:16:41Z</time>
      </trkpt>
      <trkpt lat="43.90374" lon="7.37405">
        <ele>937</ele>
        <time>2013-05-11T11:16:46Z</time>
      </trkpt>
      <trkpt lat="43.90368" lon="7.37403">
        <ele>938</ele>
        <time>2013-05-11T11:16:52Z</time>
      </trkpt>
      <trkpt lat="43.90366" lon="7.37402">
        <ele>939</ele>
        <time>2013-05-11T11:16:58Z</time>
      </trkpt>
      <trkpt lat="43.90359" lon="7.37395">
        <ele>939</ele>
        <time>2013-05-11T11:17:03Z</time>
      </trkpt>
      <trkpt lat="43.90351" lon="7.37388">
        <ele>940</ele>
        <time>2013-05-11T11:17:08Z</time>
      </trkpt>
      <trkpt lat="43.90346" lon="7.37375">
        <ele>941</ele>
        <time>2013-05-11T11:17:13Z</time>
      </trkpt>
      <trkpt lat="43.9034" lon="7.37361">
        <ele>941</ele>
        <time>2013-05-11T11:17:18Z</time>
      </trkpt>
      <trkpt lat="43.90335" lon="7.3735">
        <ele>942</ele>
        <time>2013-05-11T11:17:23Z</time>
      </trkpt>
      <trkpt lat="43.90332" lon="7.37336">
        <ele>943</ele>
        <time>2013-05-11T11:17:28Z</time>
      </trkpt>
      <trkpt lat="43.90332" lon="7.37325">
        <ele>944</ele>
        <time>2013-05-11T11:17:33Z</time>
      </trkpt>
      <trkpt lat="43.90331" lon="7.37314">
        <ele>944</ele>
        <time>2013-05-11T11:17:38Z</time>
      </trkpt>
      <trkpt lat="43.90332" lon="7.37304">
        <ele>944</ele>
        <time>2013-05-11T11:17:43Z</time>
      </trkpt>
      <trkpt lat="43.90331" lon="7.37288">
        <ele>944</ele>
        <time>2013-05-11T11:17:48Z</time>
      </trkpt>
      <trkpt lat="43.90331" lon="7.37271">
        <ele>946</ele>
        <time>2013-05-11T11:17:53Z</time>
      </trkpt>
      <trkpt lat="43.90331" lon="7.37257">
        <ele>949</ele>
        <time>2013-05-11T11:17:58Z</time>
      </trkpt>
      <trkpt lat="43.90331" lon="7.3725">
        <ele>950</ele>
        <time>2013-05-11T11:18:03Z</time>
      </trkpt>
      <trkpt lat="43.9033" lon="7.37251">
        <ele>952</ele>
        <time>2013-05-11T11:18:19Z</time>
      </trkpt>
      <trkpt lat="43.90329" lon="7.37252">
        <ele>952</ele>
        <time>2013-05-11T11:18:34Z</time>
      </trkpt>
      <trkpt lat="43.90328" lon="7.3725">
        <ele>952</ele>
        <time>2013-05-11T11:18:45Z</time>
      </trkpt>
      <trkpt lat="43.90329" lon="7.37238">
        <ele>952</ele>
        <time>2013-05-11T11:18:50Z</time>
      </trkpt>
      <trkpt lat="43.90325" lon="7.37217">
        <ele>952</ele>
        <time>2013-05-11T11:18:55Z</time>
      </trkpt>
      <trkpt lat="43.90319" lon="7.37196">
        <ele>952</ele>
        <time>2013-05-11T11:19:00Z</time>
      </trkpt>
      <trkpt lat="43.90313" lon="7.37179">
        <ele>952</ele>
        <time>2013-05-11T11:19:05Z</time>
      </trkpt>
      <trkpt lat="43.90319" lon="7.37163">
        <ele>952</ele>
        <time>2013-05-11T11:19:10Z</time>
      </trkpt>
      <trkpt lat="43.90316" lon="7.37149">
        <ele>952</ele>
        <time>2013-05-11T11:19:15Z</time>
      </trkpt>
      <trkpt lat="43.90309" lon="7.3714">
        <ele>952</ele>
        <time>2013-05-11T11:19:20Z</time>
      </trkpt>
      <trkpt lat="43.90299" lon="7.3713">
        <ele>952</ele>
        <time>2013-05-11T11:19:25Z</time>
      </trkpt>
      <trkpt lat="43.9029" lon="7.37118">
        <ele>952</ele>
        <time>2013-05-11T11:19:30Z</time>
      </trkpt>
      <trkpt lat="43.90281" lon="7.37107">
        <ele>952</ele>
        <time>2013-05-11T11:19:35Z</time>
      </trkpt>
      <trkpt lat="43.90271" lon="7.37091">
        <ele>952</ele>
        <time>2013-05-11T11:19:40Z</time>
      </trkpt>
      <trkpt lat="43.90263" lon="7.37072">
        <ele>953</ele>
        <time>2013-05-11T11:19:45Z</time>
      </trkpt>
      <trkpt lat="43.90254" lon="7.37058">
        <ele>953</ele>
        <time>2013-05-11T11:19:50Z</time>
      </trkpt>
      <trkpt lat="43.9024" lon="7.37042">
        <ele>953</ele>
        <time>2013-05-11T11:19:55Z</time>
      </trkpt>
      <trkpt lat="43.90226" lon="7.3703">
        <ele>953</ele>
        <time>2013-05-11T11:20:00Z</time>
      </trkpt>
      <trkpt lat="43.9021" lon="7.37015">
        <ele>953</ele>
        <time>2013-05-11T11:20:05Z</time>
      </trkpt>
      <trkpt lat="43.90196" lon="7.36997">
        <ele>953</ele>
        <time>2013-05-11T11:20:10Z</time>
      </trkpt>
      <trkpt lat="43.90177" lon="7.3699">
        <ele>953</ele>
        <time>2013-05-11T11:20:15Z</time>
      </trkpt>
      <trkpt lat="43.9015" lon="7.36978">
        <ele>953</ele>
        <time>2013-05-11T11:20:20Z</time>
      </trkpt>
      <trkpt lat="43.90129" lon="7.36971">
        <ele>953</ele>
        <time>2013-05-11T11:20:25Z</time>
      </trkpt>
      <trkpt lat="43.90108" lon="7.36965">
        <ele>953</ele>
        <time>2013-05-11T11:20:30Z</time>
      </trkpt>
      <trkpt lat="43.90091" lon="7.36948">
        <ele>952</ele>
        <time>2013-05-11T11:20:35Z</time>
      </trkpt>
      <trkpt lat="43.90076" lon="7.36919">
        <ele>950</ele>
        <time>2013-05-11T11:20:40Z</time>
      </trkpt>
      <trkpt lat="43.90061" lon="7.36884">
        <ele>947</ele>
        <time>2013-05-11T11:20:45Z</time>
      </trkpt>
      <trkpt lat="43.90065" lon="7.36852">
        <ele>945</ele>
        <time>2013-05-11T11:20:50Z</time>
      </trkpt>
      <trkpt lat="43.90067" lon="7.36823">
        <ele>944</ele>
        <time>2013-05-11T11:20:55Z</time>
      </trkpt>
      <trkpt lat="43.90075" lon="7.36796">
        <ele>944</ele>
        <time>2013-05-11T11:21:00Z</time>
      </trkpt>
      <trkpt lat="43.90088" lon="7.36774">
        <ele>944</ele>
        <time>2013-05-11T11:21:05Z</time>
      </trkpt>
      <trkpt lat="43.90105" lon="7.36748">
        <ele>944</ele>
        <time>2013-05-11T11:21:10Z</time>
      </trkpt>
      <trkpt lat="43.90124" lon="7.36718">
        <ele>944</ele>
        <time>2013-05-11T11:21:15Z</time>
      </trkpt>
      <trkpt lat="43.90133" lon="7.36686">
        <ele>944</ele>
        <time>2013-05-11T11:21:20Z</time>
      </trkpt>
      <trkpt lat="43.9012" lon="7.36677">
        <ele>944</ele>
        <time>2013-05-11T11:21:25Z</time>
      </trkpt>
      <trkpt lat="43.9011" lon="7.36683">
        <ele>942</ele>
        <time>2013-05-11T11:21:30Z</time>
      </trkpt>
      <trkpt lat="43.90101" lon="7.36687">
        <ele>941</ele>
        <time>2013-05-11T11:21:35Z</time>
      </trkpt>
      <trkpt lat="43.90094" lon="7.3669">
        <ele>941</ele>
        <time>2013-05-11T11:21:40Z</time>
      </trkpt>
      <trkpt lat="43.90087" lon="7.36693">
        <ele>941</ele>
        <time>2013-05-11T11:21:45Z</time>
      </trkpt>
      <trkpt lat="43.9008" lon="7.36695">
        <ele>941</ele>
        <time>2013-05-11T11:21:50Z</time>
      </trkpt>
      <trkpt lat="43.90074" lon="7.36693">
        <ele>942</ele>
        <time>2013-05-11T11:21:55Z</time>
      </trkpt>
      <trkpt lat="43.9007" lon="7.36688">
        <ele>942</ele>
        <time>2013-05-11T11:22:00Z</time>
      </trkpt>
      <trkpt lat="43.90075" lon="7.36685">
        <ele>943</ele>
        <time>2013-05-11T11:22:05Z</time>
      </trkpt>
      <trkpt lat="43.90081" lon="7.3668">
        <ele>944</ele>
        <time>2013-05-11T11:22:10Z</time>
      </trkpt>
      <trkpt lat="43.90086" lon="7.36674">
        <ele>944</ele>
        <time>2013-05-11T11:22:15Z</time>
      </trkpt>
      <trkpt lat="43.90091" lon="7.36668">
        <ele>946</ele>
        <time>2013-05-11T11:22:20Z</time>
      </trkpt>
      <trkpt lat="43.90096" lon="7.36663">
        <ele>947</ele>
        <time>2013-05-11T11:22:25Z</time>
      </trkpt>
      <trkpt lat="43.901" lon="7.36656">
        <ele>949</ele>
        <time>2013-05-11T11:22:31Z</time>
      </trkpt>
      <trkpt lat="43.90096" lon="7.36655">
        <ele>951</ele>
        <time>2013-05-11T11:22:36Z</time>
      </trkpt>
      <trkpt lat="43.90095" lon="7.36659">
        <ele>955</ele>
        <time>2013-05-11T11:22:45Z</time>
      </trkpt>
      <trkpt lat="43.9009" lon="7.36658">
        <ele>955</ele>
        <time>2013-05-11T11:22:51Z</time>
      </trkpt>
      <trkpt lat="43.90085" lon="7.36654">
        <ele>955</ele>
        <time>2013-05-11T11:22:57Z</time>
      </trkpt>
      <trkpt lat="43.90081" lon="7.36648">
        <ele>955</ele>
        <time>2013-05-11T11:23:03Z</time>
      </trkpt>
      <trkpt lat="43.90079" lon="7.36644">
        <ele>955</ele>
        <time>2013-05-11T11:23:09Z</time>
      </trkpt>
      <trkpt lat="43.90076" lon="7.36634">
        <ele>955</ele>
        <time>2013-05-11T11:23:14Z</time>
      </trkpt>
      <trkpt lat="43.90073" lon="7.36625">
        <ele>957</ele>
        <time>2013-05-11T11:23:19Z</time>
      </trkpt>
      <trkpt lat="43.90071" lon="7.36618">
        <ele>958</ele>
        <time>2013-05-11T11:23:24Z</time>
      </trkpt>
      <trkpt lat="43.90067" lon="7.36609">
        <ele>958</ele>
        <time>2013-05-11T11:23:30Z</time>
      </trkpt>
      <trkpt lat="43.90065" lon="7.36602">
        <ele>959</ele>
        <time>2013-05-11T11:23:35Z</time>
      </trkpt>
      <trkpt lat="43.90064" lon="7.36596">
        <ele>960</ele>
        <time>2013-05-11T11:23:40Z</time>
      </trkpt>
      <trkpt lat="43.90063" lon="7.36594">
        <ele>961</ele>
        <time>2013-05-11T11:23:46Z</time>
      </trkpt>
      <trkpt lat="43.90061" lon="7.36588">
        <ele>962</ele>
        <time>2013-05-11T11:23:57Z</time>
      </trkpt>
      <trkpt lat="43.90061" lon="7.36584">
        <ele>963</ele>
        <time>2013-05-11T11:24:04Z</time>
      </trkpt>
      <trkpt lat="43.90062" lon="7.36579">
        <ele>964</ele>
        <time>2013-05-11T11:24:10Z</time>
      </trkpt>
      <trkpt lat="43.90064" lon="7.36576">
        <ele>966</ele>
        <time>2013-05-11T11:24:16Z</time>
      </trkpt>
      <trkpt lat="43.90065" lon="7.3657">
        <ele>968</ele>
        <time>2013-05-11T11:24:22Z</time>
      </trkpt>
      <trkpt lat="43.90063" lon="7.36566">
        <ele>968</ele>
        <time>2013-05-11T11:24:27Z</time>
      </trkpt>
      <trkpt lat="43.90062" lon="7.36562">
        <ele>968</ele>
        <time>2013-05-11T11:24:32Z</time>
      </trkpt>
      <trkpt lat="43.90062" lon="7.36555">
        <ele>968</ele>
        <time>2013-05-11T11:24:37Z</time>
      </trkpt>
      <trkpt lat="43.90062" lon="7.3655">
        <ele>968</ele>
        <time>2013-05-11T11:24:42Z</time>
      </trkpt>
      <trkpt lat="43.9006" lon="7.36543">
        <ele>968</ele>
        <time>2013-05-11T11:24:48Z</time>
      </trkpt>
      <trkpt lat="43.9006" lon="7.36535">
        <ele>968</ele>
        <time>2013-05-11T11:24:53Z</time>
      </trkpt>
      <trkpt lat="43.90059" lon="7.36529">
        <ele>968</ele>
        <time>2013-05-11T11:24:59Z</time>
      </trkpt>
      <trkpt lat="43.90059" lon="7.36522">
        <ele>968</ele>
        <time>2013-05-11T11:25:05Z</time>
      </trkpt>
      <trkpt lat="43.90057" lon="7.36519">
        <ele>968</ele>
        <time>2013-05-11T11:25:10Z</time>
      </trkpt>
      <trkpt lat="43.90059" lon="7.36514">
        <ele>968</ele>
        <time>2013-05-11T11:25:15Z</time>
      </trkpt>
      <trkpt lat="43.90057" lon="7.36506">
        <ele>970</ele>
        <time>2013-05-11T11:25:20Z</time>
      </trkpt>
      <trkpt lat="43.90058" lon="7.36499">
        <ele>971</ele>
        <time>2013-05-11T11:25:25Z</time>
      </trkpt>
      <trkpt lat="43.90058" lon="7.36491">
        <ele>974</ele>
        <time>2013-05-11T11:25:30Z</time>
      </trkpt>
      <trkpt lat="43.90059" lon="7.36483">
        <ele>974</ele>
        <time>2013-05-11T11:25:35Z</time>
      </trkpt>
      <trkpt lat="43.9006" lon="7.36472">
        <ele>975</ele>
        <time>2013-05-11T11:25:40Z</time>
      </trkpt>
      <trkpt lat="43.9006" lon="7.36461">
        <ele>981</ele>
        <time>2013-05-11T11:25:46Z</time>
      </trkpt>
      <trkpt lat="43.90061" lon="7.36454">
        <ele>985</ele>
        <time>2013-05-11T11:25:52Z</time>
      </trkpt>
      <trkpt lat="43.90063" lon="7.36447">
        <ele>986</ele>
        <time>2013-05-11T11:25:58Z</time>
      </trkpt>
      <trkpt lat="43.90065" lon="7.36442">
        <ele>986</ele>
        <time>2013-05-11T11:26:04Z</time>
      </trkpt>
      <trkpt lat="43.90067" lon="7.36436">
        <ele>986</ele>
        <time>2013-05-11T11:26:10Z</time>
      </trkpt>
      <trkpt lat="43.90068" lon="7.36429">
        <ele>986</ele>
        <time>2013-05-11T11:26:16Z</time>
      </trkpt>
      <trkpt lat="43.90068" lon="7.36422">
        <ele>986</ele>
        <time>2013-05-11T11:26:21Z</time>
      </trkpt>
      <trkpt lat="43.90067" lon="7.36413">
        <ele>986</ele>
        <time>2013-05-11T11:26:27Z</time>
      </trkpt>
      <trkpt lat="43.90065" lon="7.36408">
        <ele>986</ele>
        <time>2013-05-11T11:26:32Z</time>
      </trkpt>
      <trkpt lat="43.90064" lon="7.364">
        <ele>987</ele>
        <time>2013-05-11T11:26:37Z</time>
      </trkpt>
      <trkpt lat="43.90062" lon="7.36395">
        <ele>987</ele>
        <time>2013-05-11T11:26:42Z</time>
      </trkpt>
      <trkpt lat="43.90058" lon="7.36389">
        <ele>988</ele>
        <time>2013-05-11T11:26:48Z</time>
      </trkpt>
      <trkpt lat="43.90053" lon="7.36383">
        <ele>988</ele>
        <time>2013-05-11T11:26:53Z</time>
      </trkpt>
      <trkpt lat="43.90052" lon="7.36376">
        <ele>990</ele>
        <time>2013-05-11T11:26:59Z</time>
      </trkpt>
      <trkpt lat="43.90053" lon="7.36369">
        <ele>992</ele>
        <time>2013-05-11T11:27:05Z</time>
      </trkpt>
      <trkpt lat="43.90053" lon="7.36362">
        <ele>994</ele>
        <time>2013-05-11T11:27:11Z</time>
      </trkpt>
      <trkpt lat="43.90054" lon="7.36357">
        <ele>995</ele>
        <time>2013-05-11T11:27:16Z</time>
      </trkpt>
      <trkpt lat="43.90054" lon="7.36349">
        <ele>997</ele>
        <time>2013-05-11T11:27:22Z</time>
      </trkpt>
      <trkpt lat="43.90054" lon="7.36344">
        <ele>998</ele>
        <time>2013-05-11T11:27:27Z</time>
      </trkpt>
      <trkpt lat="43.90054" lon="7.36339">
        <ele>999</ele>
        <time>2013-05-11T11:27:34Z</time>
      </trkpt>
      <trkpt lat="43.90055" lon="7.36332">
        <ele>1000</ele>
        <time>2013-05-11T11:27:39Z</time>
      </trkpt>
      <trkpt lat="43.90049" lon="7.36327">
        <ele>1001</ele>
        <time>2013-05-11T11:27:44Z</time>
      </trkpt>
      <trkpt lat="43.90044" lon="7.36321">
        <ele>1003</ele>
        <time>2013-05-11T11:27:49Z</time>
      </trkpt>
      <trkpt lat="43.90043" lon="7.36312">
        <ele>1005</ele>
        <time>2013-05-11T11:27:55Z</time>
      </trkpt>
      <trkpt lat="43.90046" lon="7.36304">
        <ele>1005</ele>
        <time>2013-05-11T11:28:01Z</time>
      </trkpt>
      <trkpt lat="43.90046" lon="7.36295">
        <ele>1005</ele>
        <time>2013-05-11T11:28:06Z</time>
      </trkpt>
      <trkpt lat="43.90045" lon="7.36285">
        <ele>1005</ele>
        <time>2013-05-11T11:28:11Z</time>
      </trkpt>
      <trkpt lat="43.90043" lon="7.36273">
        <ele>1005</ele>
        <time>2013-05-11T11:28:16Z</time>
      </trkpt>
      <trkpt lat="43.90041" lon="7.3626">
        <ele>1006</ele>
        <time>2013-05-11T11:28:21Z</time>
      </trkpt>
      <trkpt lat="43.90039" lon="7.36249">
        <ele>1007</ele>
        <time>2013-05-11T11:28:26Z</time>
      </trkpt>
      <trkpt lat="43.90037" lon="7.36237">
        <ele>1008</ele>
        <time>2013-05-11T11:28:31Z</time>
      </trkpt>
      <trkpt lat="43.90034" lon="7.36231">
        <ele>1008</ele>
        <time>2013-05-11T11:28:36Z</time>
      </trkpt>
      <trkpt lat="43.90033" lon="7.36234">
        <ele>1008</ele>
        <time>2013-05-11T11:28:42Z</time>
      </trkpt>
      <trkpt lat="43.90034" lon="7.36235">
        <ele>1010</ele>
        <time>2013-05-11T11:28:48Z</time>
      </trkpt>
      <trkpt lat="43.90035" lon="7.36234">
        <ele>1010</ele>
        <time>2013-05-11T11:28:58Z</time>
      </trkpt>
      <trkpt lat="43.90036" lon="7.36234">
        <ele>1010</ele>
        <time>2013-05-11T11:29:07Z</time>
      </trkpt>
      <trkpt lat="43.90037" lon="7.36232">
        <ele>1010</ele>
        <time>2013-05-11T11:29:19Z</time>
      </trkpt>
      <trkpt lat="43.90037" lon="7.36232">
        <ele>1010</ele>
        <time>2013-05-11T11:29:35Z</time>
      </trkpt>
      <trkpt lat="43.90036" lon="7.36232">
        <ele>1010</ele>
        <time>2013-05-11T11:29:43Z</time>
      </trkpt>
      <trkpt lat="43.90035" lon="7.36232">
        <ele>1010</ele>
        <time>2013-05-11T11:29:51Z</time>
      </trkpt>
      <trkpt lat="43.90036" lon="7.36233">
        <ele>1010</ele>
        <time>2013-05-11T11:30:08Z</time>
      </trkpt>
      <trkpt lat="43.90037" lon="7.36233">
        <ele>1010</ele>
        <time>2013-05-11T11:30:22Z</time>
      </trkpt>
      <trkpt lat="43.90036" lon="7.36235">
        <ele>1010</ele>
        <time>2013-05-11T11:30:35Z</time>
      </trkpt>
      <trkpt lat="43.90036" lon="7.36233">
        <ele>1010</ele>
        <time>2013-05-11T11:31:01Z</time>
      </trkpt>
      <trkpt lat="43.90035" lon="7.36235">
        <ele>1010</ele>
        <time>2013-05-11T11:31:13Z</time>
      </trkpt>
      <trkpt lat="43.90033" lon="7.36238">
        <ele>1010</ele>
        <time>2013-05-11T11:31:22Z</time>
      </trkpt>
      <trkpt lat="43.90035" lon="7.36235">
        <ele>1010</ele>
        <time>2013-05-11T11:31:38Z</time>
      </trkpt>
      <trkpt lat="43.90034" lon="7.36236">
        <ele>1010</ele>
        <time>2013-05-11T11:31:51Z</time>
      </trkpt>
      <trkpt lat="43.90032" lon="7.36239">
        <ele>1010</ele>
        <time>2013-05-11T11:31:56Z</time>
      </trkpt>
      <trkpt lat="43.90031" lon="7.3624">
        <ele>1010</ele>
        <time>2013-05-11T11:32:07Z</time>
      </trkpt>
      <trkpt lat="43.90032" lon="7.36238">
        <ele>1010</ele>
        <time>2013-05-11T11:32:12Z</time>
      </trkpt>
      <trkpt lat="43.90032" lon="7.36237">
        <ele>1011</ele>
        <time>2013-05-11T11:32:17Z</time>
      </trkpt>
      <trkpt lat="43.90032" lon="7.36235">
        <ele>1011</ele>
        <time>2013-05-11T11:32:24Z</time>
      </trkpt>
      <trkpt lat="43.9003" lon="7.36238">
        <ele>1011</ele>
        <time>2013-05-11T11:32:30Z</time>
      </trkpt>
      <trkpt lat="43.90029" lon="7.36241">
        <ele>1013</ele>
        <time>2013-05-11T11:32:37Z</time>
      </trkpt>
      <trkpt lat="43.9003" lon="7.36239">
        <ele>1014</ele>
        <time>2013-05-11T11:32:44Z</time>
      </trkpt>
      <trkpt lat="43.90033" lon="7.36235">
        <ele>1014</ele>
        <time>2013-05-11T11:32:51Z</time>
      </trkpt>
      <trkpt lat="43.90032" lon="7.36236">
        <ele>1014</ele>
        <time>2013-05-11T11:32:56Z</time>
      </trkpt>
      <trkpt lat="43.90029" lon="7.36236">
        <ele>1013</ele>
        <time>2013-05-11T11:33:03Z</time>
      </trkpt>
      <trkpt lat="43.90032" lon="7.36235">
        <ele>1013</ele>
        <time>2013-05-11T11:33:10Z</time>
      </trkpt>
      <trkpt lat="43.90031" lon="7.36232">
        <ele>1013</ele>
        <time>2013-05-11T11:33:20Z</time>
      </trkpt>
      <trkpt lat="43.90032" lon="7.36232">
        <ele>1013</ele>
        <time>2013-05-11T11:33:25Z</time>
      </trkpt>
      <trkpt lat="43.90035" lon="7.36233">
        <ele>1009</ele>
        <time>2013-05-11T11:34:12Z</time>
      </trkpt>
      <trkpt lat="43.90034" lon="7.36235">
        <ele>1007</ele>
        <time>2013-05-11T11:34:17Z</time>
      </trkpt>
      <trkpt lat="43.90036" lon="7.36234">
        <ele>1004</ele>
        <time>2013-05-11T11:34:40Z</time>
      </trkpt>
      <trkpt lat="43.90035" lon="7.36235">
        <ele>1004</ele>
        <time>2013-05-11T11:35:13Z</time>
      </trkpt>
      <trkpt lat="43.90035" lon="7.36234">
        <ele>1005</ele>
        <time>2013-05-11T11:35:22Z</time>
      </trkpt>
      <trkpt lat="43.90033" lon="7.36234">
        <ele>1007</ele>
        <time>2013-05-11T11:35:27Z</time>
      </trkpt>
      <trkpt lat="43.90035" lon="7.36234">
        <ele>1008</ele>
        <time>2013-05-11T11:35:42Z</time>
      </trkpt>
      <trkpt lat="43.90036" lon="7.36234">
        <ele>1008</ele>
        <time>2013-05-11T11:35:47Z</time>
      </trkpt>
      <trkpt lat="43.90037" lon="7.36235">
        <ele>1009</ele>
        <time>2013-05-11T11:36:09Z</time>
      </trkpt>
      <trkpt lat="43.90036" lon="7.36237">
        <ele>1009</ele>
        <time>2013-05-11T11:36:26Z</time>
      </trkpt>
      <trkpt lat="43.90034" lon="7.36238">
        <ele>1009</ele>
        <time>2013-05-11T11:36:34Z</time>
      </trkpt>
      <trkpt lat="43.90038" lon="7.36238">
        <ele>1009</ele>
        <time>2013-05-11T11:36:40Z</time>
      </trkpt>
      <trkpt lat="43.90036" lon="7.36238">
        <ele>1009</ele>
        <time>2013-05-11T11:36:48Z</time>
      </trkpt>
      <trkpt lat="43.90035" lon="7.36238">
        <ele>1009</ele>
        <time>2013-05-11T11:37:07Z</time>
      </trkpt>
      <trkpt lat="43.90036" lon="7.36237">
        <ele>1009</ele>
        <time>2013-05-11T11:37:19Z</time>
      </trkpt>
      <trkpt lat="43.90036" lon="7.36235">
        <ele>1010</ele>
        <time>2013-05-11T11:37:27Z</time>
      </trkpt>
      <trkpt lat="43.90036" lon="7.36234">
        <ele>1011</ele>
        <time>2013-05-11T11:37:34Z</time>
      </trkpt>
      <trkpt lat="43.90036" lon="7.36235">
        <ele>1014</ele>
        <time>2013-05-11T11:37:49Z</time>
      </trkpt>
      <trkpt lat="43.90036" lon="7.36237">
        <ele>1015</ele>
        <time>2013-05-11T11:37:54Z</time>
      </trkpt>
      <trkpt lat="43.90033" lon="7.36239">
        <ele>1016</ele>
        <time>2013-05-11T11:38:00Z</time>
      </trkpt>
      <trkpt lat="43.90034" lon="7.36239">
        <ele>1018</ele>
        <time>2013-05-11T11:38:05Z</time>
      </trkpt>
      <trkpt lat="43.90031" lon="7.36243">
        <ele>1018</ele>
        <time>2013-05-11T11:38:10Z</time>
      </trkpt>
      <trkpt lat="43.90033" lon="7.3624">
        <ele>1018</ele>
        <time>2013-05-11T11:38:22Z</time>
      </trkpt>
      <trkpt lat="43.90034" lon="7.36238">
        <ele>1018</ele>
        <time>2013-05-11T11:38:44Z</time>
      </trkpt>
      <trkpt lat="43.90036" lon="7.36238">
        <ele>1018</ele>
        <time>2013-05-11T11:38:51Z</time>
      </trkpt>
      <trkpt lat="43.90038" lon="7.36238">
        <ele>1018</ele>
        <time>2013-05-11T11:38:58Z</time>
      </trkpt>
      <trkpt lat="43.90036" lon="7.36237">
        <ele>1018</ele>
        <time>2013-05-11T11:39:08Z</time>
      </trkpt>
      <trkpt lat="43.90039" lon="7.36237">
        <ele>1018</ele>
        <time>2013-05-11T11:39:13Z</time>
      </trkpt>
      <trkpt lat="43.90038" lon="7.36239">
        <ele>1018</ele>
        <time>2013-05-11T11:39:25Z</time>
      </trkpt>
      <trkpt lat="43.90038" lon="7.36241">
        <ele>1018</ele>
        <time>2013-05-11T11:39:32Z</time>
      </trkpt>
      <trkpt lat="43.90038" lon="7.3624">
        <ele>1018</ele>
        <time>2013-05-11T11:39:42Z</time>
      </trkpt>
      <trkpt lat="43.90039" lon="7.36238">
        <ele>1018</ele>
        <time>2013-05-11T11:39:54Z</time>
      </trkpt>
      <trkpt lat="43.9004" lon="7.36236">
        <ele>1016</ele>
        <time>2013-05-11T11:40:00Z</time>
      </trkpt>
      <trkpt lat="43.90041" lon="7.36237">
        <ele>1012</ele>
        <time>2013-05-11T11:40:15Z</time>
      </trkpt>
      <trkpt lat="43.90043" lon="7.36237">
        <ele>1012</ele>
        <time>2013-05-11T11:40:20Z</time>
      </trkpt>
      <trkpt lat="43.9004" lon="7.36236">
        <ele>1012</ele>
        <time>2013-05-11T11:40:25Z</time>
      </trkpt>
      <trkpt lat="43.90036" lon="7.36237">
        <ele>1012</ele>
        <time>2013-05-11T11:40:31Z</time>
      </trkpt>
      <trkpt lat="43.90032" lon="7.36242">
        <ele>1012</ele>
        <time>2013-05-11T11:40:39Z</time>
      </trkpt>
      <trkpt lat="43.90034" lon="7.36238">
        <ele>1013</ele>
        <time>2013-05-11T11:40:45Z</time>
      </trkpt>
      <trkpt lat="43.90036" lon="7.36235">
        <ele>1013</ele>
        <time>2013-05-11T11:40:50Z</time>
      </trkpt>
      <trkpt lat="43.90039" lon="7.36233">
        <ele>1013</ele>
        <time>2013-05-11T11:40:56Z</time>
      </trkpt>
      <trkpt lat="43.90041" lon="7.36234">
        <ele>1013</ele>
        <time>2013-05-11T11:41:06Z</time>
      </trkpt>
      <trkpt lat="43.90041" lon="7.36237">
        <ele>1013</ele>
        <time>2013-05-11T11:41:12Z</time>
      </trkpt>
      <trkpt lat="43.90044" lon="7.36238">
        <ele>1017</ele>
        <time>2013-05-11T11:41:17Z</time>
      </trkpt>
      <trkpt lat="43.90037" lon="7.36237">
        <ele>1021</ele>
        <time>2013-05-11T11:41:22Z</time>
      </trkpt>
      <trkpt lat="43.90034" lon="7.36236">
        <ele>1021</ele>
        <time>2013-05-11T11:41:27Z</time>
      </trkpt>
      <trkpt lat="43.90033" lon="7.36237">
        <ele>1021</ele>
        <time>2013-05-11T11:41:33Z</time>
      </trkpt>
      <trkpt lat="43.90032" lon="7.36236">
        <ele>1022</ele>
        <time>2013-05-11T11:41:49Z</time>
      </trkpt>
      <trkpt lat="43.90033" lon="7.36235">
        <ele>1022</ele>
        <time>2013-05-11T11:41:54Z</time>
      </trkpt>
      <trkpt lat="43.90034" lon="7.36232">
        <ele>1021</ele>
        <time>2013-05-11T11:42:03Z</time>
      </trkpt>
      <trkpt lat="43.90035" lon="7.36231">
        <ele>1020</ele>
        <time>2013-05-11T11:42:10Z</time>
      </trkpt>
      <trkpt lat="43.90037" lon="7.36232">
        <ele>1020</ele>
        <time>2013-05-11T11:42:15Z</time>
      </trkpt>
      <trkpt lat="43.90037" lon="7.36235">
        <ele>1020</ele>
        <time>2013-05-11T11:42:27Z</time>
      </trkpt>
      <trkpt lat="43.90038" lon="7.36235">
        <ele>1020</ele>
        <time>2013-05-11T11:42:34Z</time>
      </trkpt>
      <trkpt lat="43.90036" lon="7.36236">
        <ele>1019</ele>
        <time>2013-05-11T11:42:39Z</time>
      </trkpt>
      <trkpt lat="43.90036" lon="7.36237">
        <ele>1018</ele>
        <time>2013-05-11T11:42:49Z</time>
      </trkpt>
      <trkpt lat="43.90037" lon="7.36237">
        <ele>1014</ele>
        <time>2013-05-11T11:43:05Z</time>
      </trkpt>
      <trkpt lat="43.90039" lon="7.36236">
        <ele>1014</ele>
        <time>2013-05-11T11:43:11Z</time>
      </trkpt>
      <trkpt lat="43.90037" lon="7.36236">
        <ele>1014</ele>
        <time>2013-05-11T11:43:16Z</time>
      </trkpt>
      <trkpt lat="43.90036" lon="7.36235">
        <ele>1014</ele>
        <time>2013-05-11T11:43:23Z</time>
      </trkpt>
      <trkpt lat="43.90035" lon="7.36235">
        <ele>1010</ele>
        <time>2013-05-11T11:43:30Z</time>
      </trkpt>
      <trkpt lat="43.9003" lon="7.36237">
        <ele>1007</ele>
        <time>2013-05-11T11:43:37Z</time>
      </trkpt>
      <trkpt lat="43.90032" lon="7.36234">
        <ele>1007</ele>
        <time>2013-05-11T11:43:43Z</time>
      </trkpt>
      <trkpt lat="43.9003" lon="7.36236">
        <ele>1007</ele>
        <time>2013-05-11T11:43:50Z</time>
      </trkpt>
      <trkpt lat="43.90032" lon="7.36239">
        <ele>1007</ele>
        <time>2013-05-11T11:43:55Z</time>
      </trkpt>
      <trkpt lat="43.90034" lon="7.36242">
        <ele>1008</ele>
        <time>2013-05-11T11:44:02Z</time>
      </trkpt>
      <trkpt lat="43.90032" lon="7.36243">
        <ele>1008</ele>
        <time>2013-05-11T11:44:08Z</time>
      </trkpt>
      <trkpt lat="43.90033" lon="7.36242">
        <ele>1008</ele>
        <time>2013-05-11T11:44:17Z</time>
      </trkpt>
      <trkpt lat="43.90035" lon="7.36241">
        <ele>1008</ele>
        <time>2013-05-11T11:44:22Z</time>
      </trkpt>
      <trkpt lat="43.90036" lon="7.36237">
        <ele>1008</ele>
        <time>2013-05-11T11:44:31Z</time>
      </trkpt>
      <trkpt lat="43.90038" lon="7.36236">
        <ele>1008</ele>
        <time>2013-05-11T11:44:41Z</time>
      </trkpt>
      <trkpt lat="43.90039" lon="7.36236">
        <ele>1008</ele>
        <time>2013-05-11T11:44:46Z</time>
      </trkpt>
      <trkpt lat="43.90039" lon="7.36237">
        <ele>1008</ele>
        <time>2013-05-11T11:45:01Z</time>
      </trkpt>
      <trkpt lat="43.90037" lon="7.36244">
        <ele>1008</ele>
        <time>2013-05-11T11:45:06Z</time>
      </trkpt>
      <trkpt lat="43.9003" lon="7.36255">
        <ele>1008</ele>
        <time>2013-05-11T11:45:11Z</time>
      </trkpt>
      <trkpt lat="43.90026" lon="7.36271">
        <ele>1008</ele>
        <time>2013-05-11T11:45:16Z</time>
      </trkpt>
      <trkpt lat="43.90023" lon="7.36286">
        <ele>1008</ele>
        <time>2013-05-11T11:45:21Z</time>
      </trkpt>
      <trkpt lat="43.90017" lon="7.36303">
        <ele>1008</ele>
        <time>2013-05-11T11:45:26Z</time>
      </trkpt>
      <trkpt lat="43.90014" lon="7.36315">
        <ele>1009</ele>
        <time>2013-05-11T11:45:31Z</time>
      </trkpt>
      <trkpt lat="43.90008" lon="7.36326">
        <ele>1010</ele>
        <time>2013-05-11T11:45:36Z</time>
      </trkpt>
      <trkpt lat="43.90002" lon="7.3634">
        <ele>1012</ele>
        <time>2013-05-11T11:45:41Z</time>
      </trkpt>
      <trkpt lat="43.89997" lon="7.36355">
        <ele>1013</ele>
        <time>2013-05-11T11:45:46Z</time>
      </trkpt>
      <trkpt lat="43.89991" lon="7.36368">
        <ele>1014</ele>
        <time>2013-05-11T11:45:51Z</time>
      </trkpt>
      <trkpt lat="43.89986" lon="7.36381">
        <ele>1014</ele>
        <time>2013-05-11T11:45:56Z</time>
      </trkpt>
      <trkpt lat="43.89983" lon="7.36394">
        <ele>1016</ele>
        <time>2013-05-11T11:46:01Z</time>
      </trkpt>
      <trkpt lat="43.89983" lon="7.36408">
        <ele>1021</ele>
        <time>2013-05-11T11:46:06Z</time>
      </trkpt>
      <trkpt lat="43.89982" lon="7.36423">
        <ele>1026</ele>
        <time>2013-05-11T11:46:11Z</time>
      </trkpt>
      <trkpt lat="43.89979" lon="7.36437">
        <ele>1030</ele>
        <time>2013-05-11T11:46:16Z</time>
      </trkpt>
      <trkpt lat="43.89973" lon="7.36448">
        <ele>1030</ele>
        <time>2013-05-11T11:46:21Z</time>
      </trkpt>
      <trkpt lat="43.89969" lon="7.36462">
        <ele>1030</ele>
        <time>2013-05-11T11:46:26Z</time>
      </trkpt>
      <trkpt lat="43.89965" lon="7.36474">
        <ele>1031</ele>
        <time>2013-05-11T11:46:31Z</time>
      </trkpt>
      <trkpt lat="43.89962" lon="7.36484">
        <ele>1033</ele>
        <time>2013-05-11T11:46:36Z</time>
      </trkpt>
      <trkpt lat="43.89956" lon="7.36498">
        <ele>1033</ele>
        <time>2013-05-11T11:46:41Z</time>
      </trkpt>
      <trkpt lat="43.89953" lon="7.36513">
        <ele>1033</ele>
        <time>2013-05-11T11:46:46Z</time>
      </trkpt>
      <trkpt lat="43.89947" lon="7.36524">
        <ele>1033</ele>
        <time>2013-05-11T11:46:51Z</time>
      </trkpt>
      <trkpt lat="43.89942" lon="7.3654">
        <ele>1033</ele>
        <time>2013-05-11T11:46:56Z</time>
      </trkpt>
      <trkpt lat="43.89938" lon="7.36547">
        <ele>1033</ele>
        <time>2013-05-11T11:47:02Z</time>
      </trkpt>
      <trkpt lat="43.89941" lon="7.36532">
        <ele>1033</ele>
        <time>2013-05-11T11:47:07Z</time>
      </trkpt>
      <trkpt lat="43.89944" lon="7.36518">
        <ele>1033</ele>
        <time>2013-05-11T11:47:12Z</time>
      </trkpt>
      <trkpt lat="43.89951" lon="7.36505">
        <ele>1033</ele>
        <time>2013-05-11T11:47:17Z</time>
      </trkpt>
      <trkpt lat="43.89953" lon="7.3649">
        <ele>1033</ele>
        <time>2013-05-11T11:47:22Z</time>
      </trkpt>
      <trkpt lat="43.89956" lon="7.36476">
        <ele>1035</ele>
        <time>2013-05-11T11:47:27Z</time>
      </trkpt>
      <trkpt lat="43.89957" lon="7.36461">
        <ele>1036</ele>
        <time>2013-05-11T11:47:32Z</time>
      </trkpt>
      <trkpt lat="43.89958" lon="7.36447">
        <ele>1037</ele>
        <time>2013-05-11T11:47:37Z</time>
      </trkpt>
      <trkpt lat="43.8996" lon="7.36433">
        <ele>1037</ele>
        <time>2013-05-11T11:47:42Z</time>
      </trkpt>
      <trkpt lat="43.89962" lon="7.36419">
        <ele>1040</ele>
        <time>2013-05-11T11:47:47Z</time>
      </trkpt>
      <trkpt lat="43.89963" lon="7.36405">
        <ele>1044</ele>
        <time>2013-05-11T11:47:52Z</time>
      </trkpt>
      <trkpt lat="43.89963" lon="7.36389">
        <ele>1046</ele>
        <time>2013-05-11T11:47:57Z</time>
      </trkpt>
      <trkpt lat="43.89963" lon="7.36375">
        <ele>1046</ele>
        <time>2013-05-11T11:48:02Z</time>
      </trkpt>
      <trkpt lat="43.89962" lon="7.36362">
        <ele>1046</ele>
        <time>2013-05-11T11:48:07Z</time>
      </trkpt>
      <trkpt lat="43.89963" lon="7.36348">
        <ele>1046</ele>
        <time>2013-05-11T11:48:12Z</time>
      </trkpt>
      <trkpt lat="43.89963" lon="7.36335">
        <ele>1046</ele>
        <time>2013-05-11T11:48:17Z</time>
      </trkpt>
      <trkpt lat="43.89963" lon="7.36321">
        <ele>1046</ele>
        <time>2013-05-11T11:48:22Z</time>
      </trkpt>
      <trkpt lat="43.89962" lon="7.36309">
        <ele>1046</ele>
        <time>2013-05-11T11:48:27Z</time>
      </trkpt>
      <trkpt lat="43.8996" lon="7.36298">
        <ele>1045</ele>
        <time>2013-05-11T11:48:32Z</time>
      </trkpt>
      <trkpt lat="43.89957" lon="7.36284">
        <ele>1044</ele>
        <time>2013-05-11T11:48:37Z</time>
      </trkpt>
      <trkpt lat="43.89954" lon="7.3627">
        <ele>1044</ele>
        <time>2013-05-11T11:48:42Z</time>
      </trkpt>
      <trkpt lat="43.89953" lon="7.36256">
        <ele>1044</ele>
        <time>2013-05-11T11:48:47Z</time>
      </trkpt>
      <trkpt lat="43.89949" lon="7.36242">
        <ele>1044</ele>
        <time>2013-05-11T11:48:52Z</time>
      </trkpt>
      <trkpt lat="43.89943" lon="7.36229">
        <ele>1044</ele>
        <time>2013-05-11T11:48:57Z</time>
      </trkpt>
      <trkpt lat="43.89931" lon="7.36224">
        <ele>1044</ele>
        <time>2013-05-11T11:49:02Z</time>
      </trkpt>
      <trkpt lat="43.8992" lon="7.36222">
        <ele>1044</ele>
        <time>2013-05-11T11:49:07Z</time>
      </trkpt>
      <trkpt lat="43.89913" lon="7.36221">
        <ele>1044</ele>
        <time>2013-05-11T11:49:13Z</time>
      </trkpt>
      <trkpt lat="43.89912" lon="7.36221">
        <ele>1044</ele>
        <time>2013-05-11T11:49:19Z</time>
      </trkpt>
      <trkpt lat="43.89904" lon="7.36221">
        <ele>1044</ele>
        <time>2013-05-11T11:49:24Z</time>
      </trkpt>
      <trkpt lat="43.89892" lon="7.36222">
        <ele>1044</ele>
        <time>2013-05-11T11:49:29Z</time>
      </trkpt>
      <trkpt lat="43.89883" lon="7.36222">
        <ele>1045</ele>
        <time>2013-05-11T11:49:34Z</time>
      </trkpt>
      <trkpt lat="43.89871" lon="7.36223">
        <ele>1046</ele>
        <time>2013-05-11T11:49:39Z</time>
      </trkpt>
      <trkpt lat="43.89857" lon="7.36226">
        <ele>1047</ele>
        <time>2013-05-11T11:49:45Z</time>
      </trkpt>
      <trkpt lat="43.89846" lon="7.36227">
        <ele>1047</ele>
        <time>2013-05-11T11:49:50Z</time>
      </trkpt>
      <trkpt lat="43.89835" lon="7.36228">
        <ele>1047</ele>
        <time>2013-05-11T11:49:55Z</time>
      </trkpt>
      <trkpt lat="43.89824" lon="7.36228">
        <ele>1047</ele>
        <time>2013-05-11T11:50:00Z</time>
      </trkpt>
      <trkpt lat="43.89812" lon="7.36227">
        <ele>1047</ele>
        <time>2013-05-11T11:50:05Z</time>
      </trkpt>
      <trkpt lat="43.898" lon="7.36225">
        <ele>1047</ele>
        <time>2013-05-11T11:50:10Z</time>
      </trkpt>
      <trkpt lat="43.89788" lon="7.36224">
        <ele>1049</ele>
        <time>2013-05-11T11:50:15Z</time>
      </trkpt>
      <trkpt lat="43.89777" lon="7.36227">
        <ele>1051</ele>
        <time>2013-05-11T11:50:21Z</time>
      </trkpt>
      <trkpt lat="43.89767" lon="7.36228">
        <ele>1051</ele>
        <time>2013-05-11T11:50:26Z</time>
      </trkpt>
      <trkpt lat="43.89753" lon="7.36228">
        <ele>1054</ele>
        <time>2013-05-11T11:50:32Z</time>
      </trkpt>
      <trkpt lat="43.89742" lon="7.36229">
        <ele>1056</ele>
        <time>2013-05-11T11:50:37Z</time>
      </trkpt>
      <trkpt lat="43.89732" lon="7.36231">
        <ele>1058</ele>
        <time>2013-05-11T11:50:42Z</time>
      </trkpt>
      <trkpt lat="43.8972" lon="7.36233">
        <ele>1058</ele>
        <time>2013-05-11T11:50:47Z</time>
      </trkpt>
      <trkpt lat="43.89708" lon="7.36232">
        <ele>1061</ele>
        <time>2013-05-11T11:50:52Z</time>
      </trkpt>
      <trkpt lat="43.89694" lon="7.36232">
        <ele>1064</ele>
        <time>2013-05-11T11:50:58Z</time>
      </trkpt>
      <trkpt lat="43.8968" lon="7.36232">
        <ele>1064</ele>
        <time>2013-05-11T11:51:03Z</time>
      </trkpt>
      <trkpt lat="43.89664" lon="7.3623">
        <ele>1066</ele>
        <time>2013-05-11T11:51:08Z</time>
      </trkpt>
      <trkpt lat="43.89648" lon="7.36231">
        <ele>1067</ele>
        <time>2013-05-11T11:51:13Z</time>
      </trkpt>
      <trkpt lat="43.89632" lon="7.36234">
        <ele>1067</ele>
        <time>2013-05-11T11:51:18Z</time>
      </trkpt>
      <trkpt lat="43.89617" lon="7.36242">
        <ele>1067</ele>
        <time>2013-05-11T11:51:23Z</time>
      </trkpt>
      <trkpt lat="43.89604" lon="7.36257">
        <ele>1062</ele>
        <time>2013-05-11T11:51:28Z</time>
      </trkpt>
      <trkpt lat="43.89599" lon="7.36279">
        <ele>1062</ele>
        <time>2013-05-11T11:51:33Z</time>
      </trkpt>
      <trkpt lat="43.89601" lon="7.36305">
        <ele>1060</ele>
        <time>2013-05-11T11:51:38Z</time>
      </trkpt>
      <trkpt lat="43.89609" lon="7.36328">
        <ele>1060</ele>
        <time>2013-05-11T11:51:44Z</time>
      </trkpt>
      <trkpt lat="43.89616" lon="7.36343">
        <ele>1060</ele>
        <time>2013-05-11T11:51:49Z</time>
      </trkpt>
      <trkpt lat="43.89622" lon="7.36358">
        <ele>1060</ele>
        <time>2013-05-11T11:51:54Z</time>
      </trkpt>
      <trkpt lat="43.89629" lon="7.36371">
        <ele>1064</ele>
        <time>2013-05-11T11:51:59Z</time>
      </trkpt>
      <trkpt lat="43.89637" lon="7.36381">
        <ele>1067</ele>
        <time>2013-05-11T11:52:04Z</time>
      </trkpt>
      <trkpt lat="43.89642" lon="7.36394">
        <ele>1069</ele>
        <time>2013-05-11T11:52:09Z</time>
      </trkpt>
      <trkpt lat="43.89646" lon="7.36406">
        <ele>1071</ele>
        <time>2013-05-11T11:52:14Z</time>
      </trkpt>
      <trkpt lat="43.89652" lon="7.36419">
        <ele>1071</ele>
        <time>2013-05-11T11:52:20Z</time>
      </trkpt>
      <trkpt lat="43.89657" lon="7.36428">
        <ele>1072</ele>
        <time>2013-05-11T11:52:25Z</time>
      </trkpt>
      <trkpt lat="43.89662" lon="7.36436">
        <ele>1072</ele>
        <time>2013-05-11T11:52:30Z</time>
      </trkpt>
      <trkpt lat="43.89668" lon="7.36446">
        <ele>1073</ele>
        <time>2013-05-11T11:52:35Z</time>
      </trkpt>
      <trkpt lat="43.89673" lon="7.36454">
        <ele>1073</ele>
        <time>2013-05-11T11:52:40Z</time>
      </trkpt>
      <trkpt lat="43.89678" lon="7.36463">
        <ele>1074</ele>
        <time>2013-05-11T11:52:45Z</time>
      </trkpt>
      <trkpt lat="43.89684" lon="7.36474">
        <ele>1075</ele>
        <time>2013-05-11T11:52:50Z</time>
      </trkpt>
      <trkpt lat="43.89688" lon="7.36483">
        <ele>1076</ele>
        <time>2013-05-11T11:52:55Z</time>
      </trkpt>
      <trkpt lat="43.89693" lon="7.36495">
        <ele>1077</ele>
        <time>2013-05-11T11:53:00Z</time>
      </trkpt>
      <trkpt lat="43.89699" lon="7.36504">
        <ele>1078</ele>
        <time>2013-05-11T11:53:05Z</time>
      </trkpt>
      <trkpt lat="43.89704" lon="7.36513">
        <ele>1079</ele>
        <time>2013-05-11T11:53:10Z</time>
      </trkpt>
      <trkpt lat="43.89711" lon="7.36522">
        <ele>1081</ele>
        <time>2013-05-11T11:53:15Z</time>
      </trkpt>
      <trkpt lat="43.89717" lon="7.36529">
        <ele>1081</ele>
        <time>2013-05-11T11:53:20Z</time>
      </trkpt>
      <trkpt lat="43.89723" lon="7.36537">
        <ele>1082</ele>
        <time>2013-05-11T11:53:25Z</time>
      </trkpt>
      <trkpt lat="43.89729" lon="7.36547">
        <ele>1083</ele>
        <time>2013-05-11T11:53:30Z</time>
      </trkpt>
      <trkpt lat="43.89733" lon="7.36558">
        <ele>1084</ele>
        <time>2013-05-11T11:53:35Z</time>
      </trkpt>
      <trkpt lat="43.89738" lon="7.36568">
        <ele>1084</ele>
        <time>2013-05-11T11:53:40Z</time>
      </trkpt>
      <trkpt lat="43.89742" lon="7.36578">
        <ele>1085</ele>
        <time>2013-05-11T11:53:45Z</time>
      </trkpt>
      <trkpt lat="43.89746" lon="7.36588">
        <ele>1086</ele>
        <time>2013-05-11T11:53:50Z</time>
      </trkpt>
      <trkpt lat="43.89745" lon="7.36598">
        <ele>1086</ele>
        <time>2013-05-11T11:53:55Z</time>
      </trkpt>
      <trkpt lat="43.8974" lon="7.36607">
        <ele>1088</ele>
        <time>2013-05-11T11:54:01Z</time>
      </trkpt>
      <trkpt lat="43.89742" lon="7.36608">
        <ele>1090</ele>
        <time>2013-05-11T11:54:06Z</time>
      </trkpt>
      <trkpt lat="43.8974" lon="7.36607">
        <ele>1094</ele>
        <time>2013-05-11T11:54:12Z</time>
      </trkpt>
      <trkpt lat="43.89738" lon="7.36608">
        <ele>1095</ele>
        <time>2013-05-11T11:54:25Z</time>
      </trkpt>
      <trkpt lat="43.89737" lon="7.36604">
        <ele>1096</ele>
        <time>2013-05-11T11:54:32Z</time>
      </trkpt>
      <trkpt lat="43.89737" lon="7.36607">
        <ele>1097</ele>
        <time>2013-05-11T11:54:39Z</time>
      </trkpt>
      <trkpt lat="43.89735" lon="7.3661">
        <ele>1097</ele>
        <time>2013-05-11T11:54:44Z</time>
      </trkpt>
      <trkpt lat="43.89728" lon="7.36615">
        <ele>1097</ele>
        <time>2013-05-11T11:54:49Z</time>
      </trkpt>
      <trkpt lat="43.8972" lon="7.3662">
        <ele>1097</ele>
        <time>2013-05-11T11:54:54Z</time>
      </trkpt>
      <trkpt lat="43.89712" lon="7.36624">
        <ele>1097</ele>
        <time>2013-05-11T11:55:00Z</time>
      </trkpt>
      <trkpt lat="43.89705" lon="7.36628">
        <ele>1097</ele>
        <time>2013-05-11T11:55:05Z</time>
      </trkpt>
      <trkpt lat="43.89697" lon="7.36636">
        <ele>1097</ele>
        <time>2013-05-11T11:55:10Z</time>
      </trkpt>
      <trkpt lat="43.8969" lon="7.36641">
        <ele>1097</ele>
        <time>2013-05-11T11:55:15Z</time>
      </trkpt>
      <trkpt lat="43.89682" lon="7.36648">
        <ele>1097</ele>
        <time>2013-05-11T11:55:21Z</time>
      </trkpt>
      <trkpt lat="43.89673" lon="7.36653">
        <ele>1097</ele>
        <time>2013-05-11T11:55:26Z</time>
      </trkpt>
      <trkpt lat="43.89667" lon="7.36658">
        <ele>1097</ele>
        <time>2013-05-11T11:55:31Z</time>
      </trkpt>
      <trkpt lat="43.8966" lon="7.36664">
        <ele>1098</ele>
        <time>2013-05-11T11:55:36Z</time>
      </trkpt>
      <trkpt lat="43.89652" lon="7.36673">
        <ele>1098</ele>
        <time>2013-05-11T11:55:42Z</time>
      </trkpt>
      <trkpt lat="43.89646" lon="7.36678">
        <ele>1098</ele>
        <time>2013-05-11T11:55:47Z</time>
      </trkpt>
      <trkpt lat="43.89638" lon="7.36681">
        <ele>1100</ele>
        <time>2013-05-11T11:55:52Z</time>
      </trkpt>
      <trkpt lat="43.8963" lon="7.36685">
        <ele>1103</ele>
        <time>2013-05-11T11:55:57Z</time>
      </trkpt>
      <trkpt lat="43.89619" lon="7.36687">
        <ele>1109</ele>
        <time>2013-05-11T11:56:03Z</time>
      </trkpt>
      <trkpt lat="43.8961" lon="7.36691">
        <ele>1112</ele>
        <time>2013-05-11T11:56:08Z</time>
      </trkpt>
      <trkpt lat="43.89602" lon="7.36697">
        <ele>1115</ele>
        <time>2013-05-11T11:56:13Z</time>
      </trkpt>
      <trkpt lat="43.89597" lon="7.36706">
        <ele>1115</ele>
        <time>2013-05-11T11:56:18Z</time>
      </trkpt>
      <trkpt lat="43.89592" lon="7.36714">
        <ele>1112</ele>
        <time>2013-05-11T11:56:23Z</time>
      </trkpt>
      <trkpt lat="43.89584" lon="7.36723">
        <ele>1109</ele>
        <time>2013-05-11T11:56:28Z</time>
      </trkpt>
      <trkpt lat="43.89577" lon="7.36732">
        <ele>1105</ele>
        <time>2013-05-11T11:56:33Z</time>
      </trkpt>
      <trkpt lat="43.89567" lon="7.36734">
        <ele>1103</ele>
        <time>2013-05-11T11:56:38Z</time>
      </trkpt>
      <trkpt lat="43.89558" lon="7.36742">
        <ele>1105</ele>
        <time>2013-05-11T11:56:44Z</time>
      </trkpt>
      <trkpt lat="43.8955" lon="7.36749">
        <ele>1106</ele>
        <time>2013-05-11T11:56:49Z</time>
      </trkpt>
      <trkpt lat="43.89542" lon="7.36754">
        <ele>1108</ele>
        <time>2013-05-11T11:56:54Z</time>
      </trkpt>
      <trkpt lat="43.89534" lon="7.36759">
        <ele>1108</ele>
        <time>2013-05-11T11:56:59Z</time>
      </trkpt>
      <trkpt lat="43.89527" lon="7.36767">
        <ele>1109</ele>
        <time>2013-05-11T11:57:04Z</time>
      </trkpt>
      <trkpt lat="43.8952" lon="7.36775">
        <ele>1109</ele>
        <time>2013-05-11T11:57:09Z</time>
      </trkpt>
      <trkpt lat="43.89514" lon="7.36784">
        <ele>1109</ele>
        <time>2013-05-11T11:57:14Z</time>
      </trkpt>
      <trkpt lat="43.89503" lon="7.36792">
        <ele>1109</ele>
        <time>2013-05-11T11:57:20Z</time>
      </trkpt>
      <trkpt lat="43.89495" lon="7.36798">
        <ele>1109</ele>
        <time>2013-05-11T11:57:25Z</time>
      </trkpt>
      <trkpt lat="43.89488" lon="7.36803">
        <ele>1109</ele>
        <time>2013-05-11T11:57:30Z</time>
      </trkpt>
      <trkpt lat="43.89479" lon="7.36809">
        <ele>1112</ele>
        <time>2013-05-11T11:57:35Z</time>
      </trkpt>
      <trkpt lat="43.89471" lon="7.36817">
        <ele>1115</ele>
        <time>2013-05-11T11:57:40Z</time>
      </trkpt>
      <trkpt lat="43.89466" lon="7.36829">
        <ele>1118</ele>
        <time>2013-05-11T11:57:45Z</time>
      </trkpt>
      <trkpt lat="43.89466" lon="7.36841">
        <ele>1118</ele>
        <time>2013-05-11T11:57:50Z</time>
      </trkpt>
      <trkpt lat="43.89467" lon="7.36854">
        <ele>1119</ele>
        <time>2013-05-11T11:57:55Z</time>
      </trkpt>
      <trkpt lat="43.89468" lon="7.36866">
        <ele>1119</ele>
        <time>2013-05-11T11:58:00Z</time>
      </trkpt>
      <trkpt lat="43.8947" lon="7.3688">
        <ele>1120</ele>
        <time>2013-05-11T11:58:06Z</time>
      </trkpt>
      <trkpt lat="43.89473" lon="7.36891">
        <ele>1122</ele>
        <time>2013-05-11T11:58:11Z</time>
      </trkpt>
      <trkpt lat="43.89474" lon="7.36902">
        <ele>1124</ele>
        <time>2013-05-11T11:58:16Z</time>
      </trkpt>
      <trkpt lat="43.89477" lon="7.36913">
        <ele>1126</ele>
        <time>2013-05-11T11:58:21Z</time>
      </trkpt>
      <trkpt lat="43.89479" lon="7.36925">
        <ele>1126</ele>
        <time>2013-05-11T11:58:26Z</time>
      </trkpt>
      <trkpt lat="43.89481" lon="7.36938">
        <ele>1126</ele>
        <time>2013-05-11T11:58:31Z</time>
      </trkpt>
      <trkpt lat="43.89484" lon="7.3695">
        <ele>1127</ele>
        <time>2013-05-11T11:58:36Z</time>
      </trkpt>
      <trkpt lat="43.89489" lon="7.36962">
        <ele>1127</ele>
        <time>2013-05-11T11:58:41Z</time>
      </trkpt>
      <trkpt lat="43.89495" lon="7.36973">
        <ele>1127</ele>
        <time>2013-05-11T11:58:46Z</time>
      </trkpt>
      <trkpt lat="43.89492" lon="7.36986">
        <ele>1127</ele>
        <time>2013-05-11T11:58:51Z</time>
      </trkpt>
      <trkpt lat="43.89483" lon="7.36992">
        <ele>1128</ele>
        <time>2013-05-11T11:58:56Z</time>
      </trkpt>
      <trkpt lat="43.89471" lon="7.36996">
        <ele>1128</ele>
        <time>2013-05-11T11:59:02Z</time>
      </trkpt>
      <trkpt lat="43.89462" lon="7.37">
        <ele>1131</ele>
        <time>2013-05-11T11:59:07Z</time>
      </trkpt>
      <trkpt lat="43.89456" lon="7.37006">
        <ele>1132</ele>
        <time>2013-05-11T11:59:12Z</time>
      </trkpt>
      <trkpt lat="43.89449" lon="7.37014">
        <ele>1132</ele>
        <time>2013-05-11T11:59:17Z</time>
      </trkpt>
      <trkpt lat="43.89441" lon="7.37021">
        <ele>1132</ele>
        <time>2013-05-11T11:59:22Z</time>
      </trkpt>
      <trkpt lat="43.89432" lon="7.37029">
        <ele>1132</ele>
        <time>2013-05-11T11:59:27Z</time>
      </trkpt>
      <trkpt lat="43.89422" lon="7.37038">
        <ele>1132</ele>
        <time>2013-05-11T11:59:33Z</time>
      </trkpt>
      <trkpt lat="43.89415" lon="7.37046">
        <ele>1134</ele>
        <time>2013-05-11T11:59:38Z</time>
      </trkpt>
      <trkpt lat="43.89411" lon="7.37058">
        <ele>1137</ele>
        <time>2013-05-11T11:59:43Z</time>
      </trkpt>
      <trkpt lat="43.89412" lon="7.37074">
        <ele>1138</ele>
        <time>2013-05-11T11:59:48Z</time>
      </trkpt>
      <trkpt lat="43.89416" lon="7.37087">
        <ele>1138</ele>
        <time>2013-05-11T11:59:53Z</time>
      </trkpt>
      <trkpt lat="43.89418" lon="7.37098">
        <ele>1141</ele>
        <time>2013-05-11T11:59:58Z</time>
      </trkpt>
      <trkpt lat="43.89422" lon="7.37112">
        <ele>1142</ele>
        <time>2013-05-11T12:00:03Z</time>
      </trkpt>
      <trkpt lat="43.89425" lon="7.37125">
        <ele>1143</ele>
        <time>2013-05-11T12:00:08Z</time>
      </trkpt>
      <trkpt lat="43.89428" lon="7.37137">
        <ele>1144</ele>
        <time>2013-05-11T12:00:13Z</time>
      </trkpt>
      <trkpt lat="43.89432" lon="7.37147">
        <ele>1146</ele>
        <time>2013-05-11T12:00:18Z</time>
      </trkpt>
      <trkpt lat="43.89435" lon="7.37157">
        <ele>1148</ele>
        <time>2013-05-11T12:00:23Z</time>
      </trkpt>
      <trkpt lat="43.89438" lon="7.37172">
        <ele>1148</ele>
        <time>2013-05-11T12:00:29Z</time>
      </trkpt>
      <trkpt lat="43.89441" lon="7.37186">
        <ele>1148</ele>
        <time>2013-05-11T12:00:34Z</time>
      </trkpt>
      <trkpt lat="43.89444" lon="7.37199">
        <ele>1148</ele>
        <time>2013-05-11T12:00:39Z</time>
      </trkpt>
      <trkpt lat="43.89448" lon="7.37214">
        <ele>1148</ele>
        <time>2013-05-11T12:00:44Z</time>
      </trkpt>
      <trkpt lat="43.89451" lon="7.37227">
        <ele>1148</ele>
        <time>2013-05-11T12:00:49Z</time>
      </trkpt>
      <trkpt lat="43.89449" lon="7.37241">
        <ele>1149</ele>
        <time>2013-05-11T12:00:54Z</time>
      </trkpt>
      <trkpt lat="43.89439" lon="7.37248">
        <ele>1153</ele>
        <time>2013-05-11T12:00:59Z</time>
      </trkpt>
      <trkpt lat="43.89429" lon="7.37254">
        <ele>1155</ele>
        <time>2013-05-11T12:01:04Z</time>
      </trkpt>
      <trkpt lat="43.89421" lon="7.37264">
        <ele>1155</ele>
        <time>2013-05-11T12:01:09Z</time>
      </trkpt>
      <trkpt lat="43.89412" lon="7.37269">
        <ele>1155</ele>
        <time>2013-05-11T12:01:14Z</time>
      </trkpt>
      <trkpt lat="43.89402" lon="7.37274">
        <ele>1159</ele>
        <time>2013-05-11T12:01:19Z</time>
      </trkpt>
      <trkpt lat="43.89393" lon="7.37283">
        <ele>1164</ele>
        <time>2013-05-11T12:01:24Z</time>
      </trkpt>
      <trkpt lat="43.89388" lon="7.37294">
        <ele>1169</ele>
        <time>2013-05-11T12:01:29Z</time>
      </trkpt>
      <trkpt lat="43.89385" lon="7.37307">
        <ele>1169</ele>
        <time>2013-05-11T12:01:34Z</time>
      </trkpt>
      <trkpt lat="43.89379" lon="7.37318">
        <ele>1169</ele>
        <time>2013-05-11T12:01:39Z</time>
      </trkpt>
      <trkpt lat="43.89373" lon="7.37329">
        <ele>1169</ele>
        <time>2013-05-11T12:01:44Z</time>
      </trkpt>
      <trkpt lat="43.89365" lon="7.37337">
        <ele>1169</ele>
        <time>2013-05-11T12:01:49Z</time>
      </trkpt>
      <trkpt lat="43.89356" lon="7.37346">
        <ele>1169</ele>
        <time>2013-05-11T12:01:54Z</time>
      </trkpt>
      <trkpt lat="43.89345" lon="7.37348">
        <ele>1169</ele>
        <time>2013-05-11T12:01:59Z</time>
      </trkpt>
      <trkpt lat="43.89336" lon="7.37355">
        <ele>1169</ele>
        <time>2013-05-11T12:02:04Z</time>
      </trkpt>
      <trkpt lat="43.89326" lon="7.3736">
        <ele>1173</ele>
        <time>2013-05-11T12:02:09Z</time>
      </trkpt>
      <trkpt lat="43.8932" lon="7.37372">
        <ele>1178</ele>
        <time>2013-05-11T12:02:14Z</time>
      </trkpt>
      <trkpt lat="43.89319" lon="7.37388">
        <ele>1179</ele>
        <time>2013-05-11T12:02:19Z</time>
      </trkpt>
      <trkpt lat="43.89312" lon="7.37396">
        <ele>1182</ele>
        <time>2013-05-11T12:02:24Z</time>
      </trkpt>
      <trkpt lat="43.89305" lon="7.37407">
        <ele>1188</ele>
        <time>2013-05-11T12:02:29Z</time>
      </trkpt>
      <trkpt lat="43.893" lon="7.37422">
        <ele>1191</ele>
        <time>2013-05-11T12:02:34Z</time>
      </trkpt>
      <trkpt lat="43.89295" lon="7.37434">
        <ele>1191</ele>
        <time>2013-05-11T12:02:39Z</time>
      </trkpt>
      <trkpt lat="43.89288" lon="7.37442">
        <ele>1187</ele>
        <time>2013-05-11T12:02:44Z</time>
      </trkpt>
      <trkpt lat="43.89281" lon="7.37452">
        <ele>1182</ele>
        <time>2013-05-11T12:02:49Z</time>
      </trkpt>
      <trkpt lat="43.89279" lon="7.37468">
        <ele>1179</ele>
        <time>2013-05-11T12:02:54Z</time>
      </trkpt>
      <trkpt lat="43.89283" lon="7.37487">
        <ele>1178</ele>
        <time>2013-05-11T12:03:00Z</time>
      </trkpt>
      <trkpt lat="43.89288" lon="7.375">
        <ele>1178</ele>
        <time>2013-05-11T12:03:05Z</time>
      </trkpt>
      <trkpt lat="43.89293" lon="7.37513">
        <ele>1178</ele>
        <time>2013-05-11T12:03:10Z</time>
      </trkpt>
      <trkpt lat="43.89297" lon="7.37528">
        <ele>1178</ele>
        <time>2013-05-11T12:03:15Z</time>
      </trkpt>
      <trkpt lat="43.893" lon="7.37544">
        <ele>1178</ele>
        <time>2013-05-11T12:03:20Z</time>
      </trkpt>
      <trkpt lat="43.89303" lon="7.3756">
        <ele>1178</ele>
        <time>2013-05-11T12:03:25Z</time>
      </trkpt>
      <trkpt lat="43.89302" lon="7.37576">
        <ele>1178</ele>
        <time>2013-05-11T12:03:30Z</time>
      </trkpt>
      <trkpt lat="43.89294" lon="7.37596">
        <ele>1178</ele>
        <time>2013-05-11T12:03:36Z</time>
      </trkpt>
      <trkpt lat="43.89285" lon="7.37619">
        <ele>1178</ele>
        <time>2013-05-11T12:03:42Z</time>
      </trkpt>
      <trkpt lat="43.89286" lon="7.37643">
        <ele>1179</ele>
        <time>2013-05-11T12:03:48Z</time>
      </trkpt>
      <trkpt lat="43.89289" lon="7.37661">
        <ele>1180</ele>
        <time>2013-05-11T12:03:53Z</time>
      </trkpt>
      <trkpt lat="43.89291" lon="7.37682">
        <ele>1181</ele>
        <time>2013-05-11T12:03:58Z</time>
      </trkpt>
      <trkpt lat="43.89294" lon="7.37708">
        <ele>1181</ele>
        <time>2013-05-11T12:04:03Z</time>
      </trkpt>
      <trkpt lat="43.89301" lon="7.3774">
        <ele>1181</ele>
        <time>2013-05-11T12:04:08Z</time>
      </trkpt>
      <trkpt lat="43.8931" lon="7.37788">
        <ele>1181</ele>
        <time>2013-05-11T12:04:14Z</time>
      </trkpt>
      <trkpt lat="43.89323" lon="7.37839">
        <ele>1179</ele>
        <time>2013-05-11T12:04:19Z</time>
      </trkpt>
      <trkpt lat="43.89333" lon="7.379">
        <ele>1175</ele>
        <time>2013-05-11T12:04:24Z</time>
      </trkpt>
      <trkpt lat="43.89343" lon="7.37965">
        <ele>1172</ele>
        <time>2013-05-11T12:04:29Z</time>
      </trkpt>
      <trkpt lat="43.89358" lon="7.38026">
        <ele>1168</ele>
        <time>2013-05-11T12:04:34Z</time>
      </trkpt>
      <trkpt lat="43.89346" lon="7.38072">
        <ele>1165</ele>
        <time>2013-05-11T12:04:39Z</time>
      </trkpt>
      <trkpt lat="43.89365" lon="7.38126">
        <ele>1162</ele>
        <time>2013-05-11T12:04:44Z</time>
      </trkpt>
      <trkpt lat="43.89367" lon="7.38167">
        <ele>1160</ele>
        <time>2013-05-11T12:04:49Z</time>
      </trkpt>
      <trkpt lat="43.89351" lon="7.38189">
        <ele>1158</ele>
        <time>2013-05-11T12:04:54Z</time>
      </trkpt>
      <trkpt lat="43.89341" lon="7.38204">
        <ele>1157</ele>
        <time>2013-05-11T12:04:59Z</time>
      </trkpt>
      <trkpt lat="43.89334" lon="7.38202">
        <ele>1155</ele>
        <time>2013-05-11T12:05:08Z</time>
      </trkpt>
      <trkpt lat="43.89334" lon="7.382">
        <ele>1155</ele>
        <time>2013-05-11T12:05:15Z</time>
      </trkpt>
      <trkpt lat="43.89336" lon="7.38207">
        <ele>1155</ele>
        <time>2013-05-11T12:05:20Z</time>
      </trkpt>
      <trkpt lat="43.89333" lon="7.38212">
        <ele>1155</ele>
        <time>2013-05-11T12:05:26Z</time>
      </trkpt>
      <trkpt lat="43.89328" lon="7.38212">
        <ele>1155</ele>
        <time>2013-05-11T12:05:31Z</time>
      </trkpt>
      <trkpt lat="43.89323" lon="7.38209">
        <ele>1153</ele>
        <time>2013-05-11T12:05:37Z</time>
      </trkpt>
      <trkpt lat="43.89322" lon="7.3821">
        <ele>1153</ele>
        <time>2013-05-11T12:05:42Z</time>
      </trkpt>
      <trkpt lat="43.89323" lon="7.38211">
        <ele>1152</ele>
        <time>2013-05-11T12:05:48Z</time>
      </trkpt>
      <trkpt lat="43.89325" lon="7.38208">
        <ele>1152</ele>
        <time>2013-05-11T12:05:54Z</time>
      </trkpt>
      <trkpt lat="43.89328" lon="7.38206">
        <ele>1152</ele>
        <time>2013-05-11T12:05:59Z</time>
      </trkpt>
      <trkpt lat="43.89331" lon="7.38207">
        <ele>1152</ele>
        <time>2013-05-11T12:06:05Z</time>
      </trkpt>
      <trkpt lat="43.89334" lon="7.38209">
        <ele>1152</ele>
        <time>2013-05-11T12:06:11Z</time>
      </trkpt>
      <trkpt lat="43.8934" lon="7.38213">
        <ele>1152</ele>
        <time>2013-05-11T12:06:17Z</time>
      </trkpt>
      <trkpt lat="43.8934" lon="7.38221">
        <ele>1152</ele>
        <time>2013-05-11T12:06:22Z</time>
      </trkpt>
      <trkpt lat="43.89339" lon="7.38229">
        <ele>1152</ele>
        <time>2013-05-11T12:06:27Z</time>
      </trkpt>
      <trkpt lat="43.89338" lon="7.38237">
        <ele>1152</ele>
        <time>2013-05-11T12:06:33Z</time>
      </trkpt>
      <trkpt lat="43.89337" lon="7.38245">
        <ele>1152</ele>
        <time>2013-05-11T12:06:39Z</time>
      </trkpt>
      <trkpt lat="43.89332" lon="7.3825">
        <ele>1153</ele>
        <time>2013-05-11T12:06:45Z</time>
      </trkpt>
      <trkpt lat="43.89328" lon="7.38254">
        <ele>1154</ele>
        <time>2013-05-11T12:06:51Z</time>
      </trkpt>
      <trkpt lat="43.89324" lon="7.38255">
        <ele>1155</ele>
        <time>2013-05-11T12:06:57Z</time>
      </trkpt>
      <trkpt lat="43.8932" lon="7.38253">
        <ele>1155</ele>
        <time>2013-05-11T12:07:03Z</time>
      </trkpt>
      <trkpt lat="43.89317" lon="7.38253">
        <ele>1155</ele>
        <time>2013-05-11T12:07:08Z</time>
      </trkpt>
      <trkpt lat="43.89316" lon="7.38253">
        <ele>1154</ele>
        <time>2013-05-11T12:07:18Z</time>
      </trkpt>
      <trkpt lat="43.8932" lon="7.38248">
        <ele>1154</ele>
        <time>2013-05-11T12:07:24Z</time>
      </trkpt>
      <trkpt lat="43.89325" lon="7.3825">
        <ele>1154</ele>
        <time>2013-05-11T12:07:30Z</time>
      </trkpt>
      <trkpt lat="43.89329" lon="7.38249">
        <ele>1154</ele>
        <time>2013-05-11T12:07:36Z</time>
      </trkpt>
      <trkpt lat="43.89333" lon="7.38246">
        <ele>1154</ele>
        <time>2013-05-11T12:07:41Z</time>
      </trkpt>
      <trkpt lat="43.89335" lon="7.38241">
        <ele>1154</ele>
        <time>2013-05-11T12:07:46Z</time>
      </trkpt>
      <trkpt lat="43.89337" lon="7.38233">
        <ele>1154</ele>
        <time>2013-05-11T12:07:51Z</time>
      </trkpt>
      <trkpt lat="43.89337" lon="7.38223">
        <ele>1154</ele>
        <time>2013-05-11T12:07:56Z</time>
      </trkpt>
      <trkpt lat="43.89337" lon="7.38213">
        <ele>1154</ele>
        <time>2013-05-11T12:08:01Z</time>
      </trkpt>
      <trkpt lat="43.89336" lon="7.38203">
        <ele>1154</ele>
        <time>2013-05-11T12:08:07Z</time>
      </trkpt>
      <trkpt lat="43.89337" lon="7.38194">
        <ele>1154</ele>
        <time>2013-05-11T12:08:12Z</time>
      </trkpt>
      <trkpt lat="43.89336" lon="7.38186">
        <ele>1154</ele>
        <time>2013-05-11T12:08:17Z</time>
      </trkpt>
      <trkpt lat="43.89337" lon="7.38178">
        <ele>1154</ele>
        <time>2013-05-11T12:08:22Z</time>
      </trkpt>
      <trkpt lat="43.89334" lon="7.38176">
        <ele>1154</ele>
        <time>2013-05-11T12:08:28Z</time>
      </trkpt>
      <trkpt lat="43.89328" lon="7.38174">
        <ele>1152</ele>
        <time>2013-05-11T12:08:34Z</time>
      </trkpt>
      <trkpt lat="43.8932" lon="7.38175">
        <ele>1150</ele>
        <time>2013-05-11T12:08:40Z</time>
      </trkpt>
      <trkpt lat="43.89314" lon="7.38171">
        <ele>1148</ele>
        <time>2013-05-11T12:08:45Z</time>
      </trkpt>
      <trkpt lat="43.8931" lon="7.38174">
        <ele>1147</ele>
        <time>2013-05-11T12:08:51Z</time>
      </trkpt>
      <trkpt lat="43.89309" lon="7.3818">
        <ele>1145</ele>
        <time>2013-05-11T12:08:59Z</time>
      </trkpt>
      <trkpt lat="43.89305" lon="7.38186">
        <ele>1145</ele>
        <time>2013-05-11T12:09:06Z</time>
      </trkpt>
      <trkpt lat="43.89305" lon="7.38187">
        <ele>1145</ele>
        <time>2013-05-11T12:09:12Z</time>
      </trkpt>
      <trkpt lat="43.8931" lon="7.38186">
        <ele>1145</ele>
        <time>2013-05-11T12:09:18Z</time>
      </trkpt>
      <trkpt lat="43.89315" lon="7.38182">
        <ele>1145</ele>
        <time>2013-05-11T12:09:24Z</time>
      </trkpt>
      <trkpt lat="43.89319" lon="7.38178">
        <ele>1145</ele>
        <time>2013-05-11T12:09:31Z</time>
      </trkpt>
      <trkpt lat="43.89322" lon="7.38175">
        <ele>1145</ele>
        <time>2013-05-11T12:09:36Z</time>
      </trkpt>
      <trkpt lat="43.89328" lon="7.38176">
        <ele>1145</ele>
        <time>2013-05-11T12:09:41Z</time>
      </trkpt>
      <trkpt lat="43.89332" lon="7.38177">
        <ele>1145</ele>
        <time>2013-05-11T12:09:46Z</time>
      </trkpt>
      <trkpt lat="43.89338" lon="7.38183">
        <ele>1146</ele>
        <time>2013-05-11T12:09:52Z</time>
      </trkpt>
      <trkpt lat="43.89339" lon="7.38191">
        <ele>1148</ele>
        <time>2013-05-11T12:09:58Z</time>
      </trkpt>
      <trkpt lat="43.8934" lon="7.38197">
        <ele>1148</ele>
        <time>2013-05-11T12:10:04Z</time>
      </trkpt>
      <trkpt lat="43.89339" lon="7.38197">
        <ele>1149</ele>
        <time>2013-05-11T12:10:24Z</time>
      </trkpt>
      <trkpt lat="43.89341" lon="7.38197">
        <ele>1150</ele>
        <time>2013-05-11T12:10:37Z</time>
      </trkpt>
      <trkpt lat="43.8934" lon="7.38198">
        <ele>1150</ele>
        <time>2013-05-11T12:10:46Z</time>
      </trkpt>
      <trkpt lat="43.89339" lon="7.38201">
        <ele>1150</ele>
        <time>2013-05-11T12:10:54Z</time>
      </trkpt>
      <trkpt lat="43.89339" lon="7.382">
        <ele>1150</ele>
        <time>2013-05-11T12:11:01Z</time>
      </trkpt>
      <trkpt lat="43.89345" lon="7.38193">
        <ele>1150</ele>
        <time>2013-05-11T12:11:07Z</time>
      </trkpt>
      <trkpt lat="43.8935" lon="7.38186">
        <ele>1150</ele>
        <time>2013-05-11T12:11:12Z</time>
      </trkpt>
      <trkpt lat="43.89352" lon="7.3818">
        <ele>1150</ele>
        <time>2013-05-11T12:11:17Z</time>
      </trkpt>
      <trkpt lat="43.89352" lon="7.38181">
        <ele>1150</ele>
        <time>2013-05-11T12:11:31Z</time>
      </trkpt>
      <trkpt lat="43.89351" lon="7.38189">
        <ele>1150</ele>
        <time>2013-05-11T12:11:36Z</time>
      </trkpt>
      <trkpt lat="43.89352" lon="7.38197">
        <ele>1150</ele>
        <time>2013-05-11T12:11:41Z</time>
      </trkpt>
      <trkpt lat="43.89354" lon="7.38205">
        <ele>1150</ele>
        <time>2013-05-11T12:11:46Z</time>
      </trkpt>
      <trkpt lat="43.89356" lon="7.38212">
        <ele>1150</ele>
        <time>2013-05-11T12:11:51Z</time>
      </trkpt>
      <trkpt lat="43.89358" lon="7.38222">
        <ele>1150</ele>
        <time>2013-05-11T12:11:56Z</time>
      </trkpt>
      <trkpt lat="43.89359" lon="7.38227">
        <ele>1150</ele>
        <time>2013-05-11T12:12:01Z</time>
      </trkpt>
      <trkpt lat="43.89355" lon="7.38221">
        <ele>1149</ele>
        <time>2013-05-11T12:12:07Z</time>
      </trkpt>
      <trkpt lat="43.89353" lon="7.38213">
        <ele>1149</ele>
        <time>2013-05-11T12:12:12Z</time>
      </trkpt>
      <trkpt lat="43.89347" lon="7.38205">
        <ele>1149</ele>
        <time>2013-05-11T12:12:19Z</time>
      </trkpt>
      <trkpt lat="43.89341" lon="7.38201">
        <ele>1149</ele>
        <time>2013-05-11T12:12:25Z</time>
      </trkpt>
      <trkpt lat="43.89335" lon="7.38202">
        <ele>1149</ele>
        <time>2013-05-11T12:12:31Z</time>
      </trkpt>
      <trkpt lat="43.89334" lon="7.382">
        <ele>1149</ele>
        <time>2013-05-11T12:12:36Z</time>
      </trkpt>
      <trkpt lat="43.89338" lon="7.38205">
        <ele>1149</ele>
        <time>2013-05-11T12:12:42Z</time>
      </trkpt>
      <trkpt lat="43.89339" lon="7.38214">
        <ele>1150</ele>
        <time>2013-05-11T12:12:48Z</time>
      </trkpt>
      <trkpt lat="43.89338" lon="7.38221">
        <ele>1151</ele>
        <time>2013-05-11T12:12:53Z</time>
      </trkpt>
      <trkpt lat="43.89338" lon="7.38229">
        <ele>1152</ele>
        <time>2013-05-11T12:12:58Z</time>
      </trkpt>
      <trkpt lat="43.89337" lon="7.38236">
        <ele>1154</ele>
        <time>2013-05-11T12:13:03Z</time>
      </trkpt>
      <trkpt lat="43.89336" lon="7.38242">
        <ele>1155</ele>
        <time>2013-05-11T12:13:08Z</time>
      </trkpt>
      <trkpt lat="43.89334" lon="7.38249">
        <ele>1156</ele>
        <time>2013-05-11T12:13:14Z</time>
      </trkpt>
      <trkpt lat="43.89329" lon="7.38252">
        <ele>1157</ele>
        <time>2013-05-11T12:13:20Z</time>
      </trkpt>
      <trkpt lat="43.89326" lon="7.38254">
        <ele>1158</ele>
        <time>2013-05-11T12:13:25Z</time>
      </trkpt>
      <trkpt lat="43.89328" lon="7.38258">
        <ele>1158</ele>
        <time>2013-05-11T12:13:30Z</time>
      </trkpt>
      <trkpt lat="43.89329" lon="7.38264">
        <ele>1160</ele>
        <time>2013-05-11T12:13:35Z</time>
      </trkpt>
      <trkpt lat="43.89328" lon="7.38268">
        <ele>1161</ele>
        <time>2013-05-11T12:13:40Z</time>
      </trkpt>
      <trkpt lat="43.89327" lon="7.38271">
        <ele>1163</ele>
        <time>2013-05-11T12:13:45Z</time>
      </trkpt>
      <trkpt lat="43.89327" lon="7.38274">
        <ele>1163</ele>
        <time>2013-05-11T12:13:50Z</time>
      </trkpt>
      <trkpt lat="43.89328" lon="7.38279">
        <ele>1165</ele>
        <time>2013-05-11T12:13:56Z</time>
      </trkpt>
      <trkpt lat="43.89327" lon="7.38283">
        <ele>1166</ele>
        <time>2013-05-11T12:14:01Z</time>
      </trkpt>
      <trkpt lat="43.89328" lon="7.38288">
        <ele>1167</ele>
        <time>2013-05-11T12:14:07Z</time>
      </trkpt>
      <trkpt lat="43.89328" lon="7.38293">
        <ele>1168</ele>
        <time>2013-05-11T12:14:13Z</time>
      </trkpt>
      <trkpt lat="43.89328" lon="7.38296">
        <ele>1171</ele>
        <time>2013-05-11T12:14:18Z</time>
      </trkpt>
      <trkpt lat="43.89328" lon="7.383">
        <ele>1174</ele>
        <time>2013-05-11T12:14:26Z</time>
      </trkpt>
      <trkpt lat="43.8933" lon="7.38303">
        <ele>1176</ele>
        <time>2013-05-11T12:14:32Z</time>
      </trkpt>
      <trkpt lat="43.89331" lon="7.38309">
        <ele>1177</ele>
        <time>2013-05-11T12:14:38Z</time>
      </trkpt>
      <trkpt lat="43.89331" lon="7.38315">
        <ele>1178</ele>
        <time>2013-05-11T12:14:43Z</time>
      </trkpt>
      <trkpt lat="43.89333" lon="7.38321">
        <ele>1178</ele>
        <time>2013-05-11T12:14:48Z</time>
      </trkpt>
      <trkpt lat="43.89335" lon="7.38324">
        <ele>1178</ele>
        <time>2013-05-11T12:14:53Z</time>
      </trkpt>
      <trkpt lat="43.89336" lon="7.38328">
        <ele>1178</ele>
        <time>2013-05-11T12:14:58Z</time>
      </trkpt>
      <trkpt lat="43.89335" lon="7.38332">
        <ele>1181</ele>
        <time>2013-05-11T12:15:04Z</time>
      </trkpt>
      <trkpt lat="43.89336" lon="7.38335">
        <ele>1183</ele>
        <time>2013-05-11T12:15:09Z</time>
      </trkpt>
      <trkpt lat="43.89337" lon="7.38343">
        <ele>1183</ele>
        <time>2013-05-11T12:15:15Z</time>
      </trkpt>
      <trkpt lat="43.89336" lon="7.38347">
        <ele>1183</ele>
        <time>2013-05-11T12:15:20Z</time>
      </trkpt>
      <trkpt lat="43.89335" lon="7.38354">
        <ele>1183</ele>
        <time>2013-05-11T12:15:26Z</time>
      </trkpt>
      <trkpt lat="43.89334" lon="7.3836">
        <ele>1183</ele>
        <time>2013-05-11T12:15:32Z</time>
      </trkpt>
      <trkpt lat="43.89333" lon="7.38361">
        <ele>1183</ele>
        <time>2013-05-11T12:15:46Z</time>
      </trkpt>
      <trkpt lat="43.89331" lon="7.3836">
        <ele>1184</ele>
        <time>2013-05-11T12:15:53Z</time>
      </trkpt>
      <trkpt lat="43.89328" lon="7.38358">
        <ele>1185</ele>
        <time>2013-05-11T12:16:00Z</time>
      </trkpt>
      <trkpt lat="43.89325" lon="7.38357">
        <ele>1186</ele>
        <time>2013-05-11T12:16:07Z</time>
      </trkpt>
      <trkpt lat="43.89321" lon="7.38352">
        <ele>1187</ele>
        <time>2013-05-11T12:16:13Z</time>
      </trkpt>
      <trkpt lat="43.89319" lon="7.3835">
        <ele>1187</ele>
        <time>2013-05-11T12:16:18Z</time>
      </trkpt>
      <trkpt lat="43.89311" lon="7.38346">
        <ele>1187</ele>
        <time>2013-05-11T12:16:24Z</time>
      </trkpt>
      <trkpt lat="43.89305" lon="7.38349">
        <ele>1187</ele>
        <time>2013-05-11T12:16:29Z</time>
      </trkpt>
      <trkpt lat="43.89298" lon="7.38352">
        <ele>1187</ele>
        <time>2013-05-11T12:16:34Z</time>
      </trkpt>
      <trkpt lat="43.89291" lon="7.38356">
        <ele>1187</ele>
        <time>2013-05-11T12:16:39Z</time>
      </trkpt>
      <trkpt lat="43.89284" lon="7.38357">
        <ele>1189</ele>
        <time>2013-05-11T12:16:44Z</time>
      </trkpt>
      <trkpt lat="43.89275" lon="7.38358">
        <ele>1190</ele>
        <time>2013-05-11T12:16:50Z</time>
      </trkpt>
      <trkpt lat="43.89266" lon="7.38359">
        <ele>1190</ele>
        <time>2013-05-11T12:16:55Z</time>
      </trkpt>
      <trkpt lat="43.89258" lon="7.38356">
        <ele>1190</ele>
        <time>2013-05-11T12:17:00Z</time>
      </trkpt>
      <trkpt lat="43.8925" lon="7.38353">
        <ele>1190</ele>
        <time>2013-05-11T12:17:05Z</time>
      </trkpt>
      <trkpt lat="43.89243" lon="7.3835">
        <ele>1190</ele>
        <time>2013-05-11T12:17:10Z</time>
      </trkpt>
      <trkpt lat="43.89236" lon="7.38346">
        <ele>1191</ele>
        <time>2013-05-11T12:17:15Z</time>
      </trkpt>
      <trkpt lat="43.89231" lon="7.38341">
        <ele>1193</ele>
        <time>2013-05-11T12:17:20Z</time>
      </trkpt>
      <trkpt lat="43.89226" lon="7.38335">
        <ele>1197</ele>
        <time>2013-05-11T12:17:25Z</time>
      </trkpt>
      <trkpt lat="43.8922" lon="7.38327">
        <ele>1201</ele>
        <time>2013-05-11T12:17:30Z</time>
      </trkpt>
      <trkpt lat="43.89217" lon="7.38319">
        <ele>1204</ele>
        <time>2013-05-11T12:17:35Z</time>
      </trkpt>
      <trkpt lat="43.89208" lon="7.38311">
        <ele>1206</ele>
        <time>2013-05-11T12:17:40Z</time>
      </trkpt>
      <trkpt lat="43.89201" lon="7.38305">
        <ele>1208</ele>
        <time>2013-05-11T12:17:46Z</time>
      </trkpt>
      <trkpt lat="43.89197" lon="7.38302">
        <ele>1208</ele>
        <time>2013-05-11T12:17:51Z</time>
      </trkpt>
      <trkpt lat="43.89187" lon="7.38295">
        <ele>1208</ele>
        <time>2013-05-11T12:17:56Z</time>
      </trkpt>
      <trkpt lat="43.89178" lon="7.38288">
        <ele>1208</ele>
        <time>2013-05-11T12:18:01Z</time>
      </trkpt>
      <trkpt lat="43.8917" lon="7.38282">
        <ele>1208</ele>
        <time>2013-05-11T12:18:06Z</time>
      </trkpt>
      <trkpt lat="43.89163" lon="7.3828">
        <ele>1209</ele>
        <time>2013-05-11T12:18:11Z</time>
      </trkpt>
      <trkpt lat="43.89156" lon="7.38275">
        <ele>1210</ele>
        <time>2013-05-11T12:18:16Z</time>
      </trkpt>
      <trkpt lat="43.89149" lon="7.38271">
        <ele>1213</ele>
        <time>2013-05-11T12:18:21Z</time>
      </trkpt>
      <trkpt lat="43.8914" lon="7.38268">
        <ele>1213</ele>
        <time>2013-05-11T12:18:26Z</time>
      </trkpt>
      <trkpt lat="43.89132" lon="7.38267">
        <ele>1216</ele>
        <time>2013-05-11T12:18:31Z</time>
      </trkpt>
      <trkpt lat="43.89123" lon="7.3826">
        <ele>1217</ele>
        <time>2013-05-11T12:18:36Z</time>
      </trkpt>
      <trkpt lat="43.89115" lon="7.38254">
        <ele>1217</ele>
        <time>2013-05-11T12:18:41Z</time>
      </trkpt>
      <trkpt lat="43.89107" lon="7.38247">
        <ele>1218</ele>
        <time>2013-05-11T12:18:46Z</time>
      </trkpt>
      <trkpt lat="43.891" lon="7.38241">
        <ele>1219</ele>
        <time>2013-05-11T12:18:51Z</time>
      </trkpt>
      <trkpt lat="43.89093" lon="7.38236">
        <ele>1219</ele>
        <time>2013-05-11T12:18:56Z</time>
      </trkpt>
      <trkpt lat="43.89085" lon="7.38232">
        <ele>1220</ele>
        <time>2013-05-11T12:19:01Z</time>
      </trkpt>
      <trkpt lat="43.89078" lon="7.38229">
        <ele>1220</ele>
        <time>2013-05-11T12:19:06Z</time>
      </trkpt>
      <trkpt lat="43.8907" lon="7.38227">
        <ele>1220</ele>
        <time>2013-05-11T12:19:11Z</time>
      </trkpt>
      <trkpt lat="43.89063" lon="7.38228">
        <ele>1220</ele>
        <time>2013-05-11T12:19:16Z</time>
      </trkpt>
      <trkpt lat="43.89056" lon="7.38233">
        <ele>1221</ele>
        <time>2013-05-11T12:19:21Z</time>
      </trkpt>
      <trkpt lat="43.89053" lon="7.38242">
        <ele>1221</ele>
        <time>2013-05-11T12:19:26Z</time>
      </trkpt>
      <trkpt lat="43.89046" lon="7.38252">
        <ele>1222</ele>
        <time>2013-05-11T12:19:32Z</time>
      </trkpt>
      <trkpt lat="43.89043" lon="7.38257">
        <ele>1222</ele>
        <time>2013-05-11T12:19:38Z</time>
      </trkpt>
      <trkpt lat="43.8904" lon="7.3826">
        <ele>1222</ele>
        <time>2013-05-11T12:19:43Z</time>
      </trkpt>
      <trkpt lat="43.89035" lon="7.3826">
        <ele>1223</ele>
        <time>2013-05-11T12:19:48Z</time>
      </trkpt>
      <trkpt lat="43.89026" lon="7.38262">
        <ele>1223</ele>
        <time>2013-05-11T12:19:53Z</time>
      </trkpt>
      <trkpt lat="43.89019" lon="7.38256">
        <ele>1225</ele>
        <time>2013-05-11T12:19:58Z</time>
      </trkpt>
      <trkpt lat="43.8901" lon="7.38248">
        <ele>1227</ele>
        <time>2013-05-11T12:20:03Z</time>
      </trkpt>
      <trkpt lat="43.89001" lon="7.38245">
        <ele>1227</ele>
        <time>2013-05-11T12:20:08Z</time>
      </trkpt>
      <trkpt lat="43.88992" lon="7.38246">
        <ele>1227</ele>
        <time>2013-05-11T12:20:13Z</time>
      </trkpt>
      <trkpt lat="43.88985" lon="7.38255">
        <ele>1228</ele>
        <time>2013-05-11T12:20:18Z</time>
      </trkpt>
      <trkpt lat="43.88979" lon="7.38265">
        <ele>1228</ele>
        <time>2013-05-11T12:20:24Z</time>
      </trkpt>
      <trkpt lat="43.88972" lon="7.38271">
        <ele>1229</ele>
        <time>2013-05-11T12:20:29Z</time>
      </trkpt>
      <trkpt lat="43.88964" lon="7.38273">
        <ele>1230</ele>
        <time>2013-05-11T12:20:34Z</time>
      </trkpt>
      <trkpt lat="43.88956" lon="7.3827">
        <ele>1231</ele>
        <time>2013-05-11T12:20:39Z</time>
      </trkpt>
      <trkpt lat="43.88947" lon="7.38275">
        <ele>1232</ele>
        <time>2013-05-11T12:20:44Z</time>
      </trkpt>
      <trkpt lat="43.88942" lon="7.38278">
        <ele>1233</ele>
        <time>2013-05-11T12:20:51Z</time>
      </trkpt>
      <trkpt lat="43.88935" lon="7.38273">
        <ele>1234</ele>
        <time>2013-05-11T12:20:56Z</time>
      </trkpt>
      <trkpt lat="43.88927" lon="7.38274">
        <ele>1234</ele>
        <time>2013-05-11T12:21:01Z</time>
      </trkpt>
      <trkpt lat="43.88918" lon="7.38271">
        <ele>1235</ele>
        <time>2013-05-11T12:21:06Z</time>
      </trkpt>
      <trkpt lat="43.88908" lon="7.38269">
        <ele>1236</ele>
        <time>2013-05-11T12:21:11Z</time>
      </trkpt>
      <trkpt lat="43.889" lon="7.38267">
        <ele>1237</ele>
        <time>2013-05-11T12:21:16Z</time>
      </trkpt>
      <trkpt lat="43.88892" lon="7.38261">
        <ele>1239</ele>
        <time>2013-05-11T12:21:21Z</time>
      </trkpt>
      <trkpt lat="43.88884" lon="7.38255">
        <ele>1241</ele>
        <time>2013-05-11T12:21:26Z</time>
      </trkpt>
      <trkpt lat="43.88875" lon="7.38248">
        <ele>1241</ele>
        <time>2013-05-11T12:21:31Z</time>
      </trkpt>
      <trkpt lat="43.88865" lon="7.38242">
        <ele>1241</ele>
        <time>2013-05-11T12:21:36Z</time>
      </trkpt>
      <trkpt lat="43.88853" lon="7.3824">
        <ele>1241</ele>
        <time>2013-05-11T12:21:41Z</time>
      </trkpt>
      <trkpt lat="43.88843" lon="7.3824">
        <ele>1241</ele>
        <time>2013-05-11T12:21:46Z</time>
      </trkpt>
      <trkpt lat="43.88834" lon="7.38237">
        <ele>1241</ele>
        <time>2013-05-11T12:21:51Z</time>
      </trkpt>
      <trkpt lat="43.88824" lon="7.38234">
        <ele>1241</ele>
        <time>2013-05-11T12:21:56Z</time>
      </trkpt>
      <trkpt lat="43.88813" lon="7.38234">
        <ele>1241</ele>
        <time>2013-05-11T12:22:01Z</time>
      </trkpt>
      <trkpt lat="43.88796" lon="7.3824">
        <ele>1241</ele>
        <time>2013-05-11T12:22:06Z</time>
      </trkpt>
      <trkpt lat="43.88774" lon="7.38249">
        <ele>1241</ele>
        <time>2013-05-11T12:22:11Z</time>
      </trkpt>
      <trkpt lat="43.88749" lon="7.38257">
        <ele>1241</ele>
        <time>2013-05-11T12:22:16Z</time>
      </trkpt>
      <trkpt lat="43.88723" lon="7.38269">
        <ele>1241</ele>
        <time>2013-05-11T12:22:21Z</time>
      </trkpt>
      <trkpt lat="43.88693" lon="7.3827">
        <ele>1241</ele>
        <time>2013-05-11T12:22:26Z</time>
      </trkpt>
      <trkpt lat="43.88658" lon="7.38274">
        <ele>1238</ele>
        <time>2013-05-11T12:22:31Z</time>
      </trkpt>
      <trkpt lat="43.88625" lon="7.38278">
        <ele>1235</ele>
        <time>2013-05-11T12:22:36Z</time>
      </trkpt>
      <trkpt lat="43.88596" lon="7.3827">
        <ele>1234</ele>
        <time>2013-05-11T12:22:41Z</time>
      </trkpt>
      <trkpt lat="43.88575" lon="7.38258">
        <ele>1233</ele>
        <time>2013-05-11T12:22:46Z</time>
      </trkpt>
      <trkpt lat="43.88557" lon="7.38234">
        <ele>1231</ele>
        <time>2013-05-11T12:22:51Z</time>
      </trkpt>
      <trkpt lat="43.88536" lon="7.38211">
        <ele>1228</ele>
        <time>2013-05-11T12:22:56Z</time>
      </trkpt>
      <trkpt lat="43.88518" lon="7.38215">
        <ele>1225</ele>
        <time>2013-05-11T12:23:01Z</time>
      </trkpt>
      <trkpt lat="43.88498" lon="7.38227">
        <ele>1224</ele>
        <time>2013-05-11T12:23:06Z</time>
      </trkpt>
      <trkpt lat="43.88485" lon="7.38238">
        <ele>1223</ele>
        <time>2013-05-11T12:23:11Z</time>
      </trkpt>
      <trkpt lat="43.88472" lon="7.38252">
        <ele>1222</ele>
        <time>2013-05-11T12:23:16Z</time>
      </trkpt>
      <trkpt lat="43.88452" lon="7.38244">
        <ele>1222</ele>
        <time>2013-05-11T12:23:21Z</time>
      </trkpt>
      <trkpt lat="43.8843" lon="7.38234">
        <ele>1222</ele>
        <time>2013-05-11T12:23:26Z</time>
      </trkpt>
      <trkpt lat="43.88419" lon="7.38241">
        <ele>1222</ele>
        <time>2013-05-11T12:23:31Z</time>
      </trkpt>
      <trkpt lat="43.8841" lon="7.38246">
        <ele>1222</ele>
        <time>2013-05-11T12:23:36Z</time>
      </trkpt>
      <trkpt lat="43.88402" lon="7.38247">
        <ele>1222</ele>
        <time>2013-05-11T12:23:41Z</time>
      </trkpt>
      <trkpt lat="43.884" lon="7.38247">
        <ele>1222</ele>
        <time>2013-05-11T12:23:46Z</time>
      </trkpt>
      <trkpt lat="43.88392" lon="7.38246">
        <ele>1223</ele>
        <time>2013-05-11T12:23:51Z</time>
      </trkpt>
      <trkpt lat="43.88384" lon="7.3825">
        <ele>1225</ele>
        <time>2013-05-11T12:23:56Z</time>
      </trkpt>
      <trkpt lat="43.88377" lon="7.38255">
        <ele>1226</ele>
        <time>2013-05-11T12:24:01Z</time>
      </trkpt>
      <trkpt lat="43.88369" lon="7.38259">
        <ele>1227</ele>
        <time>2013-05-11T12:24:06Z</time>
      </trkpt>
      <trkpt lat="43.88363" lon="7.38266">
        <ele>1227</ele>
        <time>2013-05-11T12:24:11Z</time>
      </trkpt>
      <trkpt lat="43.88358" lon="7.38274">
        <ele>1228</ele>
        <time>2013-05-11T12:24:17Z</time>
      </trkpt>
      <trkpt lat="43.88354" lon="7.38284">
        <ele>1228</ele>
        <time>2013-05-11T12:24:22Z</time>
      </trkpt>
      <trkpt lat="43.88352" lon="7.38289">
        <ele>1228</ele>
        <time>2013-05-11T12:24:28Z</time>
      </trkpt>
      <trkpt lat="43.88349" lon="7.38295">
        <ele>1228</ele>
        <time>2013-05-11T12:24:33Z</time>
      </trkpt>
      <trkpt lat="43.88345" lon="7.383">
        <ele>1228</ele>
        <time>2013-05-11T12:24:38Z</time>
      </trkpt>
      <trkpt lat="43.8834" lon="7.38297">
        <ele>1229</ele>
        <time>2013-05-11T12:24:43Z</time>
      </trkpt>
      <trkpt lat="43.88335" lon="7.38295">
        <ele>1231</ele>
        <time>2013-05-11T12:24:51Z</time>
      </trkpt>
      <trkpt lat="43.88327" lon="7.38294">
        <ele>1231</ele>
        <time>2013-05-11T12:24:56Z</time>
      </trkpt>
      <trkpt lat="43.88318" lon="7.38293">
        <ele>1232</ele>
        <time>2013-05-11T12:25:01Z</time>
      </trkpt>
      <trkpt lat="43.88309" lon="7.38296">
        <ele>1233</ele>
        <time>2013-05-11T12:25:06Z</time>
      </trkpt>
      <trkpt lat="43.88301" lon="7.38299">
        <ele>1234</ele>
        <time>2013-05-11T12:25:11Z</time>
      </trkpt>
      <trkpt lat="43.88293" lon="7.38301">
        <ele>1235</ele>
        <time>2013-05-11T12:25:16Z</time>
      </trkpt>
      <trkpt lat="43.88279" lon="7.38303">
        <ele>1236</ele>
        <time>2013-05-11T12:25:21Z</time>
      </trkpt>
      <trkpt lat="43.88259" lon="7.38311">
        <ele>1236</ele>
        <time>2013-05-11T12:25:26Z</time>
      </trkpt>
      <trkpt lat="43.88245" lon="7.38317">
        <ele>1236</ele>
        <time>2013-05-11T12:25:31Z</time>
      </trkpt>
      <trkpt lat="43.88241" lon="7.3832">
        <ele>1236</ele>
        <time>2013-05-11T12:25:40Z</time>
      </trkpt>
      <trkpt lat="43.88236" lon="7.38322">
        <ele>1237</ele>
        <time>2013-05-11T12:25:46Z</time>
      </trkpt>
      <trkpt lat="43.88231" lon="7.38325">
        <ele>1239</ele>
        <time>2013-05-11T12:25:52Z</time>
      </trkpt>
      <trkpt lat="43.88224" lon="7.38324">
        <ele>1240</ele>
        <time>2013-05-11T12:25:58Z</time>
      </trkpt>
      <trkpt lat="43.88219" lon="7.38324">
        <ele>1240</ele>
        <time>2013-05-11T12:26:04Z</time>
      </trkpt>
      <trkpt lat="43.88219" lon="7.38326">
        <ele>1241</ele>
        <time>2013-05-11T12:26:09Z</time>
      </trkpt>
      <trkpt lat="43.88216" lon="7.38328">
        <ele>1241</ele>
        <time>2013-05-11T12:26:15Z</time>
      </trkpt>
      <trkpt lat="43.88212" lon="7.38328">
        <ele>1241</ele>
        <time>2013-05-11T12:26:21Z</time>
      </trkpt>
      <trkpt lat="43.88208" lon="7.38331">
        <ele>1242</ele>
        <time>2013-05-11T12:26:27Z</time>
      </trkpt>
      <trkpt lat="43.88203" lon="7.38333">
        <ele>1243</ele>
        <time>2013-05-11T12:26:32Z</time>
      </trkpt>
      <trkpt lat="43.88194" lon="7.38333">
        <ele>1244</ele>
        <time>2013-05-11T12:26:37Z</time>
      </trkpt>
      <trkpt lat="43.88183" lon="7.38333">
        <ele>1244</ele>
        <time>2013-05-11T12:26:42Z</time>
      </trkpt>
      <trkpt lat="43.88167" lon="7.38334">
        <ele>1244</ele>
        <time>2013-05-11T12:26:47Z</time>
      </trkpt>
      <trkpt lat="43.88158" lon="7.38331">
        <ele>1244</ele>
        <time>2013-05-11T12:26:52Z</time>
      </trkpt>
      <trkpt lat="43.88149" lon="7.38329">
        <ele>1246</ele>
        <time>2013-05-11T12:26:57Z</time>
      </trkpt>
      <trkpt lat="43.88141" lon="7.38335">
        <ele>1247</ele>
        <time>2013-05-11T12:27:02Z</time>
      </trkpt>
      <trkpt lat="43.88133" lon="7.3834">
        <ele>1247</ele>
        <time>2013-05-11T12:27:07Z</time>
      </trkpt>
      <trkpt lat="43.88129" lon="7.38342">
        <ele>1248</ele>
        <time>2013-05-11T12:27:12Z</time>
      </trkpt>
      <trkpt lat="43.88126" lon="7.38342">
        <ele>1248</ele>
        <time>2013-05-11T12:27:17Z</time>
      </trkpt>
      <trkpt lat="43.88124" lon="7.38346">
        <ele>1249</ele>
        <time>2013-05-11T12:27:23Z</time>
      </trkpt>
      <trkpt lat="43.88122" lon="7.38348">
        <ele>1250</ele>
        <time>2013-05-11T12:27:28Z</time>
      </trkpt>
      <trkpt lat="43.88119" lon="7.3835">
        <ele>1251</ele>
        <time>2013-05-11T12:27:33Z</time>
      </trkpt>
      <trkpt lat="43.88115" lon="7.38349">
        <ele>1251</ele>
        <time>2013-05-11T12:27:40Z</time>
      </trkpt>
      <trkpt lat="43.88111" lon="7.38348">
        <ele>1251</ele>
        <time>2013-05-11T12:27:46Z</time>
      </trkpt>
      <trkpt lat="43.88107" lon="7.38345">
        <ele>1251</ele>
        <time>2013-05-11T12:27:52Z</time>
      </trkpt>
      <trkpt lat="43.88102" lon="7.38343">
        <ele>1251</ele>
        <time>2013-05-11T12:27:57Z</time>
      </trkpt>
      <trkpt lat="43.88097" lon="7.38342">
        <ele>1252</ele>
        <time>2013-05-11T12:28:03Z</time>
      </trkpt>
      <trkpt lat="43.88091" lon="7.38338">
        <ele>1252</ele>
        <time>2013-05-11T12:28:09Z</time>
      </trkpt>
      <trkpt lat="43.88086" lon="7.38336">
        <ele>1252</ele>
        <time>2013-05-11T12:28:15Z</time>
      </trkpt>
      <trkpt lat="43.88084" lon="7.38334">
        <ele>1253</ele>
        <time>2013-05-11T12:28:20Z</time>
      </trkpt>
      <trkpt lat="43.8808" lon="7.38331">
        <ele>1255</ele>
        <time>2013-05-11T12:28:27Z</time>
      </trkpt>
      <trkpt lat="43.88076" lon="7.3833">
        <ele>1256</ele>
        <time>2013-05-11T12:28:33Z</time>
      </trkpt>
      <trkpt lat="43.88072" lon="7.38327">
        <ele>1257</ele>
        <time>2013-05-11T12:28:39Z</time>
      </trkpt>
      <trkpt lat="43.88068" lon="7.38324">
        <ele>1259</ele>
        <time>2013-05-11T12:28:45Z</time>
      </trkpt>
      <trkpt lat="43.88066" lon="7.38321">
        <ele>1260</ele>
        <time>2013-05-11T12:28:50Z</time>
      </trkpt>
      <trkpt lat="43.88063" lon="7.38315">
        <ele>1260</ele>
        <time>2013-05-11T12:28:57Z</time>
      </trkpt>
      <trkpt lat="43.8806" lon="7.38313">
        <ele>1261</ele>
        <time>2013-05-11T12:29:03Z</time>
      </trkpt>
      <trkpt lat="43.88056" lon="7.38308">
        <ele>1261</ele>
        <time>2013-05-11T12:29:10Z</time>
      </trkpt>
      <trkpt lat="43.88052" lon="7.38302">
        <ele>1261</ele>
        <time>2013-05-11T12:29:17Z</time>
      </trkpt>
      <trkpt lat="43.88045" lon="7.38299">
        <ele>1261</ele>
        <time>2013-05-11T12:29:23Z</time>
      </trkpt>
      <trkpt lat="43.88042" lon="7.38296">
        <ele>1261</ele>
        <time>2013-05-11T12:29:28Z</time>
      </trkpt>
      <trkpt lat="43.88037" lon="7.38292">
        <ele>1261</ele>
        <time>2013-05-11T12:29:34Z</time>
      </trkpt>
      <trkpt lat="43.88032" lon="7.38288">
        <ele>1261</ele>
        <time>2013-05-11T12:29:40Z</time>
      </trkpt>
      <trkpt lat="43.88027" lon="7.38286">
        <ele>1262</ele>
        <time>2013-05-11T12:29:45Z</time>
      </trkpt>
      <trkpt lat="43.88022" lon="7.38284">
        <ele>1262</ele>
        <time>2013-05-11T12:29:50Z</time>
      </trkpt>
      <trkpt lat="43.88018" lon="7.3828">
        <ele>1262</ele>
        <time>2013-05-11T12:29:55Z</time>
      </trkpt>
      <trkpt lat="43.88015" lon="7.38279">
        <ele>1262</ele>
        <time>2013-05-11T12:30:00Z</time>
      </trkpt>
      <trkpt lat="43.8801" lon="7.38276">
        <ele>1262</ele>
        <time>2013-05-11T12:30:06Z</time>
      </trkpt>
      <trkpt lat="43.88005" lon="7.38272">
        <ele>1262</ele>
        <time>2013-05-11T12:30:12Z</time>
      </trkpt>
      <trkpt lat="43.88001" lon="7.38267">
        <ele>1262</ele>
        <time>2013-05-11T12:30:18Z</time>
      </trkpt>
      <trkpt lat="43.87999" lon="7.38261">
        <ele>1261</ele>
        <time>2013-05-11T12:30:23Z</time>
      </trkpt>
      <trkpt lat="43.87998" lon="7.38257">
        <ele>1259</ele>
        <time>2013-05-11T12:30:28Z</time>
      </trkpt>
      <trkpt lat="43.87993" lon="7.38251">
        <ele>1258</ele>
        <time>2013-05-11T12:30:34Z</time>
      </trkpt>
      <trkpt lat="43.8799" lon="7.38251">
        <ele>1258</ele>
        <time>2013-05-11T12:30:44Z</time>
      </trkpt>
      <trkpt lat="43.8799" lon="7.38249">
        <ele>1258</ele>
        <time>2013-05-11T12:30:51Z</time>
      </trkpt>
      <trkpt lat="43.8799" lon="7.38245">
        <ele>1258</ele>
        <time>2013-05-11T12:30:57Z</time>
      </trkpt>
      <trkpt lat="43.87991" lon="7.38241">
        <ele>1258</ele>
        <time>2013-05-11T12:31:05Z</time>
      </trkpt>
      <trkpt lat="43.8799" lon="7.3824">
        <ele>1258</ele>
        <time>2013-05-11T12:31:17Z</time>
      </trkpt>
      <trkpt lat="43.87988" lon="7.38239">
        <ele>1258</ele>
        <time>2013-05-11T12:31:25Z</time>
      </trkpt>
      <trkpt lat="43.87988" lon="7.38236">
        <ele>1258</ele>
        <time>2013-05-11T12:31:32Z</time>
      </trkpt>
      <trkpt lat="43.87989" lon="7.38235">
        <ele>1258</ele>
        <time>2013-05-11T12:31:39Z</time>
      </trkpt>
      <trkpt lat="43.87988" lon="7.38235">
        <ele>1255</ele>
        <time>2013-05-11T12:31:49Z</time>
      </trkpt>
      <trkpt lat="43.87988" lon="7.38232">
        <ele>1252</ele>
        <time>2013-05-11T12:31:54Z</time>
      </trkpt>
      <trkpt lat="43.87989" lon="7.38233">
        <ele>1251</ele>
        <time>2013-05-11T12:32:02Z</time>
      </trkpt>
      <trkpt lat="43.87987" lon="7.38237">
        <ele>1251</ele>
        <time>2013-05-11T12:32:08Z</time>
      </trkpt>
      <trkpt lat="43.87987" lon="7.38242">
        <ele>1251</ele>
        <time>2013-05-11T12:32:14Z</time>
      </trkpt>
      <trkpt lat="43.87987" lon="7.38247">
        <ele>1251</ele>
        <time>2013-05-11T12:32:21Z</time>
      </trkpt>
      <trkpt lat="43.87988" lon="7.38248">
        <ele>1251</ele>
        <time>2013-05-11T12:32:30Z</time>
      </trkpt>
      <trkpt lat="43.87988" lon="7.3825">
        <ele>1256</ele>
        <time>2013-05-11T12:33:07Z</time>
      </trkpt>
      <trkpt lat="43.8799" lon="7.3825">
        <ele>1256</ele>
        <time>2013-05-11T12:33:27Z</time>
      </trkpt>
      <trkpt lat="43.87988" lon="7.3825">
        <ele>1257</ele>
        <time>2013-05-11T12:33:55Z</time>
      </trkpt>
      <trkpt lat="43.87987" lon="7.38249">
        <ele>1258</ele>
        <time>2013-05-11T12:34:14Z</time>
      </trkpt>
      <trkpt lat="43.87986" lon="7.3825">
        <ele>1260</ele>
        <time>2013-05-11T12:34:55Z</time>
      </trkpt>
      <trkpt lat="43.87986" lon="7.38252">
        <ele>1260</ele>
        <time>2013-05-11T12:35:20Z</time>
      </trkpt>
      <trkpt lat="43.87987" lon="7.38251">
        <ele>1260</ele>
        <time>2013-05-11T12:36:07Z</time>
      </trkpt>
      <trkpt lat="43.87989" lon="7.38251">
        <ele>1260</ele>
        <time>2013-05-11T12:36:28Z</time>
      </trkpt>
      <trkpt lat="43.8799" lon="7.38249">
        <ele>1260</ele>
        <time>2013-05-11T12:36:36Z</time>
      </trkpt>
      <trkpt lat="43.8799" lon="7.38245">
        <ele>1260</ele>
        <time>2013-05-11T12:36:46Z</time>
      </trkpt>
      <trkpt lat="43.87991" lon="7.38243">
        <ele>1260</ele>
        <time>2013-05-11T12:36:51Z</time>
      </trkpt>
      <trkpt lat="43.87991" lon="7.3824">
        <ele>1257</ele>
        <time>2013-05-11T12:37:03Z</time>
      </trkpt>
      <trkpt lat="43.8799" lon="7.38235">
        <ele>1255</ele>
        <time>2013-05-11T12:37:08Z</time>
      </trkpt>
      <trkpt lat="43.87981" lon="7.38212">
        <ele>1255</ele>
        <time>2013-05-11T12:37:13Z</time>
      </trkpt>
      <trkpt lat="43.8797" lon="7.38187">
        <ele>1254</ele>
        <time>2013-05-11T12:37:18Z</time>
      </trkpt>
      <trkpt lat="43.87962" lon="7.3816">
        <ele>1252</ele>
        <time>2013-05-11T12:37:23Z</time>
      </trkpt>
      <trkpt lat="43.87949" lon="7.38126">
        <ele>1249</ele>
        <time>2013-05-11T12:37:28Z</time>
      </trkpt>
      <trkpt lat="43.87941" lon="7.38088">
        <ele>1247</ele>
        <time>2013-05-11T12:37:33Z</time>
      </trkpt>
      <trkpt lat="43.87939" lon="7.38052">
        <ele>1245</ele>
        <time>2013-05-11T12:37:38Z</time>
      </trkpt>
      <trkpt lat="43.87937" lon="7.3802">
        <ele>1240</ele>
        <time>2013-05-11T12:37:43Z</time>
      </trkpt>
      <trkpt lat="43.87934" lon="7.37986">
        <ele>1235</ele>
        <time>2013-05-11T12:37:48Z</time>
      </trkpt>
      <trkpt lat="43.87926" lon="7.37937">
        <ele>1229</ele>
        <time>2013-05-11T12:37:53Z</time>
      </trkpt>
      <trkpt lat="43.87919" lon="7.37883">
        <ele>1219</ele>
        <time>2013-05-11T12:37:58Z</time>
      </trkpt>
      <trkpt lat="43.87913" lon="7.37855">
        <ele>1211</ele>
        <time>2013-05-11T12:38:03Z</time>
      </trkpt>
      <trkpt lat="43.87899" lon="7.37813">
        <ele>1203</ele>
        <time>2013-05-11T12:38:08Z</time>
      </trkpt>
      <trkpt lat="43.87888" lon="7.3777">
        <ele>1196</ele>
        <time>2013-05-11T12:38:13Z</time>
      </trkpt>
      <trkpt lat="43.87878" lon="7.37721">
        <ele>1190</ele>
        <time>2013-05-11T12:38:18Z</time>
      </trkpt>
      <trkpt lat="43.87872" lon="7.37686">
        <ele>1185</ele>
        <time>2013-05-11T12:38:23Z</time>
      </trkpt>
      <trkpt lat="43.87867" lon="7.3767">
        <ele>1181</ele>
        <time>2013-05-11T12:38:28Z</time>
      </trkpt>
      <trkpt lat="43.87859" lon="7.37648">
        <ele>1181</ele>
        <time>2013-05-11T12:38:33Z</time>
      </trkpt>
      <trkpt lat="43.87847" lon="7.37614">
        <ele>1181</ele>
        <time>2013-05-11T12:38:38Z</time>
      </trkpt>
      <trkpt lat="43.87839" lon="7.37577">
        <ele>1179</ele>
        <time>2013-05-11T12:38:43Z</time>
      </trkpt>
      <trkpt lat="43.87833" lon="7.37554">
        <ele>1179</ele>
        <time>2013-05-11T12:38:48Z</time>
      </trkpt>
      <trkpt lat="43.87828" lon="7.3753">
        <ele>1179</ele>
        <time>2013-05-11T12:38:53Z</time>
      </trkpt>
      <trkpt lat="43.87824" lon="7.37507">
        <ele>1179</ele>
        <time>2013-05-11T12:38:58Z</time>
      </trkpt>
      <trkpt lat="43.87818" lon="7.37485">
        <ele>1179</ele>
        <time>2013-05-11T12:39:03Z</time>
      </trkpt>
      <trkpt lat="43.87814" lon="7.37458">
        <ele>1179</ele>
        <time>2013-05-11T12:39:08Z</time>
      </trkpt>
      <trkpt lat="43.87809" lon="7.37431">
        <ele>1179</ele>
        <time>2013-05-11T12:39:13Z</time>
      </trkpt>
      <trkpt lat="43.87804" lon="7.37403">
        <ele>1179</ele>
        <time>2013-05-11T12:39:18Z</time>
      </trkpt>
      <trkpt lat="43.87798" lon="7.37376">
        <ele>1179</ele>
        <time>2013-05-11T12:39:23Z</time>
      </trkpt>
      <trkpt lat="43.87793" lon="7.37355">
        <ele>1179</ele>
        <time>2013-05-11T12:39:28Z</time>
      </trkpt>
      <trkpt lat="43.87789" lon="7.37338">
        <ele>1179</ele>
        <time>2013-05-11T12:39:33Z</time>
      </trkpt>
      <trkpt lat="43.87787" lon="7.37323">
        <ele>1179</ele>
        <time>2013-05-11T12:39:38Z</time>
      </trkpt>
      <trkpt lat="43.87786" lon="7.37309">
        <ele>1180</ele>
        <time>2013-05-11T12:39:43Z</time>
      </trkpt>
      <trkpt lat="43.87784" lon="7.37292">
        <ele>1180</ele>
        <time>2013-05-11T12:39:48Z</time>
      </trkpt>
      <trkpt lat="43.87785" lon="7.3727">
        <ele>1181</ele>
        <time>2013-05-11T12:39:53Z</time>
      </trkpt>
      <trkpt lat="43.87783" lon="7.37251">
        <ele>1181</ele>
        <time>2013-05-11T12:39:58Z</time>
      </trkpt>
      <trkpt lat="43.87783" lon="7.37233">
        <ele>1181</ele>
        <time>2013-05-11T12:40:03Z</time>
      </trkpt>
      <trkpt lat="43.87782" lon="7.37218">
        <ele>1182</ele>
        <time>2013-05-11T12:40:08Z</time>
      </trkpt>
      <trkpt lat="43.87771" lon="7.37202">
        <ele>1182</ele>
        <time>2013-05-11T12:40:13Z</time>
      </trkpt>
      <trkpt lat="43.87767" lon="7.3717">
        <ele>1182</ele>
        <time>2013-05-11T12:40:18Z</time>
      </trkpt>
      <trkpt lat="43.87759" lon="7.37163">
        <ele>1182</ele>
        <time>2013-05-11T12:40:23Z</time>
      </trkpt>
      <trkpt lat="43.87742" lon="7.37139">
        <ele>1178</ele>
        <time>2013-05-11T12:40:28Z</time>
      </trkpt>
      <trkpt lat="43.8772" lon="7.37106">
        <ele>1173</ele>
        <time>2013-05-11T12:40:33Z</time>
      </trkpt>
      <trkpt lat="43.87691" lon="7.37082">
        <ele>1168</ele>
        <time>2013-05-11T12:40:38Z</time>
      </trkpt>
      <trkpt lat="43.87663" lon="7.3706">
        <ele>1165</ele>
        <time>2013-05-11T12:40:43Z</time>
      </trkpt>
      <trkpt lat="43.87639" lon="7.37064">
        <ele>1161</ele>
        <time>2013-05-11T12:40:48Z</time>
      </trkpt>
      <trkpt lat="43.87629" lon="7.37077">
        <ele>1157</ele>
        <time>2013-05-11T12:40:53Z</time>
      </trkpt>
      <trkpt lat="43.87623" lon="7.3708">
        <ele>1152</ele>
        <time>2013-05-11T12:40:58Z</time>
      </trkpt>
      <trkpt lat="43.87608" lon="7.37061">
        <ele>1147</ele>
        <time>2013-05-11T12:41:03Z</time>
      </trkpt>
      <trkpt lat="43.876" lon="7.37032">
        <ele>1145</ele>
        <time>2013-05-11T12:41:08Z</time>
      </trkpt>
      <trkpt lat="43.8759" lon="7.37005">
        <ele>1142</ele>
        <time>2013-05-11T12:41:13Z</time>
      </trkpt>
      <trkpt lat="43.87582" lon="7.36982">
        <ele>1139</ele>
        <time>2013-05-11T12:41:18Z</time>
      </trkpt>
      <trkpt lat="43.87584" lon="7.36967">
        <ele>1136</ele>
        <time>2013-05-11T12:41:24Z</time>
      </trkpt>
      <trkpt lat="43.87575" lon="7.36967">
        <ele>1134</ele>
        <time>2013-05-11T12:41:30Z</time>
      </trkpt>
      <trkpt lat="43.8758" lon="7.36954">
        <ele>1131</ele>
        <time>2013-05-11T12:41:35Z</time>
      </trkpt>
      <trkpt lat="43.87573" lon="7.36949">
        <ele>1129</ele>
        <time>2013-05-11T12:41:40Z</time>
      </trkpt>
      <trkpt lat="43.87572" lon="7.36951">
        <ele>1126</ele>
        <time>2013-05-11T12:41:45Z</time>
      </trkpt>
      <trkpt lat="43.87562" lon="7.36962">
        <ele>1123</ele>
        <time>2013-05-11T12:41:50Z</time>
      </trkpt>
      <trkpt lat="43.87557" lon="7.36956">
        <ele>1119</ele>
        <time>2013-05-11T12:41:55Z</time>
      </trkpt>
      <trkpt lat="43.87555" lon="7.36934">
        <ele>1116</ele>
        <time>2013-05-11T12:42:00Z</time>
      </trkpt>
      <trkpt lat="43.8756" lon="7.36912">
        <ele>1112</ele>
        <time>2013-05-11T12:42:05Z</time>
      </trkpt>
      <trkpt lat="43.87561" lon="7.36907">
        <ele>1108</ele>
        <time>2013-05-11T12:42:10Z</time>
      </trkpt>
      <trkpt lat="43.87547" lon="7.36912">
        <ele>1107</ele>
        <time>2013-05-11T12:42:15Z</time>
      </trkpt>
      <trkpt lat="43.87538" lon="7.36916">
        <ele>1104</ele>
        <time>2013-05-11T12:42:20Z</time>
      </trkpt>
      <trkpt lat="43.8754" lon="7.36889">
        <ele>1101</ele>
        <time>2013-05-11T12:42:25Z</time>
      </trkpt>
      <trkpt lat="43.87527" lon="7.36891">
        <ele>1096</ele>
        <time>2013-05-11T12:42:30Z</time>
      </trkpt>
      <trkpt lat="43.87525" lon="7.36867">
        <ele>1091</ele>
        <time>2013-05-11T12:42:35Z</time>
      </trkpt>
      <trkpt lat="43.87516" lon="7.36873">
        <ele>1087</ele>
        <time>2013-05-11T12:42:40Z</time>
      </trkpt>
      <trkpt lat="43.8751" lon="7.36858">
        <ele>1082</ele>
        <time>2013-05-11T12:42:45Z</time>
      </trkpt>
      <trkpt lat="43.87507" lon="7.36833">
        <ele>1077</ele>
        <time>2013-05-11T12:42:50Z</time>
      </trkpt>
      <trkpt lat="43.87497" lon="7.36843">
        <ele>1072</ele>
        <time>2013-05-11T12:42:55Z</time>
      </trkpt>
      <trkpt lat="43.87495" lon="7.36816">
        <ele>1067</ele>
        <time>2013-05-11T12:43:00Z</time>
      </trkpt>
      <trkpt lat="43.87494" lon="7.36806">
        <ele>1063</ele>
        <time>2013-05-11T12:43:05Z</time>
      </trkpt>
      <trkpt lat="43.87481" lon="7.36808">
        <ele>1058</ele>
        <time>2013-05-11T12:43:10Z</time>
      </trkpt>
      <trkpt lat="43.87485" lon="7.36791">
        <ele>1054</ele>
        <time>2013-05-11T12:43:15Z</time>
      </trkpt>
      <trkpt lat="43.87468" lon="7.3678">
        <ele>1051</ele>
        <time>2013-05-11T12:43:20Z</time>
      </trkpt>
      <trkpt lat="43.87451" lon="7.36805">
        <ele>1046</ele>
        <time>2013-05-11T12:43:25Z</time>
      </trkpt>
      <trkpt lat="43.87443" lon="7.3683">
        <ele>1041</ele>
        <time>2013-05-11T12:43:30Z</time>
      </trkpt>
      <trkpt lat="43.87441" lon="7.36844">
        <ele>1038</ele>
        <time>2013-05-11T12:43:35Z</time>
      </trkpt>
      <trkpt lat="43.87431" lon="7.36889">
        <ele>1034</ele>
        <time>2013-05-11T12:43:40Z</time>
      </trkpt>
      <trkpt lat="43.87421" lon="7.36946">
        <ele>1028</ele>
        <time>2013-05-11T12:43:46Z</time>
      </trkpt>
      <trkpt lat="43.87416" lon="7.36988">
        <ele>1023</ele>
        <time>2013-05-11T12:43:51Z</time>
      </trkpt>
      <trkpt lat="43.87416" lon="7.37011">
        <ele>1018</ele>
        <time>2013-05-11T12:43:56Z</time>
      </trkpt>
      <trkpt lat="43.87408" lon="7.37005">
        <ele>1013</ele>
        <time>2013-05-11T12:44:01Z</time>
      </trkpt>
      <trkpt lat="43.87398" lon="7.36965">
        <ele>1010</ele>
        <time>2013-05-11T12:44:07Z</time>
      </trkpt>
      <trkpt lat="43.87392" lon="7.36909">
        <ele>1007</ele>
        <time>2013-05-11T12:44:12Z</time>
      </trkpt>
      <trkpt lat="43.87386" lon="7.36839">
        <ele>1002</ele>
        <time>2013-05-11T12:44:17Z</time>
      </trkpt>
      <trkpt lat="43.87378" lon="7.3676">
        <ele>997</ele>
        <time>2013-05-11T12:44:22Z</time>
      </trkpt>
      <trkpt lat="43.8737" lon="7.36695">
        <ele>992</ele>
        <time>2013-05-11T12:44:27Z</time>
      </trkpt>
      <trkpt lat="43.87363" lon="7.36642">
        <ele>987</ele>
        <time>2013-05-11T12:44:32Z</time>
      </trkpt>
      <trkpt lat="43.87356" lon="7.36622">
        <ele>982</ele>
        <time>2013-05-11T12:44:37Z</time>
      </trkpt>
      <trkpt lat="43.87357" lon="7.36623">
        <ele>982</ele>
        <time>2013-05-11T12:44:44Z</time>
      </trkpt>
      <trkpt lat="43.87358" lon="7.36625">
        <ele>982</ele>
        <time>2013-05-11T12:44:52Z</time>
      </trkpt>
      <trkpt lat="43.87358" lon="7.36627">
        <ele>982</ele>
        <time>2013-05-11T12:45:01Z</time>
      </trkpt>
      <trkpt lat="43.87359" lon="7.36627">
        <ele>982</ele>
        <time>2013-05-11T12:45:16Z</time>
      </trkpt>
      <trkpt lat="43.87357" lon="7.36629">
        <ele>982</ele>
        <time>2013-05-11T12:45:28Z</time>
      </trkpt>
      <trkpt lat="43.87355" lon="7.36629">
        <ele>982</ele>
        <time>2013-05-11T12:45:48Z</time>
      </trkpt>
      <trkpt lat="43.87355" lon="7.36626">
        <ele>982</ele>
        <time>2013-05-11T12:45:56Z</time>
      </trkpt>
      <trkpt lat="43.87355" lon="7.36624">
        <ele>982</ele>
        <time>2013-05-11T12:46:15Z</time>
      </trkpt>
      <trkpt lat="43.87358" lon="7.36622">
        <ele>981</ele>
        <time>2013-05-11T12:46:21Z</time>
      </trkpt>
      <trkpt lat="43.87369" lon="7.3662">
        <ele>980</ele>
        <time>2013-05-11T12:46:26Z</time>
      </trkpt>
      <trkpt lat="43.87391" lon="7.3662">
        <ele>976</ele>
        <time>2013-05-11T12:46:31Z</time>
      </trkpt>
      <trkpt lat="43.874" lon="7.36623">
        <ele>972</ele>
        <time>2013-05-11T12:46:37Z</time>
      </trkpt>
      <trkpt lat="43.87421" lon="7.36621">
        <ele>969</ele>
        <time>2013-05-11T12:46:42Z</time>
      </trkpt>
      <trkpt lat="43.87439" lon="7.3661">
        <ele>965</ele>
        <time>2013-05-11T12:46:47Z</time>
      </trkpt>
      <trkpt lat="43.87453" lon="7.36606">
        <ele>961</ele>
        <time>2013-05-11T12:46:52Z</time>
      </trkpt>
      <trkpt lat="43.87467" lon="7.36612">
        <ele>956</ele>
        <time>2013-05-11T12:46:57Z</time>
      </trkpt>
      <trkpt lat="43.87482" lon="7.36586">
        <ele>952</ele>
        <time>2013-05-11T12:47:02Z</time>
      </trkpt>
      <trkpt lat="43.87485" lon="7.36568">
        <ele>947</ele>
        <time>2013-05-11T12:47:07Z</time>
      </trkpt>
      <trkpt lat="43.87489" lon="7.36554">
        <ele>942</ele>
        <time>2013-05-11T12:47:12Z</time>
      </trkpt>
      <trkpt lat="43.87501" lon="7.36534">
        <ele>936</ele>
        <time>2013-05-11T12:47:18Z</time>
      </trkpt>
      <trkpt lat="43.87516" lon="7.36514">
        <ele>931</ele>
        <time>2013-05-11T12:47:23Z</time>
      </trkpt>
      <trkpt lat="43.87534" lon="7.3649">
        <ele>927</ele>
        <time>2013-05-11T12:47:28Z</time>
      </trkpt>
      <trkpt lat="43.87558" lon="7.36459">
        <ele>922</ele>
        <time>2013-05-11T12:47:33Z</time>
      </trkpt>
      <trkpt lat="43.87589" lon="7.36439">
        <ele>919</ele>
        <time>2013-05-11T12:47:38Z</time>
      </trkpt>
      <trkpt lat="43.87608" lon="7.36436">
        <ele>918</ele>
        <time>2013-05-11T12:47:43Z</time>
      </trkpt>
      <trkpt lat="43.87636" lon="7.36458">
        <ele>915</ele>
        <time>2013-05-11T12:47:48Z</time>
      </trkpt>
      <trkpt lat="43.87671" lon="7.36502">
        <ele>911</ele>
        <time>2013-05-11T12:47:53Z</time>
      </trkpt>
      <trkpt lat="43.87718" lon="7.36523">
        <ele>906</ele>
        <time>2013-05-11T12:47:58Z</time>
      </trkpt>
      <trkpt lat="43.87761" lon="7.36537">
        <ele>901</ele>
        <time>2013-05-11T12:48:03Z</time>
      </trkpt>
      <trkpt lat="43.87805" lon="7.36558">
        <ele>896</ele>
        <time>2013-05-11T12:48:08Z</time>
      </trkpt>
      <trkpt lat="43.87841" lon="7.36583">
        <ele>891</ele>
        <time>2013-05-11T12:48:13Z</time>
      </trkpt>
      <trkpt lat="43.87878" lon="7.36598">
        <ele>883</ele>
        <time>2013-05-11T12:48:18Z</time>
      </trkpt>
      <trkpt lat="43.87906" lon="7.36614">
        <ele>874</ele>
        <time>2013-05-11T12:48:23Z</time>
      </trkpt>
      <trkpt lat="43.87933" lon="7.36618">
        <ele>866</ele>
        <time>2013-05-11T12:48:28Z</time>
      </trkpt>
      <trkpt lat="43.87934" lon="7.3664">
        <ele>858</ele>
        <time>2013-05-11T12:48:33Z</time>
      </trkpt>
      <trkpt lat="43.87929" lon="7.36657">
        <ele>850</ele>
        <time>2013-05-11T12:48:39Z</time>
      </trkpt>
      <trkpt lat="43.87938" lon="7.3667">
        <ele>848</ele>
        <time>2013-05-11T12:48:44Z</time>
      </trkpt>
      <trkpt lat="43.87961" lon="7.3669">
        <ele>845</ele>
        <time>2013-05-11T12:48:49Z</time>
      </trkpt>
      <trkpt lat="43.87972" lon="7.3669">
        <ele>843</ele>
        <time>2013-05-11T12:48:54Z</time>
      </trkpt>
      <trkpt lat="43.87968" lon="7.36684">
        <ele>843</ele>
        <time>2013-05-11T12:48:59Z</time>
      </trkpt>
      <trkpt lat="43.87968" lon="7.36681">
        <ele>843</ele>
        <time>2013-05-11T12:49:05Z</time>
      </trkpt>
      <trkpt lat="43.87973" lon="7.36684">
        <ele>841</ele>
        <time>2013-05-11T12:49:10Z</time>
      </trkpt>
      <trkpt lat="43.8799" lon="7.36687">
        <ele>837</ele>
        <time>2013-05-11T12:49:15Z</time>
      </trkpt>
      <trkpt lat="43.88017" lon="7.36693">
        <ele>832</ele>
        <time>2013-05-11T12:49:20Z</time>
      </trkpt>
      <trkpt lat="43.88034" lon="7.36683">
        <ele>827</ele>
        <time>2013-05-11T12:49:25Z</time>
      </trkpt>
      <trkpt lat="43.88049" lon="7.36667">
        <ele>824</ele>
        <time>2013-05-11T12:49:30Z</time>
      </trkpt>
      <trkpt lat="43.88067" lon="7.36657">
        <ele>820</ele>
        <time>2013-05-11T12:49:35Z</time>
      </trkpt>
      <trkpt lat="43.88099" lon="7.36664">
        <ele>816</ele>
        <time>2013-05-11T12:49:40Z</time>
      </trkpt>
      <trkpt lat="43.88118" lon="7.3666">
        <ele>813</ele>
        <time>2013-05-11T12:49:45Z</time>
      </trkpt>
      <trkpt lat="43.88133" lon="7.36648">
        <ele>808</ele>
        <time>2013-05-11T12:49:50Z</time>
      </trkpt>
      <trkpt lat="43.88137" lon="7.36631">
        <ele>803</ele>
        <time>2013-05-11T12:49:55Z</time>
      </trkpt>
      <trkpt lat="43.88145" lon="7.3663">
        <ele>798</ele>
        <time>2013-05-11T12:50:00Z</time>
      </trkpt>
      <trkpt lat="43.88143" lon="7.36622">
        <ele>793</ele>
        <time>2013-05-11T12:50:05Z</time>
      </trkpt>
      <trkpt lat="43.88154" lon="7.36615">
        <ele>788</ele>
        <time>2013-05-11T12:50:10Z</time>
      </trkpt>
      <trkpt lat="43.88165" lon="7.36609">
        <ele>783</ele>
        <time>2013-05-11T12:50:15Z</time>
      </trkpt>
      <trkpt lat="43.88165" lon="7.36598">
        <ele>780</ele>
        <time>2013-05-11T12:50:20Z</time>
      </trkpt>
      <trkpt lat="43.88184" lon="7.36594">
        <ele>778</ele>
        <time>2013-05-11T12:50:25Z</time>
      </trkpt>
      <trkpt lat="43.88204" lon="7.3658">
        <ele>775</ele>
        <time>2013-05-11T12:50:30Z</time>
      </trkpt>
      <trkpt lat="43.88201" lon="7.36567">
        <ele>771</ele>
        <time>2013-05-11T12:50:35Z</time>
      </trkpt>
      <trkpt lat="43.88208" lon="7.36552">
        <ele>770</ele>
        <time>2013-05-11T12:50:40Z</time>
      </trkpt>
      <trkpt lat="43.88222" lon="7.36544">
        <ele>767</ele>
        <time>2013-05-11T12:50:45Z</time>
      </trkpt>
      <trkpt lat="43.88235" lon="7.36527">
        <ele>763</ele>
        <time>2013-05-11T12:50:50Z</time>
      </trkpt>
      <trkpt lat="43.8825" lon="7.3651">
        <ele>758</ele>
        <time>2013-05-11T12:50:55Z</time>
      </trkpt>
      <trkpt lat="43.88263" lon="7.36484">
        <ele>753</ele>
        <time>2013-05-11T12:51:00Z</time>
      </trkpt>
      <trkpt lat="43.88279" lon="7.36463">
        <ele>748</ele>
        <time>2013-05-11T12:51:05Z</time>
      </trkpt>
      <trkpt lat="43.8829" lon="7.36443">
        <ele>743</ele>
        <time>2013-05-11T12:51:10Z</time>
      </trkpt>
      <trkpt lat="43.88299" lon="7.36425">
        <ele>738</ele>
        <time>2013-05-11T12:51:15Z</time>
      </trkpt>
      <trkpt lat="43.88288" lon="7.36401">
        <ele>733</ele>
        <time>2013-05-11T12:51:20Z</time>
      </trkpt>
      <trkpt lat="43.88289" lon="7.36374">
        <ele>728</ele>
        <time>2013-05-11T12:51:25Z</time>
      </trkpt>
      <trkpt lat="43.88298" lon="7.36344">
        <ele>723</ele>
        <time>2013-05-11T12:51:30Z</time>
      </trkpt>
      <trkpt lat="43.88304" lon="7.36317">
        <ele>717</ele>
        <time>2013-05-11T12:51:35Z</time>
      </trkpt>
      <trkpt lat="43.88306" lon="7.36303">
        <ele>709</ele>
        <time>2013-05-11T12:51:40Z</time>
      </trkpt>
      <trkpt lat="43.88312" lon="7.36296">
        <ele>703</ele>
        <time>2013-05-11T12:51:45Z</time>
      </trkpt>
      <trkpt lat="43.88308" lon="7.36284">
        <ele>698</ele>
        <time>2013-05-11T12:51:50Z</time>
      </trkpt>
      <trkpt lat="43.88328" lon="7.36279">
        <ele>693</ele>
        <time>2013-05-11T12:51:55Z</time>
      </trkpt>
      <trkpt lat="43.88349" lon="7.36288">
        <ele>688</ele>
        <time>2013-05-11T12:52:00Z</time>
      </trkpt>
      <trkpt lat="43.88363" lon="7.36308">
        <ele>683</ele>
        <time>2013-05-11T12:52:05Z</time>
      </trkpt>
      <trkpt lat="43.88369" lon="7.36312">
        <ele>678</ele>
        <time>2013-05-11T12:52:10Z</time>
      </trkpt>
      <trkpt lat="43.88372" lon="7.36271">
        <ele>672</ele>
        <time>2013-05-11T12:52:16Z</time>
      </trkpt>
      <trkpt lat="43.88375" lon="7.3624">
        <ele>667</ele>
        <time>2013-05-11T12:52:21Z</time>
      </trkpt>
      <trkpt lat="43.88379" lon="7.36222">
        <ele>664</ele>
        <time>2013-05-11T12:52:28Z</time>
      </trkpt>
      <trkpt lat="43.88377" lon="7.36217">
        <ele>664</ele>
        <time>2013-05-11T12:52:34Z</time>
      </trkpt>
      <trkpt lat="43.88374" lon="7.36216">
        <ele>664</ele>
        <time>2013-05-11T12:52:41Z</time>
      </trkpt>
      <trkpt lat="43.88369" lon="7.36212">
        <ele>665</ele>
        <time>2013-05-11T12:52:46Z</time>
      </trkpt>
      <trkpt lat="43.88365" lon="7.36209">
        <ele>671</ele>
        <time>2013-05-11T12:52:52Z</time>
      </trkpt>
      <trkpt lat="43.88362" lon="7.36206">
        <ele>677</ele>
        <time>2013-05-11T12:52:58Z</time>
      </trkpt>
      <trkpt lat="43.88356" lon="7.36202">
        <ele>683</ele>
        <time>2013-05-11T12:53:04Z</time>
      </trkpt>
      <trkpt lat="43.88349" lon="7.36197">
        <ele>688</ele>
        <time>2013-05-11T12:53:09Z</time>
      </trkpt>
      <trkpt lat="43.88344" lon="7.36189">
        <ele>694</ele>
        <time>2013-05-11T12:53:15Z</time>
      </trkpt>
      <trkpt lat="43.88344" lon="7.3618">
        <ele>695</ele>
        <time>2013-05-11T12:53:20Z</time>
      </trkpt>
      <trkpt lat="43.88344" lon="7.3617">
        <ele>691</ele>
        <time>2013-05-11T12:53:25Z</time>
      </trkpt>
      <trkpt lat="43.88342" lon="7.36164">
        <ele>686</ele>
        <time>2013-05-11T12:53:30Z</time>
      </trkpt>
      <trkpt lat="43.88348" lon="7.36152">
        <ele>682</ele>
        <time>2013-05-11T12:53:35Z</time>
      </trkpt>
      <trkpt lat="43.88358" lon="7.36143">
        <ele>680</ele>
        <time>2013-05-11T12:53:40Z</time>
      </trkpt>
      <trkpt lat="43.88371" lon="7.36159">
        <ele>676</ele>
        <time>2013-05-11T12:53:45Z</time>
      </trkpt>
      <trkpt lat="43.8839" lon="7.36165">
        <ele>673</ele>
        <time>2013-05-11T12:53:50Z</time>
      </trkpt>
      <trkpt lat="43.88394" lon="7.36156">
        <ele>673</ele>
        <time>2013-05-11T12:53:55Z</time>
      </trkpt>
      <trkpt lat="43.88397" lon="7.36158">
        <ele>669</ele>
        <time>2013-05-11T12:54:02Z</time>
      </trkpt>
      <trkpt lat="43.88404" lon="7.36175">
        <ele>666</ele>
        <time>2013-05-11T12:54:07Z</time>
      </trkpt>
      <trkpt lat="43.88414" lon="7.36168">
        <ele>665</ele>
        <time>2013-05-11T12:54:12Z</time>
      </trkpt>
      <trkpt lat="43.8842" lon="7.36151">
        <ele>665</ele>
        <time>2013-05-11T12:54:18Z</time>
      </trkpt>
      <trkpt lat="43.88429" lon="7.36147">
        <ele>669</ele>
        <time>2013-05-11T12:54:23Z</time>
      </trkpt>
      <trkpt lat="43.88435" lon="7.36135">
        <ele>671</ele>
        <time>2013-05-11T12:54:28Z</time>
      </trkpt>
      <trkpt lat="43.88435" lon="7.36128">
        <ele>676</ele>
        <time>2013-05-11T12:54:35Z</time>
      </trkpt>
      <trkpt lat="43.88436" lon="7.36127">
        <ele>682</ele>
        <time>2013-05-11T12:54:41Z</time>
      </trkpt>
      <trkpt lat="43.88427" lon="7.36132">
        <ele>683</ele>
        <time>2013-05-11T12:54:46Z</time>
      </trkpt>
      <trkpt lat="43.88419" lon="7.36136">
        <ele>682</ele>
        <time>2013-05-11T12:54:51Z</time>
      </trkpt>
      <trkpt lat="43.88398" lon="7.36129">
        <ele>677</ele>
        <time>2013-05-11T12:54:58Z</time>
      </trkpt>
      <trkpt lat="43.88379" lon="7.36116">
        <ele>671</ele>
        <time>2013-05-11T12:55:03Z</time>
      </trkpt>
      <trkpt lat="43.88374" lon="7.36089">
        <ele>664</ele>
        <time>2013-05-11T12:55:08Z</time>
      </trkpt>
      <trkpt lat="43.88377" lon="7.36069">
        <ele>657</ele>
        <time>2013-05-11T12:55:13Z</time>
      </trkpt>
      <trkpt lat="43.88408" lon="7.36068">
        <ele>655</ele>
        <time>2013-05-11T12:55:18Z</time>
      </trkpt>
      <trkpt lat="43.88413" lon="7.3607">
        <ele>655</ele>
        <time>2013-05-11T12:55:23Z</time>
      </trkpt>
      <trkpt lat="43.88396" lon="7.36078">
        <ele>658</ele>
        <time>2013-05-11T12:55:28Z</time>
      </trkpt>
      <trkpt lat="43.88382" lon="7.36081">
        <ele>665</ele>
        <time>2013-05-11T12:55:33Z</time>
      </trkpt>
      <trkpt lat="43.88376" lon="7.36081">
        <ele>670</ele>
        <time>2013-05-11T12:55:38Z</time>
      </trkpt>
      <trkpt lat="43.88372" lon="7.36079">
        <ele>677</ele>
        <time>2013-05-11T12:55:47Z</time>
      </trkpt>
    </trkseg>
  </trk>
</gpx>